<?xml version="1.0" encoding="UTF-8" standalone="no" ?>
<gpx xmlns="http://www.topografix.com/GPX/1/1" xmlns:xsi="http://www.w3.org/2001/XMLSchema-instance" xsi:schemaLocation="http://www.topografix.com/GPX/1/1 http://www.topografix.com/GPX/1/1/gpx.xsd" version="1.1" creator="VisuGPX - https://www.visugpx.com">
  <metadata>
    <name>Z'Accrobike d'Halloween 2022 🎃</name>
  </metadata>
  <trk>
    <name><![CDATA[Z'Accrobike d'Halloween 2022 🎃_1]]></name>
    <trkseg>
      <trkpt lat="45.05119" lon="0.39156">
        <ele>57.2</ele>
        <time>2022-10-29T17:33:59Z</time>
      </trkpt>
      <trkpt lat="45.05119" lon="0.39156">
        <ele>57.2</ele>
        <time>2022-10-29T17:34:00Z</time>
      </trkpt>
      <trkpt lat="45.05125" lon="0.39156">
        <ele>56.4</ele>
        <time>2022-10-29T17:34:05Z</time>
      </trkpt>
      <trkpt lat="45.05124" lon="0.39156">
        <ele>56.2</ele>
        <time>2022-10-29T17:34:06Z</time>
      </trkpt>
      <trkpt lat="45.05127" lon="0.39154">
        <ele>55.9</ele>
        <time>2022-10-29T17:34:07Z</time>
      </trkpt>
      <trkpt lat="45.05131" lon="0.39152">
        <ele>55.2</ele>
        <time>2022-10-29T17:34:09Z</time>
      </trkpt>
      <trkpt lat="45.05135" lon="0.39146">
        <ele>54.4</ele>
        <time>2022-10-29T17:34:11Z</time>
      </trkpt>
      <trkpt lat="45.05138" lon="0.39136">
        <ele>53.8</ele>
        <time>2022-10-29T17:34:13Z</time>
      </trkpt>
      <trkpt lat="45.05138" lon="0.39131">
        <ele>53.7</ele>
        <time>2022-10-29T17:34:14Z</time>
      </trkpt>
      <trkpt lat="45.05137" lon="0.39126">
        <ele>53.6</ele>
        <time>2022-10-29T17:34:15Z</time>
      </trkpt>
      <trkpt lat="45.05135" lon="0.39118">
        <ele>53.5</ele>
        <time>2022-10-29T17:34:17Z</time>
      </trkpt>
      <trkpt lat="45.05138" lon="0.39109">
        <ele>53.4</ele>
        <time>2022-10-29T17:34:18Z</time>
      </trkpt>
      <trkpt lat="45.0514" lon="0.39103">
        <ele>53.3</ele>
        <time>2022-10-29T17:34:19Z</time>
      </trkpt>
      <trkpt lat="45.05146" lon="0.39104">
        <ele>53.3</ele>
        <time>2022-10-29T17:34:21Z</time>
      </trkpt>
      <trkpt lat="45.05149" lon="0.39104">
        <ele>53.2</ele>
        <time>2022-10-29T17:34:22Z</time>
      </trkpt>
      <trkpt lat="45.05153" lon="0.39104">
        <ele>53.2</ele>
        <time>2022-10-29T17:34:23Z</time>
      </trkpt>
      <trkpt lat="45.05162" lon="0.39107">
        <ele>53.1</ele>
        <time>2022-10-29T17:34:25Z</time>
      </trkpt>
      <trkpt lat="45.05167" lon="0.39109">
        <ele>53.1</ele>
        <time>2022-10-29T17:34:26Z</time>
      </trkpt>
      <trkpt lat="45.05171" lon="0.39111">
        <ele>53</ele>
        <time>2022-10-29T17:34:27Z</time>
      </trkpt>
      <trkpt lat="45.05176" lon="0.39113">
        <ele>53</ele>
        <time>2022-10-29T17:34:28Z</time>
      </trkpt>
      <trkpt lat="45.05181" lon="0.39114">
        <ele>52.9</ele>
        <time>2022-10-29T17:34:29Z</time>
      </trkpt>
      <trkpt lat="45.05191" lon="0.39118">
        <ele>52.8</ele>
        <time>2022-10-29T17:34:31Z</time>
      </trkpt>
      <trkpt lat="45.05201" lon="0.39124">
        <ele>52.7</ele>
        <time>2022-10-29T17:34:33Z</time>
      </trkpt>
      <trkpt lat="45.05204" lon="0.39129">
        <ele>52.7</ele>
        <time>2022-10-29T17:34:34Z</time>
      </trkpt>
      <trkpt lat="45.05205" lon="0.39135">
        <ele>52.7</ele>
        <time>2022-10-29T17:34:35Z</time>
      </trkpt>
      <trkpt lat="45.05205" lon="0.39149">
        <ele>52.6</ele>
        <time>2022-10-29T17:34:37Z</time>
      </trkpt>
      <trkpt lat="45.05205" lon="0.39164">
        <ele>52.5</ele>
        <time>2022-10-29T17:34:39Z</time>
      </trkpt>
      <trkpt lat="45.05205" lon="0.39179">
        <ele>52.4</ele>
        <time>2022-10-29T17:34:41Z</time>
      </trkpt>
      <trkpt lat="45.05204" lon="0.39194">
        <ele>52.3</ele>
        <time>2022-10-29T17:34:43Z</time>
      </trkpt>
      <trkpt lat="45.05204" lon="0.39201">
        <ele>52.2</ele>
        <time>2022-10-29T17:34:44Z</time>
      </trkpt>
      <trkpt lat="45.05204" lon="0.39209">
        <ele>52.2</ele>
        <time>2022-10-29T17:34:45Z</time>
      </trkpt>
      <trkpt lat="45.05204" lon="0.39216">
        <ele>52.1</ele>
        <time>2022-10-29T17:34:46Z</time>
      </trkpt>
      <trkpt lat="45.05204" lon="0.39223">
        <ele>52.1</ele>
        <time>2022-10-29T17:34:47Z</time>
      </trkpt>
      <trkpt lat="45.05204" lon="0.39229">
        <ele>52.1</ele>
        <time>2022-10-29T17:34:48Z</time>
      </trkpt>
      <trkpt lat="45.05204" lon="0.39236">
        <ele>52</ele>
        <time>2022-10-29T17:34:49Z</time>
      </trkpt>
      <trkpt lat="45.05206" lon="0.39248">
        <ele>51.9</ele>
        <time>2022-10-29T17:34:51Z</time>
      </trkpt>
      <trkpt lat="45.05208" lon="0.3926">
        <ele>51.8</ele>
        <time>2022-10-29T17:34:53Z</time>
      </trkpt>
      <trkpt lat="45.05209" lon="0.39273">
        <ele>51.8</ele>
        <time>2022-10-29T17:34:55Z</time>
      </trkpt>
      <trkpt lat="45.0521" lon="0.39286">
        <ele>51.7</ele>
        <time>2022-10-29T17:34:57Z</time>
      </trkpt>
      <trkpt lat="45.0521" lon="0.393">
        <ele>51.6</ele>
        <time>2022-10-29T17:34:59Z</time>
      </trkpt>
      <trkpt lat="45.05211" lon="0.39314">
        <ele>51.5</ele>
        <time>2022-10-29T17:35:01Z</time>
      </trkpt>
      <trkpt lat="45.05212" lon="0.3932">
        <ele>51.5</ele>
        <time>2022-10-29T17:35:02Z</time>
      </trkpt>
      <trkpt lat="45.05212" lon="0.39326">
        <ele>51.4</ele>
        <time>2022-10-29T17:35:03Z</time>
      </trkpt>
      <trkpt lat="45.05213" lon="0.39337">
        <ele>51.4</ele>
        <time>2022-10-29T17:35:05Z</time>
      </trkpt>
      <trkpt lat="45.05214" lon="0.39346">
        <ele>51.3</ele>
        <time>2022-10-29T17:35:07Z</time>
      </trkpt>
      <trkpt lat="45.05214" lon="0.39349">
        <ele>51.3</ele>
        <time>2022-10-29T17:35:09Z</time>
      </trkpt>
      <trkpt lat="45.05214" lon="0.39353">
        <ele>51.3</ele>
        <time>2022-10-29T17:35:18Z</time>
      </trkpt>
      <trkpt lat="45.05215" lon="0.39356">
        <ele>51.2</ele>
        <time>2022-10-29T17:35:19Z</time>
      </trkpt>
      <trkpt lat="45.05215" lon="0.39365">
        <ele>51.2</ele>
        <time>2022-10-29T17:35:21Z</time>
      </trkpt>
      <trkpt lat="45.05216" lon="0.39375">
        <ele>51.1</ele>
        <time>2022-10-29T17:35:23Z</time>
      </trkpt>
      <trkpt lat="45.05216" lon="0.3938">
        <ele>51.1</ele>
        <time>2022-10-29T17:35:24Z</time>
      </trkpt>
      <trkpt lat="45.05216" lon="0.39386">
        <ele>51</ele>
        <time>2022-10-29T17:35:25Z</time>
      </trkpt>
      <trkpt lat="45.05216" lon="0.39397">
        <ele>51</ele>
        <time>2022-10-29T17:35:27Z</time>
      </trkpt>
      <trkpt lat="45.05216" lon="0.39409">
        <ele>50.9</ele>
        <time>2022-10-29T17:35:29Z</time>
      </trkpt>
      <trkpt lat="45.05216" lon="0.39415">
        <ele>50.9</ele>
        <time>2022-10-29T17:35:30Z</time>
      </trkpt>
      <trkpt lat="45.05216" lon="0.39421">
        <ele>50.8</ele>
        <time>2022-10-29T17:35:31Z</time>
      </trkpt>
      <trkpt lat="45.05215" lon="0.39434">
        <ele>50.7</ele>
        <time>2022-10-29T17:35:33Z</time>
      </trkpt>
      <trkpt lat="45.05215" lon="0.39446">
        <ele>50.7</ele>
        <time>2022-10-29T17:35:35Z</time>
      </trkpt>
      <trkpt lat="45.05214" lon="0.39459">
        <ele>50.6</ele>
        <time>2022-10-29T17:35:37Z</time>
      </trkpt>
      <trkpt lat="45.05214" lon="0.39465">
        <ele>50.5</ele>
        <time>2022-10-29T17:35:38Z</time>
      </trkpt>
      <trkpt lat="45.05214" lon="0.39472">
        <ele>50.5</ele>
        <time>2022-10-29T17:35:39Z</time>
      </trkpt>
      <trkpt lat="45.05213" lon="0.39484">
        <ele>50.4</ele>
        <time>2022-10-29T17:35:41Z</time>
      </trkpt>
      <trkpt lat="45.05213" lon="0.39497">
        <ele>50.3</ele>
        <time>2022-10-29T17:35:43Z</time>
      </trkpt>
      <trkpt lat="45.05212" lon="0.3951">
        <ele>50.4</ele>
        <time>2022-10-29T17:35:45Z</time>
      </trkpt>
      <trkpt lat="45.05211" lon="0.39522">
        <ele>51.1</ele>
        <time>2022-10-29T17:35:47Z</time>
      </trkpt>
      <trkpt lat="45.05211" lon="0.39529">
        <ele>51.5</ele>
        <time>2022-10-29T17:35:48Z</time>
      </trkpt>
      <trkpt lat="45.0521" lon="0.39535">
        <ele>51.8</ele>
        <time>2022-10-29T17:35:49Z</time>
      </trkpt>
      <trkpt lat="45.05209" lon="0.39546">
        <ele>52.5</ele>
        <time>2022-10-29T17:35:51Z</time>
      </trkpt>
      <trkpt lat="45.05209" lon="0.39552">
        <ele>52.9</ele>
        <time>2022-10-29T17:35:52Z</time>
      </trkpt>
      <trkpt lat="45.05208" lon="0.39557">
        <ele>53.2</ele>
        <time>2022-10-29T17:35:53Z</time>
      </trkpt>
      <trkpt lat="45.05206" lon="0.39569">
        <ele>53.8</ele>
        <time>2022-10-29T17:35:55Z</time>
      </trkpt>
      <trkpt lat="45.05205" lon="0.39574">
        <ele>54.1</ele>
        <time>2022-10-29T17:35:56Z</time>
      </trkpt>
      <trkpt lat="45.05204" lon="0.3958">
        <ele>54.4</ele>
        <time>2022-10-29T17:35:57Z</time>
      </trkpt>
      <trkpt lat="45.05202" lon="0.39592">
        <ele>55.2</ele>
        <time>2022-10-29T17:35:59Z</time>
      </trkpt>
      <trkpt lat="45.05199" lon="0.39598">
        <ele>55.7</ele>
        <time>2022-10-29T17:36:00Z</time>
      </trkpt>
      <trkpt lat="45.05197" lon="0.39603">
        <ele>56.1</ele>
        <time>2022-10-29T17:36:01Z</time>
      </trkpt>
      <trkpt lat="45.05194" lon="0.39608">
        <ele>56.6</ele>
        <time>2022-10-29T17:36:02Z</time>
      </trkpt>
      <trkpt lat="45.05191" lon="0.39613">
        <ele>57.1</ele>
        <time>2022-10-29T17:36:03Z</time>
      </trkpt>
      <trkpt lat="45.05187" lon="0.39617">
        <ele>57.7</ele>
        <time>2022-10-29T17:36:04Z</time>
      </trkpt>
      <trkpt lat="45.05184" lon="0.3962">
        <ele>58.3</ele>
        <time>2022-10-29T17:36:05Z</time>
      </trkpt>
      <trkpt lat="45.05178" lon="0.39627">
        <ele>59.3</ele>
        <time>2022-10-29T17:36:07Z</time>
      </trkpt>
      <trkpt lat="45.05173" lon="0.39634">
        <ele>60.3</ele>
        <time>2022-10-29T17:36:09Z</time>
      </trkpt>
      <trkpt lat="45.05167" lon="0.39641">
        <ele>61.1</ele>
        <time>2022-10-29T17:36:11Z</time>
      </trkpt>
      <trkpt lat="45.05164" lon="0.39644">
        <ele>61.1</ele>
        <time>2022-10-29T17:36:12Z</time>
      </trkpt>
      <trkpt lat="45.05162" lon="0.39646">
        <ele>61.1</ele>
        <time>2022-10-29T17:36:13Z</time>
      </trkpt>
      <trkpt lat="45.05152" lon="0.39645">
        <ele>61.6</ele>
        <time>2022-10-29T17:36:15Z</time>
      </trkpt>
      <trkpt lat="45.0515" lon="0.3964">
        <ele>62</ele>
        <time>2022-10-29T17:36:17Z</time>
      </trkpt>
      <trkpt lat="45.05149" lon="0.39636">
        <ele>62.3</ele>
        <time>2022-10-29T17:36:19Z</time>
      </trkpt>
      <trkpt lat="45.05148" lon="0.39634">
        <ele>62.5</ele>
        <time>2022-10-29T17:36:20Z</time>
      </trkpt>
      <trkpt lat="45.05147" lon="0.39631">
        <ele>62.7</ele>
        <time>2022-10-29T17:36:21Z</time>
      </trkpt>
      <trkpt lat="45.05146" lon="0.39626">
        <ele>63</ele>
        <time>2022-10-29T17:36:23Z</time>
      </trkpt>
      <trkpt lat="45.05144" lon="0.3962">
        <ele>63.3</ele>
        <time>2022-10-29T17:36:25Z</time>
      </trkpt>
      <trkpt lat="45.05142" lon="0.39614">
        <ele>63.5</ele>
        <time>2022-10-29T17:36:27Z</time>
      </trkpt>
      <trkpt lat="45.0514" lon="0.39608">
        <ele>63.5</ele>
        <time>2022-10-29T17:36:29Z</time>
      </trkpt>
      <trkpt lat="45.05139" lon="0.39603">
        <ele>63.5</ele>
        <time>2022-10-29T17:36:31Z</time>
      </trkpt>
      <trkpt lat="45.05139" lon="0.39601">
        <ele>63.4</ele>
        <time>2022-10-29T17:36:32Z</time>
      </trkpt>
      <trkpt lat="45.05139" lon="0.39599">
        <ele>63.4</ele>
        <time>2022-10-29T17:36:33Z</time>
      </trkpt>
      <trkpt lat="45.05139" lon="0.39592">
        <ele>63.1</ele>
        <time>2022-10-29T17:36:35Z</time>
      </trkpt>
      <trkpt lat="45.05138" lon="0.39583">
        <ele>62.7</ele>
        <time>2022-10-29T17:36:37Z</time>
      </trkpt>
      <trkpt lat="45.05137" lon="0.3958">
        <ele>62.4</ele>
        <time>2022-10-29T17:36:38Z</time>
      </trkpt>
      <trkpt lat="45.05135" lon="0.39576">
        <ele>62.2</ele>
        <time>2022-10-29T17:36:39Z</time>
      </trkpt>
      <trkpt lat="45.05137" lon="0.39568">
        <ele>62.3</ele>
        <time>2022-10-29T17:36:41Z</time>
      </trkpt>
      <trkpt lat="45.05137" lon="0.39564">
        <ele>62.2</ele>
        <time>2022-10-29T17:36:42Z</time>
      </trkpt>
      <trkpt lat="45.05143" lon="0.39557">
        <ele>61.8</ele>
        <time>2022-10-29T17:36:43Z</time>
      </trkpt>
      <trkpt lat="45.05149" lon="0.39555">
        <ele>61.5</ele>
        <time>2022-10-29T17:36:44Z</time>
      </trkpt>
      <trkpt lat="45.0516" lon="0.39551">
        <ele>60.7</ele>
        <time>2022-10-29T17:36:45Z</time>
      </trkpt>
      <trkpt lat="45.05165" lon="0.39552">
        <ele>60.4</ele>
        <time>2022-10-29T17:36:46Z</time>
      </trkpt>
      <trkpt lat="45.05171" lon="0.39553">
        <ele>60</ele>
        <time>2022-10-29T17:36:47Z</time>
      </trkpt>
      <trkpt lat="45.05185" lon="0.39554">
        <ele>59.3</ele>
        <time>2022-10-29T17:36:49Z</time>
      </trkpt>
      <trkpt lat="45.052" lon="0.39555">
        <ele>58.9</ele>
        <time>2022-10-29T17:36:51Z</time>
      </trkpt>
      <trkpt lat="45.05215" lon="0.39557">
        <ele>58.7</ele>
        <time>2022-10-29T17:36:53Z</time>
      </trkpt>
      <trkpt lat="45.0523" lon="0.39559">
        <ele>58.4</ele>
        <time>2022-10-29T17:36:55Z</time>
      </trkpt>
      <trkpt lat="45.05245" lon="0.39561">
        <ele>58.2</ele>
        <time>2022-10-29T17:36:57Z</time>
      </trkpt>
      <trkpt lat="45.05259" lon="0.39563">
        <ele>58</ele>
        <time>2022-10-29T17:36:59Z</time>
      </trkpt>
      <trkpt lat="45.05273" lon="0.39565">
        <ele>57.8</ele>
        <time>2022-10-29T17:37:01Z</time>
      </trkpt>
      <trkpt lat="45.05287" lon="0.39566">
        <ele>57.4</ele>
        <time>2022-10-29T17:37:03Z</time>
      </trkpt>
      <trkpt lat="45.05301" lon="0.39568">
        <ele>56.8</ele>
        <time>2022-10-29T17:37:05Z</time>
      </trkpt>
      <trkpt lat="45.05309" lon="0.39569">
        <ele>56.6</ele>
        <time>2022-10-29T17:37:06Z</time>
      </trkpt>
      <trkpt lat="45.05317" lon="0.3957">
        <ele>56.3</ele>
        <time>2022-10-29T17:37:07Z</time>
      </trkpt>
      <trkpt lat="45.05333" lon="0.39571">
        <ele>55.7</ele>
        <time>2022-10-29T17:37:09Z</time>
      </trkpt>
      <trkpt lat="45.05348" lon="0.39573">
        <ele>55.2</ele>
        <time>2022-10-29T17:37:11Z</time>
      </trkpt>
      <trkpt lat="45.05355" lon="0.39574">
        <ele>55</ele>
        <time>2022-10-29T17:37:12Z</time>
      </trkpt>
      <trkpt lat="45.05359" lon="0.39574">
        <ele>54.8</ele>
        <time>2022-10-29T17:37:13Z</time>
      </trkpt>
      <trkpt lat="45.05361" lon="0.39579">
        <ele>54.7</ele>
        <time>2022-10-29T17:37:14Z</time>
      </trkpt>
      <trkpt lat="45.05359" lon="0.39584">
        <ele>54.6</ele>
        <time>2022-10-29T17:37:15Z</time>
      </trkpt>
      <trkpt lat="45.05357" lon="0.39574">
        <ele>54.4</ele>
        <time>2022-10-29T17:37:17Z</time>
      </trkpt>
      <trkpt lat="45.05349" lon="0.39573">
        <ele>54.1</ele>
        <time>2022-10-29T17:37:19Z</time>
      </trkpt>
      <trkpt lat="45.05346" lon="0.39573">
        <ele>53.7</ele>
        <time>2022-10-29T17:37:20Z</time>
      </trkpt>
      <trkpt lat="45.05343" lon="0.3958">
        <ele>53.4</ele>
        <time>2022-10-29T17:37:21Z</time>
      </trkpt>
      <trkpt lat="45.05342" lon="0.39588">
        <ele>52.9</ele>
        <time>2022-10-29T17:37:22Z</time>
      </trkpt>
      <trkpt lat="45.05341" lon="0.39604">
        <ele>52.4</ele>
        <time>2022-10-29T17:37:23Z</time>
      </trkpt>
      <trkpt lat="45.05341" lon="0.39609">
        <ele>52.1</ele>
        <time>2022-10-29T17:37:24Z</time>
      </trkpt>
      <trkpt lat="45.05341" lon="0.39615">
        <ele>51.7</ele>
        <time>2022-10-29T17:37:25Z</time>
      </trkpt>
      <trkpt lat="45.05341" lon="0.39627">
        <ele>51.1</ele>
        <time>2022-10-29T17:37:27Z</time>
      </trkpt>
      <trkpt lat="45.05341" lon="0.39641">
        <ele>50.5</ele>
        <time>2022-10-29T17:37:29Z</time>
      </trkpt>
      <trkpt lat="45.05338" lon="0.39651">
        <ele>50.1</ele>
        <time>2022-10-29T17:37:31Z</time>
      </trkpt>
      <trkpt lat="45.05339" lon="0.39659">
        <ele>49.5</ele>
        <time>2022-10-29T17:37:32Z</time>
      </trkpt>
      <trkpt lat="45.05336" lon="0.39659">
        <ele>49.4</ele>
        <time>2022-10-29T17:37:33Z</time>
      </trkpt>
      <trkpt lat="45.05327" lon="0.39659">
        <ele>49.2</ele>
        <time>2022-10-29T17:37:35Z</time>
      </trkpt>
      <trkpt lat="45.05323" lon="0.39658">
        <ele>49.2</ele>
        <time>2022-10-29T17:37:36Z</time>
      </trkpt>
      <trkpt lat="45.05318" lon="0.39658">
        <ele>49.1</ele>
        <time>2022-10-29T17:37:37Z</time>
      </trkpt>
      <trkpt lat="45.05308" lon="0.39657">
        <ele>49.2</ele>
        <time>2022-10-29T17:37:39Z</time>
      </trkpt>
      <trkpt lat="45.05299" lon="0.39656">
        <ele>49.4</ele>
        <time>2022-10-29T17:37:41Z</time>
      </trkpt>
      <trkpt lat="45.05295" lon="0.39655">
        <ele>49.5</ele>
        <time>2022-10-29T17:37:42Z</time>
      </trkpt>
      <trkpt lat="45.05291" lon="0.39655">
        <ele>49.5</ele>
        <time>2022-10-29T17:37:43Z</time>
      </trkpt>
      <trkpt lat="45.05285" lon="0.39654">
        <ele>49.6</ele>
        <time>2022-10-29T17:37:45Z</time>
      </trkpt>
      <trkpt lat="45.05283" lon="0.39656">
        <ele>49.6</ele>
        <time>2022-10-29T17:37:46Z</time>
      </trkpt>
      <trkpt lat="45.05281" lon="0.39659">
        <ele>49.6</ele>
        <time>2022-10-29T17:37:47Z</time>
      </trkpt>
      <trkpt lat="45.05272" lon="0.39669">
        <ele>49.5</ele>
        <time>2022-10-29T17:37:49Z</time>
      </trkpt>
      <trkpt lat="45.0527" lon="0.39682">
        <ele>49.5</ele>
        <time>2022-10-29T17:37:51Z</time>
      </trkpt>
      <trkpt lat="45.0527" lon="0.39689">
        <ele>49.5</ele>
        <time>2022-10-29T17:37:52Z</time>
      </trkpt>
      <trkpt lat="45.05269" lon="0.39695">
        <ele>49.5</ele>
        <time>2022-10-29T17:37:53Z</time>
      </trkpt>
      <trkpt lat="45.05268" lon="0.39702">
        <ele>49.6</ele>
        <time>2022-10-29T17:37:54Z</time>
      </trkpt>
      <trkpt lat="45.05267" lon="0.39708">
        <ele>49.6</ele>
        <time>2022-10-29T17:37:55Z</time>
      </trkpt>
      <trkpt lat="45.05266" lon="0.39722">
        <ele>49.7</ele>
        <time>2022-10-29T17:37:57Z</time>
      </trkpt>
      <trkpt lat="45.05265" lon="0.39729">
        <ele>49.7</ele>
        <time>2022-10-29T17:37:58Z</time>
      </trkpt>
      <trkpt lat="45.05264" lon="0.39736">
        <ele>49.7</ele>
        <time>2022-10-29T17:37:59Z</time>
      </trkpt>
      <trkpt lat="45.05264" lon="0.39742">
        <ele>49.6</ele>
        <time>2022-10-29T17:38:00Z</time>
      </trkpt>
      <trkpt lat="45.05263" lon="0.39749">
        <ele>49.6</ele>
        <time>2022-10-29T17:38:01Z</time>
      </trkpt>
      <trkpt lat="45.05261" lon="0.39762">
        <ele>49.5</ele>
        <time>2022-10-29T17:38:03Z</time>
      </trkpt>
      <trkpt lat="45.0526" lon="0.39775">
        <ele>49.4</ele>
        <time>2022-10-29T17:38:05Z</time>
      </trkpt>
      <trkpt lat="45.05258" lon="0.39792">
        <ele>49.4</ele>
        <time>2022-10-29T17:38:07Z</time>
      </trkpt>
      <trkpt lat="45.05256" lon="0.39808">
        <ele>49.3</ele>
        <time>2022-10-29T17:38:09Z</time>
      </trkpt>
      <trkpt lat="45.05255" lon="0.39816">
        <ele>49.3</ele>
        <time>2022-10-29T17:38:10Z</time>
      </trkpt>
      <trkpt lat="45.05255" lon="0.39825">
        <ele>49.4</ele>
        <time>2022-10-29T17:38:11Z</time>
      </trkpt>
      <trkpt lat="45.05254" lon="0.3984">
        <ele>49.4</ele>
        <time>2022-10-29T17:38:13Z</time>
      </trkpt>
      <trkpt lat="45.05254" lon="0.39856">
        <ele>49.5</ele>
        <time>2022-10-29T17:38:15Z</time>
      </trkpt>
      <trkpt lat="45.05253" lon="0.3987">
        <ele>49.5</ele>
        <time>2022-10-29T17:38:17Z</time>
      </trkpt>
      <trkpt lat="45.05253" lon="0.39879">
        <ele>49.5</ele>
        <time>2022-10-29T17:38:18Z</time>
      </trkpt>
      <trkpt lat="45.05253" lon="0.39888">
        <ele>49.6</ele>
        <time>2022-10-29T17:38:19Z</time>
      </trkpt>
      <trkpt lat="45.05254" lon="0.39907">
        <ele>49.6</ele>
        <time>2022-10-29T17:38:21Z</time>
      </trkpt>
      <trkpt lat="45.05254" lon="0.39926">
        <ele>49.6</ele>
        <time>2022-10-29T17:38:23Z</time>
      </trkpt>
      <trkpt lat="45.05255" lon="0.39934">
        <ele>49.6</ele>
        <time>2022-10-29T17:38:24Z</time>
      </trkpt>
      <trkpt lat="45.05255" lon="0.39944">
        <ele>49.6</ele>
        <time>2022-10-29T17:38:25Z</time>
      </trkpt>
      <trkpt lat="45.05256" lon="0.39952">
        <ele>49.6</ele>
        <time>2022-10-29T17:38:26Z</time>
      </trkpt>
      <trkpt lat="45.05257" lon="0.3996">
        <ele>49.6</ele>
        <time>2022-10-29T17:38:27Z</time>
      </trkpt>
      <trkpt lat="45.0526" lon="0.39977">
        <ele>49.6</ele>
        <time>2022-10-29T17:38:29Z</time>
      </trkpt>
      <trkpt lat="45.05261" lon="0.39985">
        <ele>49.6</ele>
        <time>2022-10-29T17:38:30Z</time>
      </trkpt>
      <trkpt lat="45.05262" lon="0.39993">
        <ele>49.6</ele>
        <time>2022-10-29T17:38:31Z</time>
      </trkpt>
      <trkpt lat="45.05264" lon="0.40009">
        <ele>49.6</ele>
        <time>2022-10-29T17:38:33Z</time>
      </trkpt>
      <trkpt lat="45.05266" lon="0.40025">
        <ele>49.7</ele>
        <time>2022-10-29T17:38:35Z</time>
      </trkpt>
      <trkpt lat="45.05268" lon="0.4004">
        <ele>49.7</ele>
        <time>2022-10-29T17:38:37Z</time>
      </trkpt>
      <trkpt lat="45.05269" lon="0.40049">
        <ele>49.8</ele>
        <time>2022-10-29T17:38:38Z</time>
      </trkpt>
      <trkpt lat="45.0527" lon="0.40056">
        <ele>49.9</ele>
        <time>2022-10-29T17:38:39Z</time>
      </trkpt>
      <trkpt lat="45.05272" lon="0.40072">
        <ele>50</ele>
        <time>2022-10-29T17:38:41Z</time>
      </trkpt>
      <trkpt lat="45.05274" lon="0.40088">
        <ele>50</ele>
        <time>2022-10-29T17:38:43Z</time>
      </trkpt>
      <trkpt lat="45.05276" lon="0.40103">
        <ele>50.1</ele>
        <time>2022-10-29T17:38:45Z</time>
      </trkpt>
      <trkpt lat="45.05277" lon="0.40111">
        <ele>50.1</ele>
        <time>2022-10-29T17:38:46Z</time>
      </trkpt>
      <trkpt lat="45.05277" lon="0.40119">
        <ele>50.1</ele>
        <time>2022-10-29T17:38:47Z</time>
      </trkpt>
      <trkpt lat="45.05278" lon="0.40133">
        <ele>50.2</ele>
        <time>2022-10-29T17:38:49Z</time>
      </trkpt>
      <trkpt lat="45.05278" lon="0.4014">
        <ele>50.2</ele>
        <time>2022-10-29T17:38:50Z</time>
      </trkpt>
      <trkpt lat="45.05279" lon="0.40146">
        <ele>50.1</ele>
        <time>2022-10-29T17:38:51Z</time>
      </trkpt>
      <trkpt lat="45.05282" lon="0.40156">
        <ele>50.1</ele>
        <time>2022-10-29T17:38:52Z</time>
      </trkpt>
      <trkpt lat="45.05286" lon="0.40158">
        <ele>50</ele>
        <time>2022-10-29T17:38:53Z</time>
      </trkpt>
      <trkpt lat="45.05296" lon="0.40164">
        <ele>49.9</ele>
        <time>2022-10-29T17:38:55Z</time>
      </trkpt>
      <trkpt lat="45.05306" lon="0.4017">
        <ele>49.8</ele>
        <time>2022-10-29T17:38:57Z</time>
      </trkpt>
      <trkpt lat="45.05317" lon="0.40176">
        <ele>49.9</ele>
        <time>2022-10-29T17:38:59Z</time>
      </trkpt>
      <trkpt lat="45.05322" lon="0.40179">
        <ele>49.9</ele>
        <time>2022-10-29T17:39:00Z</time>
      </trkpt>
      <trkpt lat="45.05327" lon="0.40182">
        <ele>49.9</ele>
        <time>2022-10-29T17:39:01Z</time>
      </trkpt>
      <trkpt lat="45.05332" lon="0.40185">
        <ele>49.9</ele>
        <time>2022-10-29T17:39:02Z</time>
      </trkpt>
      <trkpt lat="45.05337" lon="0.40188">
        <ele>49.8</ele>
        <time>2022-10-29T17:39:03Z</time>
      </trkpt>
      <trkpt lat="45.05341" lon="0.4019">
        <ele>49.8</ele>
        <time>2022-10-29T17:39:04Z</time>
      </trkpt>
      <trkpt lat="45.05346" lon="0.40193">
        <ele>49.8</ele>
        <time>2022-10-29T17:39:05Z</time>
      </trkpt>
      <trkpt lat="45.05356" lon="0.40198">
        <ele>49.8</ele>
        <time>2022-10-29T17:39:07Z</time>
      </trkpt>
      <trkpt lat="45.05367" lon="0.40203">
        <ele>49.9</ele>
        <time>2022-10-29T17:39:09Z</time>
      </trkpt>
      <trkpt lat="45.05377" lon="0.40207">
        <ele>50</ele>
        <time>2022-10-29T17:39:11Z</time>
      </trkpt>
      <trkpt lat="45.05382" lon="0.4021">
        <ele>50</ele>
        <time>2022-10-29T17:39:12Z</time>
      </trkpt>
      <trkpt lat="45.05387" lon="0.40211">
        <ele>50.1</ele>
        <time>2022-10-29T17:39:13Z</time>
      </trkpt>
      <trkpt lat="45.05398" lon="0.40214">
        <ele>50.3</ele>
        <time>2022-10-29T17:39:15Z</time>
      </trkpt>
      <trkpt lat="45.05403" lon="0.40216">
        <ele>50.4</ele>
        <time>2022-10-29T17:39:16Z</time>
      </trkpt>
      <trkpt lat="45.05407" lon="0.40218">
        <ele>50.4</ele>
        <time>2022-10-29T17:39:17Z</time>
      </trkpt>
      <trkpt lat="45.05415" lon="0.40213">
        <ele>50.5</ele>
        <time>2022-10-29T17:39:19Z</time>
      </trkpt>
      <trkpt lat="45.05419" lon="0.4021">
        <ele>50.4</ele>
        <time>2022-10-29T17:39:20Z</time>
      </trkpt>
      <trkpt lat="45.05423" lon="0.40206">
        <ele>50.4</ele>
        <time>2022-10-29T17:39:21Z</time>
      </trkpt>
      <trkpt lat="45.05428" lon="0.40202">
        <ele>50.4</ele>
        <time>2022-10-29T17:39:22Z</time>
      </trkpt>
      <trkpt lat="45.05437" lon="0.40207">
        <ele>50.2</ele>
        <time>2022-10-29T17:39:23Z</time>
      </trkpt>
      <trkpt lat="45.05441" lon="0.40211">
        <ele>50.2</ele>
        <time>2022-10-29T17:39:24Z</time>
      </trkpt>
      <trkpt lat="45.05446" lon="0.40215">
        <ele>50.1</ele>
        <time>2022-10-29T17:39:25Z</time>
      </trkpt>
      <trkpt lat="45.05455" lon="0.40224">
        <ele>50.1</ele>
        <time>2022-10-29T17:39:27Z</time>
      </trkpt>
      <trkpt lat="45.05465" lon="0.40233">
        <ele>50.1</ele>
        <time>2022-10-29T17:39:29Z</time>
      </trkpt>
      <trkpt lat="45.05475" lon="0.40242">
        <ele>50.2</ele>
        <time>2022-10-29T17:39:31Z</time>
      </trkpt>
      <trkpt lat="45.05481" lon="0.40246">
        <ele>50.3</ele>
        <time>2022-10-29T17:39:32Z</time>
      </trkpt>
      <trkpt lat="45.05486" lon="0.4025">
        <ele>50.5</ele>
        <time>2022-10-29T17:39:33Z</time>
      </trkpt>
      <trkpt lat="45.05496" lon="0.40258">
        <ele>50.9</ele>
        <time>2022-10-29T17:39:35Z</time>
      </trkpt>
      <trkpt lat="45.05506" lon="0.40266">
        <ele>51.4</ele>
        <time>2022-10-29T17:39:37Z</time>
      </trkpt>
      <trkpt lat="45.05513" lon="0.40274">
        <ele>52</ele>
        <time>2022-10-29T17:39:39Z</time>
      </trkpt>
      <trkpt lat="45.0552" lon="0.40282">
        <ele>52.5</ele>
        <time>2022-10-29T17:39:41Z</time>
      </trkpt>
      <trkpt lat="45.05527" lon="0.40289">
        <ele>53</ele>
        <time>2022-10-29T17:39:43Z</time>
      </trkpt>
      <trkpt lat="45.05534" lon="0.40297">
        <ele>53.3</ele>
        <time>2022-10-29T17:39:45Z</time>
      </trkpt>
      <trkpt lat="45.05537" lon="0.40301">
        <ele>53.4</ele>
        <time>2022-10-29T17:39:46Z</time>
      </trkpt>
      <trkpt lat="45.0554" lon="0.40305">
        <ele>53.5</ele>
        <time>2022-10-29T17:39:47Z</time>
      </trkpt>
      <trkpt lat="45.05548" lon="0.40313">
        <ele>53.6</ele>
        <time>2022-10-29T17:39:49Z</time>
      </trkpt>
      <trkpt lat="45.05556" lon="0.40322">
        <ele>53.6</ele>
        <time>2022-10-29T17:39:51Z</time>
      </trkpt>
      <trkpt lat="45.05559" lon="0.40327">
        <ele>53.6</ele>
        <time>2022-10-29T17:39:52Z</time>
      </trkpt>
      <trkpt lat="45.05563" lon="0.40331">
        <ele>53.5</ele>
        <time>2022-10-29T17:39:53Z</time>
      </trkpt>
      <trkpt lat="45.05571" lon="0.4034">
        <ele>53.4</ele>
        <time>2022-10-29T17:39:55Z</time>
      </trkpt>
      <trkpt lat="45.05579" lon="0.40349">
        <ele>53.3</ele>
        <time>2022-10-29T17:39:57Z</time>
      </trkpt>
      <trkpt lat="45.05583" lon="0.40354">
        <ele>53.2</ele>
        <time>2022-10-29T17:39:58Z</time>
      </trkpt>
      <trkpt lat="45.05587" lon="0.40358">
        <ele>53</ele>
        <time>2022-10-29T17:39:59Z</time>
      </trkpt>
      <trkpt lat="45.05595" lon="0.40368">
        <ele>52.4</ele>
        <time>2022-10-29T17:40:01Z</time>
      </trkpt>
      <trkpt lat="45.05604" lon="0.40378">
        <ele>51.8</ele>
        <time>2022-10-29T17:40:03Z</time>
      </trkpt>
      <trkpt lat="45.05612" lon="0.40389">
        <ele>51.1</ele>
        <time>2022-10-29T17:40:05Z</time>
      </trkpt>
      <trkpt lat="45.05621" lon="0.40403">
        <ele>50.5</ele>
        <time>2022-10-29T17:40:07Z</time>
      </trkpt>
      <trkpt lat="45.05625" lon="0.4041">
        <ele>50.4</ele>
        <time>2022-10-29T17:40:08Z</time>
      </trkpt>
      <trkpt lat="45.0563" lon="0.40417">
        <ele>50.3</ele>
        <time>2022-10-29T17:40:09Z</time>
      </trkpt>
      <trkpt lat="45.05633" lon="0.40423">
        <ele>50.3</ele>
        <time>2022-10-29T17:40:10Z</time>
      </trkpt>
      <trkpt lat="45.05635" lon="0.40428">
        <ele>50.3</ele>
        <time>2022-10-29T17:40:11Z</time>
      </trkpt>
      <trkpt lat="45.05631" lon="0.40433">
        <ele>50.4</ele>
        <time>2022-10-29T17:40:12Z</time>
      </trkpt>
      <trkpt lat="45.05627" lon="0.40437">
        <ele>50.4</ele>
        <time>2022-10-29T17:40:13Z</time>
      </trkpt>
      <trkpt lat="45.05623" lon="0.40442">
        <ele>50.5</ele>
        <time>2022-10-29T17:40:14Z</time>
      </trkpt>
      <trkpt lat="45.05618" lon="0.40447">
        <ele>50.6</ele>
        <time>2022-10-29T17:40:15Z</time>
      </trkpt>
      <trkpt lat="45.05615" lon="0.40452">
        <ele>50.7</ele>
        <time>2022-10-29T17:40:16Z</time>
      </trkpt>
      <trkpt lat="45.05616" lon="0.40459">
        <ele>50.7</ele>
        <time>2022-10-29T17:40:17Z</time>
      </trkpt>
      <trkpt lat="45.05621" lon="0.40468">
        <ele>50.8</ele>
        <time>2022-10-29T17:40:19Z</time>
      </trkpt>
      <trkpt lat="45.05624" lon="0.40473">
        <ele>50.8</ele>
        <time>2022-10-29T17:40:20Z</time>
      </trkpt>
      <trkpt lat="45.05627" lon="0.40478">
        <ele>50.9</ele>
        <time>2022-10-29T17:40:21Z</time>
      </trkpt>
      <trkpt lat="45.05633" lon="0.40488">
        <ele>50.9</ele>
        <time>2022-10-29T17:40:23Z</time>
      </trkpt>
      <trkpt lat="45.0564" lon="0.405">
        <ele>51</ele>
        <time>2022-10-29T17:40:25Z</time>
      </trkpt>
      <trkpt lat="45.05647" lon="0.40511">
        <ele>51.1</ele>
        <time>2022-10-29T17:40:27Z</time>
      </trkpt>
      <trkpt lat="45.05654" lon="0.40523">
        <ele>51.2</ele>
        <time>2022-10-29T17:40:29Z</time>
      </trkpt>
      <trkpt lat="45.05657" lon="0.40528">
        <ele>51.3</ele>
        <time>2022-10-29T17:40:30Z</time>
      </trkpt>
      <trkpt lat="45.05661" lon="0.40534">
        <ele>51.2</ele>
        <time>2022-10-29T17:40:31Z</time>
      </trkpt>
      <trkpt lat="45.05665" lon="0.40547">
        <ele>51.2</ele>
        <time>2022-10-29T17:40:33Z</time>
      </trkpt>
      <trkpt lat="45.05667" lon="0.40555">
        <ele>51.2</ele>
        <time>2022-10-29T17:40:34Z</time>
      </trkpt>
      <trkpt lat="45.05669" lon="0.40562">
        <ele>51.2</ele>
        <time>2022-10-29T17:40:35Z</time>
      </trkpt>
      <trkpt lat="45.05673" lon="0.40576">
        <ele>51.1</ele>
        <time>2022-10-29T17:40:37Z</time>
      </trkpt>
      <trkpt lat="45.05677" lon="0.40588">
        <ele>51.1</ele>
        <time>2022-10-29T17:40:39Z</time>
      </trkpt>
      <trkpt lat="45.05679" lon="0.40594">
        <ele>51.1</ele>
        <time>2022-10-29T17:40:40Z</time>
      </trkpt>
      <trkpt lat="45.05681" lon="0.40599">
        <ele>51.1</ele>
        <time>2022-10-29T17:40:41Z</time>
      </trkpt>
      <trkpt lat="45.05682" lon="0.40605">
        <ele>51.1</ele>
        <time>2022-10-29T17:40:42Z</time>
      </trkpt>
      <trkpt lat="45.05684" lon="0.40611">
        <ele>51.1</ele>
        <time>2022-10-29T17:40:43Z</time>
      </trkpt>
      <trkpt lat="45.05688" lon="0.40623">
        <ele>51.2</ele>
        <time>2022-10-29T17:40:45Z</time>
      </trkpt>
      <trkpt lat="45.05689" lon="0.40629">
        <ele>51.2</ele>
        <time>2022-10-29T17:40:46Z</time>
      </trkpt>
      <trkpt lat="45.05691" lon="0.40635">
        <ele>51.3</ele>
        <time>2022-10-29T17:40:47Z</time>
      </trkpt>
      <trkpt lat="45.05695" lon="0.40646">
        <ele>51.4</ele>
        <time>2022-10-29T17:40:49Z</time>
      </trkpt>
      <trkpt lat="45.05693" lon="0.40663">
        <ele>51.6</ele>
        <time>2022-10-29T17:40:51Z</time>
      </trkpt>
      <trkpt lat="45.05687" lon="0.40664">
        <ele>51.5</ele>
        <time>2022-10-29T17:40:53Z</time>
      </trkpt>
      <trkpt lat="45.05682" lon="0.40665">
        <ele>51.5</ele>
        <time>2022-10-29T17:40:54Z</time>
      </trkpt>
      <trkpt lat="45.05678" lon="0.40665">
        <ele>51.5</ele>
        <time>2022-10-29T17:40:55Z</time>
      </trkpt>
      <trkpt lat="45.05668" lon="0.40667">
        <ele>51.5</ele>
        <time>2022-10-29T17:40:57Z</time>
      </trkpt>
      <trkpt lat="45.05658" lon="0.40668">
        <ele>51.5</ele>
        <time>2022-10-29T17:40:59Z</time>
      </trkpt>
      <trkpt lat="45.05648" lon="0.40669">
        <ele>51.5</ele>
        <time>2022-10-29T17:41:01Z</time>
      </trkpt>
      <trkpt lat="45.05637" lon="0.40671">
        <ele>51.5</ele>
        <time>2022-10-29T17:41:03Z</time>
      </trkpt>
      <trkpt lat="45.05626" lon="0.40672">
        <ele>51.5</ele>
        <time>2022-10-29T17:41:05Z</time>
      </trkpt>
      <trkpt lat="45.05616" lon="0.40674">
        <ele>51.4</ele>
        <time>2022-10-29T17:41:07Z</time>
      </trkpt>
      <trkpt lat="45.05611" lon="0.40675">
        <ele>51.4</ele>
        <time>2022-10-29T17:41:08Z</time>
      </trkpt>
      <trkpt lat="45.05605" lon="0.40676">
        <ele>51.4</ele>
        <time>2022-10-29T17:41:09Z</time>
      </trkpt>
      <trkpt lat="45.05595" lon="0.40679">
        <ele>51.4</ele>
        <time>2022-10-29T17:41:11Z</time>
      </trkpt>
      <trkpt lat="45.05584" lon="0.40681">
        <ele>51.4</ele>
        <time>2022-10-29T17:41:13Z</time>
      </trkpt>
      <trkpt lat="45.05572" lon="0.40683">
        <ele>51.4</ele>
        <time>2022-10-29T17:41:15Z</time>
      </trkpt>
      <trkpt lat="45.0556" lon="0.40686">
        <ele>51.5</ele>
        <time>2022-10-29T17:41:17Z</time>
      </trkpt>
      <trkpt lat="45.05547" lon="0.40689">
        <ele>51.6</ele>
        <time>2022-10-29T17:41:19Z</time>
      </trkpt>
      <trkpt lat="45.05541" lon="0.4069">
        <ele>51.6</ele>
        <time>2022-10-29T17:41:20Z</time>
      </trkpt>
      <trkpt lat="45.05535" lon="0.40692">
        <ele>51.6</ele>
        <time>2022-10-29T17:41:21Z</time>
      </trkpt>
      <trkpt lat="45.05528" lon="0.40694">
        <ele>51.7</ele>
        <time>2022-10-29T17:41:22Z</time>
      </trkpt>
      <trkpt lat="45.05522" lon="0.40696">
        <ele>51.7</ele>
        <time>2022-10-29T17:41:23Z</time>
      </trkpt>
      <trkpt lat="45.05516" lon="0.40705">
        <ele>52</ele>
        <time>2022-10-29T17:41:24Z</time>
      </trkpt>
      <trkpt lat="45.05514" lon="0.40713">
        <ele>52.3</ele>
        <time>2022-10-29T17:41:25Z</time>
      </trkpt>
      <trkpt lat="45.05511" lon="0.4072">
        <ele>52.6</ele>
        <time>2022-10-29T17:41:26Z</time>
      </trkpt>
      <trkpt lat="45.05509" lon="0.40728">
        <ele>53</ele>
        <time>2022-10-29T17:41:27Z</time>
      </trkpt>
      <trkpt lat="45.05506" lon="0.40735">
        <ele>53.3</ele>
        <time>2022-10-29T17:41:28Z</time>
      </trkpt>
      <trkpt lat="45.05504" lon="0.40742">
        <ele>53.7</ele>
        <time>2022-10-29T17:41:29Z</time>
      </trkpt>
      <trkpt lat="45.05502" lon="0.40755">
        <ele>54.4</ele>
        <time>2022-10-29T17:41:31Z</time>
      </trkpt>
      <trkpt lat="45.05503" lon="0.40761">
        <ele>54.7</ele>
        <time>2022-10-29T17:41:32Z</time>
      </trkpt>
      <trkpt lat="45.05504" lon="0.40768">
        <ele>55</ele>
        <time>2022-10-29T17:41:33Z</time>
      </trkpt>
      <trkpt lat="45.05504" lon="0.40775">
        <ele>55.4</ele>
        <time>2022-10-29T17:41:34Z</time>
      </trkpt>
      <trkpt lat="45.05504" lon="0.40781">
        <ele>55.8</ele>
        <time>2022-10-29T17:41:35Z</time>
      </trkpt>
      <trkpt lat="45.05501" lon="0.40793">
        <ele>56.7</ele>
        <time>2022-10-29T17:41:37Z</time>
      </trkpt>
      <trkpt lat="45.05499" lon="0.40803">
        <ele>57.4</ele>
        <time>2022-10-29T17:41:39Z</time>
      </trkpt>
      <trkpt lat="45.05497" lon="0.40813">
        <ele>58.1</ele>
        <time>2022-10-29T17:41:41Z</time>
      </trkpt>
      <trkpt lat="45.05495" lon="0.40822">
        <ele>58.7</ele>
        <time>2022-10-29T17:41:43Z</time>
      </trkpt>
      <trkpt lat="45.05493" lon="0.40831">
        <ele>59.4</ele>
        <time>2022-10-29T17:41:45Z</time>
      </trkpt>
      <trkpt lat="45.05491" lon="0.40841">
        <ele>60</ele>
        <time>2022-10-29T17:41:47Z</time>
      </trkpt>
      <trkpt lat="45.05489" lon="0.4085">
        <ele>60.6</ele>
        <time>2022-10-29T17:41:49Z</time>
      </trkpt>
      <trkpt lat="45.05486" lon="0.4086">
        <ele>61.2</ele>
        <time>2022-10-29T17:41:51Z</time>
      </trkpt>
      <trkpt lat="45.05482" lon="0.40868">
        <ele>61.6</ele>
        <time>2022-10-29T17:41:53Z</time>
      </trkpt>
      <trkpt lat="45.05477" lon="0.40877">
        <ele>61.8</ele>
        <time>2022-10-29T17:41:55Z</time>
      </trkpt>
      <trkpt lat="45.05472" lon="0.40885">
        <ele>62.1</ele>
        <time>2022-10-29T17:41:57Z</time>
      </trkpt>
      <trkpt lat="45.05466" lon="0.40893">
        <ele>62.4</ele>
        <time>2022-10-29T17:41:59Z</time>
      </trkpt>
      <trkpt lat="45.05461" lon="0.40901">
        <ele>62.7</ele>
        <time>2022-10-29T17:42:01Z</time>
      </trkpt>
      <trkpt lat="45.05455" lon="0.4091">
        <ele>63</ele>
        <time>2022-10-29T17:42:03Z</time>
      </trkpt>
      <trkpt lat="45.05449" lon="0.40918">
        <ele>63.3</ele>
        <time>2022-10-29T17:42:05Z</time>
      </trkpt>
      <trkpt lat="45.05443" lon="0.40927">
        <ele>63.7</ele>
        <time>2022-10-29T17:42:07Z</time>
      </trkpt>
      <trkpt lat="45.05438" lon="0.40935">
        <ele>64.1</ele>
        <time>2022-10-29T17:42:09Z</time>
      </trkpt>
      <trkpt lat="45.05432" lon="0.40943">
        <ele>64.4</ele>
        <time>2022-10-29T17:42:11Z</time>
      </trkpt>
      <trkpt lat="45.05426" lon="0.40951">
        <ele>64.7</ele>
        <time>2022-10-29T17:42:13Z</time>
      </trkpt>
      <trkpt lat="45.05421" lon="0.4096">
        <ele>65</ele>
        <time>2022-10-29T17:42:15Z</time>
      </trkpt>
      <trkpt lat="45.05415" lon="0.40968">
        <ele>65.3</ele>
        <time>2022-10-29T17:42:17Z</time>
      </trkpt>
      <trkpt lat="45.0541" lon="0.40976">
        <ele>65.6</ele>
        <time>2022-10-29T17:42:19Z</time>
      </trkpt>
      <trkpt lat="45.05404" lon="0.40984">
        <ele>65.9</ele>
        <time>2022-10-29T17:42:21Z</time>
      </trkpt>
      <trkpt lat="45.05402" lon="0.40988">
        <ele>66</ele>
        <time>2022-10-29T17:42:22Z</time>
      </trkpt>
      <trkpt lat="45.054" lon="0.40996">
        <ele>66.3</ele>
        <time>2022-10-29T17:42:23Z</time>
      </trkpt>
      <trkpt lat="45.05401" lon="0.41">
        <ele>66.3</ele>
        <time>2022-10-29T17:42:24Z</time>
      </trkpt>
      <trkpt lat="45.05404" lon="0.41003">
        <ele>66.3</ele>
        <time>2022-10-29T17:42:25Z</time>
      </trkpt>
      <trkpt lat="45.05411" lon="0.41011">
        <ele>66.2</ele>
        <time>2022-10-29T17:42:27Z</time>
      </trkpt>
      <trkpt lat="45.05418" lon="0.4102">
        <ele>66.1</ele>
        <time>2022-10-29T17:42:29Z</time>
      </trkpt>
      <trkpt lat="45.05422" lon="0.41025">
        <ele>66.1</ele>
        <time>2022-10-29T17:42:30Z</time>
      </trkpt>
      <trkpt lat="45.05426" lon="0.41029">
        <ele>66.2</ele>
        <time>2022-10-29T17:42:31Z</time>
      </trkpt>
      <trkpt lat="45.05435" lon="0.41037">
        <ele>66.2</ele>
        <time>2022-10-29T17:42:33Z</time>
      </trkpt>
      <trkpt lat="45.05443" lon="0.41045">
        <ele>66.2</ele>
        <time>2022-10-29T17:42:35Z</time>
      </trkpt>
      <trkpt lat="45.05451" lon="0.41053">
        <ele>66.1</ele>
        <time>2022-10-29T17:42:37Z</time>
      </trkpt>
      <trkpt lat="45.0546" lon="0.41061">
        <ele>66.2</ele>
        <time>2022-10-29T17:42:39Z</time>
      </trkpt>
      <trkpt lat="45.05464" lon="0.41064">
        <ele>66.1</ele>
        <time>2022-10-29T17:42:40Z</time>
      </trkpt>
      <trkpt lat="45.05468" lon="0.41067">
        <ele>66.1</ele>
        <time>2022-10-29T17:42:41Z</time>
      </trkpt>
      <trkpt lat="45.05469" lon="0.41074">
        <ele>66.2</ele>
        <time>2022-10-29T17:42:42Z</time>
      </trkpt>
      <trkpt lat="45.05468" lon="0.41078">
        <ele>66.3</ele>
        <time>2022-10-29T17:42:43Z</time>
      </trkpt>
      <trkpt lat="45.05461" lon="0.41085">
        <ele>66.7</ele>
        <time>2022-10-29T17:42:45Z</time>
      </trkpt>
      <trkpt lat="45.05455" lon="0.41091">
        <ele>67.2</ele>
        <time>2022-10-29T17:42:47Z</time>
      </trkpt>
      <trkpt lat="45.0545" lon="0.41097">
        <ele>67.7</ele>
        <time>2022-10-29T17:42:49Z</time>
      </trkpt>
      <trkpt lat="45.05445" lon="0.41103">
        <ele>68.1</ele>
        <time>2022-10-29T17:42:51Z</time>
      </trkpt>
      <trkpt lat="45.05442" lon="0.41106">
        <ele>68.3</ele>
        <time>2022-10-29T17:42:52Z</time>
      </trkpt>
      <trkpt lat="45.0544" lon="0.41108">
        <ele>68.4</ele>
        <time>2022-10-29T17:42:53Z</time>
      </trkpt>
      <trkpt lat="45.05438" lon="0.41111">
        <ele>68.6</ele>
        <time>2022-10-29T17:42:55Z</time>
      </trkpt>
      <trkpt lat="45.05436" lon="0.41113">
        <ele>68.8</ele>
        <time>2022-10-29T17:42:57Z</time>
      </trkpt>
      <trkpt lat="45.05435" lon="0.41114">
        <ele>68.8</ele>
        <time>2022-10-29T17:42:59Z</time>
      </trkpt>
      <trkpt lat="45.05434" lon="0.41116">
        <ele>68.9</ele>
        <time>2022-10-29T17:43:01Z</time>
      </trkpt>
      <trkpt lat="45.05434" lon="0.41116">
        <ele>68.9</ele>
        <time>2022-10-29T17:43:02Z</time>
      </trkpt>
      <trkpt lat="45.05431" lon="0.41119">
        <ele>69.1</ele>
        <time>2022-10-29T17:43:13Z</time>
      </trkpt>
      <trkpt lat="45.05429" lon="0.41121">
        <ele>69.3</ele>
        <time>2022-10-29T17:43:14Z</time>
      </trkpt>
      <trkpt lat="45.05429" lon="0.41122">
        <ele>69.3</ele>
        <time>2022-10-29T17:43:15Z</time>
      </trkpt>
      <trkpt lat="45.05421" lon="0.41126">
        <ele>69.4</ele>
        <time>2022-10-29T17:43:17Z</time>
      </trkpt>
      <trkpt lat="45.05419" lon="0.41129">
        <ele>69.5</ele>
        <time>2022-10-29T17:43:18Z</time>
      </trkpt>
      <trkpt lat="45.05416" lon="0.41132">
        <ele>69.6</ele>
        <time>2022-10-29T17:43:19Z</time>
      </trkpt>
      <trkpt lat="45.0541" lon="0.41138">
        <ele>69.8</ele>
        <time>2022-10-29T17:43:21Z</time>
      </trkpt>
      <trkpt lat="45.05405" lon="0.41144">
        <ele>70</ele>
        <time>2022-10-29T17:43:23Z</time>
      </trkpt>
      <trkpt lat="45.05399" lon="0.4115">
        <ele>70.1</ele>
        <time>2022-10-29T17:43:25Z</time>
      </trkpt>
      <trkpt lat="45.05393" lon="0.41155">
        <ele>70.1</ele>
        <time>2022-10-29T17:43:27Z</time>
      </trkpt>
      <trkpt lat="45.05388" lon="0.41163">
        <ele>70.1</ele>
        <time>2022-10-29T17:43:29Z</time>
      </trkpt>
      <trkpt lat="45.05386" lon="0.41167">
        <ele>70.1</ele>
        <time>2022-10-29T17:43:30Z</time>
      </trkpt>
      <trkpt lat="45.05386" lon="0.41172">
        <ele>70.1</ele>
        <time>2022-10-29T17:43:31Z</time>
      </trkpt>
      <trkpt lat="45.05386" lon="0.41178">
        <ele>70.1</ele>
        <time>2022-10-29T17:43:32Z</time>
      </trkpt>
      <trkpt lat="45.05386" lon="0.41183">
        <ele>70.1</ele>
        <time>2022-10-29T17:43:33Z</time>
      </trkpt>
      <trkpt lat="45.05388" lon="0.41195">
        <ele>70.1</ele>
        <time>2022-10-29T17:43:35Z</time>
      </trkpt>
      <trkpt lat="45.0539" lon="0.41207">
        <ele>70.1</ele>
        <time>2022-10-29T17:43:37Z</time>
      </trkpt>
      <trkpt lat="45.05393" lon="0.41219">
        <ele>70.2</ele>
        <time>2022-10-29T17:43:39Z</time>
      </trkpt>
      <trkpt lat="45.05396" lon="0.41231">
        <ele>70.3</ele>
        <time>2022-10-29T17:43:41Z</time>
      </trkpt>
      <trkpt lat="45.05399" lon="0.41243">
        <ele>70.3</ele>
        <time>2022-10-29T17:43:43Z</time>
      </trkpt>
      <trkpt lat="45.05403" lon="0.41256">
        <ele>70.2</ele>
        <time>2022-10-29T17:43:45Z</time>
      </trkpt>
      <trkpt lat="45.05405" lon="0.41262">
        <ele>70.2</ele>
        <time>2022-10-29T17:43:46Z</time>
      </trkpt>
      <trkpt lat="45.05407" lon="0.41268">
        <ele>70.2</ele>
        <time>2022-10-29T17:43:47Z</time>
      </trkpt>
      <trkpt lat="45.0541" lon="0.41282">
        <ele>70.2</ele>
        <time>2022-10-29T17:43:49Z</time>
      </trkpt>
      <trkpt lat="45.05414" lon="0.41295">
        <ele>70.1</ele>
        <time>2022-10-29T17:43:51Z</time>
      </trkpt>
      <trkpt lat="45.05417" lon="0.4131">
        <ele>70.1</ele>
        <time>2022-10-29T17:43:53Z</time>
      </trkpt>
      <trkpt lat="45.05418" lon="0.41316">
        <ele>70.1</ele>
        <time>2022-10-29T17:43:54Z</time>
      </trkpt>
      <trkpt lat="45.05419" lon="0.41322">
        <ele>70.1</ele>
        <time>2022-10-29T17:43:55Z</time>
      </trkpt>
      <trkpt lat="45.05425" lon="0.41331">
        <ele>70</ele>
        <time>2022-10-29T17:43:57Z</time>
      </trkpt>
      <trkpt lat="45.05428" lon="0.41336">
        <ele>69.9</ele>
        <time>2022-10-29T17:43:58Z</time>
      </trkpt>
      <trkpt lat="45.05431" lon="0.41341">
        <ele>69.8</ele>
        <time>2022-10-29T17:43:59Z</time>
      </trkpt>
      <trkpt lat="45.05438" lon="0.41352">
        <ele>69.7</ele>
        <time>2022-10-29T17:44:01Z</time>
      </trkpt>
      <trkpt lat="45.05445" lon="0.41363">
        <ele>69.6</ele>
        <time>2022-10-29T17:44:03Z</time>
      </trkpt>
      <trkpt lat="45.05451" lon="0.41374">
        <ele>69.5</ele>
        <time>2022-10-29T17:44:05Z</time>
      </trkpt>
      <trkpt lat="45.05455" lon="0.41379">
        <ele>69.4</ele>
        <time>2022-10-29T17:44:06Z</time>
      </trkpt>
      <trkpt lat="45.05458" lon="0.41385">
        <ele>69.4</ele>
        <time>2022-10-29T17:44:07Z</time>
      </trkpt>
      <trkpt lat="45.05465" lon="0.41396">
        <ele>69.4</ele>
        <time>2022-10-29T17:44:09Z</time>
      </trkpt>
      <trkpt lat="45.05473" lon="0.41408">
        <ele>69.4</ele>
        <time>2022-10-29T17:44:11Z</time>
      </trkpt>
      <trkpt lat="45.05479" lon="0.41419">
        <ele>69.5</ele>
        <time>2022-10-29T17:44:13Z</time>
      </trkpt>
      <trkpt lat="45.05486" lon="0.41429">
        <ele>69.5</ele>
        <time>2022-10-29T17:44:15Z</time>
      </trkpt>
      <trkpt lat="45.05493" lon="0.4144">
        <ele>69.5</ele>
        <time>2022-10-29T17:44:17Z</time>
      </trkpt>
      <trkpt lat="45.05499" lon="0.41449">
        <ele>69.4</ele>
        <time>2022-10-29T17:44:19Z</time>
      </trkpt>
      <trkpt lat="45.05505" lon="0.41459">
        <ele>69.3</ele>
        <time>2022-10-29T17:44:21Z</time>
      </trkpt>
      <trkpt lat="45.05508" lon="0.41464">
        <ele>69.2</ele>
        <time>2022-10-29T17:44:22Z</time>
      </trkpt>
      <trkpt lat="45.05511" lon="0.41469">
        <ele>69.2</ele>
        <time>2022-10-29T17:44:23Z</time>
      </trkpt>
      <trkpt lat="45.05517" lon="0.41482">
        <ele>69.1</ele>
        <time>2022-10-29T17:44:25Z</time>
      </trkpt>
      <trkpt lat="45.05523" lon="0.41497">
        <ele>69</ele>
        <time>2022-10-29T17:44:27Z</time>
      </trkpt>
      <trkpt lat="45.05528" lon="0.41513">
        <ele>68.7</ele>
        <time>2022-10-29T17:44:29Z</time>
      </trkpt>
      <trkpt lat="45.0553" lon="0.41522">
        <ele>68.5</ele>
        <time>2022-10-29T17:44:30Z</time>
      </trkpt>
      <trkpt lat="45.05532" lon="0.41531">
        <ele>68.4</ele>
        <time>2022-10-29T17:44:31Z</time>
      </trkpt>
      <trkpt lat="45.05533" lon="0.4154">
        <ele>68.3</ele>
        <time>2022-10-29T17:44:32Z</time>
      </trkpt>
      <trkpt lat="45.05535" lon="0.41548">
        <ele>68.3</ele>
        <time>2022-10-29T17:44:33Z</time>
      </trkpt>
      <trkpt lat="45.05536" lon="0.41557">
        <ele>68.3</ele>
        <time>2022-10-29T17:44:34Z</time>
      </trkpt>
      <trkpt lat="45.05536" lon="0.41566">
        <ele>68.3</ele>
        <time>2022-10-29T17:44:35Z</time>
      </trkpt>
      <trkpt lat="45.05535" lon="0.41575">
        <ele>68.3</ele>
        <time>2022-10-29T17:44:36Z</time>
      </trkpt>
      <trkpt lat="45.05534" lon="0.41583">
        <ele>68.3</ele>
        <time>2022-10-29T17:44:37Z</time>
      </trkpt>
      <trkpt lat="45.05528" lon="0.41599">
        <ele>68.4</ele>
        <time>2022-10-29T17:44:39Z</time>
      </trkpt>
      <trkpt lat="45.05527" lon="0.41607">
        <ele>68.4</ele>
        <time>2022-10-29T17:44:40Z</time>
      </trkpt>
      <trkpt lat="45.05526" lon="0.41616">
        <ele>68.5</ele>
        <time>2022-10-29T17:44:41Z</time>
      </trkpt>
      <trkpt lat="45.05529" lon="0.41632">
        <ele>68.5</ele>
        <time>2022-10-29T17:44:43Z</time>
      </trkpt>
      <trkpt lat="45.05535" lon="0.41648">
        <ele>68.6</ele>
        <time>2022-10-29T17:44:45Z</time>
      </trkpt>
      <trkpt lat="45.05541" lon="0.41662">
        <ele>68.7</ele>
        <time>2022-10-29T17:44:47Z</time>
      </trkpt>
      <trkpt lat="45.05547" lon="0.41676">
        <ele>68.8</ele>
        <time>2022-10-29T17:44:49Z</time>
      </trkpt>
      <trkpt lat="45.05553" lon="0.41691">
        <ele>69.1</ele>
        <time>2022-10-29T17:44:51Z</time>
      </trkpt>
      <trkpt lat="45.05558" lon="0.41704">
        <ele>69.3</ele>
        <time>2022-10-29T17:44:53Z</time>
      </trkpt>
      <trkpt lat="45.0556" lon="0.41712">
        <ele>69.4</ele>
        <time>2022-10-29T17:44:54Z</time>
      </trkpt>
      <trkpt lat="45.05561" lon="0.4172">
        <ele>69.5</ele>
        <time>2022-10-29T17:44:55Z</time>
      </trkpt>
      <trkpt lat="45.05564" lon="0.41737">
        <ele>69.8</ele>
        <time>2022-10-29T17:44:57Z</time>
      </trkpt>
      <trkpt lat="45.0557" lon="0.41752">
        <ele>70.1</ele>
        <time>2022-10-29T17:44:59Z</time>
      </trkpt>
      <trkpt lat="45.05573" lon="0.4176">
        <ele>70.3</ele>
        <time>2022-10-29T17:45:00Z</time>
      </trkpt>
      <trkpt lat="45.05576" lon="0.41767">
        <ele>70.6</ele>
        <time>2022-10-29T17:45:01Z</time>
      </trkpt>
      <trkpt lat="45.05582" lon="0.41781">
        <ele>71</ele>
        <time>2022-10-29T17:45:03Z</time>
      </trkpt>
      <trkpt lat="45.05587" lon="0.41794">
        <ele>71.2</ele>
        <time>2022-10-29T17:45:05Z</time>
      </trkpt>
      <trkpt lat="45.05592" lon="0.41808">
        <ele>71.5</ele>
        <time>2022-10-29T17:45:07Z</time>
      </trkpt>
      <trkpt lat="45.05596" lon="0.41823">
        <ele>71.8</ele>
        <time>2022-10-29T17:45:09Z</time>
      </trkpt>
      <trkpt lat="45.056" lon="0.41837">
        <ele>72.3</ele>
        <time>2022-10-29T17:45:11Z</time>
      </trkpt>
      <trkpt lat="45.05604" lon="0.41852">
        <ele>72.7</ele>
        <time>2022-10-29T17:45:13Z</time>
      </trkpt>
      <trkpt lat="45.05608" lon="0.41867">
        <ele>73.1</ele>
        <time>2022-10-29T17:45:15Z</time>
      </trkpt>
      <trkpt lat="45.0561" lon="0.41874">
        <ele>73.3</ele>
        <time>2022-10-29T17:45:16Z</time>
      </trkpt>
      <trkpt lat="45.05612" lon="0.41881">
        <ele>73.5</ele>
        <time>2022-10-29T17:45:17Z</time>
      </trkpt>
      <trkpt lat="45.05616" lon="0.41895">
        <ele>74</ele>
        <time>2022-10-29T17:45:19Z</time>
      </trkpt>
      <trkpt lat="45.05619" lon="0.41908">
        <ele>74.4</ele>
        <time>2022-10-29T17:45:21Z</time>
      </trkpt>
      <trkpt lat="45.05622" lon="0.4192">
        <ele>74.7</ele>
        <time>2022-10-29T17:45:23Z</time>
      </trkpt>
      <trkpt lat="45.05624" lon="0.41927">
        <ele>74.8</ele>
        <time>2022-10-29T17:45:24Z</time>
      </trkpt>
      <trkpt lat="45.05626" lon="0.41933">
        <ele>75</ele>
        <time>2022-10-29T17:45:25Z</time>
      </trkpt>
      <trkpt lat="45.05629" lon="0.41945">
        <ele>75.3</ele>
        <time>2022-10-29T17:45:27Z</time>
      </trkpt>
      <trkpt lat="45.0563" lon="0.41949">
        <ele>75.4</ele>
        <time>2022-10-29T17:45:28Z</time>
      </trkpt>
      <trkpt lat="45.0563" lon="0.4196">
        <ele>75.6</ele>
        <time>2022-10-29T17:45:29Z</time>
      </trkpt>
      <trkpt lat="45.05623" lon="0.41964">
        <ele>75.1</ele>
        <time>2022-10-29T17:45:31Z</time>
      </trkpt>
      <trkpt lat="45.05619" lon="0.41968">
        <ele>74.9</ele>
        <time>2022-10-29T17:45:32Z</time>
      </trkpt>
      <trkpt lat="45.05616" lon="0.41973">
        <ele>74.8</ele>
        <time>2022-10-29T17:45:33Z</time>
      </trkpt>
      <trkpt lat="45.05609" lon="0.41982">
        <ele>74.6</ele>
        <time>2022-10-29T17:45:35Z</time>
      </trkpt>
      <trkpt lat="45.05605" lon="0.41993">
        <ele>74.4</ele>
        <time>2022-10-29T17:45:37Z</time>
      </trkpt>
      <trkpt lat="45.05602" lon="0.41999">
        <ele>74.4</ele>
        <time>2022-10-29T17:45:38Z</time>
      </trkpt>
      <trkpt lat="45.056" lon="0.42004">
        <ele>74.3</ele>
        <time>2022-10-29T17:45:39Z</time>
      </trkpt>
      <trkpt lat="45.05596" lon="0.42015">
        <ele>74.3</ele>
        <time>2022-10-29T17:45:41Z</time>
      </trkpt>
      <trkpt lat="45.05592" lon="0.42024">
        <ele>74.4</ele>
        <time>2022-10-29T17:45:43Z</time>
      </trkpt>
      <trkpt lat="45.05591" lon="0.42028">
        <ele>74.5</ele>
        <time>2022-10-29T17:45:44Z</time>
      </trkpt>
      <trkpt lat="45.05589" lon="0.42032">
        <ele>74.6</ele>
        <time>2022-10-29T17:45:45Z</time>
      </trkpt>
      <trkpt lat="45.05584" lon="0.42039">
        <ele>74.8</ele>
        <time>2022-10-29T17:45:47Z</time>
      </trkpt>
      <trkpt lat="45.05579" lon="0.42043">
        <ele>75</ele>
        <time>2022-10-29T17:45:49Z</time>
      </trkpt>
      <trkpt lat="45.05576" lon="0.42046">
        <ele>75.2</ele>
        <time>2022-10-29T17:45:50Z</time>
      </trkpt>
      <trkpt lat="45.05574" lon="0.42048">
        <ele>75.3</ele>
        <time>2022-10-29T17:45:51Z</time>
      </trkpt>
      <trkpt lat="45.05569" lon="0.42051">
        <ele>75.6</ele>
        <time>2022-10-29T17:45:53Z</time>
      </trkpt>
      <trkpt lat="45.05565" lon="0.42055">
        <ele>75.9</ele>
        <time>2022-10-29T17:45:55Z</time>
      </trkpt>
      <trkpt lat="45.05561" lon="0.42059">
        <ele>76.2</ele>
        <time>2022-10-29T17:45:57Z</time>
      </trkpt>
      <trkpt lat="45.05556" lon="0.42061">
        <ele>76.5</ele>
        <time>2022-10-29T17:45:59Z</time>
      </trkpt>
      <trkpt lat="45.05552" lon="0.42063">
        <ele>76.8</ele>
        <time>2022-10-29T17:46:01Z</time>
      </trkpt>
      <trkpt lat="45.05547" lon="0.42065">
        <ele>77.1</ele>
        <time>2022-10-29T17:46:03Z</time>
      </trkpt>
      <trkpt lat="45.05543" lon="0.42067">
        <ele>77.5</ele>
        <time>2022-10-29T17:46:05Z</time>
      </trkpt>
      <trkpt lat="45.0554" lon="0.42068">
        <ele>77.6</ele>
        <time>2022-10-29T17:46:06Z</time>
      </trkpt>
      <trkpt lat="45.05538" lon="0.42069">
        <ele>77.8</ele>
        <time>2022-10-29T17:46:07Z</time>
      </trkpt>
      <trkpt lat="45.05533" lon="0.42071">
        <ele>78.2</ele>
        <time>2022-10-29T17:46:09Z</time>
      </trkpt>
      <trkpt lat="45.05528" lon="0.42072">
        <ele>78.6</ele>
        <time>2022-10-29T17:46:11Z</time>
      </trkpt>
      <trkpt lat="45.05523" lon="0.42073">
        <ele>78.9</ele>
        <time>2022-10-29T17:46:13Z</time>
      </trkpt>
      <trkpt lat="45.05518" lon="0.42073">
        <ele>79.3</ele>
        <time>2022-10-29T17:46:15Z</time>
      </trkpt>
      <trkpt lat="45.05516" lon="0.42074">
        <ele>79.5</ele>
        <time>2022-10-29T17:46:16Z</time>
      </trkpt>
      <trkpt lat="45.05514" lon="0.42074">
        <ele>79.7</ele>
        <time>2022-10-29T17:46:17Z</time>
      </trkpt>
      <trkpt lat="45.05508" lon="0.42074">
        <ele>80.2</ele>
        <time>2022-10-29T17:46:19Z</time>
      </trkpt>
      <trkpt lat="45.05506" lon="0.42072">
        <ele>80.4</ele>
        <time>2022-10-29T17:46:20Z</time>
      </trkpt>
      <trkpt lat="45.05505" lon="0.4207">
        <ele>80.7</ele>
        <time>2022-10-29T17:46:21Z</time>
      </trkpt>
      <trkpt lat="45.05502" lon="0.42064">
        <ele>81.3</ele>
        <time>2022-10-29T17:46:23Z</time>
      </trkpt>
      <trkpt lat="45.055" lon="0.42059">
        <ele>81.8</ele>
        <time>2022-10-29T17:46:25Z</time>
      </trkpt>
      <trkpt lat="45.05497" lon="0.42053">
        <ele>82.3</ele>
        <time>2022-10-29T17:46:27Z</time>
      </trkpt>
      <trkpt lat="45.05495" lon="0.42048">
        <ele>82.7</ele>
        <time>2022-10-29T17:46:29Z</time>
      </trkpt>
      <trkpt lat="45.0549" lon="0.42045">
        <ele>83.3</ele>
        <time>2022-10-29T17:46:31Z</time>
      </trkpt>
      <trkpt lat="45.05487" lon="0.42044">
        <ele>83.8</ele>
        <time>2022-10-29T17:46:33Z</time>
      </trkpt>
      <trkpt lat="45.05483" lon="0.42043">
        <ele>84.2</ele>
        <time>2022-10-29T17:46:35Z</time>
      </trkpt>
      <trkpt lat="45.0548" lon="0.42042">
        <ele>84.6</ele>
        <time>2022-10-29T17:46:37Z</time>
      </trkpt>
      <trkpt lat="45.05478" lon="0.42044">
        <ele>85</ele>
        <time>2022-10-29T17:46:38Z</time>
      </trkpt>
      <trkpt lat="45.05477" lon="0.42045">
        <ele>85.2</ele>
        <time>2022-10-29T17:46:39Z</time>
      </trkpt>
      <trkpt lat="45.05474" lon="0.42047">
        <ele>85.6</ele>
        <time>2022-10-29T17:46:41Z</time>
      </trkpt>
      <trkpt lat="45.05471" lon="0.4205">
        <ele>86.2</ele>
        <time>2022-10-29T17:46:43Z</time>
      </trkpt>
      <trkpt lat="45.05468" lon="0.42054">
        <ele>86.7</ele>
        <time>2022-10-29T17:46:45Z</time>
      </trkpt>
      <trkpt lat="45.05467" lon="0.42055">
        <ele>86.9</ele>
        <time>2022-10-29T17:46:46Z</time>
      </trkpt>
      <trkpt lat="45.05466" lon="0.42057">
        <ele>87.2</ele>
        <time>2022-10-29T17:46:47Z</time>
      </trkpt>
      <trkpt lat="45.05464" lon="0.4206">
        <ele>87.6</ele>
        <time>2022-10-29T17:46:49Z</time>
      </trkpt>
      <trkpt lat="45.05461" lon="0.42063">
        <ele>88.1</ele>
        <time>2022-10-29T17:46:51Z</time>
      </trkpt>
      <trkpt lat="45.05459" lon="0.42065">
        <ele>88.6</ele>
        <time>2022-10-29T17:46:53Z</time>
      </trkpt>
      <trkpt lat="45.05457" lon="0.42066">
        <ele>88.9</ele>
        <time>2022-10-29T17:46:54Z</time>
      </trkpt>
      <trkpt lat="45.05456" lon="0.42067">
        <ele>89.1</ele>
        <time>2022-10-29T17:46:55Z</time>
      </trkpt>
      <trkpt lat="45.05453" lon="0.42069">
        <ele>89.6</ele>
        <time>2022-10-29T17:46:57Z</time>
      </trkpt>
      <trkpt lat="45.05451" lon="0.42071">
        <ele>90</ele>
        <time>2022-10-29T17:46:59Z</time>
      </trkpt>
      <trkpt lat="45.05448" lon="0.42071">
        <ele>90.4</ele>
        <time>2022-10-29T17:47:01Z</time>
      </trkpt>
      <trkpt lat="45.05445" lon="0.42073">
        <ele>91</ele>
        <time>2022-10-29T17:47:03Z</time>
      </trkpt>
      <trkpt lat="45.05442" lon="0.42074">
        <ele>91.6</ele>
        <time>2022-10-29T17:47:05Z</time>
      </trkpt>
      <trkpt lat="45.05439" lon="0.42075">
        <ele>92.1</ele>
        <time>2022-10-29T17:47:07Z</time>
      </trkpt>
      <trkpt lat="45.05436" lon="0.42076">
        <ele>92.6</ele>
        <time>2022-10-29T17:47:09Z</time>
      </trkpt>
      <trkpt lat="45.05433" lon="0.42077">
        <ele>93.2</ele>
        <time>2022-10-29T17:47:11Z</time>
      </trkpt>
      <trkpt lat="45.0543" lon="0.42078">
        <ele>93.7</ele>
        <time>2022-10-29T17:47:13Z</time>
      </trkpt>
      <trkpt lat="45.05427" lon="0.42079">
        <ele>94.3</ele>
        <time>2022-10-29T17:47:15Z</time>
      </trkpt>
      <trkpt lat="45.05424" lon="0.4208">
        <ele>94.9</ele>
        <time>2022-10-29T17:47:17Z</time>
      </trkpt>
      <trkpt lat="45.05421" lon="0.42081">
        <ele>95.5</ele>
        <time>2022-10-29T17:47:19Z</time>
      </trkpt>
      <trkpt lat="45.05418" lon="0.42082">
        <ele>96.1</ele>
        <time>2022-10-29T17:47:21Z</time>
      </trkpt>
      <trkpt lat="45.05417" lon="0.42083">
        <ele>96.3</ele>
        <time>2022-10-29T17:47:22Z</time>
      </trkpt>
      <trkpt lat="45.05415" lon="0.42083">
        <ele>96.6</ele>
        <time>2022-10-29T17:47:23Z</time>
      </trkpt>
      <trkpt lat="45.05412" lon="0.42084">
        <ele>97.3</ele>
        <time>2022-10-29T17:47:25Z</time>
      </trkpt>
      <trkpt lat="45.05409" lon="0.42086">
        <ele>97.9</ele>
        <time>2022-10-29T17:47:27Z</time>
      </trkpt>
      <trkpt lat="45.05408" lon="0.42086">
        <ele>98.2</ele>
        <time>2022-10-29T17:47:28Z</time>
      </trkpt>
      <trkpt lat="45.05406" lon="0.42087">
        <ele>98.5</ele>
        <time>2022-10-29T17:47:29Z</time>
      </trkpt>
      <trkpt lat="45.05403" lon="0.42088">
        <ele>99.1</ele>
        <time>2022-10-29T17:47:31Z</time>
      </trkpt>
      <trkpt lat="45.05401" lon="0.42089">
        <ele>99.7</ele>
        <time>2022-10-29T17:47:33Z</time>
      </trkpt>
      <trkpt lat="45.05398" lon="0.42089">
        <ele>100.3</ele>
        <time>2022-10-29T17:47:35Z</time>
      </trkpt>
      <trkpt lat="45.05395" lon="0.4209">
        <ele>100.8</ele>
        <time>2022-10-29T17:47:37Z</time>
      </trkpt>
      <trkpt lat="45.05394" lon="0.4209">
        <ele>101.1</ele>
        <time>2022-10-29T17:47:38Z</time>
      </trkpt>
      <trkpt lat="45.05392" lon="0.4209">
        <ele>101.4</ele>
        <time>2022-10-29T17:47:39Z</time>
      </trkpt>
      <trkpt lat="45.05391" lon="0.4209">
        <ele>101.7</ele>
        <time>2022-10-29T17:47:40Z</time>
      </trkpt>
      <trkpt lat="45.05389" lon="0.42091">
        <ele>102</ele>
        <time>2022-10-29T17:47:41Z</time>
      </trkpt>
      <trkpt lat="45.05386" lon="0.42091">
        <ele>102.5</ele>
        <time>2022-10-29T17:47:43Z</time>
      </trkpt>
      <trkpt lat="45.05383" lon="0.42091">
        <ele>103.2</ele>
        <time>2022-10-29T17:47:45Z</time>
      </trkpt>
      <trkpt lat="45.05379" lon="0.42092">
        <ele>103.9</ele>
        <time>2022-10-29T17:47:47Z</time>
      </trkpt>
      <trkpt lat="45.05376" lon="0.42092">
        <ele>104.6</ele>
        <time>2022-10-29T17:47:49Z</time>
      </trkpt>
      <trkpt lat="45.05373" lon="0.42093">
        <ele>105.2</ele>
        <time>2022-10-29T17:47:51Z</time>
      </trkpt>
      <trkpt lat="45.05371" lon="0.42093">
        <ele>105.5</ele>
        <time>2022-10-29T17:47:52Z</time>
      </trkpt>
      <trkpt lat="45.05369" lon="0.42093">
        <ele>105.9</ele>
        <time>2022-10-29T17:47:53Z</time>
      </trkpt>
      <trkpt lat="45.05366" lon="0.42093">
        <ele>106.5</ele>
        <time>2022-10-29T17:47:55Z</time>
      </trkpt>
      <trkpt lat="45.05363" lon="0.42092">
        <ele>107.1</ele>
        <time>2022-10-29T17:47:57Z</time>
      </trkpt>
      <trkpt lat="45.05361" lon="0.42091">
        <ele>107.6</ele>
        <time>2022-10-29T17:47:59Z</time>
      </trkpt>
      <trkpt lat="45.05359" lon="0.4209">
        <ele>108.1</ele>
        <time>2022-10-29T17:48:01Z</time>
      </trkpt>
      <trkpt lat="45.05355" lon="0.42089">
        <ele>108.7</ele>
        <time>2022-10-29T17:48:03Z</time>
      </trkpt>
      <trkpt lat="45.05352" lon="0.42088">
        <ele>109.2</ele>
        <time>2022-10-29T17:48:05Z</time>
      </trkpt>
      <trkpt lat="45.05349" lon="0.42087">
        <ele>109.8</ele>
        <time>2022-10-29T17:48:07Z</time>
      </trkpt>
      <trkpt lat="45.05346" lon="0.42085">
        <ele>110.4</ele>
        <time>2022-10-29T17:48:09Z</time>
      </trkpt>
      <trkpt lat="45.05343" lon="0.42083">
        <ele>110.9</ele>
        <time>2022-10-29T17:48:11Z</time>
      </trkpt>
      <trkpt lat="45.0534" lon="0.42081">
        <ele>111.4</ele>
        <time>2022-10-29T17:48:13Z</time>
      </trkpt>
      <trkpt lat="45.05337" lon="0.42079">
        <ele>111.8</ele>
        <time>2022-10-29T17:48:15Z</time>
      </trkpt>
      <trkpt lat="45.05334" lon="0.42076">
        <ele>112.3</ele>
        <time>2022-10-29T17:48:17Z</time>
      </trkpt>
      <trkpt lat="45.05331" lon="0.42075">
        <ele>112.6</ele>
        <time>2022-10-29T17:48:19Z</time>
      </trkpt>
      <trkpt lat="45.05328" lon="0.42074">
        <ele>113</ele>
        <time>2022-10-29T17:48:21Z</time>
      </trkpt>
      <trkpt lat="45.05325" lon="0.42073">
        <ele>113.3</ele>
        <time>2022-10-29T17:48:23Z</time>
      </trkpt>
      <trkpt lat="45.05323" lon="0.42072">
        <ele>113.5</ele>
        <time>2022-10-29T17:48:24Z</time>
      </trkpt>
      <trkpt lat="45.05321" lon="0.42071">
        <ele>113.6</ele>
        <time>2022-10-29T17:48:25Z</time>
      </trkpt>
      <trkpt lat="45.05316" lon="0.42069">
        <ele>114</ele>
        <time>2022-10-29T17:48:27Z</time>
      </trkpt>
      <trkpt lat="45.05311" lon="0.42067">
        <ele>114.2</ele>
        <time>2022-10-29T17:48:29Z</time>
      </trkpt>
      <trkpt lat="45.05309" lon="0.42066">
        <ele>114.3</ele>
        <time>2022-10-29T17:48:30Z</time>
      </trkpt>
      <trkpt lat="45.05307" lon="0.42066">
        <ele>114.4</ele>
        <time>2022-10-29T17:48:31Z</time>
      </trkpt>
      <trkpt lat="45.05301" lon="0.42064">
        <ele>114.5</ele>
        <time>2022-10-29T17:48:33Z</time>
      </trkpt>
      <trkpt lat="45.05296" lon="0.42061">
        <ele>114.7</ele>
        <time>2022-10-29T17:48:35Z</time>
      </trkpt>
      <trkpt lat="45.05292" lon="0.4206">
        <ele>114.8</ele>
        <time>2022-10-29T17:48:36Z</time>
      </trkpt>
      <trkpt lat="45.05289" lon="0.42059">
        <ele>114.8</ele>
        <time>2022-10-29T17:48:37Z</time>
      </trkpt>
      <trkpt lat="45.05283" lon="0.42056">
        <ele>115</ele>
        <time>2022-10-29T17:48:39Z</time>
      </trkpt>
      <trkpt lat="45.05277" lon="0.42054">
        <ele>115.3</ele>
        <time>2022-10-29T17:48:41Z</time>
      </trkpt>
      <trkpt lat="45.0527" lon="0.42052">
        <ele>115.5</ele>
        <time>2022-10-29T17:48:43Z</time>
      </trkpt>
      <trkpt lat="45.05267" lon="0.4205">
        <ele>115.6</ele>
        <time>2022-10-29T17:48:44Z</time>
      </trkpt>
      <trkpt lat="45.05264" lon="0.42049">
        <ele>115.7</ele>
        <time>2022-10-29T17:48:45Z</time>
      </trkpt>
      <trkpt lat="45.05258" lon="0.42047">
        <ele>116</ele>
        <time>2022-10-29T17:48:47Z</time>
      </trkpt>
      <trkpt lat="45.05252" lon="0.42044">
        <ele>116.3</ele>
        <time>2022-10-29T17:48:49Z</time>
      </trkpt>
      <trkpt lat="45.05246" lon="0.42042">
        <ele>116.5</ele>
        <time>2022-10-29T17:48:51Z</time>
      </trkpt>
      <trkpt lat="45.0524" lon="0.4204">
        <ele>116.8</ele>
        <time>2022-10-29T17:48:53Z</time>
      </trkpt>
      <trkpt lat="45.05233" lon="0.42037">
        <ele>117.1</ele>
        <time>2022-10-29T17:48:55Z</time>
      </trkpt>
      <trkpt lat="45.05225" lon="0.42034">
        <ele>117.3</ele>
        <time>2022-10-29T17:48:57Z</time>
      </trkpt>
      <trkpt lat="45.05216" lon="0.42031">
        <ele>117.5</ele>
        <time>2022-10-29T17:48:59Z</time>
      </trkpt>
      <trkpt lat="45.05208" lon="0.42028">
        <ele>117.7</ele>
        <time>2022-10-29T17:49:01Z</time>
      </trkpt>
      <trkpt lat="45.05201" lon="0.42022">
        <ele>117.9</ele>
        <time>2022-10-29T17:49:03Z</time>
      </trkpt>
      <trkpt lat="45.05193" lon="0.42014">
        <ele>118.2</ele>
        <time>2022-10-29T17:49:05Z</time>
      </trkpt>
      <trkpt lat="45.05189" lon="0.42011">
        <ele>118.4</ele>
        <time>2022-10-29T17:49:06Z</time>
      </trkpt>
      <trkpt lat="45.05187" lon="0.42008">
        <ele>118.6</ele>
        <time>2022-10-29T17:49:07Z</time>
      </trkpt>
      <trkpt lat="45.05182" lon="0.42002">
        <ele>119</ele>
        <time>2022-10-29T17:49:09Z</time>
      </trkpt>
      <trkpt lat="45.0518" lon="0.41996">
        <ele>119.4</ele>
        <time>2022-10-29T17:49:11Z</time>
      </trkpt>
      <trkpt lat="45.05178" lon="0.4199">
        <ele>119.7</ele>
        <time>2022-10-29T17:49:13Z</time>
      </trkpt>
      <trkpt lat="45.05176" lon="0.41983">
        <ele>120.2</ele>
        <time>2022-10-29T17:49:15Z</time>
      </trkpt>
      <trkpt lat="45.05175" lon="0.4198">
        <ele>120.4</ele>
        <time>2022-10-29T17:49:16Z</time>
      </trkpt>
      <trkpt lat="45.05174" lon="0.41976">
        <ele>120.6</ele>
        <time>2022-10-29T17:49:17Z</time>
      </trkpt>
      <trkpt lat="45.05173" lon="0.4197">
        <ele>120.8</ele>
        <time>2022-10-29T17:49:19Z</time>
      </trkpt>
      <trkpt lat="45.05172" lon="0.41965">
        <ele>120.9</ele>
        <time>2022-10-29T17:49:20Z</time>
      </trkpt>
      <trkpt lat="45.05171" lon="0.41961">
        <ele>121</ele>
        <time>2022-10-29T17:49:21Z</time>
      </trkpt>
      <trkpt lat="45.05169" lon="0.41954">
        <ele>121</ele>
        <time>2022-10-29T17:49:23Z</time>
      </trkpt>
      <trkpt lat="45.05168" lon="0.4195">
        <ele>121.1</ele>
        <time>2022-10-29T17:49:24Z</time>
      </trkpt>
      <trkpt lat="45.05167" lon="0.41946">
        <ele>121.1</ele>
        <time>2022-10-29T17:49:25Z</time>
      </trkpt>
      <trkpt lat="45.05165" lon="0.41937">
        <ele>121.1</ele>
        <time>2022-10-29T17:49:27Z</time>
      </trkpt>
      <trkpt lat="45.05164" lon="0.41931">
        <ele>121</ele>
        <time>2022-10-29T17:49:28Z</time>
      </trkpt>
      <trkpt lat="45.05162" lon="0.41925">
        <ele>121</ele>
        <time>2022-10-29T17:49:29Z</time>
      </trkpt>
      <trkpt lat="45.05158" lon="0.41914">
        <ele>120.7</ele>
        <time>2022-10-29T17:49:31Z</time>
      </trkpt>
      <trkpt lat="45.05154" lon="0.41902">
        <ele>120.3</ele>
        <time>2022-10-29T17:49:33Z</time>
      </trkpt>
      <trkpt lat="45.05153" lon="0.41896">
        <ele>120.1</ele>
        <time>2022-10-29T17:49:34Z</time>
      </trkpt>
      <trkpt lat="45.05151" lon="0.4189">
        <ele>119.8</ele>
        <time>2022-10-29T17:49:35Z</time>
      </trkpt>
      <trkpt lat="45.05148" lon="0.41881">
        <ele>119.5</ele>
        <time>2022-10-29T17:49:36Z</time>
      </trkpt>
      <trkpt lat="45.05144" lon="0.41885">
        <ele>119.3</ele>
        <time>2022-10-29T17:49:37Z</time>
      </trkpt>
      <trkpt lat="45.05136" lon="0.41889">
        <ele>119.2</ele>
        <time>2022-10-29T17:49:39Z</time>
      </trkpt>
      <trkpt lat="45.05128" lon="0.4189">
        <ele>119.1</ele>
        <time>2022-10-29T17:49:41Z</time>
      </trkpt>
      <trkpt lat="45.0512" lon="0.4189">
        <ele>119.1</ele>
        <time>2022-10-29T17:49:43Z</time>
      </trkpt>
      <trkpt lat="45.05113" lon="0.41894">
        <ele>119.3</ele>
        <time>2022-10-29T17:49:45Z</time>
      </trkpt>
      <trkpt lat="45.05105" lon="0.41896">
        <ele>119.6</ele>
        <time>2022-10-29T17:49:47Z</time>
      </trkpt>
      <trkpt lat="45.05098" lon="0.41895">
        <ele>119.9</ele>
        <time>2022-10-29T17:49:49Z</time>
      </trkpt>
      <trkpt lat="45.05091" lon="0.41895">
        <ele>120.3</ele>
        <time>2022-10-29T17:49:51Z</time>
      </trkpt>
      <trkpt lat="45.05084" lon="0.41894">
        <ele>120.7</ele>
        <time>2022-10-29T17:49:53Z</time>
      </trkpt>
      <trkpt lat="45.05078" lon="0.41894">
        <ele>121.2</ele>
        <time>2022-10-29T17:49:55Z</time>
      </trkpt>
      <trkpt lat="45.05071" lon="0.41895">
        <ele>121.6</ele>
        <time>2022-10-29T17:49:57Z</time>
      </trkpt>
      <trkpt lat="45.05065" lon="0.41895">
        <ele>122.2</ele>
        <time>2022-10-29T17:49:59Z</time>
      </trkpt>
      <trkpt lat="45.0506" lon="0.41894">
        <ele>122.6</ele>
        <time>2022-10-29T17:50:01Z</time>
      </trkpt>
      <trkpt lat="45.05054" lon="0.41896">
        <ele>123.1</ele>
        <time>2022-10-29T17:50:03Z</time>
      </trkpt>
      <trkpt lat="45.05052" lon="0.41897">
        <ele>123.3</ele>
        <time>2022-10-29T17:50:04Z</time>
      </trkpt>
      <trkpt lat="45.0505" lon="0.41899">
        <ele>123.6</ele>
        <time>2022-10-29T17:50:05Z</time>
      </trkpt>
      <trkpt lat="45.05047" lon="0.419">
        <ele>123.9</ele>
        <time>2022-10-29T17:50:06Z</time>
      </trkpt>
      <trkpt lat="45.05044" lon="0.41902">
        <ele>124.2</ele>
        <time>2022-10-29T17:50:07Z</time>
      </trkpt>
      <trkpt lat="45.05042" lon="0.41903">
        <ele>124.4</ele>
        <time>2022-10-29T17:50:08Z</time>
      </trkpt>
      <trkpt lat="45.0504" lon="0.41903">
        <ele>124.7</ele>
        <time>2022-10-29T17:50:09Z</time>
      </trkpt>
      <trkpt lat="45.05035" lon="0.41905">
        <ele>125.4</ele>
        <time>2022-10-29T17:50:11Z</time>
      </trkpt>
      <trkpt lat="45.0503" lon="0.41903">
        <ele>126</ele>
        <time>2022-10-29T17:50:13Z</time>
      </trkpt>
      <trkpt lat="45.05028" lon="0.41903">
        <ele>126.3</ele>
        <time>2022-10-29T17:50:14Z</time>
      </trkpt>
      <trkpt lat="45.05026" lon="0.41901">
        <ele>126.5</ele>
        <time>2022-10-29T17:50:15Z</time>
      </trkpt>
      <trkpt lat="45.05022" lon="0.41899">
        <ele>126.8</ele>
        <time>2022-10-29T17:50:17Z</time>
      </trkpt>
      <trkpt lat="45.0502" lon="0.41897">
        <ele>127</ele>
        <time>2022-10-29T17:50:18Z</time>
      </trkpt>
      <trkpt lat="45.05017" lon="0.41895">
        <ele>127.1</ele>
        <time>2022-10-29T17:50:19Z</time>
      </trkpt>
      <trkpt lat="45.05012" lon="0.41891">
        <ele>127.4</ele>
        <time>2022-10-29T17:50:21Z</time>
      </trkpt>
      <trkpt lat="45.05006" lon="0.41886">
        <ele>127.6</ele>
        <time>2022-10-29T17:50:23Z</time>
      </trkpt>
      <trkpt lat="45.04999" lon="0.41881">
        <ele>127.7</ele>
        <time>2022-10-29T17:50:25Z</time>
      </trkpt>
      <trkpt lat="45.04992" lon="0.41876">
        <ele>127.8</ele>
        <time>2022-10-29T17:50:27Z</time>
      </trkpt>
      <trkpt lat="45.04988" lon="0.41874">
        <ele>127.8</ele>
        <time>2022-10-29T17:50:28Z</time>
      </trkpt>
      <trkpt lat="45.04985" lon="0.41871">
        <ele>127.9</ele>
        <time>2022-10-29T17:50:29Z</time>
      </trkpt>
      <trkpt lat="45.04981" lon="0.41868">
        <ele>127.9</ele>
        <time>2022-10-29T17:50:30Z</time>
      </trkpt>
      <trkpt lat="45.04977" lon="0.41865">
        <ele>127.9</ele>
        <time>2022-10-29T17:50:31Z</time>
      </trkpt>
      <trkpt lat="45.0497" lon="0.4186">
        <ele>128</ele>
        <time>2022-10-29T17:50:33Z</time>
      </trkpt>
      <trkpt lat="45.04963" lon="0.41855">
        <ele>128.1</ele>
        <time>2022-10-29T17:50:35Z</time>
      </trkpt>
      <trkpt lat="45.04957" lon="0.4185">
        <ele>128.2</ele>
        <time>2022-10-29T17:50:37Z</time>
      </trkpt>
      <trkpt lat="45.0495" lon="0.41845">
        <ele>128.3</ele>
        <time>2022-10-29T17:50:39Z</time>
      </trkpt>
      <trkpt lat="45.04947" lon="0.41843">
        <ele>128.4</ele>
        <time>2022-10-29T17:50:40Z</time>
      </trkpt>
      <trkpt lat="45.04944" lon="0.41841">
        <ele>128.6</ele>
        <time>2022-10-29T17:50:41Z</time>
      </trkpt>
      <trkpt lat="45.04938" lon="0.41836">
        <ele>128.8</ele>
        <time>2022-10-29T17:50:43Z</time>
      </trkpt>
      <trkpt lat="45.04934" lon="0.41834">
        <ele>129</ele>
        <time>2022-10-29T17:50:44Z</time>
      </trkpt>
      <trkpt lat="45.04932" lon="0.41832">
        <ele>129.1</ele>
        <time>2022-10-29T17:50:45Z</time>
      </trkpt>
      <trkpt lat="45.04925" lon="0.41827">
        <ele>129.5</ele>
        <time>2022-10-29T17:50:47Z</time>
      </trkpt>
      <trkpt lat="45.04918" lon="0.41822">
        <ele>129.9</ele>
        <time>2022-10-29T17:50:49Z</time>
      </trkpt>
      <trkpt lat="45.04912" lon="0.41817">
        <ele>130.3</ele>
        <time>2022-10-29T17:50:51Z</time>
      </trkpt>
      <trkpt lat="45.04905" lon="0.41813">
        <ele>130.7</ele>
        <time>2022-10-29T17:50:53Z</time>
      </trkpt>
      <trkpt lat="45.04902" lon="0.41809">
        <ele>130.8</ele>
        <time>2022-10-29T17:50:54Z</time>
      </trkpt>
      <trkpt lat="45.04901" lon="0.41804">
        <ele>131</ele>
        <time>2022-10-29T17:50:55Z</time>
      </trkpt>
      <trkpt lat="45.04898" lon="0.41794">
        <ele>131.1</ele>
        <time>2022-10-29T17:50:57Z</time>
      </trkpt>
      <trkpt lat="45.04897" lon="0.41789">
        <ele>131.2</ele>
        <time>2022-10-29T17:50:58Z</time>
      </trkpt>
      <trkpt lat="45.04896" lon="0.41784">
        <ele>131.2</ele>
        <time>2022-10-29T17:50:59Z</time>
      </trkpt>
      <trkpt lat="45.04895" lon="0.4177">
        <ele>131</ele>
        <time>2022-10-29T17:51:01Z</time>
      </trkpt>
      <trkpt lat="45.04895" lon="0.41757">
        <ele>130.9</ele>
        <time>2022-10-29T17:51:03Z</time>
      </trkpt>
      <trkpt lat="45.04895" lon="0.41743">
        <ele>130.7</ele>
        <time>2022-10-29T17:51:05Z</time>
      </trkpt>
      <trkpt lat="45.04895" lon="0.41736">
        <ele>130.6</ele>
        <time>2022-10-29T17:51:06Z</time>
      </trkpt>
      <trkpt lat="45.04895" lon="0.41729">
        <ele>130.4</ele>
        <time>2022-10-29T17:51:07Z</time>
      </trkpt>
      <trkpt lat="45.04895" lon="0.41715">
        <ele>130.2</ele>
        <time>2022-10-29T17:51:09Z</time>
      </trkpt>
      <trkpt lat="45.04895" lon="0.41708">
        <ele>130.1</ele>
        <time>2022-10-29T17:51:10Z</time>
      </trkpt>
      <trkpt lat="45.04895" lon="0.41702">
        <ele>130.1</ele>
        <time>2022-10-29T17:51:11Z</time>
      </trkpt>
      <trkpt lat="45.04895" lon="0.41689">
        <ele>130</ele>
        <time>2022-10-29T17:51:13Z</time>
      </trkpt>
      <trkpt lat="45.04895" lon="0.41683">
        <ele>130</ele>
        <time>2022-10-29T17:51:14Z</time>
      </trkpt>
      <trkpt lat="45.04895" lon="0.41679">
        <ele>130</ele>
        <time>2022-10-29T17:51:15Z</time>
      </trkpt>
      <trkpt lat="45.04888" lon="0.41672">
        <ele>129.6</ele>
        <time>2022-10-29T17:51:17Z</time>
      </trkpt>
      <trkpt lat="45.04884" lon="0.41668">
        <ele>129.4</ele>
        <time>2022-10-29T17:51:19Z</time>
      </trkpt>
      <trkpt lat="45.04878" lon="0.41663">
        <ele>129.1</ele>
        <time>2022-10-29T17:51:21Z</time>
      </trkpt>
      <trkpt lat="45.04875" lon="0.41659">
        <ele>128.9</ele>
        <time>2022-10-29T17:51:22Z</time>
      </trkpt>
      <trkpt lat="45.04871" lon="0.41657">
        <ele>128.7</ele>
        <time>2022-10-29T17:51:23Z</time>
      </trkpt>
      <trkpt lat="45.04863" lon="0.41652">
        <ele>128.2</ele>
        <time>2022-10-29T17:51:25Z</time>
      </trkpt>
      <trkpt lat="45.04853" lon="0.41647">
        <ele>127.6</ele>
        <time>2022-10-29T17:51:27Z</time>
      </trkpt>
      <trkpt lat="45.04844" lon="0.41639">
        <ele>126.8</ele>
        <time>2022-10-29T17:51:29Z</time>
      </trkpt>
      <trkpt lat="45.04838" lon="0.41637">
        <ele>126.3</ele>
        <time>2022-10-29T17:51:30Z</time>
      </trkpt>
      <trkpt lat="45.04833" lon="0.41637">
        <ele>125.6</ele>
        <time>2022-10-29T17:51:31Z</time>
      </trkpt>
      <trkpt lat="45.0482" lon="0.41641">
        <ele>123.9</ele>
        <time>2022-10-29T17:51:33Z</time>
      </trkpt>
      <trkpt lat="45.04804" lon="0.41647">
        <ele>121.7</ele>
        <time>2022-10-29T17:51:35Z</time>
      </trkpt>
      <trkpt lat="45.04786" lon="0.41653">
        <ele>120</ele>
        <time>2022-10-29T17:51:37Z</time>
      </trkpt>
      <trkpt lat="45.04767" lon="0.41659">
        <ele>119.2</ele>
        <time>2022-10-29T17:51:39Z</time>
      </trkpt>
      <trkpt lat="45.04751" lon="0.41666">
        <ele>118.9</ele>
        <time>2022-10-29T17:51:41Z</time>
      </trkpt>
      <trkpt lat="45.04739" lon="0.41671">
        <ele>119.1</ele>
        <time>2022-10-29T17:51:43Z</time>
      </trkpt>
      <trkpt lat="45.04729" lon="0.41675">
        <ele>119.3</ele>
        <time>2022-10-29T17:51:45Z</time>
      </trkpt>
      <trkpt lat="45.04719" lon="0.41676">
        <ele>119.1</ele>
        <time>2022-10-29T17:51:47Z</time>
      </trkpt>
      <trkpt lat="45.04713" lon="0.41674">
        <ele>118.9</ele>
        <time>2022-10-29T17:51:48Z</time>
      </trkpt>
      <trkpt lat="45.04707" lon="0.41669">
        <ele>118.4</ele>
        <time>2022-10-29T17:51:49Z</time>
      </trkpt>
      <trkpt lat="45.04697" lon="0.41654">
        <ele>117.1</ele>
        <time>2022-10-29T17:51:51Z</time>
      </trkpt>
      <trkpt lat="45.04692" lon="0.41647">
        <ele>116.3</ele>
        <time>2022-10-29T17:51:52Z</time>
      </trkpt>
      <trkpt lat="45.04687" lon="0.41639">
        <ele>115.5</ele>
        <time>2022-10-29T17:51:53Z</time>
      </trkpt>
      <trkpt lat="45.04678" lon="0.41622">
        <ele>114.1</ele>
        <time>2022-10-29T17:51:55Z</time>
      </trkpt>
      <trkpt lat="45.04668" lon="0.41605">
        <ele>112.5</ele>
        <time>2022-10-29T17:51:57Z</time>
      </trkpt>
      <trkpt lat="45.04663" lon="0.41596">
        <ele>111.7</ele>
        <time>2022-10-29T17:51:58Z</time>
      </trkpt>
      <trkpt lat="45.04658" lon="0.41587">
        <ele>110.9</ele>
        <time>2022-10-29T17:51:59Z</time>
      </trkpt>
      <trkpt lat="45.04648" lon="0.41571">
        <ele>109.9</ele>
        <time>2022-10-29T17:52:01Z</time>
      </trkpt>
      <trkpt lat="45.04644" lon="0.41564">
        <ele>109.3</ele>
        <time>2022-10-29T17:52:02Z</time>
      </trkpt>
      <trkpt lat="45.0464" lon="0.41559">
        <ele>108.8</ele>
        <time>2022-10-29T17:52:03Z</time>
      </trkpt>
      <trkpt lat="45.04637" lon="0.41555">
        <ele>108.4</ele>
        <time>2022-10-29T17:52:04Z</time>
      </trkpt>
      <trkpt lat="45.04634" lon="0.41547">
        <ele>107.7</ele>
        <time>2022-10-29T17:52:05Z</time>
      </trkpt>
      <trkpt lat="45.04636" lon="0.41545">
        <ele>107.2</ele>
        <time>2022-10-29T17:52:06Z</time>
      </trkpt>
      <trkpt lat="45.0464" lon="0.41541">
        <ele>106.8</ele>
        <time>2022-10-29T17:52:07Z</time>
      </trkpt>
      <trkpt lat="45.04649" lon="0.41531">
        <ele>105.9</ele>
        <time>2022-10-29T17:52:09Z</time>
      </trkpt>
      <trkpt lat="45.04657" lon="0.41517">
        <ele>105.1</ele>
        <time>2022-10-29T17:52:11Z</time>
      </trkpt>
      <trkpt lat="45.04661" lon="0.41497">
        <ele>104.2</ele>
        <time>2022-10-29T17:52:13Z</time>
      </trkpt>
      <trkpt lat="45.04662" lon="0.41488">
        <ele>103.8</ele>
        <time>2022-10-29T17:52:14Z</time>
      </trkpt>
      <trkpt lat="45.04663" lon="0.41478">
        <ele>103.5</ele>
        <time>2022-10-29T17:52:15Z</time>
      </trkpt>
      <trkpt lat="45.04663" lon="0.41468">
        <ele>103.2</ele>
        <time>2022-10-29T17:52:16Z</time>
      </trkpt>
      <trkpt lat="45.04662" lon="0.41458">
        <ele>103</ele>
        <time>2022-10-29T17:52:17Z</time>
      </trkpt>
      <trkpt lat="45.0466" lon="0.41439">
        <ele>102.6</ele>
        <time>2022-10-29T17:52:19Z</time>
      </trkpt>
      <trkpt lat="45.04658" lon="0.41429">
        <ele>102.3</ele>
        <time>2022-10-29T17:52:20Z</time>
      </trkpt>
      <trkpt lat="45.04657" lon="0.41419">
        <ele>102.1</ele>
        <time>2022-10-29T17:52:21Z</time>
      </trkpt>
      <trkpt lat="45.04657" lon="0.41409">
        <ele>101.7</ele>
        <time>2022-10-29T17:52:22Z</time>
      </trkpt>
      <trkpt lat="45.04659" lon="0.41399">
        <ele>101.4</ele>
        <time>2022-10-29T17:52:23Z</time>
      </trkpt>
      <trkpt lat="45.04661" lon="0.41389">
        <ele>101.2</ele>
        <time>2022-10-29T17:52:24Z</time>
      </trkpt>
      <trkpt lat="45.04663" lon="0.41379">
        <ele>100.9</ele>
        <time>2022-10-29T17:52:25Z</time>
      </trkpt>
      <trkpt lat="45.04668" lon="0.41348">
        <ele>100.1</ele>
        <time>2022-10-29T17:52:27Z</time>
      </trkpt>
      <trkpt lat="45.04668" lon="0.41338">
        <ele>99.8</ele>
        <time>2022-10-29T17:52:29Z</time>
      </trkpt>
      <trkpt lat="45.0467" lon="0.41316">
        <ele>99.1</ele>
        <time>2022-10-29T17:52:31Z</time>
      </trkpt>
      <trkpt lat="45.04671" lon="0.41305">
        <ele>98.7</ele>
        <time>2022-10-29T17:52:32Z</time>
      </trkpt>
      <trkpt lat="45.04671" lon="0.41293">
        <ele>98.3</ele>
        <time>2022-10-29T17:52:33Z</time>
      </trkpt>
      <trkpt lat="45.0467" lon="0.41269">
        <ele>97.6</ele>
        <time>2022-10-29T17:52:35Z</time>
      </trkpt>
      <trkpt lat="45.0467" lon="0.41247">
        <ele>96.8</ele>
        <time>2022-10-29T17:52:37Z</time>
      </trkpt>
      <trkpt lat="45.04672" lon="0.41224">
        <ele>95.9</ele>
        <time>2022-10-29T17:52:39Z</time>
      </trkpt>
      <trkpt lat="45.04676" lon="0.41215">
        <ele>95.4</ele>
        <time>2022-10-29T17:52:40Z</time>
      </trkpt>
      <trkpt lat="45.0468" lon="0.41205">
        <ele>94.8</ele>
        <time>2022-10-29T17:52:41Z</time>
      </trkpt>
      <trkpt lat="45.04691" lon="0.41184">
        <ele>93.7</ele>
        <time>2022-10-29T17:52:43Z</time>
      </trkpt>
      <trkpt lat="45.047" lon="0.41164">
        <ele>92.7</ele>
        <time>2022-10-29T17:52:45Z</time>
      </trkpt>
      <trkpt lat="45.0471" lon="0.41145">
        <ele>91.7</ele>
        <time>2022-10-29T17:52:47Z</time>
      </trkpt>
      <trkpt lat="45.0472" lon="0.41126">
        <ele>90.7</ele>
        <time>2022-10-29T17:52:49Z</time>
      </trkpt>
      <trkpt lat="45.04729" lon="0.41107">
        <ele>89.7</ele>
        <time>2022-10-29T17:52:51Z</time>
      </trkpt>
      <trkpt lat="45.04734" lon="0.41098">
        <ele>89.2</ele>
        <time>2022-10-29T17:52:52Z</time>
      </trkpt>
      <trkpt lat="45.04739" lon="0.41088">
        <ele>88.7</ele>
        <time>2022-10-29T17:52:53Z</time>
      </trkpt>
      <trkpt lat="45.04752" lon="0.41071">
        <ele>87.7</ele>
        <time>2022-10-29T17:52:55Z</time>
      </trkpt>
      <trkpt lat="45.04763" lon="0.41055">
        <ele>86.7</ele>
        <time>2022-10-29T17:52:57Z</time>
      </trkpt>
      <trkpt lat="45.04778" lon="0.41038">
        <ele>85.7</ele>
        <time>2022-10-29T17:52:59Z</time>
      </trkpt>
      <trkpt lat="45.04793" lon="0.41028">
        <ele>84.8</ele>
        <time>2022-10-29T17:53:01Z</time>
      </trkpt>
      <trkpt lat="45.04807" lon="0.41018">
        <ele>84.1</ele>
        <time>2022-10-29T17:53:03Z</time>
      </trkpt>
      <trkpt lat="45.04822" lon="0.41009">
        <ele>83.2</ele>
        <time>2022-10-29T17:53:05Z</time>
      </trkpt>
      <trkpt lat="45.04831" lon="0.41004">
        <ele>82.8</ele>
        <time>2022-10-29T17:53:06Z</time>
      </trkpt>
      <trkpt lat="45.04839" lon="0.41001">
        <ele>82.4</ele>
        <time>2022-10-29T17:53:07Z</time>
      </trkpt>
      <trkpt lat="45.04855" lon="0.40996">
        <ele>81.5</ele>
        <time>2022-10-29T17:53:09Z</time>
      </trkpt>
      <trkpt lat="45.04863" lon="0.40994">
        <ele>81</ele>
        <time>2022-10-29T17:53:10Z</time>
      </trkpt>
      <trkpt lat="45.04872" lon="0.40991">
        <ele>80.4</ele>
        <time>2022-10-29T17:53:11Z</time>
      </trkpt>
      <trkpt lat="45.04889" lon="0.40985">
        <ele>79.6</ele>
        <time>2022-10-29T17:53:13Z</time>
      </trkpt>
      <trkpt lat="45.04906" lon="0.4098">
        <ele>79</ele>
        <time>2022-10-29T17:53:15Z</time>
      </trkpt>
      <trkpt lat="45.04922" lon="0.40974">
        <ele>78.3</ele>
        <time>2022-10-29T17:53:17Z</time>
      </trkpt>
      <trkpt lat="45.04931" lon="0.40971">
        <ele>77.9</ele>
        <time>2022-10-29T17:53:18Z</time>
      </trkpt>
      <trkpt lat="45.04941" lon="0.40966">
        <ele>77.5</ele>
        <time>2022-10-29T17:53:19Z</time>
      </trkpt>
      <trkpt lat="45.04957" lon="0.4095">
        <ele>76.8</ele>
        <time>2022-10-29T17:53:21Z</time>
      </trkpt>
      <trkpt lat="45.0497" lon="0.40937">
        <ele>76.3</ele>
        <time>2022-10-29T17:53:23Z</time>
      </trkpt>
      <trkpt lat="45.04985" lon="0.40928">
        <ele>75.7</ele>
        <time>2022-10-29T17:53:25Z</time>
      </trkpt>
      <trkpt lat="45.05002" lon="0.40921">
        <ele>75.1</ele>
        <time>2022-10-29T17:53:27Z</time>
      </trkpt>
      <trkpt lat="45.0501" lon="0.40917">
        <ele>74.8</ele>
        <time>2022-10-29T17:53:28Z</time>
      </trkpt>
      <trkpt lat="45.05018" lon="0.40913">
        <ele>74.5</ele>
        <time>2022-10-29T17:53:29Z</time>
      </trkpt>
      <trkpt lat="45.05035" lon="0.40907">
        <ele>74.3</ele>
        <time>2022-10-29T17:53:31Z</time>
      </trkpt>
      <trkpt lat="45.05051" lon="0.40904">
        <ele>74.2</ele>
        <time>2022-10-29T17:53:33Z</time>
      </trkpt>
      <trkpt lat="45.05058" lon="0.40903">
        <ele>74.3</ele>
        <time>2022-10-29T17:53:34Z</time>
      </trkpt>
      <trkpt lat="45.05065" lon="0.40902">
        <ele>74.3</ele>
        <time>2022-10-29T17:53:35Z</time>
      </trkpt>
      <trkpt lat="45.05079" lon="0.40897">
        <ele>74.6</ele>
        <time>2022-10-29T17:53:37Z</time>
      </trkpt>
      <trkpt lat="45.05082" lon="0.40895">
        <ele>74.7</ele>
        <time>2022-10-29T17:53:38Z</time>
      </trkpt>
      <trkpt lat="45.05084" lon="0.40894">
        <ele>74.8</ele>
        <time>2022-10-29T17:53:39Z</time>
      </trkpt>
      <trkpt lat="45.05085" lon="0.40893">
        <ele>74.8</ele>
        <time>2022-10-29T17:53:40Z</time>
      </trkpt>
      <trkpt lat="45.05084" lon="0.4089">
        <ele>75.3</ele>
        <time>2022-10-29T17:53:41Z</time>
      </trkpt>
      <trkpt lat="45.0508" lon="0.40889">
        <ele>75.5</ele>
        <time>2022-10-29T17:53:43Z</time>
      </trkpt>
      <trkpt lat="45.05076" lon="0.40887">
        <ele>75.8</ele>
        <time>2022-10-29T17:53:45Z</time>
      </trkpt>
      <trkpt lat="45.05072" lon="0.40885">
        <ele>76.3</ele>
        <time>2022-10-29T17:53:47Z</time>
      </trkpt>
      <trkpt lat="45.05066" lon="0.40883">
        <ele>76.8</ele>
        <time>2022-10-29T17:53:49Z</time>
      </trkpt>
      <trkpt lat="45.05064" lon="0.40882">
        <ele>77.1</ele>
        <time>2022-10-29T17:53:50Z</time>
      </trkpt>
      <trkpt lat="45.05061" lon="0.40882">
        <ele>77.4</ele>
        <time>2022-10-29T17:53:51Z</time>
      </trkpt>
      <trkpt lat="45.05058" lon="0.40881">
        <ele>77.9</ele>
        <time>2022-10-29T17:53:53Z</time>
      </trkpt>
      <trkpt lat="45.05053" lon="0.40881">
        <ele>78.5</ele>
        <time>2022-10-29T17:53:55Z</time>
      </trkpt>
      <trkpt lat="45.0505" lon="0.4088">
        <ele>78.8</ele>
        <time>2022-10-29T17:53:56Z</time>
      </trkpt>
      <trkpt lat="45.05048" lon="0.4088">
        <ele>79.1</ele>
        <time>2022-10-29T17:53:57Z</time>
      </trkpt>
      <trkpt lat="45.05044" lon="0.40879">
        <ele>79.7</ele>
        <time>2022-10-29T17:53:59Z</time>
      </trkpt>
      <trkpt lat="45.0504" lon="0.40877">
        <ele>80.2</ele>
        <time>2022-10-29T17:54:01Z</time>
      </trkpt>
      <trkpt lat="45.05036" lon="0.40875">
        <ele>80.7</ele>
        <time>2022-10-29T17:54:03Z</time>
      </trkpt>
      <trkpt lat="45.05032" lon="0.40873">
        <ele>81.1</ele>
        <time>2022-10-29T17:54:05Z</time>
      </trkpt>
      <trkpt lat="45.05028" lon="0.40872">
        <ele>81.5</ele>
        <time>2022-10-29T17:54:06Z</time>
      </trkpt>
      <trkpt lat="45.05026" lon="0.40872">
        <ele>81.8</ele>
        <time>2022-10-29T17:54:07Z</time>
      </trkpt>
      <trkpt lat="45.05022" lon="0.40872">
        <ele>82.3</ele>
        <time>2022-10-29T17:54:09Z</time>
      </trkpt>
      <trkpt lat="45.05018" lon="0.40871">
        <ele>82.9</ele>
        <time>2022-10-29T17:54:11Z</time>
      </trkpt>
      <trkpt lat="45.05016" lon="0.40871">
        <ele>83.3</ele>
        <time>2022-10-29T17:54:12Z</time>
      </trkpt>
      <trkpt lat="45.05014" lon="0.40871">
        <ele>83.6</ele>
        <time>2022-10-29T17:54:13Z</time>
      </trkpt>
      <trkpt lat="45.05009" lon="0.4087">
        <ele>84.2</ele>
        <time>2022-10-29T17:54:15Z</time>
      </trkpt>
      <trkpt lat="45.05006" lon="0.4087">
        <ele>84.7</ele>
        <time>2022-10-29T17:54:17Z</time>
      </trkpt>
      <trkpt lat="45.05004" lon="0.4087">
        <ele>85.1</ele>
        <time>2022-10-29T17:54:19Z</time>
      </trkpt>
      <trkpt lat="45.05" lon="0.4087">
        <ele>85.6</ele>
        <time>2022-10-29T17:54:21Z</time>
      </trkpt>
      <trkpt lat="45.04998" lon="0.4087">
        <ele>85.9</ele>
        <time>2022-10-29T17:54:23Z</time>
      </trkpt>
      <trkpt lat="45.04997" lon="0.4087">
        <ele>86.1</ele>
        <time>2022-10-29T17:54:24Z</time>
      </trkpt>
      <trkpt lat="45.04996" lon="0.4087">
        <ele>86.3</ele>
        <time>2022-10-29T17:54:25Z</time>
      </trkpt>
      <trkpt lat="45.04992" lon="0.4087">
        <ele>86.8</ele>
        <time>2022-10-29T17:54:27Z</time>
      </trkpt>
      <trkpt lat="45.04987" lon="0.4087">
        <ele>87.5</ele>
        <time>2022-10-29T17:54:29Z</time>
      </trkpt>
      <trkpt lat="45.04985" lon="0.4087">
        <ele>87.8</ele>
        <time>2022-10-29T17:54:30Z</time>
      </trkpt>
      <trkpt lat="45.04983" lon="0.4087">
        <ele>88.1</ele>
        <time>2022-10-29T17:54:31Z</time>
      </trkpt>
      <trkpt lat="45.04979" lon="0.4087">
        <ele>88.5</ele>
        <time>2022-10-29T17:54:33Z</time>
      </trkpt>
      <trkpt lat="45.04975" lon="0.40869">
        <ele>89.1</ele>
        <time>2022-10-29T17:54:35Z</time>
      </trkpt>
      <trkpt lat="45.04973" lon="0.4087">
        <ele>89.3</ele>
        <time>2022-10-29T17:54:37Z</time>
      </trkpt>
      <trkpt lat="45.04972" lon="0.4087">
        <ele>89.4</ele>
        <time>2022-10-29T17:54:39Z</time>
      </trkpt>
      <trkpt lat="45.04971" lon="0.40871">
        <ele>89.6</ele>
        <time>2022-10-29T17:54:41Z</time>
      </trkpt>
      <trkpt lat="45.04969" lon="0.40871">
        <ele>89.8</ele>
        <time>2022-10-29T17:54:43Z</time>
      </trkpt>
      <trkpt lat="45.04968" lon="0.40871">
        <ele>90</ele>
        <time>2022-10-29T17:54:45Z</time>
      </trkpt>
      <trkpt lat="45.04966" lon="0.40872">
        <ele>90.2</ele>
        <time>2022-10-29T17:54:47Z</time>
      </trkpt>
      <trkpt lat="45.04965" lon="0.40872">
        <ele>90.3</ele>
        <time>2022-10-29T17:54:49Z</time>
      </trkpt>
      <trkpt lat="45.04964" lon="0.40873">
        <ele>90.5</ele>
        <time>2022-10-29T17:54:51Z</time>
      </trkpt>
      <trkpt lat="45.04962" lon="0.40873">
        <ele>90.7</ele>
        <time>2022-10-29T17:54:52Z</time>
      </trkpt>
      <trkpt lat="45.04961" lon="0.40874">
        <ele>90.9</ele>
        <time>2022-10-29T17:54:53Z</time>
      </trkpt>
      <trkpt lat="45.04935" lon="0.40884">
        <ele>93.6</ele>
        <time>2022-10-29T17:54:55Z</time>
      </trkpt>
      <trkpt lat="45.04932" lon="0.40883">
        <ele>93.8</ele>
        <time>2022-10-29T17:54:57Z</time>
      </trkpt>
      <trkpt lat="45.04928" lon="0.40884">
        <ele>94</ele>
        <time>2022-10-29T17:54:59Z</time>
      </trkpt>
      <trkpt lat="45.04924" lon="0.40885">
        <ele>94.2</ele>
        <time>2022-10-29T17:55:01Z</time>
      </trkpt>
      <trkpt lat="45.04921" lon="0.40885">
        <ele>94.5</ele>
        <time>2022-10-29T17:55:03Z</time>
      </trkpt>
      <trkpt lat="45.04916" lon="0.40885">
        <ele>94.7</ele>
        <time>2022-10-29T17:55:05Z</time>
      </trkpt>
      <trkpt lat="45.04912" lon="0.40886">
        <ele>95</ele>
        <time>2022-10-29T17:55:07Z</time>
      </trkpt>
      <trkpt lat="45.04908" lon="0.40887">
        <ele>95.2</ele>
        <time>2022-10-29T17:55:09Z</time>
      </trkpt>
      <trkpt lat="45.04904" lon="0.40887">
        <ele>95.5</ele>
        <time>2022-10-29T17:55:11Z</time>
      </trkpt>
      <trkpt lat="45.04901" lon="0.40888">
        <ele>95.7</ele>
        <time>2022-10-29T17:55:13Z</time>
      </trkpt>
      <trkpt lat="45.04897" lon="0.40888">
        <ele>95.9</ele>
        <time>2022-10-29T17:55:15Z</time>
      </trkpt>
      <trkpt lat="45.04895" lon="0.40888">
        <ele>96.1</ele>
        <time>2022-10-29T17:55:16Z</time>
      </trkpt>
      <trkpt lat="45.04893" lon="0.40888">
        <ele>96.2</ele>
        <time>2022-10-29T17:55:17Z</time>
      </trkpt>
      <trkpt lat="45.04889" lon="0.40887">
        <ele>96.5</ele>
        <time>2022-10-29T17:55:19Z</time>
      </trkpt>
      <trkpt lat="45.04883" lon="0.40869">
        <ele>97.5</ele>
        <time>2022-10-29T17:55:21Z</time>
      </trkpt>
      <trkpt lat="45.04881" lon="0.4087">
        <ele>97.7</ele>
        <time>2022-10-29T17:55:22Z</time>
      </trkpt>
      <trkpt lat="45.04879" lon="0.40871">
        <ele>97.9</ele>
        <time>2022-10-29T17:55:23Z</time>
      </trkpt>
      <trkpt lat="45.04877" lon="0.40872">
        <ele>98.2</ele>
        <time>2022-10-29T17:55:25Z</time>
      </trkpt>
      <trkpt lat="45.04874" lon="0.40874">
        <ele>98.4</ele>
        <time>2022-10-29T17:55:27Z</time>
      </trkpt>
      <trkpt lat="45.04872" lon="0.40875">
        <ele>98.7</ele>
        <time>2022-10-29T17:55:29Z</time>
      </trkpt>
      <trkpt lat="45.0487" lon="0.40875">
        <ele>98.8</ele>
        <time>2022-10-29T17:55:31Z</time>
      </trkpt>
      <trkpt lat="45.04868" lon="0.40877">
        <ele>99.1</ele>
        <time>2022-10-29T17:55:33Z</time>
      </trkpt>
      <trkpt lat="45.04866" lon="0.40877">
        <ele>99.2</ele>
        <time>2022-10-29T17:55:34Z</time>
      </trkpt>
      <trkpt lat="45.04865" lon="0.40878">
        <ele>99.3</ele>
        <time>2022-10-29T17:55:35Z</time>
      </trkpt>
      <trkpt lat="45.04863" lon="0.40879">
        <ele>99.5</ele>
        <time>2022-10-29T17:55:37Z</time>
      </trkpt>
      <trkpt lat="45.0486" lon="0.40879">
        <ele>99.8</ele>
        <time>2022-10-29T17:55:39Z</time>
      </trkpt>
      <trkpt lat="45.04858" lon="0.4088">
        <ele>100</ele>
        <time>2022-10-29T17:55:41Z</time>
      </trkpt>
      <trkpt lat="45.04855" lon="0.4088">
        <ele>100.3</ele>
        <time>2022-10-29T17:55:43Z</time>
      </trkpt>
      <trkpt lat="45.04855" lon="0.4088">
        <ele>100.3</ele>
        <time>2022-10-29T17:55:44Z</time>
      </trkpt>
      <trkpt lat="45.04851" lon="0.40881">
        <ele>100.8</ele>
        <time>2022-10-29T17:55:47Z</time>
      </trkpt>
      <trkpt lat="45.04845" lon="0.40881">
        <ele>101.4</ele>
        <time>2022-10-29T17:55:49Z</time>
      </trkpt>
      <trkpt lat="45.04843" lon="0.40881">
        <ele>101.7</ele>
        <time>2022-10-29T17:55:50Z</time>
      </trkpt>
      <trkpt lat="45.04841" lon="0.40881">
        <ele>101.9</ele>
        <time>2022-10-29T17:55:51Z</time>
      </trkpt>
      <trkpt lat="45.04839" lon="0.40881">
        <ele>102.1</ele>
        <time>2022-10-29T17:55:52Z</time>
      </trkpt>
      <trkpt lat="45.04837" lon="0.4088">
        <ele>102.3</ele>
        <time>2022-10-29T17:55:53Z</time>
      </trkpt>
      <trkpt lat="45.04834" lon="0.4088">
        <ele>102.6</ele>
        <time>2022-10-29T17:55:55Z</time>
      </trkpt>
      <trkpt lat="45.04831" lon="0.4088">
        <ele>103.1</ele>
        <time>2022-10-29T17:55:57Z</time>
      </trkpt>
      <trkpt lat="45.04827" lon="0.4088">
        <ele>103.4</ele>
        <time>2022-10-29T17:55:58Z</time>
      </trkpt>
      <trkpt lat="45.04825" lon="0.4088">
        <ele>103.6</ele>
        <time>2022-10-29T17:55:59Z</time>
      </trkpt>
      <trkpt lat="45.04824" lon="0.40879">
        <ele>103.8</ele>
        <time>2022-10-29T17:56:00Z</time>
      </trkpt>
      <trkpt lat="45.04822" lon="0.40879">
        <ele>104</ele>
        <time>2022-10-29T17:56:01Z</time>
      </trkpt>
      <trkpt lat="45.04817" lon="0.40879">
        <ele>104.5</ele>
        <time>2022-10-29T17:56:03Z</time>
      </trkpt>
      <trkpt lat="45.04813" lon="0.40879">
        <ele>104.8</ele>
        <time>2022-10-29T17:56:05Z</time>
      </trkpt>
      <trkpt lat="45.04809" lon="0.40878">
        <ele>105.2</ele>
        <time>2022-10-29T17:56:07Z</time>
      </trkpt>
      <trkpt lat="45.04805" lon="0.40878">
        <ele>105.4</ele>
        <time>2022-10-29T17:56:09Z</time>
      </trkpt>
      <trkpt lat="45.04801" lon="0.40878">
        <ele>105.7</ele>
        <time>2022-10-29T17:56:11Z</time>
      </trkpt>
      <trkpt lat="45.04797" lon="0.40877">
        <ele>105.9</ele>
        <time>2022-10-29T17:56:13Z</time>
      </trkpt>
      <trkpt lat="45.04793" lon="0.40877">
        <ele>106.1</ele>
        <time>2022-10-29T17:56:15Z</time>
      </trkpt>
      <trkpt lat="45.04792" lon="0.40877">
        <ele>106.1</ele>
        <time>2022-10-29T17:56:16Z</time>
      </trkpt>
      <trkpt lat="45.0479" lon="0.40877">
        <ele>106.2</ele>
        <time>2022-10-29T17:56:17Z</time>
      </trkpt>
      <trkpt lat="45.04786" lon="0.40877">
        <ele>106.3</ele>
        <time>2022-10-29T17:56:19Z</time>
      </trkpt>
      <trkpt lat="45.0478" lon="0.40877">
        <ele>106.4</ele>
        <time>2022-10-29T17:56:21Z</time>
      </trkpt>
      <trkpt lat="45.04777" lon="0.40877">
        <ele>106.4</ele>
        <time>2022-10-29T17:56:22Z</time>
      </trkpt>
      <trkpt lat="45.04774" lon="0.40878">
        <ele>106.4</ele>
        <time>2022-10-29T17:56:23Z</time>
      </trkpt>
      <trkpt lat="45.04768" lon="0.40882">
        <ele>106.3</ele>
        <time>2022-10-29T17:56:25Z</time>
      </trkpt>
      <trkpt lat="45.04762" lon="0.40886">
        <ele>106.2</ele>
        <time>2022-10-29T17:56:27Z</time>
      </trkpt>
      <trkpt lat="45.04758" lon="0.40888">
        <ele>106.2</ele>
        <time>2022-10-29T17:56:29Z</time>
      </trkpt>
      <trkpt lat="45.04752" lon="0.40892">
        <ele>106.3</ele>
        <time>2022-10-29T17:56:31Z</time>
      </trkpt>
      <trkpt lat="45.04749" lon="0.40894">
        <ele>106.3</ele>
        <time>2022-10-29T17:56:32Z</time>
      </trkpt>
      <trkpt lat="45.04746" lon="0.40896">
        <ele>106.3</ele>
        <time>2022-10-29T17:56:33Z</time>
      </trkpt>
      <trkpt lat="45.04738" lon="0.40901">
        <ele>106.5</ele>
        <time>2022-10-29T17:56:35Z</time>
      </trkpt>
      <trkpt lat="45.0473" lon="0.40904">
        <ele>106.8</ele>
        <time>2022-10-29T17:56:37Z</time>
      </trkpt>
      <trkpt lat="45.04723" lon="0.40906">
        <ele>107.2</ele>
        <time>2022-10-29T17:56:39Z</time>
      </trkpt>
      <trkpt lat="45.04717" lon="0.40909">
        <ele>107.5</ele>
        <time>2022-10-29T17:56:41Z</time>
      </trkpt>
      <trkpt lat="45.04711" lon="0.40911">
        <ele>107.8</ele>
        <time>2022-10-29T17:56:43Z</time>
      </trkpt>
      <trkpt lat="45.04707" lon="0.40913">
        <ele>108.1</ele>
        <time>2022-10-29T17:56:45Z</time>
      </trkpt>
      <trkpt lat="45.04705" lon="0.40913">
        <ele>108.2</ele>
        <time>2022-10-29T17:56:46Z</time>
      </trkpt>
      <trkpt lat="45.04702" lon="0.40914">
        <ele>108.4</ele>
        <time>2022-10-29T17:56:47Z</time>
      </trkpt>
      <trkpt lat="45.04697" lon="0.40916">
        <ele>108.8</ele>
        <time>2022-10-29T17:56:49Z</time>
      </trkpt>
      <trkpt lat="45.04692" lon="0.40916">
        <ele>109.1</ele>
        <time>2022-10-29T17:56:51Z</time>
      </trkpt>
      <trkpt lat="45.0469" lon="0.40916">
        <ele>109.2</ele>
        <time>2022-10-29T17:56:52Z</time>
      </trkpt>
      <trkpt lat="45.04687" lon="0.40916">
        <ele>109.3</ele>
        <time>2022-10-29T17:56:53Z</time>
      </trkpt>
      <trkpt lat="45.04682" lon="0.40916">
        <ele>109.6</ele>
        <time>2022-10-29T17:56:55Z</time>
      </trkpt>
      <trkpt lat="45.0468" lon="0.40916">
        <ele>109.7</ele>
        <time>2022-10-29T17:56:56Z</time>
      </trkpt>
      <trkpt lat="45.04677" lon="0.40916">
        <ele>109.9</ele>
        <time>2022-10-29T17:56:57Z</time>
      </trkpt>
      <trkpt lat="45.04672" lon="0.40916">
        <ele>110.2</ele>
        <time>2022-10-29T17:56:59Z</time>
      </trkpt>
      <trkpt lat="45.04667" lon="0.40917">
        <ele>110.4</ele>
        <time>2022-10-29T17:57:01Z</time>
      </trkpt>
      <trkpt lat="45.04664" lon="0.40917">
        <ele>110.5</ele>
        <time>2022-10-29T17:57:02Z</time>
      </trkpt>
      <trkpt lat="45.04661" lon="0.40917">
        <ele>110.6</ele>
        <time>2022-10-29T17:57:03Z</time>
      </trkpt>
      <trkpt lat="45.04654" lon="0.40917">
        <ele>110.8</ele>
        <time>2022-10-29T17:57:05Z</time>
      </trkpt>
      <trkpt lat="45.04646" lon="0.40917">
        <ele>110.8</ele>
        <time>2022-10-29T17:57:07Z</time>
      </trkpt>
      <trkpt lat="45.04639" lon="0.40917">
        <ele>110.8</ele>
        <time>2022-10-29T17:57:09Z</time>
      </trkpt>
      <trkpt lat="45.04631" lon="0.40918">
        <ele>110.7</ele>
        <time>2022-10-29T17:57:11Z</time>
      </trkpt>
      <trkpt lat="45.04623" lon="0.40919">
        <ele>110.6</ele>
        <time>2022-10-29T17:57:13Z</time>
      </trkpt>
      <trkpt lat="45.04617" lon="0.40919">
        <ele>110.5</ele>
        <time>2022-10-29T17:57:15Z</time>
      </trkpt>
      <trkpt lat="45.0461" lon="0.40921">
        <ele>110.6</ele>
        <time>2022-10-29T17:57:17Z</time>
      </trkpt>
      <trkpt lat="45.04603" lon="0.40925">
        <ele>110.8</ele>
        <time>2022-10-29T17:57:19Z</time>
      </trkpt>
      <trkpt lat="45.046" lon="0.40926">
        <ele>110.8</ele>
        <time>2022-10-29T17:57:20Z</time>
      </trkpt>
      <trkpt lat="45.04597" lon="0.40927">
        <ele>110.9</ele>
        <time>2022-10-29T17:57:21Z</time>
      </trkpt>
      <trkpt lat="45.04589" lon="0.40931">
        <ele>111</ele>
        <time>2022-10-29T17:57:23Z</time>
      </trkpt>
      <trkpt lat="45.04582" lon="0.40934">
        <ele>111.1</ele>
        <time>2022-10-29T17:57:25Z</time>
      </trkpt>
      <trkpt lat="45.04578" lon="0.40936">
        <ele>111.1</ele>
        <time>2022-10-29T17:57:26Z</time>
      </trkpt>
      <trkpt lat="45.04576" lon="0.40937">
        <ele>111.1</ele>
        <time>2022-10-29T17:57:27Z</time>
      </trkpt>
      <trkpt lat="45.04571" lon="0.40939">
        <ele>111.1</ele>
        <time>2022-10-29T17:57:29Z</time>
      </trkpt>
      <trkpt lat="45.04565" lon="0.40943">
        <ele>111.2</ele>
        <time>2022-10-29T17:57:31Z</time>
      </trkpt>
      <trkpt lat="45.04557" lon="0.40949">
        <ele>111.3</ele>
        <time>2022-10-29T17:57:33Z</time>
      </trkpt>
      <trkpt lat="45.0455" lon="0.40955">
        <ele>111.5</ele>
        <time>2022-10-29T17:57:35Z</time>
      </trkpt>
      <trkpt lat="45.04542" lon="0.4096">
        <ele>111.6</ele>
        <time>2022-10-29T17:57:37Z</time>
      </trkpt>
      <trkpt lat="45.04535" lon="0.40966">
        <ele>111.7</ele>
        <time>2022-10-29T17:57:39Z</time>
      </trkpt>
      <trkpt lat="45.04528" lon="0.40971">
        <ele>111.8</ele>
        <time>2022-10-29T17:57:41Z</time>
      </trkpt>
      <trkpt lat="45.04525" lon="0.40974">
        <ele>111.8</ele>
        <time>2022-10-29T17:57:42Z</time>
      </trkpt>
      <trkpt lat="45.04521" lon="0.40976">
        <ele>111.8</ele>
        <time>2022-10-29T17:57:43Z</time>
      </trkpt>
      <trkpt lat="45.04515" lon="0.40982">
        <ele>111.8</ele>
        <time>2022-10-29T17:57:45Z</time>
      </trkpt>
      <trkpt lat="45.04509" lon="0.40986">
        <ele>111.9</ele>
        <time>2022-10-29T17:57:47Z</time>
      </trkpt>
      <trkpt lat="45.04503" lon="0.40992">
        <ele>112</ele>
        <time>2022-10-29T17:57:49Z</time>
      </trkpt>
      <trkpt lat="45.04496" lon="0.40999">
        <ele>112.2</ele>
        <time>2022-10-29T17:57:51Z</time>
      </trkpt>
      <trkpt lat="45.04493" lon="0.41003">
        <ele>112.3</ele>
        <time>2022-10-29T17:57:52Z</time>
      </trkpt>
      <trkpt lat="45.0449" lon="0.41006">
        <ele>112.5</ele>
        <time>2022-10-29T17:57:53Z</time>
      </trkpt>
      <trkpt lat="45.04488" lon="0.41009">
        <ele>112.6</ele>
        <time>2022-10-29T17:57:54Z</time>
      </trkpt>
      <trkpt lat="45.04486" lon="0.41012">
        <ele>112.7</ele>
        <time>2022-10-29T17:57:55Z</time>
      </trkpt>
      <trkpt lat="45.04485" lon="0.41014">
        <ele>112.8</ele>
        <time>2022-10-29T17:57:56Z</time>
      </trkpt>
      <trkpt lat="45.04483" lon="0.41016">
        <ele>112.9</ele>
        <time>2022-10-29T17:57:57Z</time>
      </trkpt>
      <trkpt lat="45.04477" lon="0.41026">
        <ele>113.2</ele>
        <time>2022-10-29T17:57:59Z</time>
      </trkpt>
      <trkpt lat="45.04471" lon="0.41033">
        <ele>113.5</ele>
        <time>2022-10-29T17:58:01Z</time>
      </trkpt>
      <trkpt lat="45.04462" lon="0.41039">
        <ele>113.6</ele>
        <time>2022-10-29T17:58:03Z</time>
      </trkpt>
      <trkpt lat="45.04455" lon="0.41045">
        <ele>113.8</ele>
        <time>2022-10-29T17:58:05Z</time>
      </trkpt>
      <trkpt lat="45.04451" lon="0.41047">
        <ele>113.9</ele>
        <time>2022-10-29T17:58:06Z</time>
      </trkpt>
      <trkpt lat="45.04447" lon="0.4105">
        <ele>114</ele>
        <time>2022-10-29T17:58:07Z</time>
      </trkpt>
      <trkpt lat="45.0444" lon="0.41055">
        <ele>114.2</ele>
        <time>2022-10-29T17:58:09Z</time>
      </trkpt>
      <trkpt lat="45.04433" lon="0.4106">
        <ele>114.4</ele>
        <time>2022-10-29T17:58:11Z</time>
      </trkpt>
      <trkpt lat="45.04428" lon="0.41063">
        <ele>114.5</ele>
        <time>2022-10-29T17:58:13Z</time>
      </trkpt>
      <trkpt lat="45.04423" lon="0.41066">
        <ele>114.6</ele>
        <time>2022-10-29T17:58:15Z</time>
      </trkpt>
      <trkpt lat="45.04415" lon="0.41069">
        <ele>114.7</ele>
        <time>2022-10-29T17:58:17Z</time>
      </trkpt>
      <trkpt lat="45.04406" lon="0.41068">
        <ele>114.6</ele>
        <time>2022-10-29T17:58:19Z</time>
      </trkpt>
      <trkpt lat="45.04402" lon="0.41066">
        <ele>114.3</ele>
        <time>2022-10-29T17:58:20Z</time>
      </trkpt>
      <trkpt lat="45.044" lon="0.41064">
        <ele>114.1</ele>
        <time>2022-10-29T17:58:21Z</time>
      </trkpt>
      <trkpt lat="45.04396" lon="0.41059">
        <ele>113.6</ele>
        <time>2022-10-29T17:58:22Z</time>
      </trkpt>
      <trkpt lat="45.04391" lon="0.41054">
        <ele>112.8</ele>
        <time>2022-10-29T17:58:23Z</time>
      </trkpt>
      <trkpt lat="45.04387" lon="0.41046">
        <ele>111.7</ele>
        <time>2022-10-29T17:58:24Z</time>
      </trkpt>
      <trkpt lat="45.04383" lon="0.41037">
        <ele>110.4</ele>
        <time>2022-10-29T17:58:25Z</time>
      </trkpt>
      <trkpt lat="45.04378" lon="0.41028">
        <ele>109.2</ele>
        <time>2022-10-29T17:58:26Z</time>
      </trkpt>
      <trkpt lat="45.04373" lon="0.41018">
        <ele>108</ele>
        <time>2022-10-29T17:58:27Z</time>
      </trkpt>
      <trkpt lat="45.04363" lon="0.40996">
        <ele>105.8</ele>
        <time>2022-10-29T17:58:29Z</time>
      </trkpt>
      <trkpt lat="45.04359" lon="0.40984">
        <ele>105</ele>
        <time>2022-10-29T17:58:30Z</time>
      </trkpt>
      <trkpt lat="45.04355" lon="0.40972">
        <ele>104.4</ele>
        <time>2022-10-29T17:58:31Z</time>
      </trkpt>
      <trkpt lat="45.04352" lon="0.40963">
        <ele>104.1</ele>
        <time>2022-10-29T17:58:32Z</time>
      </trkpt>
      <trkpt lat="45.04353" lon="0.40956">
        <ele>103.9</ele>
        <time>2022-10-29T17:58:33Z</time>
      </trkpt>
      <trkpt lat="45.04357" lon="0.40946">
        <ele>104</ele>
        <time>2022-10-29T17:58:35Z</time>
      </trkpt>
      <trkpt lat="45.04356" lon="0.40936">
        <ele>105.1</ele>
        <time>2022-10-29T17:58:37Z</time>
      </trkpt>
      <trkpt lat="45.04353" lon="0.40931">
        <ele>105.5</ele>
        <time>2022-10-29T17:58:38Z</time>
      </trkpt>
      <trkpt lat="45.04351" lon="0.40931">
        <ele>105.6</ele>
        <time>2022-10-29T17:58:39Z</time>
      </trkpt>
      <trkpt lat="45.04347" lon="0.40932">
        <ele>105.9</ele>
        <time>2022-10-29T17:58:41Z</time>
      </trkpt>
      <trkpt lat="45.04342" lon="0.40932">
        <ele>106.3</ele>
        <time>2022-10-29T17:58:43Z</time>
      </trkpt>
      <trkpt lat="45.04337" lon="0.40933">
        <ele>106.7</ele>
        <time>2022-10-29T17:58:45Z</time>
      </trkpt>
      <trkpt lat="45.0433" lon="0.40931">
        <ele>107.2</ele>
        <time>2022-10-29T17:58:47Z</time>
      </trkpt>
      <trkpt lat="45.04325" lon="0.4093">
        <ele>107.6</ele>
        <time>2022-10-29T17:58:49Z</time>
      </trkpt>
      <trkpt lat="45.0432" lon="0.40928">
        <ele>108</ele>
        <time>2022-10-29T17:58:51Z</time>
      </trkpt>
      <trkpt lat="45.04318" lon="0.40928">
        <ele>108.2</ele>
        <time>2022-10-29T17:58:52Z</time>
      </trkpt>
      <trkpt lat="45.04316" lon="0.40927">
        <ele>108.4</ele>
        <time>2022-10-29T17:58:53Z</time>
      </trkpt>
      <trkpt lat="45.04311" lon="0.40926">
        <ele>108.8</ele>
        <time>2022-10-29T17:58:55Z</time>
      </trkpt>
      <trkpt lat="45.04306" lon="0.40924">
        <ele>109.2</ele>
        <time>2022-10-29T17:58:57Z</time>
      </trkpt>
      <trkpt lat="45.04301" lon="0.40923">
        <ele>109.7</ele>
        <time>2022-10-29T17:58:59Z</time>
      </trkpt>
      <trkpt lat="45.04299" lon="0.40922">
        <ele>109.9</ele>
        <time>2022-10-29T17:59:00Z</time>
      </trkpt>
      <trkpt lat="45.04296" lon="0.40921">
        <ele>110.1</ele>
        <time>2022-10-29T17:59:01Z</time>
      </trkpt>
      <trkpt lat="45.04291" lon="0.4092">
        <ele>110.6</ele>
        <time>2022-10-29T17:59:03Z</time>
      </trkpt>
      <trkpt lat="45.04286" lon="0.40918">
        <ele>111.1</ele>
        <time>2022-10-29T17:59:05Z</time>
      </trkpt>
      <trkpt lat="45.04284" lon="0.40918">
        <ele>111.3</ele>
        <time>2022-10-29T17:59:06Z</time>
      </trkpt>
      <trkpt lat="45.04281" lon="0.40917">
        <ele>111.5</ele>
        <time>2022-10-29T17:59:07Z</time>
      </trkpt>
      <trkpt lat="45.04276" lon="0.40915">
        <ele>111.9</ele>
        <time>2022-10-29T17:59:09Z</time>
      </trkpt>
      <trkpt lat="45.04271" lon="0.40914">
        <ele>112.4</ele>
        <time>2022-10-29T17:59:11Z</time>
      </trkpt>
      <trkpt lat="45.04266" lon="0.40912">
        <ele>112.9</ele>
        <time>2022-10-29T17:59:13Z</time>
      </trkpt>
      <trkpt lat="45.04261" lon="0.40911">
        <ele>113.3</ele>
        <time>2022-10-29T17:59:15Z</time>
      </trkpt>
      <trkpt lat="45.04256" lon="0.4091">
        <ele>113.8</ele>
        <time>2022-10-29T17:59:17Z</time>
      </trkpt>
      <trkpt lat="45.04251" lon="0.40908">
        <ele>114.3</ele>
        <time>2022-10-29T17:59:19Z</time>
      </trkpt>
      <trkpt lat="45.04245" lon="0.40906">
        <ele>114.7</ele>
        <time>2022-10-29T17:59:21Z</time>
      </trkpt>
      <trkpt lat="45.0424" lon="0.40905">
        <ele>115.2</ele>
        <time>2022-10-29T17:59:23Z</time>
      </trkpt>
      <trkpt lat="45.04234" lon="0.40903">
        <ele>115.7</ele>
        <time>2022-10-29T17:59:25Z</time>
      </trkpt>
      <trkpt lat="45.04231" lon="0.40902">
        <ele>115.9</ele>
        <time>2022-10-29T17:59:26Z</time>
      </trkpt>
      <trkpt lat="45.04228" lon="0.40901">
        <ele>116.1</ele>
        <time>2022-10-29T17:59:27Z</time>
      </trkpt>
      <trkpt lat="45.04223" lon="0.409">
        <ele>116.5</ele>
        <time>2022-10-29T17:59:29Z</time>
      </trkpt>
      <trkpt lat="45.04218" lon="0.40898">
        <ele>116.9</ele>
        <time>2022-10-29T17:59:31Z</time>
      </trkpt>
      <trkpt lat="45.04212" lon="0.40898">
        <ele>117.2</ele>
        <time>2022-10-29T17:59:33Z</time>
      </trkpt>
      <trkpt lat="45.04206" lon="0.40897">
        <ele>117.6</ele>
        <time>2022-10-29T17:59:35Z</time>
      </trkpt>
      <trkpt lat="45.04197" lon="0.40897">
        <ele>118.1</ele>
        <time>2022-10-29T17:59:37Z</time>
      </trkpt>
      <trkpt lat="45.04193" lon="0.40897">
        <ele>118.3</ele>
        <time>2022-10-29T17:59:39Z</time>
      </trkpt>
      <trkpt lat="45.04186" lon="0.40898">
        <ele>118.6</ele>
        <time>2022-10-29T17:59:41Z</time>
      </trkpt>
      <trkpt lat="45.04183" lon="0.40898">
        <ele>118.8</ele>
        <time>2022-10-29T17:59:42Z</time>
      </trkpt>
      <trkpt lat="45.04176" lon="0.409">
        <ele>119.1</ele>
        <time>2022-10-29T17:59:43Z</time>
      </trkpt>
      <trkpt lat="45.04173" lon="0.40902">
        <ele>119.2</ele>
        <time>2022-10-29T17:59:45Z</time>
      </trkpt>
      <trkpt lat="45.04166" lon="0.40906">
        <ele>119.2</ele>
        <time>2022-10-29T17:59:47Z</time>
      </trkpt>
      <trkpt lat="45.0416" lon="0.40909">
        <ele>119.3</ele>
        <time>2022-10-29T17:59:49Z</time>
      </trkpt>
      <trkpt lat="45.04153" lon="0.40913">
        <ele>119.3</ele>
        <time>2022-10-29T17:59:51Z</time>
      </trkpt>
      <trkpt lat="45.04146" lon="0.40918">
        <ele>119.4</ele>
        <time>2022-10-29T17:59:53Z</time>
      </trkpt>
      <trkpt lat="45.04139" lon="0.40924">
        <ele>119.4</ele>
        <time>2022-10-29T17:59:55Z</time>
      </trkpt>
      <trkpt lat="45.04132" lon="0.40931">
        <ele>119.3</ele>
        <time>2022-10-29T17:59:57Z</time>
      </trkpt>
      <trkpt lat="45.04129" lon="0.40934">
        <ele>119.2</ele>
        <time>2022-10-29T17:59:58Z</time>
      </trkpt>
      <trkpt lat="45.04126" lon="0.40936">
        <ele>119.2</ele>
        <time>2022-10-29T17:59:59Z</time>
      </trkpt>
      <trkpt lat="45.04118" lon="0.40943">
        <ele>119</ele>
        <time>2022-10-29T18:00:01Z</time>
      </trkpt>
      <trkpt lat="45.0411" lon="0.40951">
        <ele>119</ele>
        <time>2022-10-29T18:00:03Z</time>
      </trkpt>
      <trkpt lat="45.04102" lon="0.40959">
        <ele>118.9</ele>
        <time>2022-10-29T18:00:05Z</time>
      </trkpt>
      <trkpt lat="45.04094" lon="0.40968">
        <ele>118.7</ele>
        <time>2022-10-29T18:00:07Z</time>
      </trkpt>
      <trkpt lat="45.04091" lon="0.40971">
        <ele>118.6</ele>
        <time>2022-10-29T18:00:08Z</time>
      </trkpt>
      <trkpt lat="45.04087" lon="0.40974">
        <ele>118.5</ele>
        <time>2022-10-29T18:00:09Z</time>
      </trkpt>
      <trkpt lat="45.0408" lon="0.40982">
        <ele>118.3</ele>
        <time>2022-10-29T18:00:11Z</time>
      </trkpt>
      <trkpt lat="45.04073" lon="0.40992">
        <ele>118.2</ele>
        <time>2022-10-29T18:00:13Z</time>
      </trkpt>
      <trkpt lat="45.04066" lon="0.41002">
        <ele>118</ele>
        <time>2022-10-29T18:00:15Z</time>
      </trkpt>
      <trkpt lat="45.0406" lon="0.41013">
        <ele>117.9</ele>
        <time>2022-10-29T18:00:17Z</time>
      </trkpt>
      <trkpt lat="45.04054" lon="0.41025">
        <ele>117.7</ele>
        <time>2022-10-29T18:00:19Z</time>
      </trkpt>
      <trkpt lat="45.04048" lon="0.41038">
        <ele>117.5</ele>
        <time>2022-10-29T18:00:21Z</time>
      </trkpt>
      <trkpt lat="45.04044" lon="0.41053">
        <ele>117.3</ele>
        <time>2022-10-29T18:00:23Z</time>
      </trkpt>
      <trkpt lat="45.0404" lon="0.41068">
        <ele>117.1</ele>
        <time>2022-10-29T18:00:25Z</time>
      </trkpt>
      <trkpt lat="45.04035" lon="0.41081">
        <ele>116.9</ele>
        <time>2022-10-29T18:00:27Z</time>
      </trkpt>
      <trkpt lat="45.0403" lon="0.41095">
        <ele>116.8</ele>
        <time>2022-10-29T18:00:29Z</time>
      </trkpt>
      <trkpt lat="45.04027" lon="0.41101">
        <ele>116.7</ele>
        <time>2022-10-29T18:00:30Z</time>
      </trkpt>
      <trkpt lat="45.04025" lon="0.41108">
        <ele>116.7</ele>
        <time>2022-10-29T18:00:31Z</time>
      </trkpt>
      <trkpt lat="45.04023" lon="0.41114">
        <ele>116.7</ele>
        <time>2022-10-29T18:00:32Z</time>
      </trkpt>
      <trkpt lat="45.04025" lon="0.41123">
        <ele>116.6</ele>
        <time>2022-10-29T18:00:33Z</time>
      </trkpt>
      <trkpt lat="45.04032" lon="0.41132">
        <ele>116.4</ele>
        <time>2022-10-29T18:00:35Z</time>
      </trkpt>
      <trkpt lat="45.04041" lon="0.41141">
        <ele>116.2</ele>
        <time>2022-10-29T18:00:37Z</time>
      </trkpt>
      <trkpt lat="45.0405" lon="0.41149">
        <ele>116</ele>
        <time>2022-10-29T18:00:39Z</time>
      </trkpt>
      <trkpt lat="45.0406" lon="0.41158">
        <ele>115.8</ele>
        <time>2022-10-29T18:00:41Z</time>
      </trkpt>
      <trkpt lat="45.0407" lon="0.41166">
        <ele>115.6</ele>
        <time>2022-10-29T18:00:43Z</time>
      </trkpt>
      <trkpt lat="45.04079" lon="0.41176">
        <ele>115.6</ele>
        <time>2022-10-29T18:00:45Z</time>
      </trkpt>
      <trkpt lat="45.04083" lon="0.41182">
        <ele>115.7</ele>
        <time>2022-10-29T18:00:46Z</time>
      </trkpt>
      <trkpt lat="45.04088" lon="0.41187">
        <ele>115.8</ele>
        <time>2022-10-29T18:00:47Z</time>
      </trkpt>
      <trkpt lat="45.04096" lon="0.41198">
        <ele>116.2</ele>
        <time>2022-10-29T18:00:49Z</time>
      </trkpt>
      <trkpt lat="45.04102" lon="0.41209">
        <ele>116.8</ele>
        <time>2022-10-29T18:00:51Z</time>
      </trkpt>
      <trkpt lat="45.04105" lon="0.41214">
        <ele>117.1</ele>
        <time>2022-10-29T18:00:52Z</time>
      </trkpt>
      <trkpt lat="45.04108" lon="0.41219">
        <ele>117.4</ele>
        <time>2022-10-29T18:00:53Z</time>
      </trkpt>
      <trkpt lat="45.04113" lon="0.41229">
        <ele>118</ele>
        <time>2022-10-29T18:00:55Z</time>
      </trkpt>
      <trkpt lat="45.04117" lon="0.41239">
        <ele>118.6</ele>
        <time>2022-10-29T18:00:57Z</time>
      </trkpt>
      <trkpt lat="45.04119" lon="0.41244">
        <ele>118.9</ele>
        <time>2022-10-29T18:00:58Z</time>
      </trkpt>
      <trkpt lat="45.04121" lon="0.41249">
        <ele>119.2</ele>
        <time>2022-10-29T18:00:59Z</time>
      </trkpt>
      <trkpt lat="45.04124" lon="0.41258">
        <ele>119.6</ele>
        <time>2022-10-29T18:01:01Z</time>
      </trkpt>
      <trkpt lat="45.04126" lon="0.4127">
        <ele>120</ele>
        <time>2022-10-29T18:01:03Z</time>
      </trkpt>
      <trkpt lat="45.04125" lon="0.4128">
        <ele>120.2</ele>
        <time>2022-10-29T18:01:05Z</time>
      </trkpt>
      <trkpt lat="45.04124" lon="0.41289">
        <ele>120.4</ele>
        <time>2022-10-29T18:01:07Z</time>
      </trkpt>
      <trkpt lat="45.04124" lon="0.41294">
        <ele>120.4</ele>
        <time>2022-10-29T18:01:08Z</time>
      </trkpt>
      <trkpt lat="45.04123" lon="0.413">
        <ele>120.5</ele>
        <time>2022-10-29T18:01:09Z</time>
      </trkpt>
      <trkpt lat="45.04122" lon="0.41305">
        <ele>120.5</ele>
        <time>2022-10-29T18:01:10Z</time>
      </trkpt>
      <trkpt lat="45.04122" lon="0.41311">
        <ele>120.6</ele>
        <time>2022-10-29T18:01:11Z</time>
      </trkpt>
      <trkpt lat="45.04121" lon="0.41317">
        <ele>120.6</ele>
        <time>2022-10-29T18:01:12Z</time>
      </trkpt>
      <trkpt lat="45.04121" lon="0.41323">
        <ele>120.7</ele>
        <time>2022-10-29T18:01:13Z</time>
      </trkpt>
      <trkpt lat="45.0412" lon="0.41334">
        <ele>120.8</ele>
        <time>2022-10-29T18:01:15Z</time>
      </trkpt>
      <trkpt lat="45.04118" lon="0.41347">
        <ele>121.1</ele>
        <time>2022-10-29T18:01:17Z</time>
      </trkpt>
      <trkpt lat="45.04116" lon="0.41358">
        <ele>121.4</ele>
        <time>2022-10-29T18:01:19Z</time>
      </trkpt>
      <trkpt lat="45.04114" lon="0.41369">
        <ele>121.7</ele>
        <time>2022-10-29T18:01:21Z</time>
      </trkpt>
      <trkpt lat="45.04113" lon="0.4138">
        <ele>122.1</ele>
        <time>2022-10-29T18:01:23Z</time>
      </trkpt>
      <trkpt lat="45.04111" lon="0.41391">
        <ele>122.5</ele>
        <time>2022-10-29T18:01:25Z</time>
      </trkpt>
      <trkpt lat="45.0411" lon="0.41402">
        <ele>122.9</ele>
        <time>2022-10-29T18:01:27Z</time>
      </trkpt>
      <trkpt lat="45.04108" lon="0.41411">
        <ele>123.3</ele>
        <time>2022-10-29T18:01:29Z</time>
      </trkpt>
      <trkpt lat="45.04107" lon="0.41421">
        <ele>123.8</ele>
        <time>2022-10-29T18:01:31Z</time>
      </trkpt>
      <trkpt lat="45.04107" lon="0.41429">
        <ele>124.3</ele>
        <time>2022-10-29T18:01:33Z</time>
      </trkpt>
      <trkpt lat="45.04107" lon="0.41437">
        <ele>124.9</ele>
        <time>2022-10-29T18:01:35Z</time>
      </trkpt>
      <trkpt lat="45.04107" lon="0.41446">
        <ele>125.5</ele>
        <time>2022-10-29T18:01:37Z</time>
      </trkpt>
      <trkpt lat="45.04107" lon="0.41453">
        <ele>126.1</ele>
        <time>2022-10-29T18:01:39Z</time>
      </trkpt>
      <trkpt lat="45.04107" lon="0.41459">
        <ele>126.6</ele>
        <time>2022-10-29T18:01:41Z</time>
      </trkpt>
      <trkpt lat="45.04107" lon="0.41464">
        <ele>127</ele>
        <time>2022-10-29T18:01:42Z</time>
      </trkpt>
      <trkpt lat="45.04107" lon="0.41467">
        <ele>127.3</ele>
        <time>2022-10-29T18:01:43Z</time>
      </trkpt>
      <trkpt lat="45.04108" lon="0.41475">
        <ele>128</ele>
        <time>2022-10-29T18:01:45Z</time>
      </trkpt>
      <trkpt lat="45.04108" lon="0.41482">
        <ele>128.6</ele>
        <time>2022-10-29T18:01:47Z</time>
      </trkpt>
      <trkpt lat="45.04108" lon="0.41488">
        <ele>129.3</ele>
        <time>2022-10-29T18:01:49Z</time>
      </trkpt>
      <trkpt lat="45.04108" lon="0.41495">
        <ele>129.9</ele>
        <time>2022-10-29T18:01:51Z</time>
      </trkpt>
      <trkpt lat="45.04108" lon="0.41503">
        <ele>130.6</ele>
        <time>2022-10-29T18:01:53Z</time>
      </trkpt>
      <trkpt lat="45.04108" lon="0.41509">
        <ele>131.2</ele>
        <time>2022-10-29T18:01:55Z</time>
      </trkpt>
      <trkpt lat="45.04109" lon="0.41515">
        <ele>131.7</ele>
        <time>2022-10-29T18:01:57Z</time>
      </trkpt>
      <trkpt lat="45.04109" lon="0.41521">
        <ele>132.2</ele>
        <time>2022-10-29T18:01:59Z</time>
      </trkpt>
      <trkpt lat="45.04109" lon="0.41524">
        <ele>132.5</ele>
        <time>2022-10-29T18:02:00Z</time>
      </trkpt>
      <trkpt lat="45.04109" lon="0.41528">
        <ele>132.8</ele>
        <time>2022-10-29T18:02:01Z</time>
      </trkpt>
      <trkpt lat="45.04109" lon="0.41534">
        <ele>133.3</ele>
        <time>2022-10-29T18:02:03Z</time>
      </trkpt>
      <trkpt lat="45.04109" lon="0.41541">
        <ele>133.8</ele>
        <time>2022-10-29T18:02:05Z</time>
      </trkpt>
      <trkpt lat="45.04108" lon="0.41548">
        <ele>134.3</ele>
        <time>2022-10-29T18:02:07Z</time>
      </trkpt>
      <trkpt lat="45.04106" lon="0.41554">
        <ele>134.7</ele>
        <time>2022-10-29T18:02:09Z</time>
      </trkpt>
      <trkpt lat="45.04105" lon="0.41562">
        <ele>135.1</ele>
        <time>2022-10-29T18:02:11Z</time>
      </trkpt>
      <trkpt lat="45.04103" lon="0.41568">
        <ele>135.5</ele>
        <time>2022-10-29T18:02:13Z</time>
      </trkpt>
      <trkpt lat="45.04101" lon="0.41574">
        <ele>135.8</ele>
        <time>2022-10-29T18:02:15Z</time>
      </trkpt>
      <trkpt lat="45.04099" lon="0.4158">
        <ele>136.1</ele>
        <time>2022-10-29T18:02:17Z</time>
      </trkpt>
      <trkpt lat="45.04097" lon="0.41586">
        <ele>136.4</ele>
        <time>2022-10-29T18:02:19Z</time>
      </trkpt>
      <trkpt lat="45.04094" lon="0.41591">
        <ele>136.5</ele>
        <time>2022-10-29T18:02:21Z</time>
      </trkpt>
      <trkpt lat="45.04093" lon="0.41594">
        <ele>136.5</ele>
        <time>2022-10-29T18:02:22Z</time>
      </trkpt>
      <trkpt lat="45.04092" lon="0.41597">
        <ele>136.5</ele>
        <time>2022-10-29T18:02:23Z</time>
      </trkpt>
      <trkpt lat="45.0409" lon="0.41604">
        <ele>136.4</ele>
        <time>2022-10-29T18:02:25Z</time>
      </trkpt>
      <trkpt lat="45.04086" lon="0.41614">
        <ele>136.1</ele>
        <time>2022-10-29T18:02:27Z</time>
      </trkpt>
      <trkpt lat="45.04084" lon="0.41625">
        <ele>135.7</ele>
        <time>2022-10-29T18:02:29Z</time>
      </trkpt>
      <trkpt lat="45.04082" lon="0.41638">
        <ele>135</ele>
        <time>2022-10-29T18:02:31Z</time>
      </trkpt>
      <trkpt lat="45.0408" lon="0.41645">
        <ele>134.6</ele>
        <time>2022-10-29T18:02:32Z</time>
      </trkpt>
      <trkpt lat="45.04079" lon="0.41654">
        <ele>134.1</ele>
        <time>2022-10-29T18:02:33Z</time>
      </trkpt>
      <trkpt lat="45.04075" lon="0.41673">
        <ele>133</ele>
        <time>2022-10-29T18:02:35Z</time>
      </trkpt>
      <trkpt lat="45.04071" lon="0.41702">
        <ele>132</ele>
        <time>2022-10-29T18:02:37Z</time>
      </trkpt>
      <trkpt lat="45.04071" lon="0.41712">
        <ele>131.8</ele>
        <time>2022-10-29T18:02:39Z</time>
      </trkpt>
      <trkpt lat="45.04071" lon="0.41731">
        <ele>131.6</ele>
        <time>2022-10-29T18:02:41Z</time>
      </trkpt>
      <trkpt lat="45.04073" lon="0.4175">
        <ele>131.7</ele>
        <time>2022-10-29T18:02:42Z</time>
      </trkpt>
      <trkpt lat="45.04073" lon="0.4175">
        <ele>131.7</ele>
        <time>2022-10-29T18:02:43Z</time>
      </trkpt>
      <trkpt lat="45.04076" lon="0.41766">
        <ele>132</ele>
        <time>2022-10-29T18:02:45Z</time>
      </trkpt>
      <trkpt lat="45.04077" lon="0.4178">
        <ele>132.2</ele>
        <time>2022-10-29T18:02:47Z</time>
      </trkpt>
      <trkpt lat="45.04078" lon="0.41794">
        <ele>132.3</ele>
        <time>2022-10-29T18:02:48Z</time>
      </trkpt>
      <trkpt lat="45.04078" lon="0.41804">
        <ele>132.3</ele>
        <time>2022-10-29T18:02:49Z</time>
      </trkpt>
      <trkpt lat="45.04079" lon="0.41815">
        <ele>132.2</ele>
        <time>2022-10-29T18:02:51Z</time>
      </trkpt>
      <trkpt lat="45.04079" lon="0.41823">
        <ele>132.1</ele>
        <time>2022-10-29T18:02:52Z</time>
      </trkpt>
      <trkpt lat="45.04078" lon="0.41832">
        <ele>131.9</ele>
        <time>2022-10-29T18:02:53Z</time>
      </trkpt>
      <trkpt lat="45.04078" lon="0.4184">
        <ele>131.7</ele>
        <time>2022-10-29T18:02:55Z</time>
      </trkpt>
      <trkpt lat="45.04075" lon="0.41868">
        <ele>131</ele>
        <time>2022-10-29T18:02:57Z</time>
      </trkpt>
      <trkpt lat="45.04074" lon="0.41878">
        <ele>130.8</ele>
        <time>2022-10-29T18:02:58Z</time>
      </trkpt>
      <trkpt lat="45.04074" lon="0.41878">
        <ele>130.8</ele>
        <time>2022-10-29T18:02:59Z</time>
      </trkpt>
      <trkpt lat="45.04072" lon="0.41898">
        <ele>130.6</ele>
        <time>2022-10-29T18:03:01Z</time>
      </trkpt>
      <trkpt lat="45.04067" lon="0.41926">
        <ele>130.9</ele>
        <time>2022-10-29T18:03:03Z</time>
      </trkpt>
      <trkpt lat="45.04066" lon="0.41934">
        <ele>131.1</ele>
        <time>2022-10-29T18:03:04Z</time>
      </trkpt>
      <trkpt lat="45.04065" lon="0.41941">
        <ele>131.3</ele>
        <time>2022-10-29T18:03:05Z</time>
      </trkpt>
      <trkpt lat="45.04062" lon="0.41957">
        <ele>132</ele>
        <time>2022-10-29T18:03:07Z</time>
      </trkpt>
      <trkpt lat="45.04061" lon="0.41964">
        <ele>132.3</ele>
        <time>2022-10-29T18:03:09Z</time>
      </trkpt>
      <trkpt lat="45.04057" lon="0.41982">
        <ele>133.2</ele>
        <time>2022-10-29T18:03:11Z</time>
      </trkpt>
      <trkpt lat="45.04055" lon="0.41988">
        <ele>133.5</ele>
        <time>2022-10-29T18:03:13Z</time>
      </trkpt>
      <trkpt lat="45.04054" lon="0.41993">
        <ele>133.9</ele>
        <time>2022-10-29T18:03:14Z</time>
      </trkpt>
      <trkpt lat="45.04053" lon="0.41997">
        <ele>134.2</ele>
        <time>2022-10-29T18:03:15Z</time>
      </trkpt>
      <trkpt lat="45.04051" lon="0.42007">
        <ele>134.9</ele>
        <time>2022-10-29T18:03:17Z</time>
      </trkpt>
      <trkpt lat="45.04049" lon="0.42022">
        <ele>135.9</ele>
        <time>2022-10-29T18:03:19Z</time>
      </trkpt>
      <trkpt lat="45.04048" lon="0.42031">
        <ele>136.4</ele>
        <time>2022-10-29T18:03:21Z</time>
      </trkpt>
      <trkpt lat="45.04048" lon="0.42036">
        <ele>136.7</ele>
        <time>2022-10-29T18:03:23Z</time>
      </trkpt>
      <trkpt lat="45.04048" lon="0.42045">
        <ele>137.3</ele>
        <time>2022-10-29T18:03:25Z</time>
      </trkpt>
      <trkpt lat="45.04047" lon="0.42059">
        <ele>138.2</ele>
        <time>2022-10-29T18:03:27Z</time>
      </trkpt>
      <trkpt lat="45.04047" lon="0.42068">
        <ele>138.7</ele>
        <time>2022-10-29T18:03:29Z</time>
      </trkpt>
      <trkpt lat="45.04046" lon="0.42077">
        <ele>139.2</ele>
        <time>2022-10-29T18:03:31Z</time>
      </trkpt>
      <trkpt lat="45.04046" lon="0.42086">
        <ele>139.7</ele>
        <time>2022-10-29T18:03:33Z</time>
      </trkpt>
      <trkpt lat="45.04046" lon="0.42095">
        <ele>140.1</ele>
        <time>2022-10-29T18:03:35Z</time>
      </trkpt>
      <trkpt lat="45.04045" lon="0.42105">
        <ele>140.5</ele>
        <time>2022-10-29T18:03:37Z</time>
      </trkpt>
      <trkpt lat="45.04045" lon="0.42109">
        <ele>140.7</ele>
        <time>2022-10-29T18:03:38Z</time>
      </trkpt>
      <trkpt lat="45.04045" lon="0.42114">
        <ele>140.9</ele>
        <time>2022-10-29T18:03:39Z</time>
      </trkpt>
      <trkpt lat="45.04045" lon="0.42124">
        <ele>141.3</ele>
        <time>2022-10-29T18:03:41Z</time>
      </trkpt>
      <trkpt lat="45.04044" lon="0.42133">
        <ele>141.6</ele>
        <time>2022-10-29T18:03:43Z</time>
      </trkpt>
      <trkpt lat="45.04044" lon="0.42143">
        <ele>142</ele>
        <time>2022-10-29T18:03:45Z</time>
      </trkpt>
      <trkpt lat="45.04044" lon="0.42148">
        <ele>142.1</ele>
        <time>2022-10-29T18:03:46Z</time>
      </trkpt>
      <trkpt lat="45.04044" lon="0.42152">
        <ele>142.3</ele>
        <time>2022-10-29T18:03:47Z</time>
      </trkpt>
      <trkpt lat="45.04043" lon="0.42162">
        <ele>142.6</ele>
        <time>2022-10-29T18:03:49Z</time>
      </trkpt>
      <trkpt lat="45.04043" lon="0.42171">
        <ele>142.8</ele>
        <time>2022-10-29T18:03:51Z</time>
      </trkpt>
      <trkpt lat="45.04043" lon="0.4218">
        <ele>143.1</ele>
        <time>2022-10-29T18:03:53Z</time>
      </trkpt>
      <trkpt lat="45.04043" lon="0.42189">
        <ele>143.3</ele>
        <time>2022-10-29T18:03:55Z</time>
      </trkpt>
      <trkpt lat="45.04043" lon="0.42197">
        <ele>143.5</ele>
        <time>2022-10-29T18:03:57Z</time>
      </trkpt>
      <trkpt lat="45.04043" lon="0.42206">
        <ele>143.7</ele>
        <time>2022-10-29T18:03:59Z</time>
      </trkpt>
      <trkpt lat="45.04043" lon="0.42216">
        <ele>143.9</ele>
        <time>2022-10-29T18:04:01Z</time>
      </trkpt>
      <trkpt lat="45.04044" lon="0.42222">
        <ele>144.1</ele>
        <time>2022-10-29T18:04:03Z</time>
      </trkpt>
      <trkpt lat="45.04044" lon="0.42225">
        <ele>144.2</ele>
        <time>2022-10-29T18:04:04Z</time>
      </trkpt>
      <trkpt lat="45.04044" lon="0.42226">
        <ele>144.2</ele>
        <time>2022-10-29T18:04:05Z</time>
      </trkpt>
      <trkpt lat="45.04045" lon="0.42229">
        <ele>144.3</ele>
        <time>2022-10-29T18:04:07Z</time>
      </trkpt>
      <trkpt lat="45.04045" lon="0.42231">
        <ele>144.3</ele>
        <time>2022-10-29T18:04:09Z</time>
      </trkpt>
      <trkpt lat="45.04045" lon="0.42232">
        <ele>144.4</ele>
        <time>2022-10-29T18:04:10Z</time>
      </trkpt>
      <trkpt lat="45.04046" lon="0.42234">
        <ele>144.4</ele>
        <time>2022-10-29T18:04:11Z</time>
      </trkpt>
      <trkpt lat="45.04047" lon="0.42237">
        <ele>144.4</ele>
        <time>2022-10-29T18:04:13Z</time>
      </trkpt>
      <trkpt lat="45.04047" lon="0.42237">
        <ele>144.4</ele>
        <time>2022-10-29T18:04:15Z</time>
      </trkpt>
      <trkpt lat="45.04047" lon="0.42237">
        <ele>144.5</ele>
        <time>2022-10-29T18:06:31Z</time>
      </trkpt>
      <trkpt lat="45.04049" lon="0.42244">
        <ele>144.6</ele>
        <time>2022-10-29T18:06:33Z</time>
      </trkpt>
      <trkpt lat="45.04052" lon="0.42251">
        <ele>144.7</ele>
        <time>2022-10-29T18:06:35Z</time>
      </trkpt>
      <trkpt lat="45.04054" lon="0.42259">
        <ele>144.9</ele>
        <time>2022-10-29T18:06:37Z</time>
      </trkpt>
      <trkpt lat="45.04057" lon="0.42266">
        <ele>145.2</ele>
        <time>2022-10-29T18:06:39Z</time>
      </trkpt>
      <trkpt lat="45.04058" lon="0.4227">
        <ele>145.3</ele>
        <time>2022-10-29T18:06:40Z</time>
      </trkpt>
      <trkpt lat="45.04059" lon="0.42274">
        <ele>145.4</ele>
        <time>2022-10-29T18:06:41Z</time>
      </trkpt>
      <trkpt lat="45.04067" lon="0.42277">
        <ele>145.9</ele>
        <time>2022-10-29T18:06:43Z</time>
      </trkpt>
      <trkpt lat="45.04072" lon="0.42281">
        <ele>146.1</ele>
        <time>2022-10-29T18:06:45Z</time>
      </trkpt>
      <trkpt lat="45.04074" lon="0.42285">
        <ele>146.2</ele>
        <time>2022-10-29T18:06:46Z</time>
      </trkpt>
      <trkpt lat="45.04076" lon="0.42287">
        <ele>146.3</ele>
        <time>2022-10-29T18:06:47Z</time>
      </trkpt>
      <trkpt lat="45.0408" lon="0.42294">
        <ele>146.6</ele>
        <time>2022-10-29T18:06:49Z</time>
      </trkpt>
      <trkpt lat="45.04084" lon="0.42301">
        <ele>146.8</ele>
        <time>2022-10-29T18:06:51Z</time>
      </trkpt>
      <trkpt lat="45.04089" lon="0.42306">
        <ele>147</ele>
        <time>2022-10-29T18:06:53Z</time>
      </trkpt>
      <trkpt lat="45.04094" lon="0.42312">
        <ele>147.2</ele>
        <time>2022-10-29T18:06:55Z</time>
      </trkpt>
      <trkpt lat="45.04099" lon="0.42317">
        <ele>147.3</ele>
        <time>2022-10-29T18:06:57Z</time>
      </trkpt>
      <trkpt lat="45.04105" lon="0.42323">
        <ele>147.5</ele>
        <time>2022-10-29T18:06:59Z</time>
      </trkpt>
      <trkpt lat="45.04108" lon="0.42326">
        <ele>147.5</ele>
        <time>2022-10-29T18:07:00Z</time>
      </trkpt>
      <trkpt lat="45.04112" lon="0.42329">
        <ele>147.6</ele>
        <time>2022-10-29T18:07:01Z</time>
      </trkpt>
      <trkpt lat="45.0412" lon="0.42332">
        <ele>147.7</ele>
        <time>2022-10-29T18:07:03Z</time>
      </trkpt>
      <trkpt lat="45.04128" lon="0.42337">
        <ele>147.7</ele>
        <time>2022-10-29T18:07:05Z</time>
      </trkpt>
      <trkpt lat="45.04133" lon="0.4234">
        <ele>147.7</ele>
        <time>2022-10-29T18:07:06Z</time>
      </trkpt>
      <trkpt lat="45.04137" lon="0.42343">
        <ele>147.7</ele>
        <time>2022-10-29T18:07:07Z</time>
      </trkpt>
      <trkpt lat="45.04142" lon="0.42345">
        <ele>147.7</ele>
        <time>2022-10-29T18:07:08Z</time>
      </trkpt>
      <trkpt lat="45.04146" lon="0.42346">
        <ele>147.7</ele>
        <time>2022-10-29T18:07:09Z</time>
      </trkpt>
      <trkpt lat="45.04155" lon="0.42347">
        <ele>147.7</ele>
        <time>2022-10-29T18:07:11Z</time>
      </trkpt>
      <trkpt lat="45.0416" lon="0.42346">
        <ele>147.8</ele>
        <time>2022-10-29T18:07:12Z</time>
      </trkpt>
      <trkpt lat="45.04166" lon="0.42345">
        <ele>147.8</ele>
        <time>2022-10-29T18:07:13Z</time>
      </trkpt>
      <trkpt lat="45.04174" lon="0.42344">
        <ele>147.8</ele>
        <time>2022-10-29T18:07:15Z</time>
      </trkpt>
      <trkpt lat="45.04181" lon="0.42343">
        <ele>147.9</ele>
        <time>2022-10-29T18:07:17Z</time>
      </trkpt>
      <trkpt lat="45.04189" lon="0.42342">
        <ele>147.9</ele>
        <time>2022-10-29T18:07:19Z</time>
      </trkpt>
      <trkpt lat="45.04199" lon="0.4234">
        <ele>147.9</ele>
        <time>2022-10-29T18:07:21Z</time>
      </trkpt>
      <trkpt lat="45.04205" lon="0.42339">
        <ele>148</ele>
        <time>2022-10-29T18:07:22Z</time>
      </trkpt>
      <trkpt lat="45.04211" lon="0.42339">
        <ele>148</ele>
        <time>2022-10-29T18:07:23Z</time>
      </trkpt>
      <trkpt lat="45.04221" lon="0.42335">
        <ele>148</ele>
        <time>2022-10-29T18:07:25Z</time>
      </trkpt>
      <trkpt lat="45.04226" lon="0.42332">
        <ele>148</ele>
        <time>2022-10-29T18:07:26Z</time>
      </trkpt>
      <trkpt lat="45.0423" lon="0.4233">
        <ele>148</ele>
        <time>2022-10-29T18:07:27Z</time>
      </trkpt>
      <trkpt lat="45.04239" lon="0.42326">
        <ele>147.9</ele>
        <time>2022-10-29T18:07:29Z</time>
      </trkpt>
      <trkpt lat="45.04249" lon="0.42323">
        <ele>147.8</ele>
        <time>2022-10-29T18:07:31Z</time>
      </trkpt>
      <trkpt lat="45.04261" lon="0.42323">
        <ele>147.6</ele>
        <time>2022-10-29T18:07:33Z</time>
      </trkpt>
      <trkpt lat="45.04272" lon="0.42328">
        <ele>147.4</ele>
        <time>2022-10-29T18:07:35Z</time>
      </trkpt>
      <trkpt lat="45.04281" lon="0.42335">
        <ele>147.1</ele>
        <time>2022-10-29T18:07:37Z</time>
      </trkpt>
      <trkpt lat="45.04289" lon="0.42339">
        <ele>146.9</ele>
        <time>2022-10-29T18:07:39Z</time>
      </trkpt>
      <trkpt lat="45.04294" lon="0.4234">
        <ele>146.7</ele>
        <time>2022-10-29T18:07:40Z</time>
      </trkpt>
      <trkpt lat="45.043" lon="0.42342">
        <ele>146.5</ele>
        <time>2022-10-29T18:07:41Z</time>
      </trkpt>
      <trkpt lat="45.04307" lon="0.42346">
        <ele>146.3</ele>
        <time>2022-10-29T18:07:42Z</time>
      </trkpt>
      <trkpt lat="45.0431" lon="0.42352">
        <ele>146.1</ele>
        <time>2022-10-29T18:07:43Z</time>
      </trkpt>
      <trkpt lat="45.04319" lon="0.42358">
        <ele>145.8</ele>
        <time>2022-10-29T18:07:45Z</time>
      </trkpt>
      <trkpt lat="45.04324" lon="0.42359">
        <ele>145.6</ele>
        <time>2022-10-29T18:07:46Z</time>
      </trkpt>
      <trkpt lat="45.04328" lon="0.42357">
        <ele>145.5</ele>
        <time>2022-10-29T18:07:47Z</time>
      </trkpt>
      <trkpt lat="45.04339" lon="0.42353">
        <ele>145.1</ele>
        <time>2022-10-29T18:07:49Z</time>
      </trkpt>
      <trkpt lat="45.04351" lon="0.4235">
        <ele>144.8</ele>
        <time>2022-10-29T18:07:51Z</time>
      </trkpt>
      <trkpt lat="45.04355" lon="0.42349">
        <ele>144.7</ele>
        <time>2022-10-29T18:07:52Z</time>
      </trkpt>
      <trkpt lat="45.04359" lon="0.42348">
        <ele>144.5</ele>
        <time>2022-10-29T18:07:53Z</time>
      </trkpt>
      <trkpt lat="45.04368" lon="0.42345">
        <ele>144.2</ele>
        <time>2022-10-29T18:07:55Z</time>
      </trkpt>
      <trkpt lat="45.04373" lon="0.42342">
        <ele>143.9</ele>
        <time>2022-10-29T18:07:56Z</time>
      </trkpt>
      <trkpt lat="45.04378" lon="0.42337">
        <ele>143.7</ele>
        <time>2022-10-29T18:07:57Z</time>
      </trkpt>
      <trkpt lat="45.04384" lon="0.42324">
        <ele>143.1</ele>
        <time>2022-10-29T18:07:58Z</time>
      </trkpt>
      <trkpt lat="45.04387" lon="0.42313">
        <ele>142.6</ele>
        <time>2022-10-29T18:07:59Z</time>
      </trkpt>
      <trkpt lat="45.04388" lon="0.42304">
        <ele>142.3</ele>
        <time>2022-10-29T18:08:00Z</time>
      </trkpt>
      <trkpt lat="45.0439" lon="0.42295">
        <ele>141.9</ele>
        <time>2022-10-29T18:08:01Z</time>
      </trkpt>
      <trkpt lat="45.04392" lon="0.42285">
        <ele>141.6</ele>
        <time>2022-10-29T18:08:02Z</time>
      </trkpt>
      <trkpt lat="45.04396" lon="0.42276">
        <ele>141.3</ele>
        <time>2022-10-29T18:08:03Z</time>
      </trkpt>
      <trkpt lat="45.04401" lon="0.42269">
        <ele>141.1</ele>
        <time>2022-10-29T18:08:04Z</time>
      </trkpt>
      <trkpt lat="45.04405" lon="0.42264">
        <ele>141</ele>
        <time>2022-10-29T18:08:06Z</time>
      </trkpt>
      <trkpt lat="45.04423" lon="0.42257">
        <ele>140.7</ele>
        <time>2022-10-29T18:08:09Z</time>
      </trkpt>
      <trkpt lat="45.04433" lon="0.42257">
        <ele>140.7</ele>
        <time>2022-10-29T18:08:11Z</time>
      </trkpt>
      <trkpt lat="45.04441" lon="0.42258">
        <ele>140.8</ele>
        <time>2022-10-29T18:08:13Z</time>
      </trkpt>
      <trkpt lat="45.04446" lon="0.42258">
        <ele>140.9</ele>
        <time>2022-10-29T18:08:14Z</time>
      </trkpt>
      <trkpt lat="45.04451" lon="0.42258">
        <ele>141</ele>
        <time>2022-10-29T18:08:15Z</time>
      </trkpt>
      <trkpt lat="45.04457" lon="0.42258">
        <ele>141.2</ele>
        <time>2022-10-29T18:08:17Z</time>
      </trkpt>
      <trkpt lat="45.0446" lon="0.42255">
        <ele>141.3</ele>
        <time>2022-10-29T18:08:18Z</time>
      </trkpt>
      <trkpt lat="45.04463" lon="0.42253">
        <ele>141.3</ele>
        <time>2022-10-29T18:08:19Z</time>
      </trkpt>
      <trkpt lat="45.04469" lon="0.42246">
        <ele>141.5</ele>
        <time>2022-10-29T18:08:21Z</time>
      </trkpt>
      <trkpt lat="45.04476" lon="0.4224">
        <ele>141.6</ele>
        <time>2022-10-29T18:08:23Z</time>
      </trkpt>
      <trkpt lat="45.0448" lon="0.42235">
        <ele>141.7</ele>
        <time>2022-10-29T18:08:24Z</time>
      </trkpt>
      <trkpt lat="45.04485" lon="0.4222">
        <ele>141.8</ele>
        <time>2022-10-29T18:08:25Z</time>
      </trkpt>
      <trkpt lat="45.04485" lon="0.42214">
        <ele>141.9</ele>
        <time>2022-10-29T18:08:26Z</time>
      </trkpt>
      <trkpt lat="45.04485" lon="0.42208">
        <ele>141.9</ele>
        <time>2022-10-29T18:08:27Z</time>
      </trkpt>
      <trkpt lat="45.04485" lon="0.42196">
        <ele>142</ele>
        <time>2022-10-29T18:08:29Z</time>
      </trkpt>
      <trkpt lat="45.04485" lon="0.42183">
        <ele>142.1</ele>
        <time>2022-10-29T18:08:31Z</time>
      </trkpt>
      <trkpt lat="45.04485" lon="0.42177">
        <ele>142.2</ele>
        <time>2022-10-29T18:08:32Z</time>
      </trkpt>
      <trkpt lat="45.04485" lon="0.4217">
        <ele>142.3</ele>
        <time>2022-10-29T18:08:33Z</time>
      </trkpt>
      <trkpt lat="45.04485" lon="0.42158">
        <ele>142.4</ele>
        <time>2022-10-29T18:08:35Z</time>
      </trkpt>
      <trkpt lat="45.04485" lon="0.42147">
        <ele>142.4</ele>
        <time>2022-10-29T18:08:37Z</time>
      </trkpt>
      <trkpt lat="45.0449" lon="0.42136">
        <ele>142.5</ele>
        <time>2022-10-29T18:08:39Z</time>
      </trkpt>
      <trkpt lat="45.04493" lon="0.42131">
        <ele>142.6</ele>
        <time>2022-10-29T18:08:40Z</time>
      </trkpt>
      <trkpt lat="45.04497" lon="0.42126">
        <ele>142.6</ele>
        <time>2022-10-29T18:08:41Z</time>
      </trkpt>
      <trkpt lat="45.045" lon="0.42119">
        <ele>142.6</ele>
        <time>2022-10-29T18:08:42Z</time>
      </trkpt>
      <trkpt lat="45.04501" lon="0.42112">
        <ele>142.5</ele>
        <time>2022-10-29T18:08:43Z</time>
      </trkpt>
      <trkpt lat="45.04505" lon="0.42099">
        <ele>142.4</ele>
        <time>2022-10-29T18:08:45Z</time>
      </trkpt>
      <trkpt lat="45.0451" lon="0.42086">
        <ele>142.3</ele>
        <time>2022-10-29T18:08:47Z</time>
      </trkpt>
      <trkpt lat="45.04513" lon="0.42069">
        <ele>142</ele>
        <time>2022-10-29T18:08:49Z</time>
      </trkpt>
      <trkpt lat="45.04514" lon="0.42052">
        <ele>141.8</ele>
        <time>2022-10-29T18:08:51Z</time>
      </trkpt>
      <trkpt lat="45.04515" lon="0.42035">
        <ele>141.5</ele>
        <time>2022-10-29T18:08:53Z</time>
      </trkpt>
      <trkpt lat="45.04516" lon="0.42018">
        <ele>141.3</ele>
        <time>2022-10-29T18:08:55Z</time>
      </trkpt>
      <trkpt lat="45.04518" lon="0.42001">
        <ele>141.1</ele>
        <time>2022-10-29T18:08:57Z</time>
      </trkpt>
      <trkpt lat="45.04518" lon="0.41993">
        <ele>141.1</ele>
        <time>2022-10-29T18:08:58Z</time>
      </trkpt>
      <trkpt lat="45.04519" lon="0.41985">
        <ele>141</ele>
        <time>2022-10-29T18:08:59Z</time>
      </trkpt>
      <trkpt lat="45.0452" lon="0.41977">
        <ele>141</ele>
        <time>2022-10-29T18:09:00Z</time>
      </trkpt>
      <trkpt lat="45.04524" lon="0.41974">
        <ele>140.9</ele>
        <time>2022-10-29T18:09:01Z</time>
      </trkpt>
      <trkpt lat="45.04533" lon="0.41971">
        <ele>140.7</ele>
        <time>2022-10-29T18:09:03Z</time>
      </trkpt>
      <trkpt lat="45.04546" lon="0.41974">
        <ele>140.3</ele>
        <time>2022-10-29T18:09:05Z</time>
      </trkpt>
      <trkpt lat="45.0455" lon="0.41976">
        <ele>140.2</ele>
        <time>2022-10-29T18:09:06Z</time>
      </trkpt>
      <trkpt lat="45.04566" lon="0.41985">
        <ele>139.8</ele>
        <time>2022-10-29T18:09:09Z</time>
      </trkpt>
      <trkpt lat="45.04575" lon="0.41993">
        <ele>139.6</ele>
        <time>2022-10-29T18:09:11Z</time>
      </trkpt>
      <trkpt lat="45.04584" lon="0.41999">
        <ele>139.4</ele>
        <time>2022-10-29T18:09:13Z</time>
      </trkpt>
      <trkpt lat="45.04588" lon="0.42002">
        <ele>139.3</ele>
        <time>2022-10-29T18:09:14Z</time>
      </trkpt>
      <trkpt lat="45.04594" lon="0.42004">
        <ele>139.3</ele>
        <time>2022-10-29T18:09:15Z</time>
      </trkpt>
      <trkpt lat="45.04604" lon="0.42009">
        <ele>139.1</ele>
        <time>2022-10-29T18:09:17Z</time>
      </trkpt>
      <trkpt lat="45.04609" lon="0.42011">
        <ele>139</ele>
        <time>2022-10-29T18:09:18Z</time>
      </trkpt>
      <trkpt lat="45.04614" lon="0.42012">
        <ele>139</ele>
        <time>2022-10-29T18:09:19Z</time>
      </trkpt>
      <trkpt lat="45.04616" lon="0.41993">
        <ele>138.9</ele>
        <time>2022-10-29T18:09:21Z</time>
      </trkpt>
      <trkpt lat="45.04632" lon="0.41996">
        <ele>138.8</ele>
        <time>2022-10-29T18:09:23Z</time>
      </trkpt>
      <trkpt lat="45.04636" lon="0.41989">
        <ele>138.7</ele>
        <time>2022-10-29T18:09:24Z</time>
      </trkpt>
      <trkpt lat="45.0464" lon="0.41983">
        <ele>138.6</ele>
        <time>2022-10-29T18:09:25Z</time>
      </trkpt>
      <trkpt lat="45.04644" lon="0.41978">
        <ele>138.5</ele>
        <time>2022-10-29T18:09:26Z</time>
      </trkpt>
      <trkpt lat="45.04646" lon="0.41973">
        <ele>138.4</ele>
        <time>2022-10-29T18:09:27Z</time>
      </trkpt>
      <trkpt lat="45.04649" lon="0.41969">
        <ele>138.4</ele>
        <time>2022-10-29T18:09:28Z</time>
      </trkpt>
      <trkpt lat="45.04649" lon="0.41969">
        <ele>138.4</ele>
        <time>2022-10-29T18:09:29Z</time>
      </trkpt>
      <trkpt lat="45.04642" lon="0.41962">
        <ele>138.1</ele>
        <time>2022-10-29T18:09:31Z</time>
      </trkpt>
      <trkpt lat="45.04642" lon="0.41957">
        <ele>138</ele>
        <time>2022-10-29T18:09:33Z</time>
      </trkpt>
      <trkpt lat="45.04643" lon="0.41955">
        <ele>138</ele>
        <time>2022-10-29T18:09:34Z</time>
      </trkpt>
      <trkpt lat="45.04643" lon="0.41953">
        <ele>137.9</ele>
        <time>2022-10-29T18:09:35Z</time>
      </trkpt>
      <trkpt lat="45.04641" lon="0.41949">
        <ele>137.9</ele>
        <time>2022-10-29T18:09:37Z</time>
      </trkpt>
      <trkpt lat="45.04637" lon="0.41942">
        <ele>137.7</ele>
        <time>2022-10-29T18:09:39Z</time>
      </trkpt>
      <trkpt lat="45.04632" lon="0.41935">
        <ele>137.5</ele>
        <time>2022-10-29T18:09:41Z</time>
      </trkpt>
      <trkpt lat="45.04626" lon="0.41928">
        <ele>137.3</ele>
        <time>2022-10-29T18:09:43Z</time>
      </trkpt>
      <trkpt lat="45.04622" lon="0.41923">
        <ele>137.1</ele>
        <time>2022-10-29T18:09:45Z</time>
      </trkpt>
      <trkpt lat="45.04615" lon="0.41915">
        <ele>136.7</ele>
        <time>2022-10-29T18:09:47Z</time>
      </trkpt>
      <trkpt lat="45.04611" lon="0.41911">
        <ele>136.5</ele>
        <time>2022-10-29T18:09:49Z</time>
      </trkpt>
      <trkpt lat="45.04611" lon="0.41903">
        <ele>136.3</ele>
        <time>2022-10-29T18:09:51Z</time>
      </trkpt>
      <trkpt lat="45.04611" lon="0.41895">
        <ele>136.1</ele>
        <time>2022-10-29T18:09:53Z</time>
      </trkpt>
      <trkpt lat="45.04612" lon="0.41887">
        <ele>135.9</ele>
        <time>2022-10-29T18:09:55Z</time>
      </trkpt>
      <trkpt lat="45.04613" lon="0.4188">
        <ele>135.7</ele>
        <time>2022-10-29T18:09:57Z</time>
      </trkpt>
      <trkpt lat="45.04611" lon="0.41874">
        <ele>135.6</ele>
        <time>2022-10-29T18:09:58Z</time>
      </trkpt>
      <trkpt lat="45.04609" lon="0.41872">
        <ele>135.5</ele>
        <time>2022-10-29T18:09:59Z</time>
      </trkpt>
      <trkpt lat="45.04605" lon="0.41863">
        <ele>135.2</ele>
        <time>2022-10-29T18:10:01Z</time>
      </trkpt>
      <trkpt lat="45.046" lon="0.41855">
        <ele>135</ele>
        <time>2022-10-29T18:10:03Z</time>
      </trkpt>
      <trkpt lat="45.04596" lon="0.41848">
        <ele>134.9</ele>
        <time>2022-10-29T18:10:05Z</time>
      </trkpt>
      <trkpt lat="45.04595" lon="0.41846">
        <ele>134.9</ele>
        <time>2022-10-29T18:10:06Z</time>
      </trkpt>
      <trkpt lat="45.04591" lon="0.41845">
        <ele>135</ele>
        <time>2022-10-29T18:10:08Z</time>
      </trkpt>
      <trkpt lat="45.0459" lon="0.41845">
        <ele>135</ele>
        <time>2022-10-29T18:10:09Z</time>
      </trkpt>
      <trkpt lat="45.04587" lon="0.41846">
        <ele>135</ele>
        <time>2022-10-29T18:10:11Z</time>
      </trkpt>
      <trkpt lat="45.04583" lon="0.41855">
        <ele>135.2</ele>
        <time>2022-10-29T18:10:13Z</time>
      </trkpt>
      <trkpt lat="45.04583" lon="0.4186">
        <ele>135.4</ele>
        <time>2022-10-29T18:10:15Z</time>
      </trkpt>
      <trkpt lat="45.04583" lon="0.41862">
        <ele>135.4</ele>
        <time>2022-10-29T18:10:17Z</time>
      </trkpt>
      <trkpt lat="45.04582" lon="0.41866">
        <ele>135.5</ele>
        <time>2022-10-29T18:10:18Z</time>
      </trkpt>
      <trkpt lat="45.04581" lon="0.41868">
        <ele>135.6</ele>
        <time>2022-10-29T18:10:19Z</time>
      </trkpt>
      <trkpt lat="45.0458" lon="0.41873">
        <ele>135.8</ele>
        <time>2022-10-29T18:10:21Z</time>
      </trkpt>
      <trkpt lat="45.04578" lon="0.41879">
        <ele>136</ele>
        <time>2022-10-29T18:10:23Z</time>
      </trkpt>
      <trkpt lat="45.04576" lon="0.41887">
        <ele>136.2</ele>
        <time>2022-10-29T18:10:25Z</time>
      </trkpt>
      <trkpt lat="45.04576" lon="0.4189">
        <ele>136.4</ele>
        <time>2022-10-29T18:10:26Z</time>
      </trkpt>
      <trkpt lat="45.04575" lon="0.41894">
        <ele>136.5</ele>
        <time>2022-10-29T18:10:27Z</time>
      </trkpt>
      <trkpt lat="45.04573" lon="0.41895">
        <ele>136.6</ele>
        <time>2022-10-29T18:10:29Z</time>
      </trkpt>
      <trkpt lat="45.04572" lon="0.41896">
        <ele>136.7</ele>
        <time>2022-10-29T18:10:30Z</time>
      </trkpt>
      <trkpt lat="45.0457" lon="0.41897">
        <ele>136.8</ele>
        <time>2022-10-29T18:10:31Z</time>
      </trkpt>
      <trkpt lat="45.04565" lon="0.419">
        <ele>137.1</ele>
        <time>2022-10-29T18:10:33Z</time>
      </trkpt>
      <trkpt lat="45.04563" lon="0.41901">
        <ele>137.2</ele>
        <time>2022-10-29T18:10:34Z</time>
      </trkpt>
      <trkpt lat="45.04561" lon="0.41902">
        <ele>137.3</ele>
        <time>2022-10-29T18:10:35Z</time>
      </trkpt>
      <trkpt lat="45.04558" lon="0.41903">
        <ele>137.4</ele>
        <time>2022-10-29T18:10:36Z</time>
      </trkpt>
      <trkpt lat="45.04556" lon="0.41904">
        <ele>137.5</ele>
        <time>2022-10-29T18:10:37Z</time>
      </trkpt>
      <trkpt lat="45.04554" lon="0.41905">
        <ele>137.6</ele>
        <time>2022-10-29T18:10:38Z</time>
      </trkpt>
      <trkpt lat="45.04552" lon="0.41905">
        <ele>137.7</ele>
        <time>2022-10-29T18:10:39Z</time>
      </trkpt>
      <trkpt lat="45.04551" lon="0.41905">
        <ele>137.7</ele>
        <time>2022-10-29T18:10:40Z</time>
      </trkpt>
      <trkpt lat="45.04551" lon="0.41905">
        <ele>137.7</ele>
        <time>2022-10-29T18:10:41Z</time>
      </trkpt>
      <trkpt lat="45.04551" lon="0.41902">
        <ele>137.8</ele>
        <time>2022-10-29T18:10:42Z</time>
      </trkpt>
      <trkpt lat="45.0455" lon="0.41898">
        <ele>137.8</ele>
        <time>2022-10-29T18:10:43Z</time>
      </trkpt>
      <trkpt lat="45.04548" lon="0.41897">
        <ele>137.9</ele>
        <time>2022-10-29T18:10:44Z</time>
      </trkpt>
      <trkpt lat="45.04547" lon="0.41896">
        <ele>137.9</ele>
        <time>2022-10-29T18:10:45Z</time>
      </trkpt>
      <trkpt lat="45.04546" lon="0.41896">
        <ele>137.9</ele>
        <time>2022-10-29T18:10:47Z</time>
      </trkpt>
      <trkpt lat="45.04545" lon="0.41895">
        <ele>137.9</ele>
        <time>2022-10-29T18:10:48Z</time>
      </trkpt>
      <trkpt lat="45.04544" lon="0.41894">
        <ele>137.9</ele>
        <time>2022-10-29T18:10:49Z</time>
      </trkpt>
      <trkpt lat="45.04534" lon="0.4189">
        <ele>137.9</ele>
        <time>2022-10-29T18:10:51Z</time>
      </trkpt>
      <trkpt lat="45.0453" lon="0.4189">
        <ele>137.9</ele>
        <time>2022-10-29T18:10:52Z</time>
      </trkpt>
      <trkpt lat="45.04527" lon="0.4189">
        <ele>137.8</ele>
        <time>2022-10-29T18:10:53Z</time>
      </trkpt>
      <trkpt lat="45.04524" lon="0.41891">
        <ele>137.8</ele>
        <time>2022-10-29T18:10:55Z</time>
      </trkpt>
      <trkpt lat="45.04521" lon="0.41891">
        <ele>137.8</ele>
        <time>2022-10-29T18:10:56Z</time>
      </trkpt>
      <trkpt lat="45.04519" lon="0.41891">
        <ele>137.7</ele>
        <time>2022-10-29T18:10:57Z</time>
      </trkpt>
      <trkpt lat="45.04515" lon="0.41891">
        <ele>137.7</ele>
        <time>2022-10-29T18:10:59Z</time>
      </trkpt>
      <trkpt lat="45.04512" lon="0.41892">
        <ele>137.6</ele>
        <time>2022-10-29T18:11:00Z</time>
      </trkpt>
      <trkpt lat="45.04509" lon="0.41892">
        <ele>137.5</ele>
        <time>2022-10-29T18:11:01Z</time>
      </trkpt>
      <trkpt lat="45.04504" lon="0.4189">
        <ele>137.3</ele>
        <time>2022-10-29T18:11:03Z</time>
      </trkpt>
      <trkpt lat="45.04499" lon="0.41888">
        <ele>137.1</ele>
        <time>2022-10-29T18:11:05Z</time>
      </trkpt>
      <trkpt lat="45.04496" lon="0.41886">
        <ele>136.9</ele>
        <time>2022-10-29T18:11:06Z</time>
      </trkpt>
      <trkpt lat="45.04489" lon="0.41885">
        <ele>136.4</ele>
        <time>2022-10-29T18:11:08Z</time>
      </trkpt>
      <trkpt lat="45.04485" lon="0.41884">
        <ele>136.2</ele>
        <time>2022-10-29T18:11:09Z</time>
      </trkpt>
      <trkpt lat="45.04475" lon="0.41883">
        <ele>135.4</ele>
        <time>2022-10-29T18:11:11Z</time>
      </trkpt>
      <trkpt lat="45.0447" lon="0.41885">
        <ele>135</ele>
        <time>2022-10-29T18:11:12Z</time>
      </trkpt>
      <trkpt lat="45.04465" lon="0.41888">
        <ele>134.6</ele>
        <time>2022-10-29T18:11:13Z</time>
      </trkpt>
      <trkpt lat="45.04465" lon="0.41888">
        <ele>134.6</ele>
        <time>2022-10-29T18:11:15Z</time>
      </trkpt>
      <trkpt lat="45.04462" lon="0.41882">
        <ele>134.2</ele>
        <time>2022-10-29T18:11:17Z</time>
      </trkpt>
      <trkpt lat="45.0446" lon="0.41878">
        <ele>133.9</ele>
        <time>2022-10-29T18:11:18Z</time>
      </trkpt>
      <trkpt lat="45.04458" lon="0.41874">
        <ele>133.5</ele>
        <time>2022-10-29T18:11:19Z</time>
      </trkpt>
      <trkpt lat="45.04455" lon="0.41871">
        <ele>133.2</ele>
        <time>2022-10-29T18:11:20Z</time>
      </trkpt>
      <trkpt lat="45.04453" lon="0.41867">
        <ele>132.9</ele>
        <time>2022-10-29T18:11:21Z</time>
      </trkpt>
      <trkpt lat="45.04452" lon="0.41863">
        <ele>132.5</ele>
        <time>2022-10-29T18:11:23Z</time>
      </trkpt>
      <trkpt lat="45.0445" lon="0.41857">
        <ele>132</ele>
        <time>2022-10-29T18:11:25Z</time>
      </trkpt>
      <trkpt lat="45.04447" lon="0.41847">
        <ele>131.2</ele>
        <time>2022-10-29T18:11:27Z</time>
      </trkpt>
      <trkpt lat="45.04445" lon="0.41839">
        <ele>130.5</ele>
        <time>2022-10-29T18:11:29Z</time>
      </trkpt>
      <trkpt lat="45.04444" lon="0.41836">
        <ele>130.2</ele>
        <time>2022-10-29T18:11:31Z</time>
      </trkpt>
      <trkpt lat="45.0444" lon="0.4183">
        <ele>129.5</ele>
        <time>2022-10-29T18:11:33Z</time>
      </trkpt>
      <trkpt lat="45.04437" lon="0.41821">
        <ele>128.7</ele>
        <time>2022-10-29T18:11:35Z</time>
      </trkpt>
      <trkpt lat="45.04436" lon="0.41815">
        <ele>128.2</ele>
        <time>2022-10-29T18:11:36Z</time>
      </trkpt>
      <trkpt lat="45.04438" lon="0.41811">
        <ele>127.9</ele>
        <time>2022-10-29T18:11:37Z</time>
      </trkpt>
      <trkpt lat="45.0444" lon="0.41806">
        <ele>127.4</ele>
        <time>2022-10-29T18:11:38Z</time>
      </trkpt>
      <trkpt lat="45.04443" lon="0.418">
        <ele>127</ele>
        <time>2022-10-29T18:11:39Z</time>
      </trkpt>
      <trkpt lat="45.04445" lon="0.418">
        <ele>126.8</ele>
        <time>2022-10-29T18:11:40Z</time>
      </trkpt>
      <trkpt lat="45.04446" lon="0.41803">
        <ele>126.6</ele>
        <time>2022-10-29T18:11:41Z</time>
      </trkpt>
      <trkpt lat="45.04447" lon="0.41806">
        <ele>126.4</ele>
        <time>2022-10-29T18:11:43Z</time>
      </trkpt>
      <trkpt lat="45.04447" lon="0.41808">
        <ele>126.2</ele>
        <time>2022-10-29T18:11:44Z</time>
      </trkpt>
      <trkpt lat="45.04444" lon="0.41797">
        <ele>125.4</ele>
        <time>2022-10-29T18:11:45Z</time>
      </trkpt>
      <trkpt lat="45.04444" lon="0.41797">
        <ele>125.4</ele>
        <time>2022-10-29T18:11:47Z</time>
      </trkpt>
      <trkpt lat="45.04444" lon="0.41797">
        <ele>125.4</ele>
        <time>2022-10-29T18:11:49Z</time>
      </trkpt>
      <trkpt lat="45.04439" lon="0.41826">
        <ele>127.8</ele>
        <time>2022-10-29T18:11:51Z</time>
      </trkpt>
      <trkpt lat="45.04443" lon="0.41835">
        <ele>128.2</ele>
        <time>2022-10-29T18:11:53Z</time>
      </trkpt>
      <trkpt lat="45.04451" lon="0.41832">
        <ele>128.8</ele>
        <time>2022-10-29T18:11:54Z</time>
      </trkpt>
      <trkpt lat="45.04458" lon="0.41829">
        <ele>129.1</ele>
        <time>2022-10-29T18:11:55Z</time>
      </trkpt>
      <trkpt lat="45.04465" lon="0.41825">
        <ele>129.1</ele>
        <time>2022-10-29T18:11:57Z</time>
      </trkpt>
      <trkpt lat="45.04468" lon="0.41825">
        <ele>129.4</ele>
        <time>2022-10-29T18:11:59Z</time>
      </trkpt>
      <trkpt lat="45.04475" lon="0.41824">
        <ele>129.4</ele>
        <time>2022-10-29T18:12:01Z</time>
      </trkpt>
      <trkpt lat="45.04478" lon="0.41823">
        <ele>129.3</ele>
        <time>2022-10-29T18:12:03Z</time>
      </trkpt>
      <trkpt lat="45.04479" lon="0.4182">
        <ele>129.8</ele>
        <time>2022-10-29T18:12:04Z</time>
      </trkpt>
      <trkpt lat="45.0448" lon="0.41817">
        <ele>129.8</ele>
        <time>2022-10-29T18:12:05Z</time>
      </trkpt>
      <trkpt lat="45.04481" lon="0.41813">
        <ele>128.1</ele>
        <time>2022-10-29T18:12:06Z</time>
      </trkpt>
      <trkpt lat="45.04483" lon="0.41802">
        <ele>128.1</ele>
        <time>2022-10-29T18:12:08Z</time>
      </trkpt>
      <trkpt lat="45.04483" lon="0.41798">
        <ele>127</ele>
        <time>2022-10-29T18:12:09Z</time>
      </trkpt>
      <trkpt lat="45.04488" lon="0.41793">
        <ele>126.9</ele>
        <time>2022-10-29T18:12:11Z</time>
      </trkpt>
      <trkpt lat="45.0449" lon="0.41789">
        <ele>126.9</ele>
        <time>2022-10-29T18:12:12Z</time>
      </trkpt>
      <trkpt lat="45.04492" lon="0.41786">
        <ele>127.7</ele>
        <time>2022-10-29T18:12:13Z</time>
      </trkpt>
      <trkpt lat="45.04494" lon="0.41784">
        <ele>127.7</ele>
        <time>2022-10-29T18:12:14Z</time>
      </trkpt>
      <trkpt lat="45.04497" lon="0.41782">
        <ele>127.6</ele>
        <time>2022-10-29T18:12:15Z</time>
      </trkpt>
      <trkpt lat="45.04499" lon="0.41783">
        <ele>127.6</ele>
        <time>2022-10-29T18:12:16Z</time>
      </trkpt>
      <trkpt lat="45.045" lon="0.41785">
        <ele>127.5</ele>
        <time>2022-10-29T18:12:17Z</time>
      </trkpt>
      <trkpt lat="45.04502" lon="0.41788">
        <ele>127.5</ele>
        <time>2022-10-29T18:12:18Z</time>
      </trkpt>
      <trkpt lat="45.04503" lon="0.4179">
        <ele>128.8</ele>
        <time>2022-10-29T18:12:19Z</time>
      </trkpt>
      <trkpt lat="45.04507" lon="0.41792">
        <ele>128.8</ele>
        <time>2022-10-29T18:12:21Z</time>
      </trkpt>
      <trkpt lat="45.04509" lon="0.41795">
        <ele>128.7</ele>
        <time>2022-10-29T18:12:22Z</time>
      </trkpt>
      <trkpt lat="45.04511" lon="0.41795">
        <ele>128.7</ele>
        <time>2022-10-29T18:12:23Z</time>
      </trkpt>
      <trkpt lat="45.04515" lon="0.41797">
        <ele>130.4</ele>
        <time>2022-10-29T18:12:25Z</time>
      </trkpt>
      <trkpt lat="45.04519" lon="0.41797">
        <ele>130.3</ele>
        <time>2022-10-29T18:12:26Z</time>
      </trkpt>
      <trkpt lat="45.04521" lon="0.41799">
        <ele>130.3</ele>
        <time>2022-10-29T18:12:27Z</time>
      </trkpt>
      <trkpt lat="45.04525" lon="0.41801">
        <ele>130.8</ele>
        <time>2022-10-29T18:12:29Z</time>
      </trkpt>
      <trkpt lat="45.04528" lon="0.41802">
        <ele>132.3</ele>
        <time>2022-10-29T18:12:30Z</time>
      </trkpt>
      <trkpt lat="45.04529" lon="0.41804">
        <ele>132.3</ele>
        <time>2022-10-29T18:12:31Z</time>
      </trkpt>
      <trkpt lat="45.04533" lon="0.41808">
        <ele>132.2</ele>
        <time>2022-10-29T18:12:33Z</time>
      </trkpt>
      <trkpt lat="45.04538" lon="0.4181">
        <ele>132.2</ele>
        <time>2022-10-29T18:12:35Z</time>
      </trkpt>
      <trkpt lat="45.0454" lon="0.41811">
        <ele>133.5</ele>
        <time>2022-10-29T18:12:36Z</time>
      </trkpt>
      <trkpt lat="45.04545" lon="0.41812">
        <ele>133.4</ele>
        <time>2022-10-29T18:12:38Z</time>
      </trkpt>
      <trkpt lat="45.04547" lon="0.41812">
        <ele>133.4</ele>
        <time>2022-10-29T18:12:39Z</time>
      </trkpt>
      <trkpt lat="45.04551" lon="0.41811">
        <ele>133.3</ele>
        <time>2022-10-29T18:12:40Z</time>
      </trkpt>
      <trkpt lat="45.04553" lon="0.41811">
        <ele>134.4</ele>
        <time>2022-10-29T18:12:41Z</time>
      </trkpt>
      <trkpt lat="45.04554" lon="0.41811">
        <ele>134.4</ele>
        <time>2022-10-29T18:12:43Z</time>
      </trkpt>
      <trkpt lat="45.04559" lon="0.41812">
        <ele>134.3</ele>
        <time>2022-10-29T18:12:45Z</time>
      </trkpt>
      <trkpt lat="45.04564" lon="0.41815">
        <ele>134.7</ele>
        <time>2022-10-29T18:12:47Z</time>
      </trkpt>
      <trkpt lat="45.04568" lon="0.41819">
        <ele>134.4</ele>
        <time>2022-10-29T18:12:49Z</time>
      </trkpt>
      <trkpt lat="45.04571" lon="0.41819">
        <ele>134.3</ele>
        <time>2022-10-29T18:12:50Z</time>
      </trkpt>
      <trkpt lat="45.04576" lon="0.41822">
        <ele>134</ele>
        <time>2022-10-29T18:12:52Z</time>
      </trkpt>
      <trkpt lat="45.04577" lon="0.41825">
        <ele>133.9</ele>
        <time>2022-10-29T18:12:53Z</time>
      </trkpt>
      <trkpt lat="45.04582" lon="0.41828">
        <ele>133.9</ele>
        <time>2022-10-29T18:12:55Z</time>
      </trkpt>
      <trkpt lat="45.04584" lon="0.4183">
        <ele>133.8</ele>
        <time>2022-10-29T18:12:56Z</time>
      </trkpt>
      <trkpt lat="45.04586" lon="0.41831">
        <ele>133.8</ele>
        <time>2022-10-29T18:12:57Z</time>
      </trkpt>
      <trkpt lat="45.04588" lon="0.41833">
        <ele>133.2</ele>
        <time>2022-10-29T18:12:58Z</time>
      </trkpt>
      <trkpt lat="45.04594" lon="0.41836">
        <ele>133.4</ele>
        <time>2022-10-29T18:13:00Z</time>
      </trkpt>
      <trkpt lat="45.04594" lon="0.41845">
        <ele>133.4</ele>
        <time>2022-10-29T18:13:02Z</time>
      </trkpt>
      <trkpt lat="45.04596" lon="0.41848">
        <ele>133.3</ele>
        <time>2022-10-29T18:13:04Z</time>
      </trkpt>
      <trkpt lat="45.04599" lon="0.41853">
        <ele>134.3</ele>
        <time>2022-10-29T18:13:06Z</time>
      </trkpt>
      <trkpt lat="45.04601" lon="0.41857">
        <ele>133.5</ele>
        <time>2022-10-29T18:13:08Z</time>
      </trkpt>
      <trkpt lat="45.04604" lon="0.41862">
        <ele>133.4</ele>
        <time>2022-10-29T18:13:10Z</time>
      </trkpt>
      <trkpt lat="45.04606" lon="0.41865">
        <ele>133.4</ele>
        <time>2022-10-29T18:13:11Z</time>
      </trkpt>
      <trkpt lat="45.0462" lon="0.41859">
        <ele>132.7</ele>
        <time>2022-10-29T18:13:12Z</time>
      </trkpt>
      <trkpt lat="45.04622" lon="0.41861">
        <ele>132.6</ele>
        <time>2022-10-29T18:13:13Z</time>
      </trkpt>
      <trkpt lat="45.04624" lon="0.41862">
        <ele>132.6</ele>
        <time>2022-10-29T18:13:14Z</time>
      </trkpt>
      <trkpt lat="45.04627" lon="0.41862">
        <ele>132.2</ele>
        <time>2022-10-29T18:13:15Z</time>
      </trkpt>
      <trkpt lat="45.0463" lon="0.41865">
        <ele>132.1</ele>
        <time>2022-10-29T18:13:16Z</time>
      </trkpt>
      <trkpt lat="45.04632" lon="0.41866">
        <ele>132.1</ele>
        <time>2022-10-29T18:13:17Z</time>
      </trkpt>
      <trkpt lat="45.04634" lon="0.41868">
        <ele>132.7</ele>
        <time>2022-10-29T18:13:18Z</time>
      </trkpt>
      <trkpt lat="45.04638" lon="0.41872">
        <ele>132.7</ele>
        <time>2022-10-29T18:13:20Z</time>
      </trkpt>
      <trkpt lat="45.04646" lon="0.41875">
        <ele>132.7</ele>
        <time>2022-10-29T18:13:22Z</time>
      </trkpt>
      <trkpt lat="45.0465" lon="0.4188">
        <ele>132.8</ele>
        <time>2022-10-29T18:13:24Z</time>
      </trkpt>
      <trkpt lat="45.04652" lon="0.41885">
        <ele>132.7</ele>
        <time>2022-10-29T18:13:26Z</time>
      </trkpt>
      <trkpt lat="45.0465" lon="0.41889">
        <ele>133.7</ele>
        <time>2022-10-29T18:13:27Z</time>
      </trkpt>
      <trkpt lat="45.0465" lon="0.41891">
        <ele>133.7</ele>
        <time>2022-10-29T18:13:28Z</time>
      </trkpt>
      <trkpt lat="45.04649" lon="0.41897">
        <ele>133.6</ele>
        <time>2022-10-29T18:13:30Z</time>
      </trkpt>
      <trkpt lat="45.04649" lon="0.419">
        <ele>133.6</ele>
        <time>2022-10-29T18:13:31Z</time>
      </trkpt>
      <trkpt lat="45.04649" lon="0.41903">
        <ele>134.6</ele>
        <time>2022-10-29T18:13:32Z</time>
      </trkpt>
      <trkpt lat="45.0465" lon="0.41909">
        <ele>134.5</ele>
        <time>2022-10-29T18:13:34Z</time>
      </trkpt>
      <trkpt lat="45.04652" lon="0.41914">
        <ele>134.5</ele>
        <time>2022-10-29T18:13:36Z</time>
      </trkpt>
      <trkpt lat="45.04654" lon="0.4192">
        <ele>135.5</ele>
        <time>2022-10-29T18:13:38Z</time>
      </trkpt>
      <trkpt lat="45.04654" lon="0.41926">
        <ele>135.5</ele>
        <time>2022-10-29T18:13:40Z</time>
      </trkpt>
      <trkpt lat="45.04655" lon="0.41931">
        <ele>135.4</ele>
        <time>2022-10-29T18:13:42Z</time>
      </trkpt>
      <trkpt lat="45.04657" lon="0.41938">
        <ele>136.4</ele>
        <time>2022-10-29T18:13:44Z</time>
      </trkpt>
      <trkpt lat="45.0466" lon="0.41944">
        <ele>136.3</ele>
        <time>2022-10-29T18:13:46Z</time>
      </trkpt>
      <trkpt lat="45.04662" lon="0.41946">
        <ele>136.4</ele>
        <time>2022-10-29T18:13:47Z</time>
      </trkpt>
      <trkpt lat="45.04663" lon="0.41948">
        <ele>136.3</ele>
        <time>2022-10-29T18:13:48Z</time>
      </trkpt>
      <trkpt lat="45.04665" lon="0.41948">
        <ele>136.3</ele>
        <time>2022-10-29T18:13:49Z</time>
      </trkpt>
      <trkpt lat="45.04667" lon="0.41947">
        <ele>136.2</ele>
        <time>2022-10-29T18:13:50Z</time>
      </trkpt>
      <trkpt lat="45.0467" lon="0.41945">
        <ele>136.2</ele>
        <time>2022-10-29T18:13:51Z</time>
      </trkpt>
      <trkpt lat="45.04675" lon="0.41943">
        <ele>135.9</ele>
        <time>2022-10-29T18:13:52Z</time>
      </trkpt>
      <trkpt lat="45.04684" lon="0.41942">
        <ele>135.5</ele>
        <time>2022-10-29T18:13:54Z</time>
      </trkpt>
      <trkpt lat="45.04694" lon="0.41943">
        <ele>135.1</ele>
        <time>2022-10-29T18:13:56Z</time>
      </trkpt>
      <trkpt lat="45.04698" lon="0.41944">
        <ele>135</ele>
        <time>2022-10-29T18:13:57Z</time>
      </trkpt>
      <trkpt lat="45.04703" lon="0.41945">
        <ele>134.8</ele>
        <time>2022-10-29T18:13:58Z</time>
      </trkpt>
      <trkpt lat="45.04712" lon="0.41943">
        <ele>134.4</ele>
        <time>2022-10-29T18:14:00Z</time>
      </trkpt>
      <trkpt lat="45.04716" lon="0.41945">
        <ele>134.3</ele>
        <time>2022-10-29T18:14:01Z</time>
      </trkpt>
      <trkpt lat="45.04719" lon="0.41947">
        <ele>134.2</ele>
        <time>2022-10-29T18:14:02Z</time>
      </trkpt>
      <trkpt lat="45.04727" lon="0.41951">
        <ele>134.3</ele>
        <time>2022-10-29T18:14:03Z</time>
      </trkpt>
      <trkpt lat="45.04727" lon="0.41951">
        <ele>134.3</ele>
        <time>2022-10-29T18:14:04Z</time>
      </trkpt>
      <trkpt lat="45.0474" lon="0.41955">
        <ele>134.6</ele>
        <time>2022-10-29T18:14:06Z</time>
      </trkpt>
      <trkpt lat="45.04749" lon="0.41958">
        <ele>134.8</ele>
        <time>2022-10-29T18:14:07Z</time>
      </trkpt>
      <trkpt lat="45.04753" lon="0.41959">
        <ele>134.9</ele>
        <time>2022-10-29T18:14:08Z</time>
      </trkpt>
      <trkpt lat="45.04761" lon="0.41961">
        <ele>135</ele>
        <time>2022-10-29T18:14:10Z</time>
      </trkpt>
      <trkpt lat="45.04769" lon="0.41963">
        <ele>135.2</ele>
        <time>2022-10-29T18:14:12Z</time>
      </trkpt>
      <trkpt lat="45.04774" lon="0.41964">
        <ele>135.3</ele>
        <time>2022-10-29T18:14:13Z</time>
      </trkpt>
      <trkpt lat="45.04779" lon="0.41965">
        <ele>135.4</ele>
        <time>2022-10-29T18:14:14Z</time>
      </trkpt>
      <trkpt lat="45.04784" lon="0.41965">
        <ele>135.5</ele>
        <time>2022-10-29T18:14:15Z</time>
      </trkpt>
      <trkpt lat="45.04788" lon="0.41965">
        <ele>135.5</ele>
        <time>2022-10-29T18:14:16Z</time>
      </trkpt>
      <trkpt lat="45.04796" lon="0.41964">
        <ele>135.7</ele>
        <time>2022-10-29T18:14:18Z</time>
      </trkpt>
      <trkpt lat="45.04806" lon="0.41961">
        <ele>135.9</ele>
        <time>2022-10-29T18:14:20Z</time>
      </trkpt>
      <trkpt lat="45.04815" lon="0.41958">
        <ele>136.1</ele>
        <time>2022-10-29T18:14:22Z</time>
      </trkpt>
      <trkpt lat="45.04824" lon="0.41954">
        <ele>136.3</ele>
        <time>2022-10-29T18:14:24Z</time>
      </trkpt>
      <trkpt lat="45.04833" lon="0.41951">
        <ele>136.5</ele>
        <time>2022-10-29T18:14:26Z</time>
      </trkpt>
      <trkpt lat="45.04837" lon="0.4195">
        <ele>136.6</ele>
        <time>2022-10-29T18:14:27Z</time>
      </trkpt>
      <trkpt lat="45.04841" lon="0.41948">
        <ele>136.7</ele>
        <time>2022-10-29T18:14:28Z</time>
      </trkpt>
      <trkpt lat="45.04849" lon="0.41946">
        <ele>136.9</ele>
        <time>2022-10-29T18:14:30Z</time>
      </trkpt>
      <trkpt lat="45.0486" lon="0.41946">
        <ele>136.9</ele>
        <time>2022-10-29T18:14:32Z</time>
      </trkpt>
      <trkpt lat="45.04868" lon="0.41955">
        <ele>136.8</ele>
        <time>2022-10-29T18:14:34Z</time>
      </trkpt>
      <trkpt lat="45.04876" lon="0.41965">
        <ele>136.6</ele>
        <time>2022-10-29T18:14:36Z</time>
      </trkpt>
      <trkpt lat="45.04883" lon="0.41977">
        <ele>136.3</ele>
        <time>2022-10-29T18:14:38Z</time>
      </trkpt>
      <trkpt lat="45.04886" lon="0.41982">
        <ele>136.1</ele>
        <time>2022-10-29T18:14:39Z</time>
      </trkpt>
      <trkpt lat="45.04888" lon="0.41987">
        <ele>136</ele>
        <time>2022-10-29T18:14:40Z</time>
      </trkpt>
      <trkpt lat="45.04891" lon="0.41993">
        <ele>135.8</ele>
        <time>2022-10-29T18:14:41Z</time>
      </trkpt>
      <trkpt lat="45.04894" lon="0.42">
        <ele>135.6</ele>
        <time>2022-10-29T18:14:42Z</time>
      </trkpt>
      <trkpt lat="45.04898" lon="0.4201">
        <ele>135.3</ele>
        <time>2022-10-29T18:14:44Z</time>
      </trkpt>
      <trkpt lat="45.04898" lon="0.42012">
        <ele>135.2</ele>
        <time>2022-10-29T18:14:45Z</time>
      </trkpt>
      <trkpt lat="45.04896" lon="0.42012">
        <ele>135</ele>
        <time>2022-10-29T18:14:46Z</time>
      </trkpt>
      <trkpt lat="45.04893" lon="0.42011">
        <ele>134.9</ele>
        <time>2022-10-29T18:14:48Z</time>
      </trkpt>
      <trkpt lat="45.0489" lon="0.4201">
        <ele>134.7</ele>
        <time>2022-10-29T18:14:50Z</time>
      </trkpt>
      <trkpt lat="45.04884" lon="0.42008">
        <ele>134.5</ele>
        <time>2022-10-29T18:14:52Z</time>
      </trkpt>
      <trkpt lat="45.04881" lon="0.42007">
        <ele>134.4</ele>
        <time>2022-10-29T18:14:54Z</time>
      </trkpt>
      <trkpt lat="45.04877" lon="0.42006">
        <ele>134.4</ele>
        <time>2022-10-29T18:14:56Z</time>
      </trkpt>
      <trkpt lat="45.04873" lon="0.42006">
        <ele>134.3</ele>
        <time>2022-10-29T18:14:58Z</time>
      </trkpt>
      <trkpt lat="45.04871" lon="0.42006">
        <ele>134.3</ele>
        <time>2022-10-29T18:14:59Z</time>
      </trkpt>
      <trkpt lat="45.04868" lon="0.42006">
        <ele>134.2</ele>
        <time>2022-10-29T18:15:00Z</time>
      </trkpt>
      <trkpt lat="45.04867" lon="0.42006">
        <ele>134.2</ele>
        <time>2022-10-29T18:15:02Z</time>
      </trkpt>
      <trkpt lat="45.04863" lon="0.42008">
        <ele>134.1</ele>
        <time>2022-10-29T18:15:04Z</time>
      </trkpt>
      <trkpt lat="45.04862" lon="0.42008">
        <ele>134.1</ele>
        <time>2022-10-29T18:15:05Z</time>
      </trkpt>
      <trkpt lat="45.04862" lon="0.42008">
        <ele>134.1</ele>
        <time>2022-10-29T18:15:06Z</time>
      </trkpt>
      <trkpt lat="45.0486" lon="0.42012">
        <ele>134</ele>
        <time>2022-10-29T18:15:08Z</time>
      </trkpt>
      <trkpt lat="45.04865" lon="0.42021">
        <ele>133.6</ele>
        <time>2022-10-29T18:15:10Z</time>
      </trkpt>
      <trkpt lat="45.0487" lon="0.42029">
        <ele>133</ele>
        <time>2022-10-29T18:15:12Z</time>
      </trkpt>
      <trkpt lat="45.04872" lon="0.42033">
        <ele>132.7</ele>
        <time>2022-10-29T18:15:13Z</time>
      </trkpt>
      <trkpt lat="45.04876" lon="0.42037">
        <ele>132.4</ele>
        <time>2022-10-29T18:15:14Z</time>
      </trkpt>
      <trkpt lat="45.0488" lon="0.42041">
        <ele>132</ele>
        <time>2022-10-29T18:15:15Z</time>
      </trkpt>
      <trkpt lat="45.04884" lon="0.42046">
        <ele>131.5</ele>
        <time>2022-10-29T18:15:16Z</time>
      </trkpt>
      <trkpt lat="45.04891" lon="0.42054">
        <ele>130.7</ele>
        <time>2022-10-29T18:15:18Z</time>
      </trkpt>
      <trkpt lat="45.04897" lon="0.42056">
        <ele>130.2</ele>
        <time>2022-10-29T18:15:20Z</time>
      </trkpt>
      <trkpt lat="45.04903" lon="0.42057">
        <ele>129.7</ele>
        <time>2022-10-29T18:15:22Z</time>
      </trkpt>
      <trkpt lat="45.04909" lon="0.42057">
        <ele>129.3</ele>
        <time>2022-10-29T18:15:24Z</time>
      </trkpt>
      <trkpt lat="45.04912" lon="0.42058">
        <ele>129.1</ele>
        <time>2022-10-29T18:15:26Z</time>
      </trkpt>
      <trkpt lat="45.04915" lon="0.4206">
        <ele>128.9</ele>
        <time>2022-10-29T18:15:27Z</time>
      </trkpt>
      <trkpt lat="45.04916" lon="0.42061">
        <ele>128.8</ele>
        <time>2022-10-29T18:15:28Z</time>
      </trkpt>
      <trkpt lat="45.04916" lon="0.42061">
        <ele>128.8</ele>
        <time>2022-10-29T18:15:29Z</time>
      </trkpt>
      <trkpt lat="45.04916" lon="0.42062">
        <ele>128.8</ele>
        <time>2022-10-29T18:15:30Z</time>
      </trkpt>
      <trkpt lat="45.04914" lon="0.42065">
        <ele>128.7</ele>
        <time>2022-10-29T18:15:31Z</time>
      </trkpt>
      <trkpt lat="45.04914" lon="0.42066">
        <ele>128.6</ele>
        <time>2022-10-29T18:15:32Z</time>
      </trkpt>
      <trkpt lat="45.04912" lon="0.42068">
        <ele>128.4</ele>
        <time>2022-10-29T18:15:33Z</time>
      </trkpt>
      <trkpt lat="45.04908" lon="0.4207">
        <ele>128</ele>
        <time>2022-10-29T18:15:34Z</time>
      </trkpt>
      <trkpt lat="45.04905" lon="0.42073">
        <ele>127.6</ele>
        <time>2022-10-29T18:15:35Z</time>
      </trkpt>
      <trkpt lat="45.04901" lon="0.42076">
        <ele>127</ele>
        <time>2022-10-29T18:15:36Z</time>
      </trkpt>
      <trkpt lat="45.04898" lon="0.42076">
        <ele>126.7</ele>
        <time>2022-10-29T18:15:37Z</time>
      </trkpt>
      <trkpt lat="45.04898" lon="0.42076">
        <ele>126.7</ele>
        <time>2022-10-29T18:15:38Z</time>
      </trkpt>
      <trkpt lat="45.04901" lon="0.42076">
        <ele>126.2</ele>
        <time>2022-10-29T18:15:40Z</time>
      </trkpt>
      <trkpt lat="45.04899" lon="0.42085">
        <ele>125.3</ele>
        <time>2022-10-29T18:15:42Z</time>
      </trkpt>
      <trkpt lat="45.04904" lon="0.42092">
        <ele>124.4</ele>
        <time>2022-10-29T18:15:44Z</time>
      </trkpt>
      <trkpt lat="45.04909" lon="0.42099">
        <ele>123.3</ele>
        <time>2022-10-29T18:15:46Z</time>
      </trkpt>
      <trkpt lat="45.04914" lon="0.42103">
        <ele>122.7</ele>
        <time>2022-10-29T18:15:48Z</time>
      </trkpt>
      <trkpt lat="45.04921" lon="0.42108">
        <ele>121.6</ele>
        <time>2022-10-29T18:15:50Z</time>
      </trkpt>
      <trkpt lat="45.04931" lon="0.42115">
        <ele>120.4</ele>
        <time>2022-10-29T18:15:52Z</time>
      </trkpt>
      <trkpt lat="45.04936" lon="0.42119">
        <ele>119.8</ele>
        <time>2022-10-29T18:15:53Z</time>
      </trkpt>
      <trkpt lat="45.04941" lon="0.42122">
        <ele>119.2</ele>
        <time>2022-10-29T18:15:54Z</time>
      </trkpt>
      <trkpt lat="45.04947" lon="0.42127">
        <ele>118.3</ele>
        <time>2022-10-29T18:15:56Z</time>
      </trkpt>
      <trkpt lat="45.0495" lon="0.42129">
        <ele>117.8</ele>
        <time>2022-10-29T18:15:57Z</time>
      </trkpt>
      <trkpt lat="45.0495" lon="0.42129">
        <ele>117.8</ele>
        <time>2022-10-29T18:15:58Z</time>
      </trkpt>
      <trkpt lat="45.0495" lon="0.42129">
        <ele>117.8</ele>
        <time>2022-10-29T18:15:59Z</time>
      </trkpt>
      <trkpt lat="45.04958" lon="0.42135">
        <ele>116.1</ele>
        <time>2022-10-29T18:16:04Z</time>
      </trkpt>
      <trkpt lat="45.0496" lon="0.42136">
        <ele>115.7</ele>
        <time>2022-10-29T18:16:05Z</time>
      </trkpt>
      <trkpt lat="45.04962" lon="0.42137">
        <ele>115.2</ele>
        <time>2022-10-29T18:16:06Z</time>
      </trkpt>
      <trkpt lat="45.04966" lon="0.42138">
        <ele>114.4</ele>
        <time>2022-10-29T18:16:08Z</time>
      </trkpt>
      <trkpt lat="45.04968" lon="0.42139">
        <ele>114</ele>
        <time>2022-10-29T18:16:09Z</time>
      </trkpt>
      <trkpt lat="45.04971" lon="0.4214">
        <ele>113.5</ele>
        <time>2022-10-29T18:16:10Z</time>
      </trkpt>
      <trkpt lat="45.04973" lon="0.4214">
        <ele>113.1</ele>
        <time>2022-10-29T18:16:11Z</time>
      </trkpt>
      <trkpt lat="45.04974" lon="0.42141">
        <ele>112.9</ele>
        <time>2022-10-29T18:16:12Z</time>
      </trkpt>
      <trkpt lat="45.04981" lon="0.42145">
        <ele>111.7</ele>
        <time>2022-10-29T18:16:14Z</time>
      </trkpt>
      <trkpt lat="45.04985" lon="0.42148">
        <ele>111</ele>
        <time>2022-10-29T18:16:15Z</time>
      </trkpt>
      <trkpt lat="45.04988" lon="0.42152">
        <ele>110.6</ele>
        <time>2022-10-29T18:16:16Z</time>
      </trkpt>
      <trkpt lat="45.04992" lon="0.42163">
        <ele>109.6</ele>
        <time>2022-10-29T18:16:18Z</time>
      </trkpt>
      <trkpt lat="45.04994" lon="0.42166">
        <ele>109.3</ele>
        <time>2022-10-29T18:16:19Z</time>
      </trkpt>
      <trkpt lat="45.04995" lon="0.4217">
        <ele>109.1</ele>
        <time>2022-10-29T18:16:20Z</time>
      </trkpt>
      <trkpt lat="45.04998" lon="0.42177">
        <ele>108.6</ele>
        <time>2022-10-29T18:16:22Z</time>
      </trkpt>
      <trkpt lat="45.05" lon="0.42182">
        <ele>108.5</ele>
        <time>2022-10-29T18:16:23Z</time>
      </trkpt>
      <trkpt lat="45.05004" lon="0.42182">
        <ele>108.4</ele>
        <time>2022-10-29T18:16:24Z</time>
      </trkpt>
      <trkpt lat="45.05014" lon="0.42184">
        <ele>108.2</ele>
        <time>2022-10-29T18:16:26Z</time>
      </trkpt>
      <trkpt lat="45.05019" lon="0.42184">
        <ele>108.1</ele>
        <time>2022-10-29T18:16:27Z</time>
      </trkpt>
      <trkpt lat="45.05024" lon="0.42185">
        <ele>108</ele>
        <time>2022-10-29T18:16:28Z</time>
      </trkpt>
      <trkpt lat="45.05035" lon="0.42187">
        <ele>107.7</ele>
        <time>2022-10-29T18:16:30Z</time>
      </trkpt>
      <trkpt lat="45.05039" lon="0.42187">
        <ele>107.6</ele>
        <time>2022-10-29T18:16:31Z</time>
      </trkpt>
      <trkpt lat="45.05044" lon="0.42189">
        <ele>107.4</ele>
        <time>2022-10-29T18:16:32Z</time>
      </trkpt>
      <trkpt lat="45.05049" lon="0.4219">
        <ele>107.3</ele>
        <time>2022-10-29T18:16:33Z</time>
      </trkpt>
      <trkpt lat="45.05054" lon="0.42192">
        <ele>107.2</ele>
        <time>2022-10-29T18:16:34Z</time>
      </trkpt>
      <trkpt lat="45.05064" lon="0.42196">
        <ele>106.9</ele>
        <time>2022-10-29T18:16:36Z</time>
      </trkpt>
      <trkpt lat="45.05068" lon="0.42197">
        <ele>106.8</ele>
        <time>2022-10-29T18:16:37Z</time>
      </trkpt>
      <trkpt lat="45.05072" lon="0.42199">
        <ele>106.7</ele>
        <time>2022-10-29T18:16:38Z</time>
      </trkpt>
      <trkpt lat="45.05081" lon="0.42202">
        <ele>106.5</ele>
        <time>2022-10-29T18:16:40Z</time>
      </trkpt>
      <trkpt lat="45.0509" lon="0.4221">
        <ele>106.2</ele>
        <time>2022-10-29T18:16:42Z</time>
      </trkpt>
      <trkpt lat="45.05097" lon="0.42217">
        <ele>105.9</ele>
        <time>2022-10-29T18:16:44Z</time>
      </trkpt>
      <trkpt lat="45.05106" lon="0.42224">
        <ele>105.6</ele>
        <time>2022-10-29T18:16:46Z</time>
      </trkpt>
      <trkpt lat="45.05115" lon="0.42234">
        <ele>105.1</ele>
        <time>2022-10-29T18:16:48Z</time>
      </trkpt>
      <trkpt lat="45.05119" lon="0.42239">
        <ele>104.7</ele>
        <time>2022-10-29T18:16:49Z</time>
      </trkpt>
      <trkpt lat="45.05123" lon="0.42246">
        <ele>104.4</ele>
        <time>2022-10-29T18:16:50Z</time>
      </trkpt>
      <trkpt lat="45.05131" lon="0.42258">
        <ele>103.6</ele>
        <time>2022-10-29T18:16:52Z</time>
      </trkpt>
      <trkpt lat="45.05135" lon="0.42263">
        <ele>103.3</ele>
        <time>2022-10-29T18:16:53Z</time>
      </trkpt>
      <trkpt lat="45.05138" lon="0.4227">
        <ele>102.9</ele>
        <time>2022-10-29T18:16:54Z</time>
      </trkpt>
      <trkpt lat="45.05144" lon="0.42284">
        <ele>102.3</ele>
        <time>2022-10-29T18:16:56Z</time>
      </trkpt>
      <trkpt lat="45.05147" lon="0.42291">
        <ele>102</ele>
        <time>2022-10-29T18:16:57Z</time>
      </trkpt>
      <trkpt lat="45.0515" lon="0.42299">
        <ele>101.7</ele>
        <time>2022-10-29T18:16:58Z</time>
      </trkpt>
      <trkpt lat="45.05153" lon="0.42306">
        <ele>101.5</ele>
        <time>2022-10-29T18:16:59Z</time>
      </trkpt>
      <trkpt lat="45.05156" lon="0.42313">
        <ele>101.3</ele>
        <time>2022-10-29T18:17:00Z</time>
      </trkpt>
      <trkpt lat="45.05163" lon="0.42329">
        <ele>100.8</ele>
        <time>2022-10-29T18:17:02Z</time>
      </trkpt>
      <trkpt lat="45.0517" lon="0.42343">
        <ele>100.5</ele>
        <time>2022-10-29T18:17:04Z</time>
      </trkpt>
      <trkpt lat="45.05173" lon="0.4235">
        <ele>100.4</ele>
        <time>2022-10-29T18:17:05Z</time>
      </trkpt>
      <trkpt lat="45.05177" lon="0.42357">
        <ele>100.4</ele>
        <time>2022-10-29T18:17:06Z</time>
      </trkpt>
      <trkpt lat="45.05179" lon="0.42363">
        <ele>100.4</ele>
        <time>2022-10-29T18:17:07Z</time>
      </trkpt>
      <trkpt lat="45.05181" lon="0.4237">
        <ele>100.5</ele>
        <time>2022-10-29T18:17:08Z</time>
      </trkpt>
      <trkpt lat="45.05177" lon="0.42385">
        <ele>100.7</ele>
        <time>2022-10-29T18:17:10Z</time>
      </trkpt>
      <trkpt lat="45.05173" lon="0.42391">
        <ele>100.9</ele>
        <time>2022-10-29T18:17:12Z</time>
      </trkpt>
      <trkpt lat="45.0517" lon="0.42396">
        <ele>101.1</ele>
        <time>2022-10-29T18:17:13Z</time>
      </trkpt>
      <trkpt lat="45.05167" lon="0.424">
        <ele>101.3</ele>
        <time>2022-10-29T18:17:14Z</time>
      </trkpt>
      <trkpt lat="45.05161" lon="0.4241">
        <ele>101.6</ele>
        <time>2022-10-29T18:17:16Z</time>
      </trkpt>
      <trkpt lat="45.05154" lon="0.42415">
        <ele>101.8</ele>
        <time>2022-10-29T18:17:17Z</time>
      </trkpt>
      <trkpt lat="45.05153" lon="0.42417">
        <ele>101.9</ele>
        <time>2022-10-29T18:17:18Z</time>
      </trkpt>
      <trkpt lat="45.05148" lon="0.42425">
        <ele>102.5</ele>
        <time>2022-10-29T18:17:20Z</time>
      </trkpt>
      <trkpt lat="45.05143" lon="0.42434">
        <ele>103.1</ele>
        <time>2022-10-29T18:17:22Z</time>
      </trkpt>
      <trkpt lat="45.05141" lon="0.42438">
        <ele>103.4</ele>
        <time>2022-10-29T18:17:23Z</time>
      </trkpt>
      <trkpt lat="45.05138" lon="0.42441">
        <ele>103.6</ele>
        <time>2022-10-29T18:17:24Z</time>
      </trkpt>
      <trkpt lat="45.05134" lon="0.42448">
        <ele>104.1</ele>
        <time>2022-10-29T18:17:26Z</time>
      </trkpt>
      <trkpt lat="45.0513" lon="0.42454">
        <ele>104.5</ele>
        <time>2022-10-29T18:17:28Z</time>
      </trkpt>
      <trkpt lat="45.05126" lon="0.4246">
        <ele>105</ele>
        <time>2022-10-29T18:17:30Z</time>
      </trkpt>
      <trkpt lat="45.05124" lon="0.42459">
        <ele>105.2</ele>
        <time>2022-10-29T18:17:31Z</time>
      </trkpt>
      <trkpt lat="45.05123" lon="0.42458">
        <ele>105.4</ele>
        <time>2022-10-29T18:17:32Z</time>
      </trkpt>
      <trkpt lat="45.0512" lon="0.42456">
        <ele>105.8</ele>
        <time>2022-10-29T18:17:34Z</time>
      </trkpt>
      <trkpt lat="45.05116" lon="0.42453">
        <ele>106.2</ele>
        <time>2022-10-29T18:17:36Z</time>
      </trkpt>
      <trkpt lat="45.05113" lon="0.42452">
        <ele>106.7</ele>
        <time>2022-10-29T18:17:38Z</time>
      </trkpt>
      <trkpt lat="45.0511" lon="0.42451">
        <ele>107</ele>
        <time>2022-10-29T18:17:40Z</time>
      </trkpt>
      <trkpt lat="45.05108" lon="0.4245">
        <ele>107.3</ele>
        <time>2022-10-29T18:17:42Z</time>
      </trkpt>
      <trkpt lat="45.05104" lon="0.42448">
        <ele>107.9</ele>
        <time>2022-10-29T18:17:44Z</time>
      </trkpt>
      <trkpt lat="45.05101" lon="0.42447">
        <ele>108.4</ele>
        <time>2022-10-29T18:17:46Z</time>
      </trkpt>
      <trkpt lat="45.05097" lon="0.42446">
        <ele>108.9</ele>
        <time>2022-10-29T18:17:48Z</time>
      </trkpt>
      <trkpt lat="45.05093" lon="0.42445">
        <ele>109.5</ele>
        <time>2022-10-29T18:17:50Z</time>
      </trkpt>
      <trkpt lat="45.0509" lon="0.42444">
        <ele>110.1</ele>
        <time>2022-10-29T18:17:52Z</time>
      </trkpt>
      <trkpt lat="45.05088" lon="0.42444">
        <ele>110.4</ele>
        <time>2022-10-29T18:17:54Z</time>
      </trkpt>
      <trkpt lat="45.05085" lon="0.42443">
        <ele>111</ele>
        <time>2022-10-29T18:17:56Z</time>
      </trkpt>
      <trkpt lat="45.05081" lon="0.42442">
        <ele>111.7</ele>
        <time>2022-10-29T18:17:58Z</time>
      </trkpt>
      <trkpt lat="45.05078" lon="0.42441">
        <ele>112.3</ele>
        <time>2022-10-29T18:18:00Z</time>
      </trkpt>
      <trkpt lat="45.05075" lon="0.42441">
        <ele>112.9</ele>
        <time>2022-10-29T18:18:02Z</time>
      </trkpt>
      <trkpt lat="45.05073" lon="0.42441">
        <ele>113.1</ele>
        <time>2022-10-29T18:18:03Z</time>
      </trkpt>
      <trkpt lat="45.05072" lon="0.42441">
        <ele>113.4</ele>
        <time>2022-10-29T18:18:04Z</time>
      </trkpt>
      <trkpt lat="45.05069" lon="0.42441">
        <ele>113.9</ele>
        <time>2022-10-29T18:18:06Z</time>
      </trkpt>
      <trkpt lat="45.05066" lon="0.4244">
        <ele>114.6</ele>
        <time>2022-10-29T18:18:08Z</time>
      </trkpt>
      <trkpt lat="45.05064" lon="0.4244">
        <ele>114.8</ele>
        <time>2022-10-29T18:18:10Z</time>
      </trkpt>
      <trkpt lat="45.05059" lon="0.4244">
        <ele>115.8</ele>
        <time>2022-10-29T18:18:12Z</time>
      </trkpt>
      <trkpt lat="45.05059" lon="0.4244">
        <ele>115.8</ele>
        <time>2022-10-29T18:18:13Z</time>
      </trkpt>
      <trkpt lat="45.04941" lon="0.42442">
        <ele>132.8</ele>
        <time>2022-10-29T18:19:33Z</time>
      </trkpt>
      <trkpt lat="45.04939" lon="0.42442">
        <ele>133</ele>
        <time>2022-10-29T18:19:34Z</time>
      </trkpt>
      <trkpt lat="45.04937" lon="0.42442">
        <ele>133.1</ele>
        <time>2022-10-29T18:19:35Z</time>
      </trkpt>
      <trkpt lat="45.04935" lon="0.42442">
        <ele>133.2</ele>
        <time>2022-10-29T18:19:36Z</time>
      </trkpt>
      <trkpt lat="45.0493" lon="0.42441">
        <ele>133.6</ele>
        <time>2022-10-29T18:19:38Z</time>
      </trkpt>
      <trkpt lat="45.04925" lon="0.42441">
        <ele>134</ele>
        <time>2022-10-29T18:19:40Z</time>
      </trkpt>
      <trkpt lat="45.0492" lon="0.42441">
        <ele>134.4</ele>
        <time>2022-10-29T18:19:42Z</time>
      </trkpt>
      <trkpt lat="45.04917" lon="0.42441">
        <ele>134.7</ele>
        <time>2022-10-29T18:19:44Z</time>
      </trkpt>
      <trkpt lat="45.04911" lon="0.42441">
        <ele>135.1</ele>
        <time>2022-10-29T18:19:46Z</time>
      </trkpt>
      <trkpt lat="45.0491" lon="0.42441">
        <ele>135.2</ele>
        <time>2022-10-29T18:19:48Z</time>
      </trkpt>
      <trkpt lat="45.04906" lon="0.42441">
        <ele>135.4</ele>
        <time>2022-10-29T18:19:49Z</time>
      </trkpt>
      <trkpt lat="45.04904" lon="0.42441">
        <ele>135.6</ele>
        <time>2022-10-29T18:19:50Z</time>
      </trkpt>
      <trkpt lat="45.04899" lon="0.42441">
        <ele>135.8</ele>
        <time>2022-10-29T18:19:52Z</time>
      </trkpt>
      <trkpt lat="45.04894" lon="0.42441">
        <ele>136.1</ele>
        <time>2022-10-29T18:19:54Z</time>
      </trkpt>
      <trkpt lat="45.04892" lon="0.42441">
        <ele>136.1</ele>
        <time>2022-10-29T18:19:55Z</time>
      </trkpt>
      <trkpt lat="45.04889" lon="0.42441">
        <ele>136.2</ele>
        <time>2022-10-29T18:19:56Z</time>
      </trkpt>
      <trkpt lat="45.04885" lon="0.42441">
        <ele>136.4</ele>
        <time>2022-10-29T18:19:58Z</time>
      </trkpt>
      <trkpt lat="45.04879" lon="0.42441">
        <ele>136.5</ele>
        <time>2022-10-29T18:20:00Z</time>
      </trkpt>
      <trkpt lat="45.04876" lon="0.42441">
        <ele>136.5</ele>
        <time>2022-10-29T18:20:01Z</time>
      </trkpt>
      <trkpt lat="45.04873" lon="0.42441">
        <ele>136.5</ele>
        <time>2022-10-29T18:20:02Z</time>
      </trkpt>
      <trkpt lat="45.04865" lon="0.42441">
        <ele>136.6</ele>
        <time>2022-10-29T18:20:04Z</time>
      </trkpt>
      <trkpt lat="45.04857" lon="0.42441">
        <ele>136.7</ele>
        <time>2022-10-29T18:20:06Z</time>
      </trkpt>
      <trkpt lat="45.0485" lon="0.42441">
        <ele>136.8</ele>
        <time>2022-10-29T18:20:08Z</time>
      </trkpt>
      <trkpt lat="45.04846" lon="0.42442">
        <ele>136.8</ele>
        <time>2022-10-29T18:20:09Z</time>
      </trkpt>
      <trkpt lat="45.04842" lon="0.42442">
        <ele>136.9</ele>
        <time>2022-10-29T18:20:10Z</time>
      </trkpt>
      <trkpt lat="45.04835" lon="0.42443">
        <ele>137</ele>
        <time>2022-10-29T18:20:12Z</time>
      </trkpt>
      <trkpt lat="45.04828" lon="0.42444">
        <ele>137.2</ele>
        <time>2022-10-29T18:20:14Z</time>
      </trkpt>
      <trkpt lat="45.0482" lon="0.42445">
        <ele>137.3</ele>
        <time>2022-10-29T18:20:16Z</time>
      </trkpt>
      <trkpt lat="45.04812" lon="0.42445">
        <ele>137.4</ele>
        <time>2022-10-29T18:20:18Z</time>
      </trkpt>
      <trkpt lat="45.04805" lon="0.42445">
        <ele>137.5</ele>
        <time>2022-10-29T18:20:20Z</time>
      </trkpt>
      <trkpt lat="45.04799" lon="0.42444">
        <ele>137.6</ele>
        <time>2022-10-29T18:20:22Z</time>
      </trkpt>
      <trkpt lat="45.0479" lon="0.42443">
        <ele>137.7</ele>
        <time>2022-10-29T18:20:24Z</time>
      </trkpt>
      <trkpt lat="45.04787" lon="0.42443">
        <ele>137.8</ele>
        <time>2022-10-29T18:20:25Z</time>
      </trkpt>
      <trkpt lat="45.04783" lon="0.42443">
        <ele>137.8</ele>
        <time>2022-10-29T18:20:26Z</time>
      </trkpt>
      <trkpt lat="45.04775" lon="0.42442">
        <ele>137.9</ele>
        <time>2022-10-29T18:20:28Z</time>
      </trkpt>
      <trkpt lat="45.04771" lon="0.42442">
        <ele>137.9</ele>
        <time>2022-10-29T18:20:29Z</time>
      </trkpt>
      <trkpt lat="45.04767" lon="0.42442">
        <ele>138</ele>
        <time>2022-10-29T18:20:30Z</time>
      </trkpt>
      <trkpt lat="45.04761" lon="0.42432">
        <ele>138.1</ele>
        <time>2022-10-29T18:20:32Z</time>
      </trkpt>
      <trkpt lat="45.04761" lon="0.42422">
        <ele>138</ele>
        <time>2022-10-29T18:20:34Z</time>
      </trkpt>
      <trkpt lat="45.04761" lon="0.42412">
        <ele>137.8</ele>
        <time>2022-10-29T18:20:36Z</time>
      </trkpt>
      <trkpt lat="45.04763" lon="0.42402">
        <ele>137.7</ele>
        <time>2022-10-29T18:20:38Z</time>
      </trkpt>
      <trkpt lat="45.04766" lon="0.42393">
        <ele>137.2</ele>
        <time>2022-10-29T18:20:40Z</time>
      </trkpt>
      <trkpt lat="45.0477" lon="0.42382">
        <ele>136.5</ele>
        <time>2022-10-29T18:20:42Z</time>
      </trkpt>
      <trkpt lat="45.04773" lon="0.42376">
        <ele>136.3</ele>
        <time>2022-10-29T18:20:43Z</time>
      </trkpt>
      <trkpt lat="45.04775" lon="0.42369">
        <ele>136.2</ele>
        <time>2022-10-29T18:20:44Z</time>
      </trkpt>
      <trkpt lat="45.04781" lon="0.42356">
        <ele>135.4</ele>
        <time>2022-10-29T18:20:46Z</time>
      </trkpt>
      <trkpt lat="45.04787" lon="0.42338">
        <ele>134.5</ele>
        <time>2022-10-29T18:20:48Z</time>
      </trkpt>
      <trkpt lat="45.04791" lon="0.42318">
        <ele>133.3</ele>
        <time>2022-10-29T18:20:50Z</time>
      </trkpt>
      <trkpt lat="45.04791" lon="0.42296">
        <ele>130.9</ele>
        <time>2022-10-29T18:20:52Z</time>
      </trkpt>
      <trkpt lat="45.04792" lon="0.42275">
        <ele>129.6</ele>
        <time>2022-10-29T18:20:54Z</time>
      </trkpt>
      <trkpt lat="45.04793" lon="0.42266">
        <ele>129.5</ele>
        <time>2022-10-29T18:20:55Z</time>
      </trkpt>
      <trkpt lat="45.04793" lon="0.42255">
        <ele>128.2</ele>
        <time>2022-10-29T18:20:56Z</time>
      </trkpt>
      <trkpt lat="45.04795" lon="0.42236">
        <ele>126.5</ele>
        <time>2022-10-29T18:20:58Z</time>
      </trkpt>
      <trkpt lat="45.04796" lon="0.42226">
        <ele>125.2</ele>
        <time>2022-10-29T18:20:59Z</time>
      </trkpt>
      <trkpt lat="45.04797" lon="0.42215">
        <ele>125.1</ele>
        <time>2022-10-29T18:21:00Z</time>
      </trkpt>
      <trkpt lat="45.04804" lon="0.42237">
        <ele>126.1</ele>
        <time>2022-10-29T18:21:01Z</time>
      </trkpt>
      <trkpt lat="45.04804" lon="0.42222">
        <ele>124.8</ele>
        <time>2022-10-29T18:21:02Z</time>
      </trkpt>
      <trkpt lat="45.04803" lon="0.42192">
        <ele>122.7</ele>
        <time>2022-10-29T18:21:03Z</time>
      </trkpt>
      <trkpt lat="45.04802" lon="0.42187">
        <ele>122.6</ele>
        <time>2022-10-29T18:21:04Z</time>
      </trkpt>
      <trkpt lat="45.04795" lon="0.42179">
        <ele>122.5</ele>
        <time>2022-10-29T18:21:06Z</time>
      </trkpt>
      <trkpt lat="45.04791" lon="0.42177">
        <ele>122.8</ele>
        <time>2022-10-29T18:21:07Z</time>
      </trkpt>
      <trkpt lat="45.04787" lon="0.42176">
        <ele>123.1</ele>
        <time>2022-10-29T18:21:08Z</time>
      </trkpt>
      <trkpt lat="45.04783" lon="0.42178">
        <ele>123.4</ele>
        <time>2022-10-29T18:21:09Z</time>
      </trkpt>
      <trkpt lat="45.04781" lon="0.42181">
        <ele>123.6</ele>
        <time>2022-10-29T18:21:10Z</time>
      </trkpt>
      <trkpt lat="45.04779" lon="0.42182">
        <ele>123.8</ele>
        <time>2022-10-29T18:21:12Z</time>
      </trkpt>
      <trkpt lat="45.04777" lon="0.42186">
        <ele>124.1</ele>
        <time>2022-10-29T18:21:13Z</time>
      </trkpt>
      <trkpt lat="45.04775" lon="0.42188">
        <ele>124.3</ele>
        <time>2022-10-29T18:21:14Z</time>
      </trkpt>
      <trkpt lat="45.04769" lon="0.42195">
        <ele>124.7</ele>
        <time>2022-10-29T18:21:16Z</time>
      </trkpt>
      <trkpt lat="45.04766" lon="0.42198">
        <ele>124.9</ele>
        <time>2022-10-29T18:21:17Z</time>
      </trkpt>
      <trkpt lat="45.04763" lon="0.42201">
        <ele>125.1</ele>
        <time>2022-10-29T18:21:18Z</time>
      </trkpt>
      <trkpt lat="45.04757" lon="0.42207">
        <ele>125.4</ele>
        <time>2022-10-29T18:21:20Z</time>
      </trkpt>
      <trkpt lat="45.04754" lon="0.42215">
        <ele>125.8</ele>
        <time>2022-10-29T18:21:22Z</time>
      </trkpt>
      <trkpt lat="45.04751" lon="0.42223">
        <ele>126.2</ele>
        <time>2022-10-29T18:21:24Z</time>
      </trkpt>
      <trkpt lat="45.04748" lon="0.42231">
        <ele>126.5</ele>
        <time>2022-10-29T18:21:26Z</time>
      </trkpt>
      <trkpt lat="45.04747" lon="0.42234">
        <ele>126.7</ele>
        <time>2022-10-29T18:21:27Z</time>
      </trkpt>
      <trkpt lat="45.04745" lon="0.42238">
        <ele>126.9</ele>
        <time>2022-10-29T18:21:28Z</time>
      </trkpt>
      <trkpt lat="45.04742" lon="0.42245">
        <ele>127.2</ele>
        <time>2022-10-29T18:21:30Z</time>
      </trkpt>
      <trkpt lat="45.04738" lon="0.42251">
        <ele>127.5</ele>
        <time>2022-10-29T18:21:31Z</time>
      </trkpt>
      <trkpt lat="45.04734" lon="0.42252">
        <ele>127.6</ele>
        <time>2022-10-29T18:21:32Z</time>
      </trkpt>
      <trkpt lat="45.04728" lon="0.42254">
        <ele>127.8</ele>
        <time>2022-10-29T18:21:34Z</time>
      </trkpt>
      <trkpt lat="45.04722" lon="0.42255">
        <ele>127.9</ele>
        <time>2022-10-29T18:21:36Z</time>
      </trkpt>
      <trkpt lat="45.04715" lon="0.42257">
        <ele>128.1</ele>
        <time>2022-10-29T18:21:38Z</time>
      </trkpt>
      <trkpt lat="45.04708" lon="0.42256">
        <ele>128.2</ele>
        <time>2022-10-29T18:21:40Z</time>
      </trkpt>
      <trkpt lat="45.04705" lon="0.42255">
        <ele>128.2</ele>
        <time>2022-10-29T18:21:41Z</time>
      </trkpt>
      <trkpt lat="45.04702" lon="0.42255">
        <ele>128.3</ele>
        <time>2022-10-29T18:21:42Z</time>
      </trkpt>
      <trkpt lat="45.04695" lon="0.42256">
        <ele>128.5</ele>
        <time>2022-10-29T18:21:44Z</time>
      </trkpt>
      <trkpt lat="45.04689" lon="0.42259">
        <ele>128.7</ele>
        <time>2022-10-29T18:21:46Z</time>
      </trkpt>
      <trkpt lat="45.0468" lon="0.42263">
        <ele>129.2</ele>
        <time>2022-10-29T18:21:48Z</time>
      </trkpt>
      <trkpt lat="45.04673" lon="0.42267">
        <ele>129.7</ele>
        <time>2022-10-29T18:21:50Z</time>
      </trkpt>
      <trkpt lat="45.0467" lon="0.42268">
        <ele>129.9</ele>
        <time>2022-10-29T18:21:51Z</time>
      </trkpt>
      <trkpt lat="45.04668" lon="0.4227">
        <ele>130.1</ele>
        <time>2022-10-29T18:21:52Z</time>
      </trkpt>
      <trkpt lat="45.04658" lon="0.42277">
        <ele>130.7</ele>
        <time>2022-10-29T18:21:54Z</time>
      </trkpt>
      <trkpt lat="45.04655" lon="0.42279">
        <ele>130.9</ele>
        <time>2022-10-29T18:21:55Z</time>
      </trkpt>
      <trkpt lat="45.04652" lon="0.42281">
        <ele>131</ele>
        <time>2022-10-29T18:21:56Z</time>
      </trkpt>
      <trkpt lat="45.04647" lon="0.42284">
        <ele>131.3</ele>
        <time>2022-10-29T18:21:58Z</time>
      </trkpt>
      <trkpt lat="45.04643" lon="0.42287">
        <ele>131.4</ele>
        <time>2022-10-29T18:22:00Z</time>
      </trkpt>
      <trkpt lat="45.04638" lon="0.42291">
        <ele>131.7</ele>
        <time>2022-10-29T18:22:02Z</time>
      </trkpt>
      <trkpt lat="45.04632" lon="0.42296">
        <ele>131.9</ele>
        <time>2022-10-29T18:22:04Z</time>
      </trkpt>
      <trkpt lat="45.04629" lon="0.42299">
        <ele>132.1</ele>
        <time>2022-10-29T18:22:05Z</time>
      </trkpt>
      <trkpt lat="45.04627" lon="0.42301">
        <ele>132.2</ele>
        <time>2022-10-29T18:22:06Z</time>
      </trkpt>
      <trkpt lat="45.04622" lon="0.42306">
        <ele>132.5</ele>
        <time>2022-10-29T18:22:08Z</time>
      </trkpt>
      <trkpt lat="45.04616" lon="0.42312">
        <ele>132.9</ele>
        <time>2022-10-29T18:22:10Z</time>
      </trkpt>
      <trkpt lat="45.0461" lon="0.42318">
        <ele>133.3</ele>
        <time>2022-10-29T18:22:12Z</time>
      </trkpt>
      <trkpt lat="45.04607" lon="0.42323">
        <ele>133.6</ele>
        <time>2022-10-29T18:22:14Z</time>
      </trkpt>
      <trkpt lat="45.04602" lon="0.4233">
        <ele>134</ele>
        <time>2022-10-29T18:22:16Z</time>
      </trkpt>
      <trkpt lat="45.046" lon="0.42334">
        <ele>134.2</ele>
        <time>2022-10-29T18:22:17Z</time>
      </trkpt>
      <trkpt lat="45.04597" lon="0.42337">
        <ele>134.4</ele>
        <time>2022-10-29T18:22:18Z</time>
      </trkpt>
      <trkpt lat="45.04593" lon="0.42343">
        <ele>134.7</ele>
        <time>2022-10-29T18:22:20Z</time>
      </trkpt>
      <trkpt lat="45.04589" lon="0.42349">
        <ele>135</ele>
        <time>2022-10-29T18:22:22Z</time>
      </trkpt>
      <trkpt lat="45.04586" lon="0.42355">
        <ele>135.3</ele>
        <time>2022-10-29T18:22:24Z</time>
      </trkpt>
      <trkpt lat="45.04582" lon="0.42362">
        <ele>135.6</ele>
        <time>2022-10-29T18:22:26Z</time>
      </trkpt>
      <trkpt lat="45.04578" lon="0.42369">
        <ele>135.9</ele>
        <time>2022-10-29T18:22:28Z</time>
      </trkpt>
      <trkpt lat="45.04571" lon="0.42375">
        <ele>136.2</ele>
        <time>2022-10-29T18:22:30Z</time>
      </trkpt>
      <trkpt lat="45.04567" lon="0.42377">
        <ele>136.4</ele>
        <time>2022-10-29T18:22:32Z</time>
      </trkpt>
      <trkpt lat="45.04559" lon="0.42378">
        <ele>136.8</ele>
        <time>2022-10-29T18:22:34Z</time>
      </trkpt>
      <trkpt lat="45.04551" lon="0.42382">
        <ele>137.1</ele>
        <time>2022-10-29T18:22:36Z</time>
      </trkpt>
      <trkpt lat="45.04545" lon="0.42386">
        <ele>137.4</ele>
        <time>2022-10-29T18:22:38Z</time>
      </trkpt>
      <trkpt lat="45.04542" lon="0.42388">
        <ele>137.5</ele>
        <time>2022-10-29T18:22:39Z</time>
      </trkpt>
      <trkpt lat="45.0454" lon="0.4239">
        <ele>137.6</ele>
        <time>2022-10-29T18:22:40Z</time>
      </trkpt>
      <trkpt lat="45.04535" lon="0.42393">
        <ele>137.8</ele>
        <time>2022-10-29T18:22:42Z</time>
      </trkpt>
      <trkpt lat="45.04531" lon="0.42397">
        <ele>138</ele>
        <time>2022-10-29T18:22:44Z</time>
      </trkpt>
      <trkpt lat="45.04527" lon="0.42402">
        <ele>138.3</ele>
        <time>2022-10-29T18:22:46Z</time>
      </trkpt>
      <trkpt lat="45.04523" lon="0.42407">
        <ele>138.6</ele>
        <time>2022-10-29T18:22:48Z</time>
      </trkpt>
      <trkpt lat="45.04521" lon="0.42413">
        <ele>138.8</ele>
        <time>2022-10-29T18:22:50Z</time>
      </trkpt>
      <trkpt lat="45.0452" lon="0.42416">
        <ele>139</ele>
        <time>2022-10-29T18:22:51Z</time>
      </trkpt>
      <trkpt lat="45.0452" lon="0.42419">
        <ele>139.1</ele>
        <time>2022-10-29T18:22:52Z</time>
      </trkpt>
      <trkpt lat="45.04519" lon="0.42426">
        <ele>139.3</ele>
        <time>2022-10-29T18:22:54Z</time>
      </trkpt>
      <trkpt lat="45.04518" lon="0.42433">
        <ele>139.5</ele>
        <time>2022-10-29T18:22:56Z</time>
      </trkpt>
      <trkpt lat="45.04517" lon="0.42436">
        <ele>139.7</ele>
        <time>2022-10-29T18:22:57Z</time>
      </trkpt>
      <trkpt lat="45.04518" lon="0.4244">
        <ele>139.8</ele>
        <time>2022-10-29T18:22:58Z</time>
      </trkpt>
      <trkpt lat="45.0452" lon="0.42446">
        <ele>140.1</ele>
        <time>2022-10-29T18:23:00Z</time>
      </trkpt>
      <trkpt lat="45.04522" lon="0.42452">
        <ele>140.4</ele>
        <time>2022-10-29T18:23:02Z</time>
      </trkpt>
      <trkpt lat="45.04524" lon="0.42458">
        <ele>140.8</ele>
        <time>2022-10-29T18:23:04Z</time>
      </trkpt>
      <trkpt lat="45.04525" lon="0.42464">
        <ele>141.1</ele>
        <time>2022-10-29T18:23:06Z</time>
      </trkpt>
      <trkpt lat="45.04528" lon="0.4247">
        <ele>141.5</ele>
        <time>2022-10-29T18:23:08Z</time>
      </trkpt>
      <trkpt lat="45.0453" lon="0.42477">
        <ele>141.9</ele>
        <time>2022-10-29T18:23:10Z</time>
      </trkpt>
      <trkpt lat="45.04532" lon="0.42485">
        <ele>142.2</ele>
        <time>2022-10-29T18:23:12Z</time>
      </trkpt>
      <trkpt lat="45.04534" lon="0.42489">
        <ele>142.4</ele>
        <time>2022-10-29T18:23:13Z</time>
      </trkpt>
      <trkpt lat="45.04535" lon="0.42492">
        <ele>142.5</ele>
        <time>2022-10-29T18:23:14Z</time>
      </trkpt>
      <trkpt lat="45.04534" lon="0.42502">
        <ele>142.8</ele>
        <time>2022-10-29T18:23:16Z</time>
      </trkpt>
      <trkpt lat="45.04531" lon="0.42507">
        <ele>142.9</ele>
        <time>2022-10-29T18:23:18Z</time>
      </trkpt>
      <trkpt lat="45.04529" lon="0.4251">
        <ele>142.9</ele>
        <time>2022-10-29T18:23:19Z</time>
      </trkpt>
      <trkpt lat="45.04528" lon="0.42513">
        <ele>142.9</ele>
        <time>2022-10-29T18:23:20Z</time>
      </trkpt>
      <trkpt lat="45.04525" lon="0.42517">
        <ele>142.9</ele>
        <time>2022-10-29T18:23:22Z</time>
      </trkpt>
      <trkpt lat="45.04522" lon="0.4252">
        <ele>143</ele>
        <time>2022-10-29T18:23:23Z</time>
      </trkpt>
      <trkpt lat="45.04519" lon="0.42523">
        <ele>143</ele>
        <time>2022-10-29T18:23:24Z</time>
      </trkpt>
      <trkpt lat="45.0452" lon="0.42538">
        <ele>142.7</ele>
        <time>2022-10-29T18:23:26Z</time>
      </trkpt>
      <trkpt lat="45.04523" lon="0.42548">
        <ele>142.3</ele>
        <time>2022-10-29T18:23:28Z</time>
      </trkpt>
      <trkpt lat="45.04526" lon="0.42552">
        <ele>142</ele>
        <time>2022-10-29T18:23:29Z</time>
      </trkpt>
      <trkpt lat="45.04527" lon="0.42558">
        <ele>141.5</ele>
        <time>2022-10-29T18:23:30Z</time>
      </trkpt>
      <trkpt lat="45.04529" lon="0.42567">
        <ele>141.1</ele>
        <time>2022-10-29T18:23:32Z</time>
      </trkpt>
      <trkpt lat="45.04531" lon="0.42576">
        <ele>141</ele>
        <time>2022-10-29T18:23:34Z</time>
      </trkpt>
      <trkpt lat="45.04528" lon="0.42577">
        <ele>141</ele>
        <time>2022-10-29T18:23:35Z</time>
      </trkpt>
      <trkpt lat="45.04528" lon="0.42578">
        <ele>141</ele>
        <time>2022-10-29T18:23:36Z</time>
      </trkpt>
      <trkpt lat="45.04523" lon="0.4258">
        <ele>140.8</ele>
        <time>2022-10-29T18:23:38Z</time>
      </trkpt>
      <trkpt lat="45.04521" lon="0.42581">
        <ele>140.8</ele>
        <time>2022-10-29T18:23:39Z</time>
      </trkpt>
      <trkpt lat="45.04519" lon="0.42584">
        <ele>140.7</ele>
        <time>2022-10-29T18:23:40Z</time>
      </trkpt>
      <trkpt lat="45.04514" lon="0.42593">
        <ele>140.4</ele>
        <time>2022-10-29T18:23:42Z</time>
      </trkpt>
      <trkpt lat="45.04507" lon="0.42603">
        <ele>139.9</ele>
        <time>2022-10-29T18:23:44Z</time>
      </trkpt>
      <trkpt lat="45.04505" lon="0.42607">
        <ele>139.8</ele>
        <time>2022-10-29T18:23:45Z</time>
      </trkpt>
      <trkpt lat="45.04503" lon="0.42614">
        <ele>139.6</ele>
        <time>2022-10-29T18:23:46Z</time>
      </trkpt>
      <trkpt lat="45.04499" lon="0.42627">
        <ele>139.3</ele>
        <time>2022-10-29T18:23:48Z</time>
      </trkpt>
      <trkpt lat="45.04495" lon="0.4264">
        <ele>139.2</ele>
        <time>2022-10-29T18:23:50Z</time>
      </trkpt>
      <trkpt lat="45.0449" lon="0.42654">
        <ele>139.3</ele>
        <time>2022-10-29T18:23:52Z</time>
      </trkpt>
      <trkpt lat="45.04488" lon="0.42666">
        <ele>139.5</ele>
        <time>2022-10-29T18:23:54Z</time>
      </trkpt>
      <trkpt lat="45.04485" lon="0.42677">
        <ele>139.8</ele>
        <time>2022-10-29T18:23:56Z</time>
      </trkpt>
      <trkpt lat="45.04482" lon="0.42688">
        <ele>140</ele>
        <time>2022-10-29T18:23:58Z</time>
      </trkpt>
      <trkpt lat="45.04478" lon="0.42702">
        <ele>140.2</ele>
        <time>2022-10-29T18:24:00Z</time>
      </trkpt>
      <trkpt lat="45.04474" lon="0.42716">
        <ele>140.2</ele>
        <time>2022-10-29T18:24:02Z</time>
      </trkpt>
      <trkpt lat="45.04472" lon="0.42723">
        <ele>140.2</ele>
        <time>2022-10-29T18:24:03Z</time>
      </trkpt>
      <trkpt lat="45.0447" lon="0.42729">
        <ele>140.1</ele>
        <time>2022-10-29T18:24:04Z</time>
      </trkpt>
      <trkpt lat="45.04467" lon="0.42739">
        <ele>140</ele>
        <time>2022-10-29T18:24:06Z</time>
      </trkpt>
      <trkpt lat="45.04466" lon="0.42743">
        <ele>140</ele>
        <time>2022-10-29T18:24:07Z</time>
      </trkpt>
      <trkpt lat="45.04465" lon="0.42747">
        <ele>139.9</ele>
        <time>2022-10-29T18:24:08Z</time>
      </trkpt>
      <trkpt lat="45.04464" lon="0.42751">
        <ele>139.9</ele>
        <time>2022-10-29T18:24:09Z</time>
      </trkpt>
      <trkpt lat="45.04463" lon="0.42755">
        <ele>139.8</ele>
        <time>2022-10-29T18:24:10Z</time>
      </trkpt>
      <trkpt lat="45.04461" lon="0.42761">
        <ele>139.8</ele>
        <time>2022-10-29T18:24:11Z</time>
      </trkpt>
      <trkpt lat="45.04459" lon="0.42767">
        <ele>139.8</ele>
        <time>2022-10-29T18:24:12Z</time>
      </trkpt>
      <trkpt lat="45.04457" lon="0.42773">
        <ele>139.9</ele>
        <time>2022-10-29T18:24:13Z</time>
      </trkpt>
      <trkpt lat="45.04457" lon="0.42774">
        <ele>138.9</ele>
        <time>2022-10-29T18:24:14Z</time>
      </trkpt>
      <trkpt lat="45.04459" lon="0.42779">
        <ele>136.4</ele>
        <time>2022-10-29T18:24:15Z</time>
      </trkpt>
      <trkpt lat="45.0446" lon="0.42783">
        <ele>134.7</ele>
        <time>2022-10-29T18:24:16Z</time>
      </trkpt>
      <trkpt lat="45.0446" lon="0.42779">
        <ele>134.5</ele>
        <time>2022-10-29T18:24:17Z</time>
      </trkpt>
      <trkpt lat="45.04463" lon="0.4278">
        <ele>134.3</ele>
        <time>2022-10-29T18:24:18Z</time>
      </trkpt>
      <trkpt lat="45.04471" lon="0.4278">
        <ele>133.8</ele>
        <time>2022-10-29T18:24:20Z</time>
      </trkpt>
      <trkpt lat="45.04476" lon="0.4278">
        <ele>133.4</ele>
        <time>2022-10-29T18:24:21Z</time>
      </trkpt>
      <trkpt lat="45.04483" lon="0.4278">
        <ele>133</ele>
        <time>2022-10-29T18:24:22Z</time>
      </trkpt>
      <trkpt lat="45.04489" lon="0.4278">
        <ele>132.6</ele>
        <time>2022-10-29T18:24:23Z</time>
      </trkpt>
      <trkpt lat="45.04497" lon="0.42779">
        <ele>132.1</ele>
        <time>2022-10-29T18:24:24Z</time>
      </trkpt>
      <trkpt lat="45.04507" lon="0.42769">
        <ele>131.4</ele>
        <time>2022-10-29T18:24:26Z</time>
      </trkpt>
      <trkpt lat="45.04519" lon="0.42759">
        <ele>130.5</ele>
        <time>2022-10-29T18:24:28Z</time>
      </trkpt>
      <trkpt lat="45.04525" lon="0.42753">
        <ele>129.9</ele>
        <time>2022-10-29T18:24:29Z</time>
      </trkpt>
      <trkpt lat="45.04532" lon="0.42747">
        <ele>129.3</ele>
        <time>2022-10-29T18:24:30Z</time>
      </trkpt>
      <trkpt lat="45.04538" lon="0.42742">
        <ele>128.7</ele>
        <time>2022-10-29T18:24:31Z</time>
      </trkpt>
      <trkpt lat="45.04544" lon="0.42735">
        <ele>128.1</ele>
        <time>2022-10-29T18:24:32Z</time>
      </trkpt>
      <trkpt lat="45.04549" lon="0.42728">
        <ele>127.4</ele>
        <time>2022-10-29T18:24:33Z</time>
      </trkpt>
      <trkpt lat="45.04555" lon="0.42721">
        <ele>126.9</ele>
        <time>2022-10-29T18:24:34Z</time>
      </trkpt>
      <trkpt lat="45.04561" lon="0.42715">
        <ele>126.3</ele>
        <time>2022-10-29T18:24:35Z</time>
      </trkpt>
      <trkpt lat="45.04567" lon="0.42711">
        <ele>125.9</ele>
        <time>2022-10-29T18:24:36Z</time>
      </trkpt>
      <trkpt lat="45.04573" lon="0.42706">
        <ele>125.4</ele>
        <time>2022-10-29T18:24:37Z</time>
      </trkpt>
      <trkpt lat="45.04579" lon="0.42703">
        <ele>124.9</ele>
        <time>2022-10-29T18:24:38Z</time>
      </trkpt>
      <trkpt lat="45.04593" lon="0.42697">
        <ele>123.9</ele>
        <time>2022-10-29T18:24:40Z</time>
      </trkpt>
      <trkpt lat="45.04609" lon="0.4269">
        <ele>122.8</ele>
        <time>2022-10-29T18:24:42Z</time>
      </trkpt>
      <trkpt lat="45.04624" lon="0.42681">
        <ele>121.6</ele>
        <time>2022-10-29T18:24:44Z</time>
      </trkpt>
      <trkpt lat="45.0464" lon="0.42671">
        <ele>120.5</ele>
        <time>2022-10-29T18:24:46Z</time>
      </trkpt>
      <trkpt lat="45.04649" lon="0.42668">
        <ele>120</ele>
        <time>2022-10-29T18:24:47Z</time>
      </trkpt>
      <trkpt lat="45.04657" lon="0.42667">
        <ele>119.6</ele>
        <time>2022-10-29T18:24:48Z</time>
      </trkpt>
      <trkpt lat="45.04672" lon="0.42665">
        <ele>118.9</ele>
        <time>2022-10-29T18:24:50Z</time>
      </trkpt>
      <trkpt lat="45.04687" lon="0.42659">
        <ele>118.2</ele>
        <time>2022-10-29T18:24:52Z</time>
      </trkpt>
      <trkpt lat="45.047" lon="0.42651">
        <ele>117.6</ele>
        <time>2022-10-29T18:24:54Z</time>
      </trkpt>
      <trkpt lat="45.04707" lon="0.42647">
        <ele>117.2</ele>
        <time>2022-10-29T18:24:55Z</time>
      </trkpt>
      <trkpt lat="45.04714" lon="0.42643">
        <ele>116.8</ele>
        <time>2022-10-29T18:24:56Z</time>
      </trkpt>
      <trkpt lat="45.04721" lon="0.42638">
        <ele>116.4</ele>
        <time>2022-10-29T18:24:57Z</time>
      </trkpt>
      <trkpt lat="45.04729" lon="0.42636">
        <ele>116</ele>
        <time>2022-10-29T18:24:58Z</time>
      </trkpt>
      <trkpt lat="45.04747" lon="0.42635">
        <ele>114.8</ele>
        <time>2022-10-29T18:25:00Z</time>
      </trkpt>
      <trkpt lat="45.04765" lon="0.42633">
        <ele>114</ele>
        <time>2022-10-29T18:25:02Z</time>
      </trkpt>
      <trkpt lat="45.04782" lon="0.42632">
        <ele>113.4</ele>
        <time>2022-10-29T18:25:04Z</time>
      </trkpt>
      <trkpt lat="45.04797" lon="0.42631">
        <ele>112.8</ele>
        <time>2022-10-29T18:25:06Z</time>
      </trkpt>
      <trkpt lat="45.04805" lon="0.4263">
        <ele>112.4</ele>
        <time>2022-10-29T18:25:07Z</time>
      </trkpt>
      <trkpt lat="45.04813" lon="0.4263">
        <ele>112.1</ele>
        <time>2022-10-29T18:25:08Z</time>
      </trkpt>
      <trkpt lat="45.04829" lon="0.42629">
        <ele>111.6</ele>
        <time>2022-10-29T18:25:10Z</time>
      </trkpt>
      <trkpt lat="45.04844" lon="0.42628">
        <ele>111.1</ele>
        <time>2022-10-29T18:25:12Z</time>
      </trkpt>
      <trkpt lat="45.04861" lon="0.42626">
        <ele>110.6</ele>
        <time>2022-10-29T18:25:14Z</time>
      </trkpt>
      <trkpt lat="45.04878" lon="0.42626">
        <ele>110</ele>
        <time>2022-10-29T18:25:16Z</time>
      </trkpt>
      <trkpt lat="45.04894" lon="0.42627">
        <ele>109.4</ele>
        <time>2022-10-29T18:25:18Z</time>
      </trkpt>
      <trkpt lat="45.04909" lon="0.42628">
        <ele>108.6</ele>
        <time>2022-10-29T18:25:20Z</time>
      </trkpt>
      <trkpt lat="45.04925" lon="0.42628">
        <ele>107.9</ele>
        <time>2022-10-29T18:25:22Z</time>
      </trkpt>
      <trkpt lat="45.04933" lon="0.42629">
        <ele>107.5</ele>
        <time>2022-10-29T18:25:23Z</time>
      </trkpt>
      <trkpt lat="45.0494" lon="0.42629">
        <ele>107.3</ele>
        <time>2022-10-29T18:25:24Z</time>
      </trkpt>
      <trkpt lat="45.04954" lon="0.4263">
        <ele>106.8</ele>
        <time>2022-10-29T18:25:26Z</time>
      </trkpt>
      <trkpt lat="45.04961" lon="0.42631">
        <ele>106.6</ele>
        <time>2022-10-29T18:25:27Z</time>
      </trkpt>
      <trkpt lat="45.04966" lon="0.42633">
        <ele>106.3</ele>
        <time>2022-10-29T18:25:28Z</time>
      </trkpt>
      <trkpt lat="45.04971" lon="0.42635">
        <ele>106</ele>
        <time>2022-10-29T18:25:29Z</time>
      </trkpt>
      <trkpt lat="45.04975" lon="0.42636">
        <ele>105.7</ele>
        <time>2022-10-29T18:25:30Z</time>
      </trkpt>
      <trkpt lat="45.0498" lon="0.42643">
        <ele>105</ele>
        <time>2022-10-29T18:25:31Z</time>
      </trkpt>
      <trkpt lat="45.04981" lon="0.42649">
        <ele>104.5</ele>
        <time>2022-10-29T18:25:32Z</time>
      </trkpt>
      <trkpt lat="45.04987" lon="0.42672">
        <ele>102.7</ele>
        <time>2022-10-29T18:25:34Z</time>
      </trkpt>
      <trkpt lat="45.04987" lon="0.42681">
        <ele>102.2</ele>
        <time>2022-10-29T18:25:35Z</time>
      </trkpt>
      <trkpt lat="45.04987" lon="0.4269">
        <ele>101.7</ele>
        <time>2022-10-29T18:25:36Z</time>
      </trkpt>
      <trkpt lat="45.04988" lon="0.42709">
        <ele>100.8</ele>
        <time>2022-10-29T18:25:38Z</time>
      </trkpt>
      <trkpt lat="45.04989" lon="0.42728">
        <ele>100.3</ele>
        <time>2022-10-29T18:25:40Z</time>
      </trkpt>
      <trkpt lat="45.0499" lon="0.42746">
        <ele>100</ele>
        <time>2022-10-29T18:25:42Z</time>
      </trkpt>
      <trkpt lat="45.04992" lon="0.42761">
        <ele>100</ele>
        <time>2022-10-29T18:25:44Z</time>
      </trkpt>
      <trkpt lat="45.04995" lon="0.42775">
        <ele>100.3</ele>
        <time>2022-10-29T18:25:46Z</time>
      </trkpt>
      <trkpt lat="45.04997" lon="0.42787">
        <ele>100.9</ele>
        <time>2022-10-29T18:25:48Z</time>
      </trkpt>
      <trkpt lat="45.04999" lon="0.42798">
        <ele>101.6</ele>
        <time>2022-10-29T18:25:50Z</time>
      </trkpt>
      <trkpt lat="45.05001" lon="0.42805">
        <ele>102</ele>
        <time>2022-10-29T18:25:51Z</time>
      </trkpt>
      <trkpt lat="45.05002" lon="0.42811">
        <ele>102.4</ele>
        <time>2022-10-29T18:25:52Z</time>
      </trkpt>
      <trkpt lat="45.05004" lon="0.42817">
        <ele>102.6</ele>
        <time>2022-10-29T18:25:53Z</time>
      </trkpt>
      <trkpt lat="45.05009" lon="0.42823">
        <ele>102.9</ele>
        <time>2022-10-29T18:25:54Z</time>
      </trkpt>
      <trkpt lat="45.05014" lon="0.42828">
        <ele>103.1</ele>
        <time>2022-10-29T18:25:55Z</time>
      </trkpt>
      <trkpt lat="45.05022" lon="0.4283">
        <ele>102.6</ele>
        <time>2022-10-29T18:25:56Z</time>
      </trkpt>
      <trkpt lat="45.0503" lon="0.42833">
        <ele>102.2</ele>
        <time>2022-10-29T18:25:57Z</time>
      </trkpt>
      <trkpt lat="45.05036" lon="0.42836">
        <ele>101.9</ele>
        <time>2022-10-29T18:25:58Z</time>
      </trkpt>
      <trkpt lat="45.0505" lon="0.42844">
        <ele>101.1</ele>
        <time>2022-10-29T18:26:00Z</time>
      </trkpt>
      <trkpt lat="45.05057" lon="0.42847">
        <ele>100.7</ele>
        <time>2022-10-29T18:26:01Z</time>
      </trkpt>
      <trkpt lat="45.05064" lon="0.42851">
        <ele>100.3</ele>
        <time>2022-10-29T18:26:02Z</time>
      </trkpt>
      <trkpt lat="45.05071" lon="0.42853">
        <ele>100</ele>
        <time>2022-10-29T18:26:03Z</time>
      </trkpt>
      <trkpt lat="45.05078" lon="0.42853">
        <ele>99.8</ele>
        <time>2022-10-29T18:26:04Z</time>
      </trkpt>
      <trkpt lat="45.05085" lon="0.4285">
        <ele>99.5</ele>
        <time>2022-10-29T18:26:05Z</time>
      </trkpt>
      <trkpt lat="45.05092" lon="0.42846">
        <ele>99.3</ele>
        <time>2022-10-29T18:26:06Z</time>
      </trkpt>
      <trkpt lat="45.05099" lon="0.42842">
        <ele>99.1</ele>
        <time>2022-10-29T18:26:07Z</time>
      </trkpt>
      <trkpt lat="45.05105" lon="0.42837">
        <ele>98.9</ele>
        <time>2022-10-29T18:26:08Z</time>
      </trkpt>
      <trkpt lat="45.05119" lon="0.42826">
        <ele>98.4</ele>
        <time>2022-10-29T18:26:10Z</time>
      </trkpt>
      <trkpt lat="45.05133" lon="0.42814">
        <ele>97.8</ele>
        <time>2022-10-29T18:26:12Z</time>
      </trkpt>
      <trkpt lat="45.05147" lon="0.42802">
        <ele>96.8</ele>
        <time>2022-10-29T18:26:14Z</time>
      </trkpt>
      <trkpt lat="45.05162" lon="0.4279">
        <ele>95.8</ele>
        <time>2022-10-29T18:26:16Z</time>
      </trkpt>
      <trkpt lat="45.05176" lon="0.42779">
        <ele>94.9</ele>
        <time>2022-10-29T18:26:18Z</time>
      </trkpt>
      <trkpt lat="45.0519" lon="0.42767">
        <ele>94.2</ele>
        <time>2022-10-29T18:26:20Z</time>
      </trkpt>
      <trkpt lat="45.05197" lon="0.42761">
        <ele>94</ele>
        <time>2022-10-29T18:26:21Z</time>
      </trkpt>
      <trkpt lat="45.05204" lon="0.42755">
        <ele>93.7</ele>
        <time>2022-10-29T18:26:22Z</time>
      </trkpt>
      <trkpt lat="45.05223" lon="0.42741">
        <ele>92.7</ele>
        <time>2022-10-29T18:26:24Z</time>
      </trkpt>
      <trkpt lat="45.05228" lon="0.42739">
        <ele>92.4</ele>
        <time>2022-10-29T18:26:26Z</time>
      </trkpt>
      <trkpt lat="45.05236" lon="0.42724">
        <ele>91.2</ele>
        <time>2022-10-29T18:26:28Z</time>
      </trkpt>
      <trkpt lat="45.05239" lon="0.42715">
        <ele>90.6</ele>
        <time>2022-10-29T18:26:29Z</time>
      </trkpt>
      <trkpt lat="45.05242" lon="0.42705">
        <ele>89.8</ele>
        <time>2022-10-29T18:26:30Z</time>
      </trkpt>
      <trkpt lat="45.05245" lon="0.42696">
        <ele>89.2</ele>
        <time>2022-10-29T18:26:31Z</time>
      </trkpt>
      <trkpt lat="45.05247" lon="0.4269">
        <ele>88.8</ele>
        <time>2022-10-29T18:26:32Z</time>
      </trkpt>
      <trkpt lat="45.05252" lon="0.42687">
        <ele>88.2</ele>
        <time>2022-10-29T18:26:33Z</time>
      </trkpt>
      <trkpt lat="45.05255" lon="0.42688">
        <ele>88.1</ele>
        <time>2022-10-29T18:26:34Z</time>
      </trkpt>
      <trkpt lat="45.05263" lon="0.42696">
        <ele>87.8</ele>
        <time>2022-10-29T18:26:36Z</time>
      </trkpt>
      <trkpt lat="45.05268" lon="0.42701">
        <ele>87.7</ele>
        <time>2022-10-29T18:26:37Z</time>
      </trkpt>
      <trkpt lat="45.05272" lon="0.42707">
        <ele>87.7</ele>
        <time>2022-10-29T18:26:38Z</time>
      </trkpt>
      <trkpt lat="45.05275" lon="0.42714">
        <ele>87.8</ele>
        <time>2022-10-29T18:26:39Z</time>
      </trkpt>
      <trkpt lat="45.05277" lon="0.4272">
        <ele>87.9</ele>
        <time>2022-10-29T18:26:40Z</time>
      </trkpt>
      <trkpt lat="45.05279" lon="0.42728">
        <ele>88</ele>
        <time>2022-10-29T18:26:41Z</time>
      </trkpt>
      <trkpt lat="45.05279" lon="0.42735">
        <ele>88.1</ele>
        <time>2022-10-29T18:26:42Z</time>
      </trkpt>
      <trkpt lat="45.05279" lon="0.42742">
        <ele>88.2</ele>
        <time>2022-10-29T18:26:43Z</time>
      </trkpt>
      <trkpt lat="45.05279" lon="0.42749">
        <ele>88.4</ele>
        <time>2022-10-29T18:26:44Z</time>
      </trkpt>
      <trkpt lat="45.0528" lon="0.42754">
        <ele>88.5</ele>
        <time>2022-10-29T18:26:45Z</time>
      </trkpt>
      <trkpt lat="45.05283" lon="0.42758">
        <ele>88.7</ele>
        <time>2022-10-29T18:26:46Z</time>
      </trkpt>
      <trkpt lat="45.05286" lon="0.42763">
        <ele>89</ele>
        <time>2022-10-29T18:26:47Z</time>
      </trkpt>
      <trkpt lat="45.05289" lon="0.42767">
        <ele>89.2</ele>
        <time>2022-10-29T18:26:48Z</time>
      </trkpt>
      <trkpt lat="45.05296" lon="0.42774">
        <ele>89.7</ele>
        <time>2022-10-29T18:26:50Z</time>
      </trkpt>
      <trkpt lat="45.05299" lon="0.42777">
        <ele>89.9</ele>
        <time>2022-10-29T18:26:51Z</time>
      </trkpt>
      <trkpt lat="45.05302" lon="0.4278">
        <ele>90.3</ele>
        <time>2022-10-29T18:26:52Z</time>
      </trkpt>
      <trkpt lat="45.05308" lon="0.42785">
        <ele>90.8</ele>
        <time>2022-10-29T18:26:54Z</time>
      </trkpt>
      <trkpt lat="45.05313" lon="0.4279">
        <ele>91.4</ele>
        <time>2022-10-29T18:26:56Z</time>
      </trkpt>
      <trkpt lat="45.05319" lon="0.42795">
        <ele>91.9</ele>
        <time>2022-10-29T18:26:58Z</time>
      </trkpt>
      <trkpt lat="45.05324" lon="0.428">
        <ele>92.4</ele>
        <time>2022-10-29T18:27:00Z</time>
      </trkpt>
      <trkpt lat="45.05328" lon="0.42807">
        <ele>92.7</ele>
        <time>2022-10-29T18:27:02Z</time>
      </trkpt>
      <trkpt lat="45.05332" lon="0.42814">
        <ele>93</ele>
        <time>2022-10-29T18:27:04Z</time>
      </trkpt>
      <trkpt lat="45.05334" lon="0.42823">
        <ele>93.2</ele>
        <time>2022-10-29T18:27:06Z</time>
      </trkpt>
      <trkpt lat="45.05336" lon="0.42833">
        <ele>93.4</ele>
        <time>2022-10-29T18:27:08Z</time>
      </trkpt>
      <trkpt lat="45.05337" lon="0.42844">
        <ele>93.5</ele>
        <time>2022-10-29T18:27:10Z</time>
      </trkpt>
      <trkpt lat="45.05338" lon="0.42855">
        <ele>93.6</ele>
        <time>2022-10-29T18:27:12Z</time>
      </trkpt>
      <trkpt lat="45.05339" lon="0.42866">
        <ele>93.7</ele>
        <time>2022-10-29T18:27:14Z</time>
      </trkpt>
      <trkpt lat="45.05341" lon="0.42878">
        <ele>93.7</ele>
        <time>2022-10-29T18:27:16Z</time>
      </trkpt>
      <trkpt lat="45.05342" lon="0.42889">
        <ele>93.8</ele>
        <time>2022-10-29T18:27:18Z</time>
      </trkpt>
      <trkpt lat="45.05343" lon="0.42901">
        <ele>93.8</ele>
        <time>2022-10-29T18:27:20Z</time>
      </trkpt>
      <trkpt lat="45.05345" lon="0.42913">
        <ele>93.9</ele>
        <time>2022-10-29T18:27:22Z</time>
      </trkpt>
      <trkpt lat="45.05346" lon="0.42925">
        <ele>94</ele>
        <time>2022-10-29T18:27:24Z</time>
      </trkpt>
      <trkpt lat="45.05348" lon="0.42937">
        <ele>94.2</ele>
        <time>2022-10-29T18:27:26Z</time>
      </trkpt>
      <trkpt lat="45.05348" lon="0.42943">
        <ele>94.4</ele>
        <time>2022-10-29T18:27:27Z</time>
      </trkpt>
      <trkpt lat="45.05349" lon="0.42949">
        <ele>94.6</ele>
        <time>2022-10-29T18:27:28Z</time>
      </trkpt>
      <trkpt lat="45.05351" lon="0.42961">
        <ele>95</ele>
        <time>2022-10-29T18:27:30Z</time>
      </trkpt>
      <trkpt lat="45.05354" lon="0.42971">
        <ele>95.5</ele>
        <time>2022-10-29T18:27:32Z</time>
      </trkpt>
      <trkpt lat="45.05356" lon="0.42979">
        <ele>96</ele>
        <time>2022-10-29T18:27:34Z</time>
      </trkpt>
      <trkpt lat="45.0536" lon="0.42988">
        <ele>96.5</ele>
        <time>2022-10-29T18:27:36Z</time>
      </trkpt>
      <trkpt lat="45.05362" lon="0.42991">
        <ele>96.7</ele>
        <time>2022-10-29T18:27:37Z</time>
      </trkpt>
      <trkpt lat="45.05364" lon="0.42994">
        <ele>97</ele>
        <time>2022-10-29T18:27:38Z</time>
      </trkpt>
      <trkpt lat="45.05368" lon="0.43">
        <ele>97.5</ele>
        <time>2022-10-29T18:27:40Z</time>
      </trkpt>
      <trkpt lat="45.05371" lon="0.43006">
        <ele>97.9</ele>
        <time>2022-10-29T18:27:42Z</time>
      </trkpt>
      <trkpt lat="45.05373" lon="0.43009">
        <ele>98.1</ele>
        <time>2022-10-29T18:27:43Z</time>
      </trkpt>
      <trkpt lat="45.05375" lon="0.43012">
        <ele>98.4</ele>
        <time>2022-10-29T18:27:44Z</time>
      </trkpt>
      <trkpt lat="45.05378" lon="0.43018">
        <ele>98.8</ele>
        <time>2022-10-29T18:27:46Z</time>
      </trkpt>
      <trkpt lat="45.05379" lon="0.43026">
        <ele>99.2</ele>
        <time>2022-10-29T18:27:48Z</time>
      </trkpt>
      <trkpt lat="45.05379" lon="0.43035">
        <ele>99.6</ele>
        <time>2022-10-29T18:27:50Z</time>
      </trkpt>
      <trkpt lat="45.05378" lon="0.43044">
        <ele>99.9</ele>
        <time>2022-10-29T18:27:52Z</time>
      </trkpt>
      <trkpt lat="45.05378" lon="0.43048">
        <ele>100</ele>
        <time>2022-10-29T18:27:53Z</time>
      </trkpt>
      <trkpt lat="45.05378" lon="0.43052">
        <ele>100.1</ele>
        <time>2022-10-29T18:27:54Z</time>
      </trkpt>
      <trkpt lat="45.05377" lon="0.43061">
        <ele>100.4</ele>
        <time>2022-10-29T18:27:56Z</time>
      </trkpt>
      <trkpt lat="45.05376" lon="0.4307">
        <ele>100.6</ele>
        <time>2022-10-29T18:27:58Z</time>
      </trkpt>
      <trkpt lat="45.05375" lon="0.43079">
        <ele>100.7</ele>
        <time>2022-10-29T18:28:00Z</time>
      </trkpt>
      <trkpt lat="45.05374" lon="0.43084">
        <ele>100.8</ele>
        <time>2022-10-29T18:28:01Z</time>
      </trkpt>
      <trkpt lat="45.05374" lon="0.43088">
        <ele>100.9</ele>
        <time>2022-10-29T18:28:02Z</time>
      </trkpt>
      <trkpt lat="45.05373" lon="0.43098">
        <ele>101</ele>
        <time>2022-10-29T18:28:04Z</time>
      </trkpt>
      <trkpt lat="45.05372" lon="0.43107">
        <ele>101.2</ele>
        <time>2022-10-29T18:28:06Z</time>
      </trkpt>
      <trkpt lat="45.05371" lon="0.43116">
        <ele>101.3</ele>
        <time>2022-10-29T18:28:08Z</time>
      </trkpt>
      <trkpt lat="45.05371" lon="0.4312">
        <ele>101.4</ele>
        <time>2022-10-29T18:28:09Z</time>
      </trkpt>
      <trkpt lat="45.0537" lon="0.43124">
        <ele>101.5</ele>
        <time>2022-10-29T18:28:10Z</time>
      </trkpt>
      <trkpt lat="45.05369" lon="0.43134">
        <ele>101.7</ele>
        <time>2022-10-29T18:28:12Z</time>
      </trkpt>
      <trkpt lat="45.05368" lon="0.43144">
        <ele>101.9</ele>
        <time>2022-10-29T18:28:14Z</time>
      </trkpt>
      <trkpt lat="45.05368" lon="0.43149">
        <ele>102</ele>
        <time>2022-10-29T18:28:15Z</time>
      </trkpt>
      <trkpt lat="45.05367" lon="0.43153">
        <ele>102.1</ele>
        <time>2022-10-29T18:28:16Z</time>
      </trkpt>
      <trkpt lat="45.05366" lon="0.43163">
        <ele>102.4</ele>
        <time>2022-10-29T18:28:18Z</time>
      </trkpt>
      <trkpt lat="45.05365" lon="0.43172">
        <ele>102.6</ele>
        <time>2022-10-29T18:28:20Z</time>
      </trkpt>
      <trkpt lat="45.05364" lon="0.43182">
        <ele>102.8</ele>
        <time>2022-10-29T18:28:22Z</time>
      </trkpt>
      <trkpt lat="45.05363" lon="0.43191">
        <ele>103</ele>
        <time>2022-10-29T18:28:24Z</time>
      </trkpt>
      <trkpt lat="45.05362" lon="0.43201">
        <ele>103.3</ele>
        <time>2022-10-29T18:28:26Z</time>
      </trkpt>
      <trkpt lat="45.05361" lon="0.4321">
        <ele>103.6</ele>
        <time>2022-10-29T18:28:28Z</time>
      </trkpt>
      <trkpt lat="45.0536" lon="0.4322">
        <ele>103.9</ele>
        <time>2022-10-29T18:28:30Z</time>
      </trkpt>
      <trkpt lat="45.0536" lon="0.4323">
        <ele>104.1</ele>
        <time>2022-10-29T18:28:32Z</time>
      </trkpt>
      <trkpt lat="45.0536" lon="0.43239">
        <ele>104.4</ele>
        <time>2022-10-29T18:28:34Z</time>
      </trkpt>
      <trkpt lat="45.05361" lon="0.43248">
        <ele>104.7</ele>
        <time>2022-10-29T18:28:36Z</time>
      </trkpt>
      <trkpt lat="45.05361" lon="0.43253">
        <ele>104.8</ele>
        <time>2022-10-29T18:28:37Z</time>
      </trkpt>
      <trkpt lat="45.05362" lon="0.43257">
        <ele>105</ele>
        <time>2022-10-29T18:28:38Z</time>
      </trkpt>
      <trkpt lat="45.05362" lon="0.43266">
        <ele>105.2</ele>
        <time>2022-10-29T18:28:40Z</time>
      </trkpt>
      <trkpt lat="45.05361" lon="0.43276">
        <ele>105.5</ele>
        <time>2022-10-29T18:28:42Z</time>
      </trkpt>
      <trkpt lat="45.05361" lon="0.43287">
        <ele>105.8</ele>
        <time>2022-10-29T18:28:44Z</time>
      </trkpt>
      <trkpt lat="45.0536" lon="0.43296">
        <ele>106.1</ele>
        <time>2022-10-29T18:28:46Z</time>
      </trkpt>
      <trkpt lat="45.05359" lon="0.43305">
        <ele>106.4</ele>
        <time>2022-10-29T18:28:48Z</time>
      </trkpt>
      <trkpt lat="45.05359" lon="0.43315">
        <ele>106.6</ele>
        <time>2022-10-29T18:28:50Z</time>
      </trkpt>
      <trkpt lat="45.05358" lon="0.43319">
        <ele>106.8</ele>
        <time>2022-10-29T18:28:51Z</time>
      </trkpt>
      <trkpt lat="45.05358" lon="0.43324">
        <ele>106.9</ele>
        <time>2022-10-29T18:28:52Z</time>
      </trkpt>
      <trkpt lat="45.05358" lon="0.43333">
        <ele>107.3</ele>
        <time>2022-10-29T18:28:54Z</time>
      </trkpt>
      <trkpt lat="45.05358" lon="0.43343">
        <ele>107.7</ele>
        <time>2022-10-29T18:28:56Z</time>
      </trkpt>
      <trkpt lat="45.05358" lon="0.43352">
        <ele>108.1</ele>
        <time>2022-10-29T18:28:58Z</time>
      </trkpt>
      <trkpt lat="45.05358" lon="0.43359">
        <ele>108.5</ele>
        <time>2022-10-29T18:29:00Z</time>
      </trkpt>
      <trkpt lat="45.05358" lon="0.43365">
        <ele>108.7</ele>
        <time>2022-10-29T18:29:02Z</time>
      </trkpt>
      <trkpt lat="45.05359" lon="0.43369">
        <ele>108.9</ele>
        <time>2022-10-29T18:29:04Z</time>
      </trkpt>
      <trkpt lat="45.0537" lon="0.43381">
        <ele>110.7</ele>
        <time>2022-10-29T18:29:06Z</time>
      </trkpt>
      <trkpt lat="45.05371" lon="0.4338">
        <ele>110.8</ele>
        <time>2022-10-29T18:29:07Z</time>
      </trkpt>
      <trkpt lat="45.05373" lon="0.4338">
        <ele>111</ele>
        <time>2022-10-29T18:29:08Z</time>
      </trkpt>
      <trkpt lat="45.05376" lon="0.43378">
        <ele>111.4</ele>
        <time>2022-10-29T18:29:10Z</time>
      </trkpt>
      <trkpt lat="45.05377" lon="0.43378">
        <ele>111.5</ele>
        <time>2022-10-29T18:29:11Z</time>
      </trkpt>
      <trkpt lat="45.05378" lon="0.43377">
        <ele>111.6</ele>
        <time>2022-10-29T18:29:12Z</time>
      </trkpt>
      <trkpt lat="45.05379" lon="0.43377">
        <ele>111.7</ele>
        <time>2022-10-29T18:29:14Z</time>
      </trkpt>
      <trkpt lat="45.05384" lon="0.43367">
        <ele>112.6</ele>
        <time>2022-10-29T18:29:16Z</time>
      </trkpt>
      <trkpt lat="45.05385" lon="0.43365">
        <ele>112.8</ele>
        <time>2022-10-29T18:29:17Z</time>
      </trkpt>
      <trkpt lat="45.05386" lon="0.43363">
        <ele>113</ele>
        <time>2022-10-29T18:29:18Z</time>
      </trkpt>
      <trkpt lat="45.05388" lon="0.4336">
        <ele>113.4</ele>
        <time>2022-10-29T18:29:20Z</time>
      </trkpt>
      <trkpt lat="45.05388" lon="0.4336">
        <ele>113.4</ele>
        <time>2022-10-29T18:29:21Z</time>
      </trkpt>
      <trkpt lat="45.05392" lon="0.43351">
        <ele>114.4</ele>
        <time>2022-10-29T18:29:24Z</time>
      </trkpt>
      <trkpt lat="45.05393" lon="0.43349">
        <ele>114.6</ele>
        <time>2022-10-29T18:29:26Z</time>
      </trkpt>
      <trkpt lat="45.05394" lon="0.43347">
        <ele>114.9</ele>
        <time>2022-10-29T18:29:27Z</time>
      </trkpt>
      <trkpt lat="45.05395" lon="0.43345">
        <ele>115.1</ele>
        <time>2022-10-29T18:29:28Z</time>
      </trkpt>
      <trkpt lat="45.05397" lon="0.43342">
        <ele>115.4</ele>
        <time>2022-10-29T18:29:30Z</time>
      </trkpt>
      <trkpt lat="45.05397" lon="0.43342">
        <ele>115.4</ele>
        <time>2022-10-29T18:29:31Z</time>
      </trkpt>
      <trkpt lat="45.05398" lon="0.4334">
        <ele>115.7</ele>
        <time>2022-10-29T18:29:32Z</time>
      </trkpt>
      <trkpt lat="45.054" lon="0.43335">
        <ele>116.2</ele>
        <time>2022-10-29T18:29:34Z</time>
      </trkpt>
      <trkpt lat="45.05402" lon="0.43331">
        <ele>116.7</ele>
        <time>2022-10-29T18:29:36Z</time>
      </trkpt>
      <trkpt lat="45.05403" lon="0.43328">
        <ele>116.9</ele>
        <time>2022-10-29T18:29:37Z</time>
      </trkpt>
      <trkpt lat="45.05404" lon="0.43326">
        <ele>117.2</ele>
        <time>2022-10-29T18:29:38Z</time>
      </trkpt>
      <trkpt lat="45.05406" lon="0.43321">
        <ele>117.7</ele>
        <time>2022-10-29T18:29:40Z</time>
      </trkpt>
      <trkpt lat="45.05408" lon="0.43316">
        <ele>118.2</ele>
        <time>2022-10-29T18:29:42Z</time>
      </trkpt>
      <trkpt lat="45.0541" lon="0.43311">
        <ele>118.7</ele>
        <time>2022-10-29T18:29:44Z</time>
      </trkpt>
      <trkpt lat="45.05412" lon="0.43307">
        <ele>119</ele>
        <time>2022-10-29T18:29:46Z</time>
      </trkpt>
      <trkpt lat="45.05414" lon="0.43302">
        <ele>119.4</ele>
        <time>2022-10-29T18:29:48Z</time>
      </trkpt>
      <trkpt lat="45.05416" lon="0.43298">
        <ele>119.8</ele>
        <time>2022-10-29T18:29:50Z</time>
      </trkpt>
      <trkpt lat="45.05418" lon="0.43293">
        <ele>120.1</ele>
        <time>2022-10-29T18:29:52Z</time>
      </trkpt>
      <trkpt lat="45.05419" lon="0.43291">
        <ele>120.3</ele>
        <time>2022-10-29T18:29:53Z</time>
      </trkpt>
      <trkpt lat="45.0542" lon="0.43289">
        <ele>120.4</ele>
        <time>2022-10-29T18:29:54Z</time>
      </trkpt>
      <trkpt lat="45.05422" lon="0.43284">
        <ele>120.8</ele>
        <time>2022-10-29T18:29:56Z</time>
      </trkpt>
      <trkpt lat="45.05425" lon="0.43279">
        <ele>121.2</ele>
        <time>2022-10-29T18:29:58Z</time>
      </trkpt>
      <trkpt lat="45.05427" lon="0.43274">
        <ele>121.6</ele>
        <time>2022-10-29T18:30:00Z</time>
      </trkpt>
      <trkpt lat="45.05428" lon="0.43272">
        <ele>121.8</ele>
        <time>2022-10-29T18:30:01Z</time>
      </trkpt>
      <trkpt lat="45.05429" lon="0.43269">
        <ele>122.1</ele>
        <time>2022-10-29T18:30:02Z</time>
      </trkpt>
      <trkpt lat="45.05431" lon="0.43266">
        <ele>122.4</ele>
        <time>2022-10-29T18:30:04Z</time>
      </trkpt>
      <trkpt lat="45.05432" lon="0.43262">
        <ele>122.8</ele>
        <time>2022-10-29T18:30:06Z</time>
      </trkpt>
      <trkpt lat="45.05434" lon="0.43258">
        <ele>123.3</ele>
        <time>2022-10-29T18:30:08Z</time>
      </trkpt>
      <trkpt lat="45.05436" lon="0.43254">
        <ele>123.8</ele>
        <time>2022-10-29T18:30:10Z</time>
      </trkpt>
      <trkpt lat="45.05437" lon="0.43253">
        <ele>123.9</ele>
        <time>2022-10-29T18:30:11Z</time>
      </trkpt>
      <trkpt lat="45.05437" lon="0.43252">
        <ele>124.1</ele>
        <time>2022-10-29T18:30:12Z</time>
      </trkpt>
      <trkpt lat="45.05439" lon="0.43247">
        <ele>124.6</ele>
        <time>2022-10-29T18:30:14Z</time>
      </trkpt>
      <trkpt lat="45.0544" lon="0.43246">
        <ele>124.8</ele>
        <time>2022-10-29T18:30:15Z</time>
      </trkpt>
      <trkpt lat="45.05441" lon="0.43244">
        <ele>125</ele>
        <time>2022-10-29T18:30:16Z</time>
      </trkpt>
      <trkpt lat="45.05442" lon="0.4324">
        <ele>125.3</ele>
        <time>2022-10-29T18:30:18Z</time>
      </trkpt>
      <trkpt lat="45.05444" lon="0.43236">
        <ele>125.8</ele>
        <time>2022-10-29T18:30:20Z</time>
      </trkpt>
      <trkpt lat="45.05446" lon="0.43232">
        <ele>126.3</ele>
        <time>2022-10-29T18:30:22Z</time>
      </trkpt>
      <trkpt lat="45.05448" lon="0.43228">
        <ele>126.7</ele>
        <time>2022-10-29T18:30:24Z</time>
      </trkpt>
      <trkpt lat="45.05449" lon="0.43224">
        <ele>127.1</ele>
        <time>2022-10-29T18:30:26Z</time>
      </trkpt>
      <trkpt lat="45.0545" lon="0.43222">
        <ele>127.2</ele>
        <time>2022-10-29T18:30:27Z</time>
      </trkpt>
      <trkpt lat="45.05451" lon="0.4322">
        <ele>127.4</ele>
        <time>2022-10-29T18:30:28Z</time>
      </trkpt>
      <trkpt lat="45.05452" lon="0.43217">
        <ele>127.8</ele>
        <time>2022-10-29T18:30:30Z</time>
      </trkpt>
      <trkpt lat="45.05453" lon="0.43215">
        <ele>127.9</ele>
        <time>2022-10-29T18:30:31Z</time>
      </trkpt>
      <trkpt lat="45.05454" lon="0.43214">
        <ele>128.1</ele>
        <time>2022-10-29T18:30:32Z</time>
      </trkpt>
      <trkpt lat="45.05455" lon="0.43212">
        <ele>128.3</ele>
        <time>2022-10-29T18:30:34Z</time>
      </trkpt>
      <trkpt lat="45.05456" lon="0.43208">
        <ele>128.6</ele>
        <time>2022-10-29T18:30:36Z</time>
      </trkpt>
      <trkpt lat="45.05457" lon="0.43206">
        <ele>128.9</ele>
        <time>2022-10-29T18:30:37Z</time>
      </trkpt>
      <trkpt lat="45.05459" lon="0.43205">
        <ele>129.1</ele>
        <time>2022-10-29T18:30:38Z</time>
      </trkpt>
      <trkpt lat="45.0546" lon="0.43202">
        <ele>129.5</ele>
        <time>2022-10-29T18:30:40Z</time>
      </trkpt>
      <trkpt lat="45.05462" lon="0.432">
        <ele>129.7</ele>
        <time>2022-10-29T18:30:41Z</time>
      </trkpt>
      <trkpt lat="45.05463" lon="0.43199">
        <ele>129.9</ele>
        <time>2022-10-29T18:30:42Z</time>
      </trkpt>
      <trkpt lat="45.05464" lon="0.43197">
        <ele>130.1</ele>
        <time>2022-10-29T18:30:44Z</time>
      </trkpt>
      <trkpt lat="45.05488" lon="0.43184">
        <ele>134.2</ele>
        <time>2022-10-29T18:31:00Z</time>
      </trkpt>
      <trkpt lat="45.0549" lon="0.43185">
        <ele>134.5</ele>
        <time>2022-10-29T18:31:02Z</time>
      </trkpt>
      <trkpt lat="45.05491" lon="0.43186">
        <ele>134.7</ele>
        <time>2022-10-29T18:31:03Z</time>
      </trkpt>
      <trkpt lat="45.05492" lon="0.43186">
        <ele>134.9</ele>
        <time>2022-10-29T18:31:04Z</time>
      </trkpt>
      <trkpt lat="45.05492" lon="0.43186">
        <ele>135</ele>
        <time>2022-10-29T18:31:06Z</time>
      </trkpt>
      <trkpt lat="45.05496" lon="0.43187">
        <ele>135.5</ele>
        <time>2022-10-29T18:31:08Z</time>
      </trkpt>
      <trkpt lat="45.05497" lon="0.43187">
        <ele>135.7</ele>
        <time>2022-10-29T18:31:10Z</time>
      </trkpt>
      <trkpt lat="45.05508" lon="0.43187">
        <ele>137.1</ele>
        <time>2022-10-29T18:31:17Z</time>
      </trkpt>
      <trkpt lat="45.0551" lon="0.43187">
        <ele>137.3</ele>
        <time>2022-10-29T18:31:18Z</time>
      </trkpt>
      <trkpt lat="45.05511" lon="0.43187">
        <ele>137.4</ele>
        <time>2022-10-29T18:31:19Z</time>
      </trkpt>
      <trkpt lat="45.05511" lon="0.43187">
        <ele>137.4</ele>
        <time>2022-10-29T18:31:20Z</time>
      </trkpt>
      <trkpt lat="45.05513" lon="0.43187">
        <ele>137.5</ele>
        <time>2022-10-29T18:31:21Z</time>
      </trkpt>
      <trkpt lat="45.05515" lon="0.43186">
        <ele>137.7</ele>
        <time>2022-10-29T18:31:22Z</time>
      </trkpt>
      <trkpt lat="45.05518" lon="0.43186">
        <ele>137.9</ele>
        <time>2022-10-29T18:31:24Z</time>
      </trkpt>
      <trkpt lat="45.05522" lon="0.43183">
        <ele>138.2</ele>
        <time>2022-10-29T18:31:26Z</time>
      </trkpt>
      <trkpt lat="45.05527" lon="0.43179">
        <ele>138.4</ele>
        <time>2022-10-29T18:31:28Z</time>
      </trkpt>
      <trkpt lat="45.05532" lon="0.43174">
        <ele>138.6</ele>
        <time>2022-10-29T18:31:30Z</time>
      </trkpt>
      <trkpt lat="45.05536" lon="0.43168">
        <ele>138.6</ele>
        <time>2022-10-29T18:31:32Z</time>
      </trkpt>
      <trkpt lat="45.05539" lon="0.43164">
        <ele>138.6</ele>
        <time>2022-10-29T18:31:34Z</time>
      </trkpt>
      <trkpt lat="45.05541" lon="0.43162">
        <ele>138.5</ele>
        <time>2022-10-29T18:31:35Z</time>
      </trkpt>
      <trkpt lat="45.05544" lon="0.4316">
        <ele>138.4</ele>
        <time>2022-10-29T18:31:36Z</time>
      </trkpt>
      <trkpt lat="45.05549" lon="0.43157">
        <ele>138.2</ele>
        <time>2022-10-29T18:31:38Z</time>
      </trkpt>
      <trkpt lat="45.05553" lon="0.43155">
        <ele>138.1</ele>
        <time>2022-10-29T18:31:39Z</time>
      </trkpt>
      <trkpt lat="45.05556" lon="0.43154">
        <ele>137.9</ele>
        <time>2022-10-29T18:31:40Z</time>
      </trkpt>
      <trkpt lat="45.05565" lon="0.43146">
        <ele>137.5</ele>
        <time>2022-10-29T18:31:42Z</time>
      </trkpt>
      <trkpt lat="45.05569" lon="0.43141">
        <ele>137.2</ele>
        <time>2022-10-29T18:31:43Z</time>
      </trkpt>
      <trkpt lat="45.05572" lon="0.43136">
        <ele>136.9</ele>
        <time>2022-10-29T18:31:44Z</time>
      </trkpt>
      <trkpt lat="45.05574" lon="0.43131">
        <ele>136.7</ele>
        <time>2022-10-29T18:31:45Z</time>
      </trkpt>
      <trkpt lat="45.05581" lon="0.43127">
        <ele>136.3</ele>
        <time>2022-10-29T18:31:46Z</time>
      </trkpt>
      <trkpt lat="45.05583" lon="0.4313">
        <ele>136.2</ele>
        <time>2022-10-29T18:31:47Z</time>
      </trkpt>
      <trkpt lat="45.05587" lon="0.4313">
        <ele>136.2</ele>
        <time>2022-10-29T18:31:48Z</time>
      </trkpt>
      <trkpt lat="45.05597" lon="0.43128">
        <ele>136.2</ele>
        <time>2022-10-29T18:31:50Z</time>
      </trkpt>
      <trkpt lat="45.05607" lon="0.43124">
        <ele>136.4</ele>
        <time>2022-10-29T18:31:52Z</time>
      </trkpt>
      <trkpt lat="45.05619" lon="0.43119">
        <ele>136.9</ele>
        <time>2022-10-29T18:31:54Z</time>
      </trkpt>
      <trkpt lat="45.05625" lon="0.43117">
        <ele>137.2</ele>
        <time>2022-10-29T18:31:55Z</time>
      </trkpt>
      <trkpt lat="45.0563" lon="0.43115">
        <ele>137.6</ele>
        <time>2022-10-29T18:31:56Z</time>
      </trkpt>
      <trkpt lat="45.05635" lon="0.43113">
        <ele>137.9</ele>
        <time>2022-10-29T18:31:57Z</time>
      </trkpt>
      <trkpt lat="45.05638" lon="0.43112">
        <ele>138.2</ele>
        <time>2022-10-29T18:31:58Z</time>
      </trkpt>
      <trkpt lat="45.05644" lon="0.43122">
        <ele>138.8</ele>
        <time>2022-10-29T18:32:00Z</time>
      </trkpt>
      <trkpt lat="45.05645" lon="0.43129">
        <ele>139</ele>
        <time>2022-10-29T18:32:02Z</time>
      </trkpt>
      <trkpt lat="45.05647" lon="0.43135">
        <ele>139.2</ele>
        <time>2022-10-29T18:32:04Z</time>
      </trkpt>
      <trkpt lat="45.05648" lon="0.43142">
        <ele>139.4</ele>
        <time>2022-10-29T18:32:06Z</time>
      </trkpt>
      <trkpt lat="45.05649" lon="0.43145">
        <ele>139.5</ele>
        <time>2022-10-29T18:32:07Z</time>
      </trkpt>
      <trkpt lat="45.0565" lon="0.43149">
        <ele>139.6</ele>
        <time>2022-10-29T18:32:08Z</time>
      </trkpt>
      <trkpt lat="45.05651" lon="0.43152">
        <ele>139.7</ele>
        <time>2022-10-29T18:32:09Z</time>
      </trkpt>
      <trkpt lat="45.05652" lon="0.43156">
        <ele>139.8</ele>
        <time>2022-10-29T18:32:10Z</time>
      </trkpt>
      <trkpt lat="45.05653" lon="0.43164">
        <ele>140</ele>
        <time>2022-10-29T18:32:12Z</time>
      </trkpt>
      <trkpt lat="45.05655" lon="0.43173">
        <ele>140.3</ele>
        <time>2022-10-29T18:32:14Z</time>
      </trkpt>
      <trkpt lat="45.05656" lon="0.43178">
        <ele>140.4</ele>
        <time>2022-10-29T18:32:15Z</time>
      </trkpt>
      <trkpt lat="45.05656" lon="0.43182">
        <ele>140.6</ele>
        <time>2022-10-29T18:32:16Z</time>
      </trkpt>
      <trkpt lat="45.05658" lon="0.43191">
        <ele>140.9</ele>
        <time>2022-10-29T18:32:18Z</time>
      </trkpt>
      <trkpt lat="45.0566" lon="0.432">
        <ele>141.2</ele>
        <time>2022-10-29T18:32:20Z</time>
      </trkpt>
      <trkpt lat="45.05661" lon="0.43205">
        <ele>141.3</ele>
        <time>2022-10-29T18:32:21Z</time>
      </trkpt>
      <trkpt lat="45.05662" lon="0.43209">
        <ele>141.5</ele>
        <time>2022-10-29T18:32:22Z</time>
      </trkpt>
      <trkpt lat="45.05663" lon="0.43219">
        <ele>141.8</ele>
        <time>2022-10-29T18:32:24Z</time>
      </trkpt>
      <trkpt lat="45.05665" lon="0.43228">
        <ele>142.1</ele>
        <time>2022-10-29T18:32:26Z</time>
      </trkpt>
      <trkpt lat="45.05666" lon="0.43233">
        <ele>142.2</ele>
        <time>2022-10-29T18:32:27Z</time>
      </trkpt>
      <trkpt lat="45.05667" lon="0.43238">
        <ele>142.4</ele>
        <time>2022-10-29T18:32:28Z</time>
      </trkpt>
      <trkpt lat="45.05668" lon="0.43246">
        <ele>142.6</ele>
        <time>2022-10-29T18:32:30Z</time>
      </trkpt>
      <trkpt lat="45.05669" lon="0.43251">
        <ele>142.8</ele>
        <time>2022-10-29T18:32:31Z</time>
      </trkpt>
      <trkpt lat="45.0567" lon="0.43255">
        <ele>142.9</ele>
        <time>2022-10-29T18:32:32Z</time>
      </trkpt>
      <trkpt lat="45.05672" lon="0.43264">
        <ele>143.2</ele>
        <time>2022-10-29T18:32:34Z</time>
      </trkpt>
      <trkpt lat="45.05674" lon="0.43268">
        <ele>143.3</ele>
        <time>2022-10-29T18:32:35Z</time>
      </trkpt>
      <trkpt lat="45.05675" lon="0.43273">
        <ele>143.5</ele>
        <time>2022-10-29T18:32:36Z</time>
      </trkpt>
      <trkpt lat="45.05677" lon="0.43282">
        <ele>143.8</ele>
        <time>2022-10-29T18:32:38Z</time>
      </trkpt>
      <trkpt lat="45.05679" lon="0.43291">
        <ele>144</ele>
        <time>2022-10-29T18:32:40Z</time>
      </trkpt>
      <trkpt lat="45.05681" lon="0.433">
        <ele>144.2</ele>
        <time>2022-10-29T18:32:42Z</time>
      </trkpt>
      <trkpt lat="45.05684" lon="0.43309">
        <ele>144.5</ele>
        <time>2022-10-29T18:32:44Z</time>
      </trkpt>
      <trkpt lat="45.05687" lon="0.43319">
        <ele>144.7</ele>
        <time>2022-10-29T18:32:46Z</time>
      </trkpt>
      <trkpt lat="45.05691" lon="0.43327">
        <ele>144.9</ele>
        <time>2022-10-29T18:32:48Z</time>
      </trkpt>
      <trkpt lat="45.05694" lon="0.43336">
        <ele>145.1</ele>
        <time>2022-10-29T18:32:50Z</time>
      </trkpt>
      <trkpt lat="45.05697" lon="0.43344">
        <ele>145.4</ele>
        <time>2022-10-29T18:32:52Z</time>
      </trkpt>
      <trkpt lat="45.05698" lon="0.43349">
        <ele>145.5</ele>
        <time>2022-10-29T18:32:53Z</time>
      </trkpt>
      <trkpt lat="45.057" lon="0.43353">
        <ele>145.7</ele>
        <time>2022-10-29T18:32:54Z</time>
      </trkpt>
      <trkpt lat="45.05703" lon="0.43362">
        <ele>145.9</ele>
        <time>2022-10-29T18:32:56Z</time>
      </trkpt>
      <trkpt lat="45.05706" lon="0.43371">
        <ele>146.2</ele>
        <time>2022-10-29T18:32:58Z</time>
      </trkpt>
      <trkpt lat="45.05708" lon="0.43375">
        <ele>146.3</ele>
        <time>2022-10-29T18:32:59Z</time>
      </trkpt>
      <trkpt lat="45.0571" lon="0.43379">
        <ele>146.5</ele>
        <time>2022-10-29T18:33:00Z</time>
      </trkpt>
      <trkpt lat="45.05713" lon="0.43389">
        <ele>146.6</ele>
        <time>2022-10-29T18:33:02Z</time>
      </trkpt>
      <trkpt lat="45.05714" lon="0.43393">
        <ele>146.7</ele>
        <time>2022-10-29T18:33:03Z</time>
      </trkpt>
      <trkpt lat="45.05716" lon="0.43397">
        <ele>146.8</ele>
        <time>2022-10-29T18:33:04Z</time>
      </trkpt>
      <trkpt lat="45.05719" lon="0.43406">
        <ele>146.9</ele>
        <time>2022-10-29T18:33:06Z</time>
      </trkpt>
      <trkpt lat="45.05723" lon="0.43415">
        <ele>147.1</ele>
        <time>2022-10-29T18:33:08Z</time>
      </trkpt>
      <trkpt lat="45.05724" lon="0.43428">
        <ele>147</ele>
        <time>2022-10-29T18:33:10Z</time>
      </trkpt>
      <trkpt lat="45.05723" lon="0.43433">
        <ele>146.9</ele>
        <time>2022-10-29T18:33:11Z</time>
      </trkpt>
      <trkpt lat="45.05722" lon="0.43439">
        <ele>146.8</ele>
        <time>2022-10-29T18:33:12Z</time>
      </trkpt>
      <trkpt lat="45.0572" lon="0.43449">
        <ele>146.5</ele>
        <time>2022-10-29T18:33:14Z</time>
      </trkpt>
      <trkpt lat="45.05719" lon="0.43456">
        <ele>146.3</ele>
        <time>2022-10-29T18:33:16Z</time>
      </trkpt>
      <trkpt lat="45.05716" lon="0.43464">
        <ele>146.3</ele>
        <time>2022-10-29T18:33:18Z</time>
      </trkpt>
      <trkpt lat="45.05713" lon="0.43472">
        <ele>146.4</ele>
        <time>2022-10-29T18:33:20Z</time>
      </trkpt>
      <trkpt lat="45.05709" lon="0.43482">
        <ele>146.4</ele>
        <time>2022-10-29T18:33:22Z</time>
      </trkpt>
      <trkpt lat="45.05706" lon="0.43487">
        <ele>146.5</ele>
        <time>2022-10-29T18:33:23Z</time>
      </trkpt>
      <trkpt lat="45.05704" lon="0.43492">
        <ele>146.5</ele>
        <time>2022-10-29T18:33:24Z</time>
      </trkpt>
      <trkpt lat="45.05699" lon="0.43503">
        <ele>146.6</ele>
        <time>2022-10-29T18:33:26Z</time>
      </trkpt>
      <trkpt lat="45.05697" lon="0.43508">
        <ele>146.6</ele>
        <time>2022-10-29T18:33:27Z</time>
      </trkpt>
      <trkpt lat="45.05695" lon="0.43513">
        <ele>146.6</ele>
        <time>2022-10-29T18:33:28Z</time>
      </trkpt>
      <trkpt lat="45.05693" lon="0.43518">
        <ele>146.7</ele>
        <time>2022-10-29T18:33:29Z</time>
      </trkpt>
      <trkpt lat="45.0569" lon="0.43524">
        <ele>146.7</ele>
        <time>2022-10-29T18:33:30Z</time>
      </trkpt>
      <trkpt lat="45.05685" lon="0.43536">
        <ele>146.9</ele>
        <time>2022-10-29T18:33:32Z</time>
      </trkpt>
      <trkpt lat="45.05683" lon="0.4354">
        <ele>146.9</ele>
        <time>2022-10-29T18:33:33Z</time>
      </trkpt>
      <trkpt lat="45.05681" lon="0.43545">
        <ele>147</ele>
        <time>2022-10-29T18:33:34Z</time>
      </trkpt>
      <trkpt lat="45.05676" lon="0.43557">
        <ele>147.2</ele>
        <time>2022-10-29T18:33:36Z</time>
      </trkpt>
      <trkpt lat="45.05671" lon="0.43569">
        <ele>147.4</ele>
        <time>2022-10-29T18:33:38Z</time>
      </trkpt>
      <trkpt lat="45.05665" lon="0.43582">
        <ele>147.6</ele>
        <time>2022-10-29T18:33:40Z</time>
      </trkpt>
      <trkpt lat="45.05661" lon="0.43594">
        <ele>147.8</ele>
        <time>2022-10-29T18:33:42Z</time>
      </trkpt>
      <trkpt lat="45.05655" lon="0.43606">
        <ele>148</ele>
        <time>2022-10-29T18:33:44Z</time>
      </trkpt>
      <trkpt lat="45.05651" lon="0.43616">
        <ele>148.2</ele>
        <time>2022-10-29T18:33:46Z</time>
      </trkpt>
      <trkpt lat="45.05647" lon="0.43625">
        <ele>148.4</ele>
        <time>2022-10-29T18:33:48Z</time>
      </trkpt>
      <trkpt lat="45.05643" lon="0.43634">
        <ele>148.8</ele>
        <time>2022-10-29T18:33:50Z</time>
      </trkpt>
      <trkpt lat="45.05639" lon="0.43645">
        <ele>149.2</ele>
        <time>2022-10-29T18:33:52Z</time>
      </trkpt>
      <trkpt lat="45.05636" lon="0.4365">
        <ele>149.4</ele>
        <time>2022-10-29T18:33:54Z</time>
      </trkpt>
      <trkpt lat="45.05635" lon="0.43656">
        <ele>149.7</ele>
        <time>2022-10-29T18:33:56Z</time>
      </trkpt>
      <trkpt lat="45.05634" lon="0.4366">
        <ele>149.8</ele>
        <time>2022-10-29T18:33:57Z</time>
      </trkpt>
      <trkpt lat="45.05634" lon="0.43665">
        <ele>150.1</ele>
        <time>2022-10-29T18:33:58Z</time>
      </trkpt>
      <trkpt lat="45.05633" lon="0.4367">
        <ele>150.3</ele>
        <time>2022-10-29T18:33:59Z</time>
      </trkpt>
      <trkpt lat="45.05632" lon="0.43678">
        <ele>150.6</ele>
        <time>2022-10-29T18:34:00Z</time>
      </trkpt>
      <trkpt lat="45.05616" lon="0.43686">
        <ele>151.4</ele>
        <time>2022-10-29T18:34:01Z</time>
      </trkpt>
      <trkpt lat="45.05616" lon="0.43686">
        <ele>151.4</ele>
        <time>2022-10-29T18:34:02Z</time>
      </trkpt>
      <trkpt lat="45.05615" lon="0.43688">
        <ele>151.4</ele>
        <time>2022-10-29T18:34:04Z</time>
      </trkpt>
      <trkpt lat="45.05614" lon="0.43693">
        <ele>151.4</ele>
        <time>2022-10-29T18:34:05Z</time>
      </trkpt>
      <trkpt lat="45.05613" lon="0.43697">
        <ele>151.4</ele>
        <time>2022-10-29T18:34:06Z</time>
      </trkpt>
      <trkpt lat="45.05612" lon="0.43699">
        <ele>151.4</ele>
        <time>2022-10-29T18:34:07Z</time>
      </trkpt>
      <trkpt lat="45.05613" lon="0.43696">
        <ele>151.4</ele>
        <time>2022-10-29T18:34:08Z</time>
      </trkpt>
      <trkpt lat="45.05613" lon="0.43694">
        <ele>151.5</ele>
        <time>2022-10-29T18:34:09Z</time>
      </trkpt>
      <trkpt lat="45.05615" lon="0.43688">
        <ele>151.5</ele>
        <time>2022-10-29T18:34:10Z</time>
      </trkpt>
      <trkpt lat="45.05615" lon="0.43689">
        <ele>151.5</ele>
        <time>2022-10-29T18:34:11Z</time>
      </trkpt>
      <trkpt lat="45.05614" lon="0.43691">
        <ele>151.6</ele>
        <time>2022-10-29T18:34:12Z</time>
      </trkpt>
      <trkpt lat="45.05614" lon="0.43693">
        <ele>151.6</ele>
        <time>2022-10-29T18:34:13Z</time>
      </trkpt>
      <trkpt lat="45.05613" lon="0.43695">
        <ele>151.6</ele>
        <time>2022-10-29T18:34:14Z</time>
      </trkpt>
      <trkpt lat="45.05613" lon="0.43697">
        <ele>151.7</ele>
        <time>2022-10-29T18:34:15Z</time>
      </trkpt>
      <trkpt lat="45.05612" lon="0.43701">
        <ele>151.7</ele>
        <time>2022-10-29T18:34:16Z</time>
      </trkpt>
      <trkpt lat="45.05611" lon="0.43703">
        <ele>151.7</ele>
        <time>2022-10-29T18:34:18Z</time>
      </trkpt>
      <trkpt lat="45.05611" lon="0.43711">
        <ele>151.8</ele>
        <time>2022-10-29T18:34:20Z</time>
      </trkpt>
      <trkpt lat="45.05611" lon="0.43718">
        <ele>151.9</ele>
        <time>2022-10-29T18:34:22Z</time>
      </trkpt>
      <trkpt lat="45.05611" lon="0.43721">
        <ele>151.9</ele>
        <time>2022-10-29T18:34:23Z</time>
      </trkpt>
      <trkpt lat="45.05611" lon="0.4372">
        <ele>151.9</ele>
        <time>2022-10-29T18:34:24Z</time>
      </trkpt>
      <trkpt lat="45.0561" lon="0.43726">
        <ele>151.9</ele>
        <time>2022-10-29T18:34:26Z</time>
      </trkpt>
      <trkpt lat="45.0561" lon="0.43729">
        <ele>151.8</ele>
        <time>2022-10-29T18:34:28Z</time>
      </trkpt>
      <trkpt lat="45.0561" lon="0.43731">
        <ele>151.8</ele>
        <time>2022-10-29T18:34:29Z</time>
      </trkpt>
      <trkpt lat="45.05609" lon="0.43734">
        <ele>151.8</ele>
        <time>2022-10-29T18:34:30Z</time>
      </trkpt>
      <trkpt lat="45.05608" lon="0.43736">
        <ele>151.7</ele>
        <time>2022-10-29T18:34:32Z</time>
      </trkpt>
      <trkpt lat="45.05608" lon="0.43737">
        <ele>151.7</ele>
        <time>2022-10-29T18:34:33Z</time>
      </trkpt>
      <trkpt lat="45.05607" lon="0.43738">
        <ele>151.7</ele>
        <time>2022-10-29T18:34:34Z</time>
      </trkpt>
      <trkpt lat="45.05605" lon="0.43745">
        <ele>151.6</ele>
        <time>2022-10-29T18:34:36Z</time>
      </trkpt>
      <trkpt lat="45.05605" lon="0.43745">
        <ele>151.6</ele>
        <time>2022-10-29T18:34:37Z</time>
      </trkpt>
      <trkpt lat="45.05607" lon="0.43757">
        <ele>151.3</ele>
        <time>2022-10-29T18:34:43Z</time>
      </trkpt>
      <trkpt lat="45.05607" lon="0.43759">
        <ele>151.3</ele>
        <time>2022-10-29T18:34:44Z</time>
      </trkpt>
      <trkpt lat="45.05607" lon="0.43764">
        <ele>151.2</ele>
        <time>2022-10-29T18:34:45Z</time>
      </trkpt>
      <trkpt lat="45.05607" lon="0.43768">
        <ele>151.1</ele>
        <time>2022-10-29T18:34:46Z</time>
      </trkpt>
      <trkpt lat="45.05607" lon="0.43778">
        <ele>151</ele>
        <time>2022-10-29T18:34:48Z</time>
      </trkpt>
      <trkpt lat="45.05604" lon="0.43788">
        <ele>150.8</ele>
        <time>2022-10-29T18:34:50Z</time>
      </trkpt>
      <trkpt lat="45.056" lon="0.43798">
        <ele>150.7</ele>
        <time>2022-10-29T18:34:52Z</time>
      </trkpt>
      <trkpt lat="45.05594" lon="0.43806">
        <ele>150.5</ele>
        <time>2022-10-29T18:34:54Z</time>
      </trkpt>
      <trkpt lat="45.05591" lon="0.43809">
        <ele>150.4</ele>
        <time>2022-10-29T18:34:55Z</time>
      </trkpt>
      <trkpt lat="45.05588" lon="0.43812">
        <ele>150.4</ele>
        <time>2022-10-29T18:34:56Z</time>
      </trkpt>
      <trkpt lat="45.05588" lon="0.43812">
        <ele>150.4</ele>
        <time>2022-10-29T18:34:58Z</time>
      </trkpt>
      <trkpt lat="45.05588" lon="0.43812">
        <ele>150.4</ele>
        <time>2022-10-29T18:34:59Z</time>
      </trkpt>
      <trkpt lat="45.05575" lon="0.43814">
        <ele>150</ele>
        <time>2022-10-29T18:35:00Z</time>
      </trkpt>
      <trkpt lat="45.05585" lon="0.43821">
        <ele>149.6</ele>
        <time>2022-10-29T18:35:01Z</time>
      </trkpt>
      <trkpt lat="45.05585" lon="0.43813">
        <ele>149.4</ele>
        <time>2022-10-29T18:35:02Z</time>
      </trkpt>
      <trkpt lat="45.05584" lon="0.43813">
        <ele>149.3</ele>
        <time>2022-10-29T18:35:03Z</time>
      </trkpt>
      <trkpt lat="45.05582" lon="0.43813">
        <ele>149.3</ele>
        <time>2022-10-29T18:35:04Z</time>
      </trkpt>
      <trkpt lat="45.0558" lon="0.43814">
        <ele>149.2</ele>
        <time>2022-10-29T18:35:06Z</time>
      </trkpt>
      <trkpt lat="45.05575" lon="0.43814">
        <ele>149</ele>
        <time>2022-10-29T18:35:08Z</time>
      </trkpt>
      <trkpt lat="45.0557" lon="0.43813">
        <ele>148.8</ele>
        <time>2022-10-29T18:35:10Z</time>
      </trkpt>
      <trkpt lat="45.05566" lon="0.43813">
        <ele>148.7</ele>
        <time>2022-10-29T18:35:11Z</time>
      </trkpt>
      <trkpt lat="45.05566" lon="0.43813">
        <ele>148.7</ele>
        <time>2022-10-29T18:35:12Z</time>
      </trkpt>
      <trkpt lat="45.05561" lon="0.43812">
        <ele>148.5</ele>
        <time>2022-10-29T18:35:14Z</time>
      </trkpt>
      <trkpt lat="45.05559" lon="0.43811">
        <ele>148.4</ele>
        <time>2022-10-29T18:35:15Z</time>
      </trkpt>
      <trkpt lat="45.05559" lon="0.43811">
        <ele>148.4</ele>
        <time>2022-10-29T18:35:16Z</time>
      </trkpt>
      <trkpt lat="45.05554" lon="0.4381">
        <ele>148.2</ele>
        <time>2022-10-29T18:35:18Z</time>
      </trkpt>
      <trkpt lat="45.05549" lon="0.43812">
        <ele>148</ele>
        <time>2022-10-29T18:35:19Z</time>
      </trkpt>
      <trkpt lat="45.05549" lon="0.43812">
        <ele>148</ele>
        <time>2022-10-29T18:35:20Z</time>
      </trkpt>
      <trkpt lat="45.05543" lon="0.43814">
        <ele>147.7</ele>
        <time>2022-10-29T18:35:22Z</time>
      </trkpt>
      <trkpt lat="45.05534" lon="0.43833">
        <ele>147.3</ele>
        <time>2022-10-29T18:35:24Z</time>
      </trkpt>
      <trkpt lat="45.05533" lon="0.43835">
        <ele>147.2</ele>
        <time>2022-10-29T18:35:26Z</time>
      </trkpt>
      <trkpt lat="45.05531" lon="0.43841">
        <ele>147.1</ele>
        <time>2022-10-29T18:35:28Z</time>
      </trkpt>
      <trkpt lat="45.05531" lon="0.43842">
        <ele>147.1</ele>
        <time>2022-10-29T18:35:29Z</time>
      </trkpt>
      <trkpt lat="45.0553" lon="0.43847">
        <ele>146.9</ele>
        <time>2022-10-29T18:35:30Z</time>
      </trkpt>
      <trkpt lat="45.05528" lon="0.43853">
        <ele>146.8</ele>
        <time>2022-10-29T18:35:31Z</time>
      </trkpt>
      <trkpt lat="45.05527" lon="0.43858">
        <ele>146.7</ele>
        <time>2022-10-29T18:35:32Z</time>
      </trkpt>
      <trkpt lat="45.05522" lon="0.43867">
        <ele>146.4</ele>
        <time>2022-10-29T18:35:34Z</time>
      </trkpt>
      <trkpt lat="45.0552" lon="0.43867">
        <ele>146.3</ele>
        <time>2022-10-29T18:35:36Z</time>
      </trkpt>
      <trkpt lat="45.05515" lon="0.43868">
        <ele>146.2</ele>
        <time>2022-10-29T18:35:38Z</time>
      </trkpt>
      <trkpt lat="45.05507" lon="0.4387">
        <ele>146</ele>
        <time>2022-10-29T18:35:40Z</time>
      </trkpt>
      <trkpt lat="45.05498" lon="0.43872">
        <ele>145.9</ele>
        <time>2022-10-29T18:35:42Z</time>
      </trkpt>
      <trkpt lat="45.05493" lon="0.43873">
        <ele>145.8</ele>
        <time>2022-10-29T18:35:43Z</time>
      </trkpt>
      <trkpt lat="45.05486" lon="0.43876">
        <ele>145.7</ele>
        <time>2022-10-29T18:35:44Z</time>
      </trkpt>
      <trkpt lat="45.05483" lon="0.43887">
        <ele>145.2</ele>
        <time>2022-10-29T18:35:46Z</time>
      </trkpt>
      <trkpt lat="45.05481" lon="0.43892">
        <ele>145</ele>
        <time>2022-10-29T18:35:47Z</time>
      </trkpt>
      <trkpt lat="45.05479" lon="0.43896">
        <ele>144.6</ele>
        <time>2022-10-29T18:35:48Z</time>
      </trkpt>
      <trkpt lat="45.05473" lon="0.43906">
        <ele>143.8</ele>
        <time>2022-10-29T18:35:50Z</time>
      </trkpt>
      <trkpt lat="45.05469" lon="0.43911">
        <ele>143.3</ele>
        <time>2022-10-29T18:35:52Z</time>
      </trkpt>
      <trkpt lat="45.05465" lon="0.43915">
        <ele>142.7</ele>
        <time>2022-10-29T18:35:53Z</time>
      </trkpt>
      <trkpt lat="45.05463" lon="0.43918">
        <ele>142.3</ele>
        <time>2022-10-29T18:35:54Z</time>
      </trkpt>
      <trkpt lat="45.05458" lon="0.43923">
        <ele>141.6</ele>
        <time>2022-10-29T18:35:56Z</time>
      </trkpt>
      <trkpt lat="45.05455" lon="0.43927">
        <ele>141.1</ele>
        <time>2022-10-29T18:35:57Z</time>
      </trkpt>
      <trkpt lat="45.05452" lon="0.4393">
        <ele>140.6</ele>
        <time>2022-10-29T18:35:58Z</time>
      </trkpt>
      <trkpt lat="45.05448" lon="0.43934">
        <ele>139.9</ele>
        <time>2022-10-29T18:35:59Z</time>
      </trkpt>
      <trkpt lat="45.05446" lon="0.43936">
        <ele>139.5</ele>
        <time>2022-10-29T18:36:00Z</time>
      </trkpt>
      <trkpt lat="45.05443" lon="0.43937">
        <ele>139</ele>
        <time>2022-10-29T18:36:01Z</time>
      </trkpt>
      <trkpt lat="45.05437" lon="0.4394">
        <ele>138</ele>
        <time>2022-10-29T18:36:02Z</time>
      </trkpt>
      <trkpt lat="45.05433" lon="0.43941">
        <ele>137.3</ele>
        <time>2022-10-29T18:36:04Z</time>
      </trkpt>
      <trkpt lat="45.05428" lon="0.4394">
        <ele>136.4</ele>
        <time>2022-10-29T18:36:06Z</time>
      </trkpt>
      <trkpt lat="45.05426" lon="0.43939">
        <ele>136.1</ele>
        <time>2022-10-29T18:36:07Z</time>
      </trkpt>
      <trkpt lat="45.05424" lon="0.43939">
        <ele>135.8</ele>
        <time>2022-10-29T18:36:08Z</time>
      </trkpt>
      <trkpt lat="45.0542" lon="0.43934">
        <ele>134.8</ele>
        <time>2022-10-29T18:36:10Z</time>
      </trkpt>
      <trkpt lat="45.05415" lon="0.43929">
        <ele>133.8</ele>
        <time>2022-10-29T18:36:12Z</time>
      </trkpt>
      <trkpt lat="45.0541" lon="0.43919">
        <ele>132.4</ele>
        <time>2022-10-29T18:36:14Z</time>
      </trkpt>
      <trkpt lat="45.05405" lon="0.43909">
        <ele>131.3</ele>
        <time>2022-10-29T18:36:16Z</time>
      </trkpt>
      <trkpt lat="45.05402" lon="0.43905">
        <ele>130.8</ele>
        <time>2022-10-29T18:36:17Z</time>
      </trkpt>
      <trkpt lat="45.05398" lon="0.43901">
        <ele>130.2</ele>
        <time>2022-10-29T18:36:18Z</time>
      </trkpt>
      <trkpt lat="45.05389" lon="0.43891">
        <ele>128.7</ele>
        <time>2022-10-29T18:36:20Z</time>
      </trkpt>
      <trkpt lat="45.0538" lon="0.43877">
        <ele>127.3</ele>
        <time>2022-10-29T18:36:22Z</time>
      </trkpt>
      <trkpt lat="45.05371" lon="0.43866">
        <ele>126.5</ele>
        <time>2022-10-29T18:36:24Z</time>
      </trkpt>
      <trkpt lat="45.05364" lon="0.43855">
        <ele>126.1</ele>
        <time>2022-10-29T18:36:26Z</time>
      </trkpt>
      <trkpt lat="45.05362" lon="0.43849">
        <ele>126</ele>
        <time>2022-10-29T18:36:27Z</time>
      </trkpt>
      <trkpt lat="45.0536" lon="0.43844">
        <ele>125.9</ele>
        <time>2022-10-29T18:36:28Z</time>
      </trkpt>
      <trkpt lat="45.05357" lon="0.43838">
        <ele>125.8</ele>
        <time>2022-10-29T18:36:29Z</time>
      </trkpt>
      <trkpt lat="45.05355" lon="0.43832">
        <ele>125.8</ele>
        <time>2022-10-29T18:36:30Z</time>
      </trkpt>
      <trkpt lat="45.05353" lon="0.43825">
        <ele>125.8</ele>
        <time>2022-10-29T18:36:31Z</time>
      </trkpt>
      <trkpt lat="45.05351" lon="0.43819">
        <ele>125.8</ele>
        <time>2022-10-29T18:36:32Z</time>
      </trkpt>
      <trkpt lat="45.05348" lon="0.43808">
        <ele>126</ele>
        <time>2022-10-29T18:36:34Z</time>
      </trkpt>
      <trkpt lat="45.05346" lon="0.43803">
        <ele>126.1</ele>
        <time>2022-10-29T18:36:35Z</time>
      </trkpt>
      <trkpt lat="45.05345" lon="0.43799">
        <ele>126.2</ele>
        <time>2022-10-29T18:36:36Z</time>
      </trkpt>
      <trkpt lat="45.05342" lon="0.4379">
        <ele>126.5</ele>
        <time>2022-10-29T18:36:38Z</time>
      </trkpt>
      <trkpt lat="45.05341" lon="0.43787">
        <ele>126.7</ele>
        <time>2022-10-29T18:36:39Z</time>
      </trkpt>
      <trkpt lat="45.05339" lon="0.43782">
        <ele>126.9</ele>
        <time>2022-10-29T18:36:40Z</time>
      </trkpt>
      <trkpt lat="45.05337" lon="0.43774">
        <ele>127.5</ele>
        <time>2022-10-29T18:36:42Z</time>
      </trkpt>
      <trkpt lat="45.05335" lon="0.43771">
        <ele>127.8</ele>
        <time>2022-10-29T18:36:43Z</time>
      </trkpt>
      <trkpt lat="45.05334" lon="0.43767">
        <ele>128.1</ele>
        <time>2022-10-29T18:36:44Z</time>
      </trkpt>
      <trkpt lat="45.05331" lon="0.43759">
        <ele>129</ele>
        <time>2022-10-29T18:36:46Z</time>
      </trkpt>
      <trkpt lat="45.0533" lon="0.43755">
        <ele>129.4</ele>
        <time>2022-10-29T18:36:47Z</time>
      </trkpt>
      <trkpt lat="45.05329" lon="0.43752">
        <ele>129.7</ele>
        <time>2022-10-29T18:36:48Z</time>
      </trkpt>
      <trkpt lat="45.05326" lon="0.43746">
        <ele>130.6</ele>
        <time>2022-10-29T18:36:50Z</time>
      </trkpt>
      <trkpt lat="45.05324" lon="0.4374">
        <ele>131.4</ele>
        <time>2022-10-29T18:36:52Z</time>
      </trkpt>
      <trkpt lat="45.05322" lon="0.43736">
        <ele>132</ele>
        <time>2022-10-29T18:36:54Z</time>
      </trkpt>
      <trkpt lat="45.0532" lon="0.43731">
        <ele>132.6</ele>
        <time>2022-10-29T18:36:56Z</time>
      </trkpt>
      <trkpt lat="45.05318" lon="0.43727">
        <ele>133.1</ele>
        <time>2022-10-29T18:36:58Z</time>
      </trkpt>
      <trkpt lat="45.05316" lon="0.43724">
        <ele>133.5</ele>
        <time>2022-10-29T18:37:00Z</time>
      </trkpt>
      <trkpt lat="45.05316" lon="0.43724">
        <ele>133.5</ele>
        <time>2022-10-29T18:37:01Z</time>
      </trkpt>
      <trkpt lat="45.05314" lon="0.43721">
        <ele>133.9</ele>
        <time>2022-10-29T18:37:02Z</time>
      </trkpt>
      <trkpt lat="45.05312" lon="0.43718">
        <ele>134.2</ele>
        <time>2022-10-29T18:37:04Z</time>
      </trkpt>
      <trkpt lat="45.0531" lon="0.43713">
        <ele>134.6</ele>
        <time>2022-10-29T18:37:06Z</time>
      </trkpt>
      <trkpt lat="45.05309" lon="0.43711">
        <ele>134.8</ele>
        <time>2022-10-29T18:37:07Z</time>
      </trkpt>
      <trkpt lat="45.05307" lon="0.43708">
        <ele>134.9</ele>
        <time>2022-10-29T18:37:08Z</time>
      </trkpt>
      <trkpt lat="45.05305" lon="0.43702">
        <ele>135.1</ele>
        <time>2022-10-29T18:37:10Z</time>
      </trkpt>
      <trkpt lat="45.05301" lon="0.43694">
        <ele>135.1</ele>
        <time>2022-10-29T18:37:12Z</time>
      </trkpt>
      <trkpt lat="45.05297" lon="0.43685">
        <ele>135</ele>
        <time>2022-10-29T18:37:14Z</time>
      </trkpt>
      <trkpt lat="45.05292" lon="0.43674">
        <ele>134.7</ele>
        <time>2022-10-29T18:37:16Z</time>
      </trkpt>
      <trkpt lat="45.05289" lon="0.43668">
        <ele>134.4</ele>
        <time>2022-10-29T18:37:17Z</time>
      </trkpt>
      <trkpt lat="45.05286" lon="0.43663">
        <ele>134.1</ele>
        <time>2022-10-29T18:37:18Z</time>
      </trkpt>
      <trkpt lat="45.05282" lon="0.43657">
        <ele>133.8</ele>
        <time>2022-10-29T18:37:19Z</time>
      </trkpt>
      <trkpt lat="45.05279" lon="0.43651">
        <ele>133.5</ele>
        <time>2022-10-29T18:37:20Z</time>
      </trkpt>
      <trkpt lat="45.05275" lon="0.43645">
        <ele>133.2</ele>
        <time>2022-10-29T18:37:21Z</time>
      </trkpt>
      <trkpt lat="45.05271" lon="0.43639">
        <ele>133</ele>
        <time>2022-10-29T18:37:22Z</time>
      </trkpt>
      <trkpt lat="45.05264" lon="0.43629">
        <ele>132.9</ele>
        <time>2022-10-29T18:37:24Z</time>
      </trkpt>
      <trkpt lat="45.0526" lon="0.43624">
        <ele>133</ele>
        <time>2022-10-29T18:37:26Z</time>
      </trkpt>
      <trkpt lat="45.05257" lon="0.43621">
        <ele>133.1</ele>
        <time>2022-10-29T18:37:27Z</time>
      </trkpt>
      <trkpt lat="45.05255" lon="0.43619">
        <ele>133.3</ele>
        <time>2022-10-29T18:37:28Z</time>
      </trkpt>
      <trkpt lat="45.0525" lon="0.43614">
        <ele>133.9</ele>
        <time>2022-10-29T18:37:30Z</time>
      </trkpt>
      <trkpt lat="45.05246" lon="0.4361">
        <ele>134.4</ele>
        <time>2022-10-29T18:37:32Z</time>
      </trkpt>
      <trkpt lat="45.05242" lon="0.43606">
        <ele>135</ele>
        <time>2022-10-29T18:37:34Z</time>
      </trkpt>
      <trkpt lat="45.05239" lon="0.43603">
        <ele>135.6</ele>
        <time>2022-10-29T18:37:36Z</time>
      </trkpt>
      <trkpt lat="45.05234" lon="0.43599">
        <ele>136.3</ele>
        <time>2022-10-29T18:37:38Z</time>
      </trkpt>
      <trkpt lat="45.05232" lon="0.43596">
        <ele>136.6</ele>
        <time>2022-10-29T18:37:39Z</time>
      </trkpt>
      <trkpt lat="45.0523" lon="0.43594">
        <ele>136.9</ele>
        <time>2022-10-29T18:37:40Z</time>
      </trkpt>
      <trkpt lat="45.05229" lon="0.43593">
        <ele>137.1</ele>
        <time>2022-10-29T18:37:41Z</time>
      </trkpt>
      <trkpt lat="45.05227" lon="0.43591">
        <ele>137.3</ele>
        <time>2022-10-29T18:37:42Z</time>
      </trkpt>
      <trkpt lat="45.05222" lon="0.43587">
        <ele>137.7</ele>
        <time>2022-10-29T18:37:44Z</time>
      </trkpt>
      <trkpt lat="45.05216" lon="0.43583">
        <ele>138</ele>
        <time>2022-10-29T18:37:46Z</time>
      </trkpt>
      <trkpt lat="45.05211" lon="0.4358">
        <ele>138</ele>
        <time>2022-10-29T18:37:48Z</time>
      </trkpt>
      <trkpt lat="45.05206" lon="0.43578">
        <ele>138</ele>
        <time>2022-10-29T18:37:50Z</time>
      </trkpt>
      <trkpt lat="45.05203" lon="0.43577">
        <ele>138</ele>
        <time>2022-10-29T18:37:51Z</time>
      </trkpt>
      <trkpt lat="45.052" lon="0.43576">
        <ele>137.9</ele>
        <time>2022-10-29T18:37:52Z</time>
      </trkpt>
      <trkpt lat="45.05194" lon="0.43574">
        <ele>137.7</ele>
        <time>2022-10-29T18:37:54Z</time>
      </trkpt>
      <trkpt lat="45.05186" lon="0.4357">
        <ele>137.3</ele>
        <time>2022-10-29T18:37:56Z</time>
      </trkpt>
      <trkpt lat="45.05183" lon="0.43568">
        <ele>137.1</ele>
        <time>2022-10-29T18:37:57Z</time>
      </trkpt>
      <trkpt lat="45.0518" lon="0.43563">
        <ele>136.8</ele>
        <time>2022-10-29T18:37:58Z</time>
      </trkpt>
      <trkpt lat="45.05177" lon="0.43558">
        <ele>136.6</ele>
        <time>2022-10-29T18:37:59Z</time>
      </trkpt>
      <trkpt lat="45.05175" lon="0.43553">
        <ele>136.3</ele>
        <time>2022-10-29T18:38:00Z</time>
      </trkpt>
      <trkpt lat="45.05173" lon="0.43548">
        <ele>136.1</ele>
        <time>2022-10-29T18:38:02Z</time>
      </trkpt>
      <trkpt lat="45.05167" lon="0.43536">
        <ele>135.6</ele>
        <time>2022-10-29T18:38:03Z</time>
      </trkpt>
      <trkpt lat="45.05165" lon="0.43528">
        <ele>135.4</ele>
        <time>2022-10-29T18:38:04Z</time>
      </trkpt>
      <trkpt lat="45.05162" lon="0.43518">
        <ele>135.2</ele>
        <time>2022-10-29T18:38:06Z</time>
      </trkpt>
      <trkpt lat="45.05161" lon="0.43514">
        <ele>135.1</ele>
        <time>2022-10-29T18:38:07Z</time>
      </trkpt>
      <trkpt lat="45.05161" lon="0.43512">
        <ele>135.1</ele>
        <time>2022-10-29T18:38:08Z</time>
      </trkpt>
      <trkpt lat="45.05157" lon="0.43505">
        <ele>135.4</ele>
        <time>2022-10-29T18:38:10Z</time>
      </trkpt>
      <trkpt lat="45.05155" lon="0.435">
        <ele>135.6</ele>
        <time>2022-10-29T18:38:11Z</time>
      </trkpt>
      <trkpt lat="45.05153" lon="0.43496">
        <ele>135.7</ele>
        <time>2022-10-29T18:38:12Z</time>
      </trkpt>
      <trkpt lat="45.0515" lon="0.43488">
        <ele>136.1</ele>
        <time>2022-10-29T18:38:14Z</time>
      </trkpt>
      <trkpt lat="45.05148" lon="0.43486">
        <ele>136.3</ele>
        <time>2022-10-29T18:38:15Z</time>
      </trkpt>
      <trkpt lat="45.05147" lon="0.43483">
        <ele>136.4</ele>
        <time>2022-10-29T18:38:16Z</time>
      </trkpt>
      <trkpt lat="45.05143" lon="0.43477">
        <ele>136.8</ele>
        <time>2022-10-29T18:38:18Z</time>
      </trkpt>
      <trkpt lat="45.0514" lon="0.43472">
        <ele>137.2</ele>
        <time>2022-10-29T18:38:20Z</time>
      </trkpt>
      <trkpt lat="45.05139" lon="0.4347">
        <ele>137.3</ele>
        <time>2022-10-29T18:38:21Z</time>
      </trkpt>
      <trkpt lat="45.05138" lon="0.43468">
        <ele>137.4</ele>
        <time>2022-10-29T18:38:22Z</time>
      </trkpt>
      <trkpt lat="45.05136" lon="0.43465">
        <ele>137.6</ele>
        <time>2022-10-29T18:38:23Z</time>
      </trkpt>
      <trkpt lat="45.05135" lon="0.43463">
        <ele>137.8</ele>
        <time>2022-10-29T18:38:24Z</time>
      </trkpt>
      <trkpt lat="45.05132" lon="0.43458">
        <ele>138.1</ele>
        <time>2022-10-29T18:38:26Z</time>
      </trkpt>
      <trkpt lat="45.05128" lon="0.43452">
        <ele>138.5</ele>
        <time>2022-10-29T18:38:28Z</time>
      </trkpt>
      <trkpt lat="45.05126" lon="0.43448">
        <ele>138.7</ele>
        <time>2022-10-29T18:38:30Z</time>
      </trkpt>
      <trkpt lat="45.05122" lon="0.43442">
        <ele>139</ele>
        <time>2022-10-29T18:38:32Z</time>
      </trkpt>
      <trkpt lat="45.05121" lon="0.4344">
        <ele>139.2</ele>
        <time>2022-10-29T18:38:33Z</time>
      </trkpt>
      <trkpt lat="45.05119" lon="0.43437">
        <ele>139.4</ele>
        <time>2022-10-29T18:38:34Z</time>
      </trkpt>
      <trkpt lat="45.05116" lon="0.43432">
        <ele>139.6</ele>
        <time>2022-10-29T18:38:36Z</time>
      </trkpt>
      <trkpt lat="45.05102" lon="0.43438">
        <ele>140.8</ele>
        <time>2022-10-29T18:38:38Z</time>
      </trkpt>
      <trkpt lat="45.05101" lon="0.43441">
        <ele>140.9</ele>
        <time>2022-10-29T18:38:39Z</time>
      </trkpt>
      <trkpt lat="45.051" lon="0.43445">
        <ele>141</ele>
        <time>2022-10-29T18:38:40Z</time>
      </trkpt>
      <trkpt lat="45.05097" lon="0.43452">
        <ele>141.1</ele>
        <time>2022-10-29T18:38:42Z</time>
      </trkpt>
      <trkpt lat="45.05095" lon="0.4346">
        <ele>141.2</ele>
        <time>2022-10-29T18:38:44Z</time>
      </trkpt>
      <trkpt lat="45.05094" lon="0.43463">
        <ele>141.3</ele>
        <time>2022-10-29T18:38:45Z</time>
      </trkpt>
      <trkpt lat="45.05092" lon="0.43466">
        <ele>141.3</ele>
        <time>2022-10-29T18:38:46Z</time>
      </trkpt>
      <trkpt lat="45.0509" lon="0.43468">
        <ele>141.4</ele>
        <time>2022-10-29T18:38:47Z</time>
      </trkpt>
      <trkpt lat="45.05088" lon="0.43471">
        <ele>141.5</ele>
        <time>2022-10-29T18:38:48Z</time>
      </trkpt>
      <trkpt lat="45.05083" lon="0.43477">
        <ele>141.8</ele>
        <time>2022-10-29T18:38:50Z</time>
      </trkpt>
      <trkpt lat="45.05078" lon="0.43482">
        <ele>142.1</ele>
        <time>2022-10-29T18:38:52Z</time>
      </trkpt>
      <trkpt lat="45.05073" lon="0.43486">
        <ele>142.5</ele>
        <time>2022-10-29T18:38:54Z</time>
      </trkpt>
      <trkpt lat="45.05067" lon="0.43492">
        <ele>143.2</ele>
        <time>2022-10-29T18:38:56Z</time>
      </trkpt>
      <trkpt lat="45.05065" lon="0.43493">
        <ele>143.4</ele>
        <time>2022-10-29T18:38:57Z</time>
      </trkpt>
      <trkpt lat="45.05063" lon="0.43494">
        <ele>143.7</ele>
        <time>2022-10-29T18:38:58Z</time>
      </trkpt>
      <trkpt lat="45.05058" lon="0.43496">
        <ele>144.3</ele>
        <time>2022-10-29T18:39:00Z</time>
      </trkpt>
      <trkpt lat="45.05053" lon="0.43498">
        <ele>144.9</ele>
        <time>2022-10-29T18:39:02Z</time>
      </trkpt>
      <trkpt lat="45.05052" lon="0.43498">
        <ele>145.1</ele>
        <time>2022-10-29T18:39:03Z</time>
      </trkpt>
      <trkpt lat="45.0505" lon="0.43499">
        <ele>145.3</ele>
        <time>2022-10-29T18:39:04Z</time>
      </trkpt>
      <trkpt lat="45.05046" lon="0.435">
        <ele>145.8</ele>
        <time>2022-10-29T18:39:06Z</time>
      </trkpt>
      <trkpt lat="45.05042" lon="0.43502">
        <ele>146.4</ele>
        <time>2022-10-29T18:39:08Z</time>
      </trkpt>
      <trkpt lat="45.0504" lon="0.43503">
        <ele>146.7</ele>
        <time>2022-10-29T18:39:09Z</time>
      </trkpt>
      <trkpt lat="45.05038" lon="0.43503">
        <ele>146.9</ele>
        <time>2022-10-29T18:39:10Z</time>
      </trkpt>
      <trkpt lat="45.05034" lon="0.43505">
        <ele>147.6</ele>
        <time>2022-10-29T18:39:12Z</time>
      </trkpt>
      <trkpt lat="45.05031" lon="0.43506">
        <ele>148</ele>
        <time>2022-10-29T18:39:14Z</time>
      </trkpt>
      <trkpt lat="45.05026" lon="0.43508">
        <ele>148.6</ele>
        <time>2022-10-29T18:39:16Z</time>
      </trkpt>
      <trkpt lat="45.05022" lon="0.4351">
        <ele>149.1</ele>
        <time>2022-10-29T18:39:18Z</time>
      </trkpt>
      <trkpt lat="45.0502" lon="0.4351">
        <ele>149.3</ele>
        <time>2022-10-29T18:39:19Z</time>
      </trkpt>
      <trkpt lat="45.05018" lon="0.43511">
        <ele>149.5</ele>
        <time>2022-10-29T18:39:20Z</time>
      </trkpt>
      <trkpt lat="45.05014" lon="0.43513">
        <ele>150.1</ele>
        <time>2022-10-29T18:39:22Z</time>
      </trkpt>
      <trkpt lat="45.0501" lon="0.43514">
        <ele>150.5</ele>
        <time>2022-10-29T18:39:24Z</time>
      </trkpt>
      <trkpt lat="45.05004" lon="0.43519">
        <ele>151.1</ele>
        <time>2022-10-29T18:39:26Z</time>
      </trkpt>
      <trkpt lat="45.05002" lon="0.43521">
        <ele>151.6</ele>
        <time>2022-10-29T18:39:28Z</time>
      </trkpt>
      <trkpt lat="45.05" lon="0.43524">
        <ele>151.6</ele>
        <time>2022-10-29T18:39:29Z</time>
      </trkpt>
      <trkpt lat="45.05" lon="0.43527">
        <ele>151.6</ele>
        <time>2022-10-29T18:39:30Z</time>
      </trkpt>
      <trkpt lat="45.04999" lon="0.43534">
        <ele>151.7</ele>
        <time>2022-10-29T18:39:32Z</time>
      </trkpt>
      <trkpt lat="45.04997" lon="0.4354">
        <ele>151.9</ele>
        <time>2022-10-29T18:39:34Z</time>
      </trkpt>
      <trkpt lat="45.04994" lon="0.43547">
        <ele>152.2</ele>
        <time>2022-10-29T18:39:36Z</time>
      </trkpt>
      <trkpt lat="45.04993" lon="0.4355">
        <ele>152.3</ele>
        <time>2022-10-29T18:39:37Z</time>
      </trkpt>
      <trkpt lat="45.04993" lon="0.43552">
        <ele>152.3</ele>
        <time>2022-10-29T18:39:38Z</time>
      </trkpt>
      <trkpt lat="45.04991" lon="0.43555">
        <ele>152.4</ele>
        <time>2022-10-29T18:39:39Z</time>
      </trkpt>
      <trkpt lat="45.0499" lon="0.43558">
        <ele>152.5</ele>
        <time>2022-10-29T18:39:40Z</time>
      </trkpt>
      <trkpt lat="45.04988" lon="0.43562">
        <ele>152.7</ele>
        <time>2022-10-29T18:39:42Z</time>
      </trkpt>
      <trkpt lat="45.04987" lon="0.43567">
        <ele>152.8</ele>
        <time>2022-10-29T18:39:44Z</time>
      </trkpt>
      <trkpt lat="45.04986" lon="0.43569">
        <ele>152.9</ele>
        <time>2022-10-29T18:39:45Z</time>
      </trkpt>
      <trkpt lat="45.04985" lon="0.43571">
        <ele>153</ele>
        <time>2022-10-29T18:39:46Z</time>
      </trkpt>
      <trkpt lat="45.04983" lon="0.43574">
        <ele>153.1</ele>
        <time>2022-10-29T18:39:47Z</time>
      </trkpt>
      <trkpt lat="45.04982" lon="0.43576">
        <ele>153.1</ele>
        <time>2022-10-29T18:39:48Z</time>
      </trkpt>
      <trkpt lat="45.0498" lon="0.43581">
        <ele>153.3</ele>
        <time>2022-10-29T18:39:50Z</time>
      </trkpt>
      <trkpt lat="45.04979" lon="0.43585">
        <ele>153.3</ele>
        <time>2022-10-29T18:39:51Z</time>
      </trkpt>
      <trkpt lat="45.04977" lon="0.43588">
        <ele>153.4</ele>
        <time>2022-10-29T18:39:52Z</time>
      </trkpt>
      <trkpt lat="45.04974" lon="0.43594">
        <ele>153.5</ele>
        <time>2022-10-29T18:39:54Z</time>
      </trkpt>
      <trkpt lat="45.04973" lon="0.43598">
        <ele>153.5</ele>
        <time>2022-10-29T18:39:55Z</time>
      </trkpt>
      <trkpt lat="45.04971" lon="0.43601">
        <ele>153.6</ele>
        <time>2022-10-29T18:39:56Z</time>
      </trkpt>
      <trkpt lat="45.04967" lon="0.43608">
        <ele>153.6</ele>
        <time>2022-10-29T18:39:58Z</time>
      </trkpt>
      <trkpt lat="45.04965" lon="0.43612">
        <ele>153.6</ele>
        <time>2022-10-29T18:39:59Z</time>
      </trkpt>
      <trkpt lat="45.04964" lon="0.43616">
        <ele>153.6</ele>
        <time>2022-10-29T18:40:00Z</time>
      </trkpt>
      <trkpt lat="45.04961" lon="0.43621">
        <ele>153.6</ele>
        <time>2022-10-29T18:40:02Z</time>
      </trkpt>
      <trkpt lat="45.04958" lon="0.43625">
        <ele>153.5</ele>
        <time>2022-10-29T18:40:03Z</time>
      </trkpt>
      <trkpt lat="45.04956" lon="0.4363">
        <ele>153.5</ele>
        <time>2022-10-29T18:40:04Z</time>
      </trkpt>
      <trkpt lat="45.04952" lon="0.43637">
        <ele>153.4</ele>
        <time>2022-10-29T18:40:06Z</time>
      </trkpt>
      <trkpt lat="45.04951" lon="0.4364">
        <ele>153.4</ele>
        <time>2022-10-29T18:40:07Z</time>
      </trkpt>
      <trkpt lat="45.04949" lon="0.43643">
        <ele>153.3</ele>
        <time>2022-10-29T18:40:08Z</time>
      </trkpt>
      <trkpt lat="45.04944" lon="0.43653">
        <ele>153.1</ele>
        <time>2022-10-29T18:40:10Z</time>
      </trkpt>
      <trkpt lat="45.04942" lon="0.43657">
        <ele>152.9</ele>
        <time>2022-10-29T18:40:11Z</time>
      </trkpt>
      <trkpt lat="45.04939" lon="0.43662">
        <ele>152.7</ele>
        <time>2022-10-29T18:40:12Z</time>
      </trkpt>
      <trkpt lat="45.04932" lon="0.43671">
        <ele>152.2</ele>
        <time>2022-10-29T18:40:14Z</time>
      </trkpt>
      <trkpt lat="45.04928" lon="0.43675">
        <ele>151.9</ele>
        <time>2022-10-29T18:40:15Z</time>
      </trkpt>
      <trkpt lat="45.04922" lon="0.43677">
        <ele>151.6</ele>
        <time>2022-10-29T18:40:16Z</time>
      </trkpt>
      <trkpt lat="45.04911" lon="0.43683">
        <ele>151.2</ele>
        <time>2022-10-29T18:40:18Z</time>
      </trkpt>
      <trkpt lat="45.04905" lon="0.43684">
        <ele>151</ele>
        <time>2022-10-29T18:40:19Z</time>
      </trkpt>
      <trkpt lat="45.049" lon="0.43684">
        <ele>150.9</ele>
        <time>2022-10-29T18:40:20Z</time>
      </trkpt>
      <trkpt lat="45.04895" lon="0.43683">
        <ele>150.9</ele>
        <time>2022-10-29T18:40:21Z</time>
      </trkpt>
      <trkpt lat="45.0489" lon="0.43681">
        <ele>150.9</ele>
        <time>2022-10-29T18:40:22Z</time>
      </trkpt>
      <trkpt lat="45.04886" lon="0.4368">
        <ele>150.9</ele>
        <time>2022-10-29T18:40:23Z</time>
      </trkpt>
      <trkpt lat="45.04882" lon="0.43679">
        <ele>150.9</ele>
        <time>2022-10-29T18:40:24Z</time>
      </trkpt>
      <trkpt lat="45.04871" lon="0.43673">
        <ele>151</ele>
        <time>2022-10-29T18:40:26Z</time>
      </trkpt>
      <trkpt lat="45.04866" lon="0.43663">
        <ele>151</ele>
        <time>2022-10-29T18:40:28Z</time>
      </trkpt>
      <trkpt lat="45.04861" lon="0.43654">
        <ele>151</ele>
        <time>2022-10-29T18:40:30Z</time>
      </trkpt>
      <trkpt lat="45.04858" lon="0.43649">
        <ele>151</ele>
        <time>2022-10-29T18:40:31Z</time>
      </trkpt>
      <trkpt lat="45.04855" lon="0.43643">
        <ele>151</ele>
        <time>2022-10-29T18:40:32Z</time>
      </trkpt>
      <trkpt lat="45.04849" lon="0.43633">
        <ele>151.2</ele>
        <time>2022-10-29T18:40:34Z</time>
      </trkpt>
      <trkpt lat="45.04842" lon="0.43622">
        <ele>151.5</ele>
        <time>2022-10-29T18:40:36Z</time>
      </trkpt>
      <trkpt lat="45.04835" lon="0.43615">
        <ele>151.9</ele>
        <time>2022-10-29T18:40:38Z</time>
      </trkpt>
      <trkpt lat="45.04828" lon="0.43608">
        <ele>152.3</ele>
        <time>2022-10-29T18:40:40Z</time>
      </trkpt>
      <trkpt lat="45.04821" lon="0.43601">
        <ele>152.6</ele>
        <time>2022-10-29T18:40:42Z</time>
      </trkpt>
      <trkpt lat="45.04818" lon="0.43597">
        <ele>152.7</ele>
        <time>2022-10-29T18:40:43Z</time>
      </trkpt>
      <trkpt lat="45.04814" lon="0.43593">
        <ele>152.8</ele>
        <time>2022-10-29T18:40:44Z</time>
      </trkpt>
      <trkpt lat="45.04807" lon="0.43586">
        <ele>153</ele>
        <time>2022-10-29T18:40:46Z</time>
      </trkpt>
      <trkpt lat="45.048" lon="0.43578">
        <ele>153.1</ele>
        <time>2022-10-29T18:40:48Z</time>
      </trkpt>
      <trkpt lat="45.04796" lon="0.43575">
        <ele>153.1</ele>
        <time>2022-10-29T18:40:49Z</time>
      </trkpt>
      <trkpt lat="45.04793" lon="0.43572">
        <ele>153.1</ele>
        <time>2022-10-29T18:40:50Z</time>
      </trkpt>
      <trkpt lat="45.04789" lon="0.43568">
        <ele>153.1</ele>
        <time>2022-10-29T18:40:51Z</time>
      </trkpt>
      <trkpt lat="45.04785" lon="0.43564">
        <ele>153</ele>
        <time>2022-10-29T18:40:52Z</time>
      </trkpt>
      <trkpt lat="45.04782" lon="0.4356">
        <ele>152.9</ele>
        <time>2022-10-29T18:40:53Z</time>
      </trkpt>
      <trkpt lat="45.04779" lon="0.43557">
        <ele>152.8</ele>
        <time>2022-10-29T18:40:54Z</time>
      </trkpt>
      <trkpt lat="45.04773" lon="0.4355">
        <ele>152.2</ele>
        <time>2022-10-29T18:40:56Z</time>
      </trkpt>
      <trkpt lat="45.04769" lon="0.43546">
        <ele>151.9</ele>
        <time>2022-10-29T18:40:57Z</time>
      </trkpt>
      <trkpt lat="45.04765" lon="0.43541">
        <ele>151.4</ele>
        <time>2022-10-29T18:40:58Z</time>
      </trkpt>
      <trkpt lat="45.04761" lon="0.43536">
        <ele>150.9</ele>
        <time>2022-10-29T18:40:59Z</time>
      </trkpt>
      <trkpt lat="45.04756" lon="0.43531">
        <ele>150.4</ele>
        <time>2022-10-29T18:41:00Z</time>
      </trkpt>
      <trkpt lat="45.04745" lon="0.43519">
        <ele>149.4</ele>
        <time>2022-10-29T18:41:02Z</time>
      </trkpt>
      <trkpt lat="45.04739" lon="0.43513">
        <ele>149.1</ele>
        <time>2022-10-29T18:41:03Z</time>
      </trkpt>
      <trkpt lat="45.04734" lon="0.43507">
        <ele>148.9</ele>
        <time>2022-10-29T18:41:04Z</time>
      </trkpt>
      <trkpt lat="45.04724" lon="0.43495">
        <ele>148.9</ele>
        <time>2022-10-29T18:41:06Z</time>
      </trkpt>
      <trkpt lat="45.04714" lon="0.43485">
        <ele>149</ele>
        <time>2022-10-29T18:41:08Z</time>
      </trkpt>
      <trkpt lat="45.04705" lon="0.43474">
        <ele>148.8</ele>
        <time>2022-10-29T18:41:10Z</time>
      </trkpt>
      <trkpt lat="45.04697" lon="0.43462">
        <ele>148.1</ele>
        <time>2022-10-29T18:41:12Z</time>
      </trkpt>
      <trkpt lat="45.04692" lon="0.43456">
        <ele>147.7</ele>
        <time>2022-10-29T18:41:13Z</time>
      </trkpt>
      <trkpt lat="45.04688" lon="0.43449">
        <ele>147.3</ele>
        <time>2022-10-29T18:41:14Z</time>
      </trkpt>
      <trkpt lat="45.04679" lon="0.43436">
        <ele>146.5</ele>
        <time>2022-10-29T18:41:16Z</time>
      </trkpt>
      <trkpt lat="45.04669" lon="0.43423">
        <ele>146</ele>
        <time>2022-10-29T18:41:18Z</time>
      </trkpt>
      <trkpt lat="45.04661" lon="0.43411">
        <ele>145.8</ele>
        <time>2022-10-29T18:41:20Z</time>
      </trkpt>
      <trkpt lat="45.04655" lon="0.43397">
        <ele>145.7</ele>
        <time>2022-10-29T18:41:22Z</time>
      </trkpt>
      <trkpt lat="45.0465" lon="0.43383">
        <ele>145.4</ele>
        <time>2022-10-29T18:41:24Z</time>
      </trkpt>
      <trkpt lat="45.04647" lon="0.43373">
        <ele>145.2</ele>
        <time>2022-10-29T18:41:26Z</time>
      </trkpt>
      <trkpt lat="45.04645" lon="0.43369">
        <ele>145.1</ele>
        <time>2022-10-29T18:41:27Z</time>
      </trkpt>
      <trkpt lat="45.04643" lon="0.43365">
        <ele>144.9</ele>
        <time>2022-10-29T18:41:28Z</time>
      </trkpt>
      <trkpt lat="45.04642" lon="0.4336">
        <ele>144.8</ele>
        <time>2022-10-29T18:41:29Z</time>
      </trkpt>
      <trkpt lat="45.04639" lon="0.4335">
        <ele>144.6</ele>
        <time>2022-10-29T18:41:30Z</time>
      </trkpt>
      <trkpt lat="45.04639" lon="0.43342">
        <ele>144.5</ele>
        <time>2022-10-29T18:41:31Z</time>
      </trkpt>
      <trkpt lat="45.04639" lon="0.43335">
        <ele>144.4</ele>
        <time>2022-10-29T18:41:32Z</time>
      </trkpt>
      <trkpt lat="45.04639" lon="0.43328">
        <ele>144.4</ele>
        <time>2022-10-29T18:41:33Z</time>
      </trkpt>
      <trkpt lat="45.04639" lon="0.43321">
        <ele>144.2</ele>
        <time>2022-10-29T18:41:34Z</time>
      </trkpt>
      <trkpt lat="45.04639" lon="0.43307">
        <ele>143.8</ele>
        <time>2022-10-29T18:41:36Z</time>
      </trkpt>
      <trkpt lat="45.04639" lon="0.43291">
        <ele>143.1</ele>
        <time>2022-10-29T18:41:38Z</time>
      </trkpt>
      <trkpt lat="45.04639" lon="0.43283">
        <ele>142.7</ele>
        <time>2022-10-29T18:41:39Z</time>
      </trkpt>
      <trkpt lat="45.04639" lon="0.43275">
        <ele>142.2</ele>
        <time>2022-10-29T18:41:40Z</time>
      </trkpt>
      <trkpt lat="45.04639" lon="0.43266">
        <ele>141.8</ele>
        <time>2022-10-29T18:41:41Z</time>
      </trkpt>
      <trkpt lat="45.04638" lon="0.43257">
        <ele>141.3</ele>
        <time>2022-10-29T18:41:42Z</time>
      </trkpt>
      <trkpt lat="45.04638" lon="0.43249">
        <ele>140.9</ele>
        <time>2022-10-29T18:41:43Z</time>
      </trkpt>
      <trkpt lat="45.04637" lon="0.43241">
        <ele>140.5</ele>
        <time>2022-10-29T18:41:44Z</time>
      </trkpt>
      <trkpt lat="45.04636" lon="0.43233">
        <ele>140.2</ele>
        <time>2022-10-29T18:41:45Z</time>
      </trkpt>
      <trkpt lat="45.04635" lon="0.43224">
        <ele>140</ele>
        <time>2022-10-29T18:41:46Z</time>
      </trkpt>
      <trkpt lat="45.04633" lon="0.43213">
        <ele>140</ele>
        <time>2022-10-29T18:41:47Z</time>
      </trkpt>
      <trkpt lat="45.04632" lon="0.43205">
        <ele>140.3</ele>
        <time>2022-10-29T18:41:48Z</time>
      </trkpt>
      <trkpt lat="45.0463" lon="0.43197">
        <ele>140.6</ele>
        <time>2022-10-29T18:41:49Z</time>
      </trkpt>
      <trkpt lat="45.04629" lon="0.4319">
        <ele>141.1</ele>
        <time>2022-10-29T18:41:50Z</time>
      </trkpt>
      <trkpt lat="45.04629" lon="0.43187">
        <ele>141.3</ele>
        <time>2022-10-29T18:41:51Z</time>
      </trkpt>
      <trkpt lat="45.0463" lon="0.43182">
        <ele>141.7</ele>
        <time>2022-10-29T18:41:52Z</time>
      </trkpt>
      <trkpt lat="45.04631" lon="0.43176">
        <ele>142.1</ele>
        <time>2022-10-29T18:41:53Z</time>
      </trkpt>
      <trkpt lat="45.04632" lon="0.43171">
        <ele>142.6</ele>
        <time>2022-10-29T18:41:54Z</time>
      </trkpt>
      <trkpt lat="45.04634" lon="0.43162">
        <ele>143.2</ele>
        <time>2022-10-29T18:41:56Z</time>
      </trkpt>
      <trkpt lat="45.04634" lon="0.43158">
        <ele>143.6</ele>
        <time>2022-10-29T18:41:57Z</time>
      </trkpt>
      <trkpt lat="45.04635" lon="0.43153">
        <ele>143.9</ele>
        <time>2022-10-29T18:41:58Z</time>
      </trkpt>
      <trkpt lat="45.04637" lon="0.43144">
        <ele>144.4</ele>
        <time>2022-10-29T18:42:00Z</time>
      </trkpt>
      <trkpt lat="45.04639" lon="0.43135">
        <ele>144.8</ele>
        <time>2022-10-29T18:42:02Z</time>
      </trkpt>
      <trkpt lat="45.04641" lon="0.43127">
        <ele>145.1</ele>
        <time>2022-10-29T18:42:04Z</time>
      </trkpt>
      <trkpt lat="45.04643" lon="0.43117">
        <ele>145.4</ele>
        <time>2022-10-29T18:42:06Z</time>
      </trkpt>
      <trkpt lat="45.04643" lon="0.43109">
        <ele>145.6</ele>
        <time>2022-10-29T18:42:08Z</time>
      </trkpt>
      <trkpt lat="45.04643" lon="0.43099">
        <ele>145.8</ele>
        <time>2022-10-29T18:42:10Z</time>
      </trkpt>
      <trkpt lat="45.04643" lon="0.43089">
        <ele>146</ele>
        <time>2022-10-29T18:42:12Z</time>
      </trkpt>
      <trkpt lat="45.04642" lon="0.43079">
        <ele>146.1</ele>
        <time>2022-10-29T18:42:14Z</time>
      </trkpt>
      <trkpt lat="45.04642" lon="0.43068">
        <ele>146.2</ele>
        <time>2022-10-29T18:42:16Z</time>
      </trkpt>
      <trkpt lat="45.04639" lon="0.43053">
        <ele>146.2</ele>
        <time>2022-10-29T18:42:18Z</time>
      </trkpt>
      <trkpt lat="45.04635" lon="0.43042">
        <ele>146</ele>
        <time>2022-10-29T18:42:20Z</time>
      </trkpt>
      <trkpt lat="45.04631" lon="0.4303">
        <ele>145.6</ele>
        <time>2022-10-29T18:42:22Z</time>
      </trkpt>
      <trkpt lat="45.04628" lon="0.4302">
        <ele>145.3</ele>
        <time>2022-10-29T18:42:24Z</time>
      </trkpt>
      <trkpt lat="45.04626" lon="0.43016">
        <ele>145.1</ele>
        <time>2022-10-29T18:42:25Z</time>
      </trkpt>
      <trkpt lat="45.04625" lon="0.4301">
        <ele>144.9</ele>
        <time>2022-10-29T18:42:26Z</time>
      </trkpt>
      <trkpt lat="45.04623" lon="0.43005">
        <ele>144.7</ele>
        <time>2022-10-29T18:42:27Z</time>
      </trkpt>
      <trkpt lat="45.04621" lon="0.43001">
        <ele>144.5</ele>
        <time>2022-10-29T18:42:28Z</time>
      </trkpt>
      <trkpt lat="45.04618" lon="0.4299">
        <ele>144.2</ele>
        <time>2022-10-29T18:42:29Z</time>
      </trkpt>
      <trkpt lat="45.04618" lon="0.4299">
        <ele>144.2</ele>
        <time>2022-10-29T18:42:30Z</time>
      </trkpt>
      <trkpt lat="45.04611" lon="0.42994">
        <ele>144</ele>
        <time>2022-10-29T18:42:32Z</time>
      </trkpt>
      <trkpt lat="45.04607" lon="0.42996">
        <ele>143.9</ele>
        <time>2022-10-29T18:42:33Z</time>
      </trkpt>
      <trkpt lat="45.04602" lon="0.42998">
        <ele>143.8</ele>
        <time>2022-10-29T18:42:34Z</time>
      </trkpt>
      <trkpt lat="45.04594" lon="0.43001">
        <ele>143.8</ele>
        <time>2022-10-29T18:42:36Z</time>
      </trkpt>
      <trkpt lat="45.04586" lon="0.43003">
        <ele>143.8</ele>
        <time>2022-10-29T18:42:38Z</time>
      </trkpt>
      <trkpt lat="45.04579" lon="0.43005">
        <ele>143.8</ele>
        <time>2022-10-29T18:42:40Z</time>
      </trkpt>
      <trkpt lat="45.0457" lon="0.43009">
        <ele>144.4</ele>
        <time>2022-10-29T18:42:42Z</time>
      </trkpt>
      <trkpt lat="45.04566" lon="0.43012">
        <ele>144.7</ele>
        <time>2022-10-29T18:42:43Z</time>
      </trkpt>
      <trkpt lat="45.04563" lon="0.43013">
        <ele>145</ele>
        <time>2022-10-29T18:42:44Z</time>
      </trkpt>
      <trkpt lat="45.04557" lon="0.43017">
        <ele>145.5</ele>
        <time>2022-10-29T18:42:46Z</time>
      </trkpt>
      <trkpt lat="45.04554" lon="0.43019">
        <ele>145.7</ele>
        <time>2022-10-29T18:42:47Z</time>
      </trkpt>
      <trkpt lat="45.04552" lon="0.43021">
        <ele>146</ele>
        <time>2022-10-29T18:42:48Z</time>
      </trkpt>
      <trkpt lat="45.04546" lon="0.43026">
        <ele>146.5</ele>
        <time>2022-10-29T18:42:50Z</time>
      </trkpt>
      <trkpt lat="45.04541" lon="0.43031">
        <ele>147</ele>
        <time>2022-10-29T18:42:52Z</time>
      </trkpt>
      <trkpt lat="45.04538" lon="0.43032">
        <ele>147.2</ele>
        <time>2022-10-29T18:42:53Z</time>
      </trkpt>
      <trkpt lat="45.04535" lon="0.43034">
        <ele>147.4</ele>
        <time>2022-10-29T18:42:54Z</time>
      </trkpt>
      <trkpt lat="45.0453" lon="0.43037">
        <ele>147.7</ele>
        <time>2022-10-29T18:42:56Z</time>
      </trkpt>
      <trkpt lat="45.04524" lon="0.4304">
        <ele>148.1</ele>
        <time>2022-10-29T18:42:58Z</time>
      </trkpt>
      <trkpt lat="45.04517" lon="0.43043">
        <ele>148.4</ele>
        <time>2022-10-29T18:43:00Z</time>
      </trkpt>
      <trkpt lat="45.04511" lon="0.43044">
        <ele>148.6</ele>
        <time>2022-10-29T18:43:02Z</time>
      </trkpt>
      <trkpt lat="45.04505" lon="0.43046">
        <ele>148.9</ele>
        <time>2022-10-29T18:43:04Z</time>
      </trkpt>
      <trkpt lat="45.04499" lon="0.43047">
        <ele>149.1</ele>
        <time>2022-10-29T18:43:06Z</time>
      </trkpt>
      <trkpt lat="45.04492" lon="0.43048">
        <ele>149.3</ele>
        <time>2022-10-29T18:43:08Z</time>
      </trkpt>
      <trkpt lat="45.04485" lon="0.4305">
        <ele>149.4</ele>
        <time>2022-10-29T18:43:10Z</time>
      </trkpt>
      <trkpt lat="45.04481" lon="0.43051">
        <ele>149.5</ele>
        <time>2022-10-29T18:43:11Z</time>
      </trkpt>
      <trkpt lat="45.04478" lon="0.43051">
        <ele>149.5</ele>
        <time>2022-10-29T18:43:12Z</time>
      </trkpt>
      <trkpt lat="45.04471" lon="0.43053">
        <ele>149.6</ele>
        <time>2022-10-29T18:43:14Z</time>
      </trkpt>
      <trkpt lat="45.04464" lon="0.43055">
        <ele>149.7</ele>
        <time>2022-10-29T18:43:16Z</time>
      </trkpt>
      <trkpt lat="45.04456" lon="0.43056">
        <ele>149.7</ele>
        <time>2022-10-29T18:43:18Z</time>
      </trkpt>
      <trkpt lat="45.04448" lon="0.43058">
        <ele>149.7</ele>
        <time>2022-10-29T18:43:20Z</time>
      </trkpt>
      <trkpt lat="45.04441" lon="0.43061">
        <ele>149.7</ele>
        <time>2022-10-29T18:43:22Z</time>
      </trkpt>
      <trkpt lat="45.04433" lon="0.43063">
        <ele>149.6</ele>
        <time>2022-10-29T18:43:24Z</time>
      </trkpt>
      <trkpt lat="45.04423" lon="0.43066">
        <ele>149.5</ele>
        <time>2022-10-29T18:43:26Z</time>
      </trkpt>
      <trkpt lat="45.04414" lon="0.43069">
        <ele>149.5</ele>
        <time>2022-10-29T18:43:28Z</time>
      </trkpt>
      <trkpt lat="45.04404" lon="0.43071">
        <ele>149.4</ele>
        <time>2022-10-29T18:43:30Z</time>
      </trkpt>
      <trkpt lat="45.044" lon="0.43072">
        <ele>149.4</ele>
        <time>2022-10-29T18:43:31Z</time>
      </trkpt>
      <trkpt lat="45.04395" lon="0.43073">
        <ele>149.5</ele>
        <time>2022-10-29T18:43:32Z</time>
      </trkpt>
      <trkpt lat="45.04386" lon="0.43074">
        <ele>149.7</ele>
        <time>2022-10-29T18:43:34Z</time>
      </trkpt>
      <trkpt lat="45.04381" lon="0.43074">
        <ele>149.8</ele>
        <time>2022-10-29T18:43:35Z</time>
      </trkpt>
      <trkpt lat="45.04377" lon="0.43073">
        <ele>149.9</ele>
        <time>2022-10-29T18:43:36Z</time>
      </trkpt>
      <trkpt lat="45.04369" lon="0.43073">
        <ele>150</ele>
        <time>2022-10-29T18:43:38Z</time>
      </trkpt>
      <trkpt lat="45.04361" lon="0.43073">
        <ele>150.3</ele>
        <time>2022-10-29T18:43:40Z</time>
      </trkpt>
      <trkpt lat="45.04352" lon="0.43072">
        <ele>150.5</ele>
        <time>2022-10-29T18:43:42Z</time>
      </trkpt>
      <trkpt lat="45.04345" lon="0.43073">
        <ele>150.9</ele>
        <time>2022-10-29T18:43:44Z</time>
      </trkpt>
      <trkpt lat="45.04338" lon="0.43074">
        <ele>151.2</ele>
        <time>2022-10-29T18:43:46Z</time>
      </trkpt>
      <trkpt lat="45.04333" lon="0.43075">
        <ele>151.6</ele>
        <time>2022-10-29T18:43:48Z</time>
      </trkpt>
      <trkpt lat="45.04328" lon="0.43076">
        <ele>152</ele>
        <time>2022-10-29T18:43:50Z</time>
      </trkpt>
      <trkpt lat="45.04322" lon="0.43078">
        <ele>152.6</ele>
        <time>2022-10-29T18:43:52Z</time>
      </trkpt>
      <trkpt lat="45.04319" lon="0.4308">
        <ele>152.9</ele>
        <time>2022-10-29T18:43:53Z</time>
      </trkpt>
      <trkpt lat="45.04316" lon="0.43081">
        <ele>153.2</ele>
        <time>2022-10-29T18:43:54Z</time>
      </trkpt>
      <trkpt lat="45.04314" lon="0.43081">
        <ele>153.4</ele>
        <time>2022-10-29T18:43:55Z</time>
      </trkpt>
      <trkpt lat="45.04311" lon="0.43081">
        <ele>153.6</ele>
        <time>2022-10-29T18:43:56Z</time>
      </trkpt>
      <trkpt lat="45.04308" lon="0.43082">
        <ele>153.9</ele>
        <time>2022-10-29T18:43:57Z</time>
      </trkpt>
      <trkpt lat="45.04306" lon="0.43082">
        <ele>154.1</ele>
        <time>2022-10-29T18:43:58Z</time>
      </trkpt>
      <trkpt lat="45.04301" lon="0.43083">
        <ele>154.5</ele>
        <time>2022-10-29T18:44:00Z</time>
      </trkpt>
      <trkpt lat="45.04298" lon="0.43083">
        <ele>154.8</ele>
        <time>2022-10-29T18:44:02Z</time>
      </trkpt>
      <trkpt lat="45.04296" lon="0.43084">
        <ele>155</ele>
        <time>2022-10-29T18:44:04Z</time>
      </trkpt>
      <trkpt lat="45.04294" lon="0.43084">
        <ele>155.1</ele>
        <time>2022-10-29T18:44:05Z</time>
      </trkpt>
      <trkpt lat="45.0429" lon="0.43085">
        <ele>155.4</ele>
        <time>2022-10-29T18:44:06Z</time>
      </trkpt>
      <trkpt lat="45.04284" lon="0.43084">
        <ele>155.7</ele>
        <time>2022-10-29T18:44:08Z</time>
      </trkpt>
      <trkpt lat="45.04277" lon="0.43083">
        <ele>156</ele>
        <time>2022-10-29T18:44:10Z</time>
      </trkpt>
      <trkpt lat="45.04271" lon="0.43082">
        <ele>156.2</ele>
        <time>2022-10-29T18:44:12Z</time>
      </trkpt>
      <trkpt lat="45.04259" lon="0.43081">
        <ele>156.4</ele>
        <time>2022-10-29T18:44:14Z</time>
      </trkpt>
      <trkpt lat="45.04257" lon="0.43072">
        <ele>156.1</ele>
        <time>2022-10-29T18:44:16Z</time>
      </trkpt>
      <trkpt lat="45.04253" lon="0.43062">
        <ele>155.8</ele>
        <time>2022-10-29T18:44:18Z</time>
      </trkpt>
      <trkpt lat="45.0425" lon="0.43052">
        <ele>155.4</ele>
        <time>2022-10-29T18:44:20Z</time>
      </trkpt>
      <trkpt lat="45.04246" lon="0.4304">
        <ele>155</ele>
        <time>2022-10-29T18:44:22Z</time>
      </trkpt>
      <trkpt lat="45.04244" lon="0.43034">
        <ele>154.8</ele>
        <time>2022-10-29T18:44:23Z</time>
      </trkpt>
      <trkpt lat="45.04242" lon="0.43027">
        <ele>154.6</ele>
        <time>2022-10-29T18:44:24Z</time>
      </trkpt>
      <trkpt lat="45.0424" lon="0.43021">
        <ele>154.5</ele>
        <time>2022-10-29T18:44:25Z</time>
      </trkpt>
      <trkpt lat="45.04238" lon="0.43015">
        <ele>154.3</ele>
        <time>2022-10-29T18:44:26Z</time>
      </trkpt>
      <trkpt lat="45.04236" lon="0.43006">
        <ele>154.1</ele>
        <time>2022-10-29T18:44:27Z</time>
      </trkpt>
      <trkpt lat="45.04235" lon="0.42999">
        <ele>153.9</ele>
        <time>2022-10-29T18:44:28Z</time>
      </trkpt>
      <trkpt lat="45.04234" lon="0.42991">
        <ele>153.7</ele>
        <time>2022-10-29T18:44:29Z</time>
      </trkpt>
      <trkpt lat="45.04233" lon="0.42983">
        <ele>153.5</ele>
        <time>2022-10-29T18:44:30Z</time>
      </trkpt>
      <trkpt lat="45.04231" lon="0.42968">
        <ele>153.1</ele>
        <time>2022-10-29T18:44:32Z</time>
      </trkpt>
      <trkpt lat="45.04229" lon="0.4295">
        <ele>152.5</ele>
        <time>2022-10-29T18:44:34Z</time>
      </trkpt>
      <trkpt lat="45.0423" lon="0.42941">
        <ele>152.2</ele>
        <time>2022-10-29T18:44:35Z</time>
      </trkpt>
      <trkpt lat="45.0423" lon="0.42932">
        <ele>151.9</ele>
        <time>2022-10-29T18:44:36Z</time>
      </trkpt>
      <trkpt lat="45.0423" lon="0.42915">
        <ele>151.4</ele>
        <time>2022-10-29T18:44:38Z</time>
      </trkpt>
      <trkpt lat="45.04231" lon="0.42895">
        <ele>150.9</ele>
        <time>2022-10-29T18:44:40Z</time>
      </trkpt>
      <trkpt lat="45.04231" lon="0.42886">
        <ele>150.7</ele>
        <time>2022-10-29T18:44:41Z</time>
      </trkpt>
      <trkpt lat="45.04231" lon="0.42876">
        <ele>150.5</ele>
        <time>2022-10-29T18:44:42Z</time>
      </trkpt>
      <trkpt lat="45.04231" lon="0.42856">
        <ele>150.2</ele>
        <time>2022-10-29T18:44:44Z</time>
      </trkpt>
      <trkpt lat="45.04231" lon="0.42837">
        <ele>150</ele>
        <time>2022-10-29T18:44:46Z</time>
      </trkpt>
      <trkpt lat="45.0423" lon="0.42819">
        <ele>149.9</ele>
        <time>2022-10-29T18:44:48Z</time>
      </trkpt>
      <trkpt lat="45.04229" lon="0.4281">
        <ele>150</ele>
        <time>2022-10-29T18:44:49Z</time>
      </trkpt>
      <trkpt lat="45.04227" lon="0.42802">
        <ele>150</ele>
        <time>2022-10-29T18:44:50Z</time>
      </trkpt>
      <trkpt lat="45.04223" lon="0.42786">
        <ele>150.1</ele>
        <time>2022-10-29T18:44:52Z</time>
      </trkpt>
      <trkpt lat="45.04221" lon="0.42778">
        <ele>150.1</ele>
        <time>2022-10-29T18:44:53Z</time>
      </trkpt>
      <trkpt lat="45.04219" lon="0.4277">
        <ele>150.2</ele>
        <time>2022-10-29T18:44:54Z</time>
      </trkpt>
      <trkpt lat="45.04215" lon="0.42755">
        <ele>150.4</ele>
        <time>2022-10-29T18:44:56Z</time>
      </trkpt>
      <trkpt lat="45.04212" lon="0.42739">
        <ele>150.5</ele>
        <time>2022-10-29T18:44:58Z</time>
      </trkpt>
      <trkpt lat="45.04208" lon="0.42724">
        <ele>150.6</ele>
        <time>2022-10-29T18:45:00Z</time>
      </trkpt>
      <trkpt lat="45.04206" lon="0.42716">
        <ele>150.6</ele>
        <time>2022-10-29T18:45:01Z</time>
      </trkpt>
      <trkpt lat="45.04204" lon="0.42709">
        <ele>150.7</ele>
        <time>2022-10-29T18:45:02Z</time>
      </trkpt>
      <trkpt lat="45.04201" lon="0.42694">
        <ele>150.7</ele>
        <time>2022-10-29T18:45:04Z</time>
      </trkpt>
      <trkpt lat="45.04197" lon="0.4268">
        <ele>150.8</ele>
        <time>2022-10-29T18:45:06Z</time>
      </trkpt>
      <trkpt lat="45.04194" lon="0.42665">
        <ele>150.9</ele>
        <time>2022-10-29T18:45:08Z</time>
      </trkpt>
      <trkpt lat="45.0419" lon="0.42651">
        <ele>151</ele>
        <time>2022-10-29T18:45:10Z</time>
      </trkpt>
      <trkpt lat="45.04187" lon="0.42636">
        <ele>151.1</ele>
        <time>2022-10-29T18:45:12Z</time>
      </trkpt>
      <trkpt lat="45.04183" lon="0.42622">
        <ele>151.2</ele>
        <time>2022-10-29T18:45:14Z</time>
      </trkpt>
      <trkpt lat="45.04182" lon="0.42615">
        <ele>151.2</ele>
        <time>2022-10-29T18:45:15Z</time>
      </trkpt>
      <trkpt lat="45.0418" lon="0.42608">
        <ele>151.3</ele>
        <time>2022-10-29T18:45:16Z</time>
      </trkpt>
      <trkpt lat="45.04176" lon="0.42594">
        <ele>151.4</ele>
        <time>2022-10-29T18:45:18Z</time>
      </trkpt>
      <trkpt lat="45.04173" lon="0.4258">
        <ele>151.6</ele>
        <time>2022-10-29T18:45:20Z</time>
      </trkpt>
      <trkpt lat="45.04171" lon="0.42573">
        <ele>151.7</ele>
        <time>2022-10-29T18:45:21Z</time>
      </trkpt>
      <trkpt lat="45.04169" lon="0.42566">
        <ele>151.8</ele>
        <time>2022-10-29T18:45:22Z</time>
      </trkpt>
      <trkpt lat="45.04167" lon="0.42558">
        <ele>151.8</ele>
        <time>2022-10-29T18:45:23Z</time>
      </trkpt>
      <trkpt lat="45.04165" lon="0.42551">
        <ele>151.9</ele>
        <time>2022-10-29T18:45:24Z</time>
      </trkpt>
      <trkpt lat="45.04161" lon="0.42536">
        <ele>151.9</ele>
        <time>2022-10-29T18:45:26Z</time>
      </trkpt>
      <trkpt lat="45.04156" lon="0.42522">
        <ele>151.7</ele>
        <time>2022-10-29T18:45:28Z</time>
      </trkpt>
      <trkpt lat="45.04151" lon="0.42508">
        <ele>151.6</ele>
        <time>2022-10-29T18:45:30Z</time>
      </trkpt>
      <trkpt lat="45.04145" lon="0.42494">
        <ele>151.4</ele>
        <time>2022-10-29T18:45:32Z</time>
      </trkpt>
      <trkpt lat="45.04142" lon="0.42486">
        <ele>151.2</ele>
        <time>2022-10-29T18:45:33Z</time>
      </trkpt>
      <trkpt lat="45.04139" lon="0.42478">
        <ele>151.1</ele>
        <time>2022-10-29T18:45:34Z</time>
      </trkpt>
      <trkpt lat="45.04133" lon="0.42462">
        <ele>151</ele>
        <time>2022-10-29T18:45:36Z</time>
      </trkpt>
      <trkpt lat="45.04128" lon="0.42447">
        <ele>150.8</ele>
        <time>2022-10-29T18:45:38Z</time>
      </trkpt>
      <trkpt lat="45.04122" lon="0.42432">
        <ele>150.6</ele>
        <time>2022-10-29T18:45:40Z</time>
      </trkpt>
      <trkpt lat="45.04118" lon="0.42424">
        <ele>150.4</ele>
        <time>2022-10-29T18:45:41Z</time>
      </trkpt>
      <trkpt lat="45.04116" lon="0.42417">
        <ele>150.2</ele>
        <time>2022-10-29T18:45:42Z</time>
      </trkpt>
      <trkpt lat="45.04113" lon="0.4241">
        <ele>150</ele>
        <time>2022-10-29T18:45:43Z</time>
      </trkpt>
      <trkpt lat="45.0411" lon="0.42402">
        <ele>149.8</ele>
        <time>2022-10-29T18:45:44Z</time>
      </trkpt>
      <trkpt lat="45.04104" lon="0.42387">
        <ele>149.4</ele>
        <time>2022-10-29T18:45:46Z</time>
      </trkpt>
      <trkpt lat="45.04097" lon="0.42371">
        <ele>149</ele>
        <time>2022-10-29T18:45:48Z</time>
      </trkpt>
      <trkpt lat="45.04091" lon="0.42356">
        <ele>148.5</ele>
        <time>2022-10-29T18:45:50Z</time>
      </trkpt>
      <trkpt lat="45.04088" lon="0.42348">
        <ele>148.2</ele>
        <time>2022-10-29T18:45:51Z</time>
      </trkpt>
      <trkpt lat="45.04085" lon="0.42339">
        <ele>147.9</ele>
        <time>2022-10-29T18:45:52Z</time>
      </trkpt>
      <trkpt lat="45.04078" lon="0.42322">
        <ele>147.3</ele>
        <time>2022-10-29T18:45:54Z</time>
      </trkpt>
      <trkpt lat="45.04075" lon="0.42314">
        <ele>147</ele>
        <time>2022-10-29T18:45:55Z</time>
      </trkpt>
      <trkpt lat="45.04071" lon="0.42305">
        <ele>146.6</ele>
        <time>2022-10-29T18:45:56Z</time>
      </trkpt>
      <trkpt lat="45.04064" lon="0.42287">
        <ele>145.9</ele>
        <time>2022-10-29T18:45:58Z</time>
      </trkpt>
      <trkpt lat="45.04058" lon="0.42271">
        <ele>145.3</ele>
        <time>2022-10-29T18:46:00Z</time>
      </trkpt>
      <trkpt lat="45.04054" lon="0.42257">
        <ele>144.9</ele>
        <time>2022-10-29T18:46:02Z</time>
      </trkpt>
      <trkpt lat="45.04051" lon="0.42248">
        <ele>144.7</ele>
        <time>2022-10-29T18:46:04Z</time>
      </trkpt>
      <trkpt lat="45.04049" lon="0.42244">
        <ele>144.6</ele>
        <time>2022-10-29T18:46:06Z</time>
      </trkpt>
      <trkpt lat="45.04049" lon="0.42244">
        <ele>144.6</ele>
        <time>2022-10-29T18:46:08Z</time>
      </trkpt>
      <trkpt lat="45.04047" lon="0.42238">
        <ele>144.5</ele>
        <time>2022-10-29T18:49:05Z</time>
      </trkpt>
      <trkpt lat="45.04047" lon="0.42236">
        <ele>144.4</ele>
        <time>2022-10-29T18:49:06Z</time>
      </trkpt>
      <trkpt lat="45.04045" lon="0.42233">
        <ele>144.4</ele>
        <time>2022-10-29T18:49:07Z</time>
      </trkpt>
      <trkpt lat="45.04043" lon="0.42228">
        <ele>144.2</ele>
        <time>2022-10-29T18:49:08Z</time>
      </trkpt>
      <trkpt lat="45.0404" lon="0.42224">
        <ele>144.1</ele>
        <time>2022-10-29T18:49:09Z</time>
      </trkpt>
      <trkpt lat="45.04036" lon="0.42219">
        <ele>144</ele>
        <time>2022-10-29T18:49:10Z</time>
      </trkpt>
      <trkpt lat="45.04029" lon="0.42208">
        <ele>143.6</ele>
        <time>2022-10-29T18:49:12Z</time>
      </trkpt>
      <trkpt lat="45.04023" lon="0.42195">
        <ele>143.2</ele>
        <time>2022-10-29T18:49:14Z</time>
      </trkpt>
      <trkpt lat="45.04016" lon="0.42181">
        <ele>142.9</ele>
        <time>2022-10-29T18:49:16Z</time>
      </trkpt>
      <trkpt lat="45.0401" lon="0.42167">
        <ele>142.5</ele>
        <time>2022-10-29T18:49:18Z</time>
      </trkpt>
      <trkpt lat="45.04003" lon="0.42153">
        <ele>142.3</ele>
        <time>2022-10-29T18:49:20Z</time>
      </trkpt>
      <trkpt lat="45.04" lon="0.42146">
        <ele>142.1</ele>
        <time>2022-10-29T18:49:21Z</time>
      </trkpt>
      <trkpt lat="45.03998" lon="0.42138">
        <ele>142</ele>
        <time>2022-10-29T18:49:22Z</time>
      </trkpt>
      <trkpt lat="45.03988" lon="0.42124">
        <ele>141.7</ele>
        <time>2022-10-29T18:49:24Z</time>
      </trkpt>
      <trkpt lat="45.03982" lon="0.4212">
        <ele>141.5</ele>
        <time>2022-10-29T18:49:25Z</time>
      </trkpt>
      <trkpt lat="45.03977" lon="0.42115">
        <ele>141.3</ele>
        <time>2022-10-29T18:49:26Z</time>
      </trkpt>
      <trkpt lat="45.03966" lon="0.42105">
        <ele>141.1</ele>
        <time>2022-10-29T18:49:28Z</time>
      </trkpt>
      <trkpt lat="45.03955" lon="0.42094">
        <ele>140.9</ele>
        <time>2022-10-29T18:49:30Z</time>
      </trkpt>
      <trkpt lat="45.03951" lon="0.42086">
        <ele>140.8</ele>
        <time>2022-10-29T18:49:31Z</time>
      </trkpt>
      <trkpt lat="45.03947" lon="0.42078">
        <ele>140.8</ele>
        <time>2022-10-29T18:49:32Z</time>
      </trkpt>
      <trkpt lat="45.03939" lon="0.42063">
        <ele>140.7</ele>
        <time>2022-10-29T18:49:34Z</time>
      </trkpt>
      <trkpt lat="45.03936" lon="0.42056">
        <ele>140.6</ele>
        <time>2022-10-29T18:49:35Z</time>
      </trkpt>
      <trkpt lat="45.03932" lon="0.42048">
        <ele>140.5</ele>
        <time>2022-10-29T18:49:36Z</time>
      </trkpt>
      <trkpt lat="45.03928" lon="0.42042">
        <ele>140.5</ele>
        <time>2022-10-29T18:49:37Z</time>
      </trkpt>
      <trkpt lat="45.03924" lon="0.42036">
        <ele>140.4</ele>
        <time>2022-10-29T18:49:38Z</time>
      </trkpt>
      <trkpt lat="45.03916" lon="0.42025">
        <ele>140.3</ele>
        <time>2022-10-29T18:49:40Z</time>
      </trkpt>
      <trkpt lat="45.03907" lon="0.42013">
        <ele>140.2</ele>
        <time>2022-10-29T18:49:42Z</time>
      </trkpt>
      <trkpt lat="45.039" lon="0.42003">
        <ele>140.1</ele>
        <time>2022-10-29T18:49:44Z</time>
      </trkpt>
      <trkpt lat="45.03896" lon="0.41998">
        <ele>140.1</ele>
        <time>2022-10-29T18:49:45Z</time>
      </trkpt>
      <trkpt lat="45.03892" lon="0.41993">
        <ele>140.1</ele>
        <time>2022-10-29T18:49:46Z</time>
      </trkpt>
      <trkpt lat="45.03885" lon="0.41982">
        <ele>140.1</ele>
        <time>2022-10-29T18:49:48Z</time>
      </trkpt>
      <trkpt lat="45.03879" lon="0.41971">
        <ele>140.1</ele>
        <time>2022-10-29T18:49:50Z</time>
      </trkpt>
      <trkpt lat="45.03876" lon="0.41965">
        <ele>140.1</ele>
        <time>2022-10-29T18:49:51Z</time>
      </trkpt>
      <trkpt lat="45.03873" lon="0.41959">
        <ele>140.2</ele>
        <time>2022-10-29T18:49:52Z</time>
      </trkpt>
      <trkpt lat="45.0387" lon="0.41953">
        <ele>140.2</ele>
        <time>2022-10-29T18:49:53Z</time>
      </trkpt>
      <trkpt lat="45.03867" lon="0.41947">
        <ele>140.3</ele>
        <time>2022-10-29T18:49:54Z</time>
      </trkpt>
      <trkpt lat="45.03862" lon="0.41935">
        <ele>140.4</ele>
        <time>2022-10-29T18:49:56Z</time>
      </trkpt>
      <trkpt lat="45.03859" lon="0.41929">
        <ele>140.5</ele>
        <time>2022-10-29T18:49:57Z</time>
      </trkpt>
      <trkpt lat="45.03857" lon="0.41924">
        <ele>140.6</ele>
        <time>2022-10-29T18:49:58Z</time>
      </trkpt>
      <trkpt lat="45.03854" lon="0.41919">
        <ele>140.7</ele>
        <time>2022-10-29T18:49:59Z</time>
      </trkpt>
      <trkpt lat="45.03852" lon="0.41913">
        <ele>140.8</ele>
        <time>2022-10-29T18:50:00Z</time>
      </trkpt>
      <trkpt lat="45.03847" lon="0.41902">
        <ele>141.1</ele>
        <time>2022-10-29T18:50:02Z</time>
      </trkpt>
      <trkpt lat="45.03841" lon="0.41891">
        <ele>141.4</ele>
        <time>2022-10-29T18:50:04Z</time>
      </trkpt>
      <trkpt lat="45.03839" lon="0.41883">
        <ele>141.7</ele>
        <time>2022-10-29T18:50:05Z</time>
      </trkpt>
      <trkpt lat="45.03838" lon="0.41877">
        <ele>141.8</ele>
        <time>2022-10-29T18:50:06Z</time>
      </trkpt>
      <trkpt lat="45.03837" lon="0.41864">
        <ele>142.2</ele>
        <time>2022-10-29T18:50:08Z</time>
      </trkpt>
      <trkpt lat="45.03834" lon="0.41852">
        <ele>142.5</ele>
        <time>2022-10-29T18:50:10Z</time>
      </trkpt>
      <trkpt lat="45.03832" lon="0.41846">
        <ele>142.6</ele>
        <time>2022-10-29T18:50:11Z</time>
      </trkpt>
      <trkpt lat="45.03831" lon="0.4184">
        <ele>142.8</ele>
        <time>2022-10-29T18:50:12Z</time>
      </trkpt>
      <trkpt lat="45.03826" lon="0.41831">
        <ele>143</ele>
        <time>2022-10-29T18:50:14Z</time>
      </trkpt>
      <trkpt lat="45.03823" lon="0.41828">
        <ele>143.1</ele>
        <time>2022-10-29T18:50:15Z</time>
      </trkpt>
      <trkpt lat="45.0382" lon="0.41826">
        <ele>143.2</ele>
        <time>2022-10-29T18:50:16Z</time>
      </trkpt>
      <trkpt lat="45.03815" lon="0.41823">
        <ele>143.4</ele>
        <time>2022-10-29T18:50:17Z</time>
      </trkpt>
      <trkpt lat="45.03814" lon="0.41818">
        <ele>143.3</ele>
        <time>2022-10-29T18:50:18Z</time>
      </trkpt>
      <trkpt lat="45.03813" lon="0.41811">
        <ele>143.2</ele>
        <time>2022-10-29T18:50:19Z</time>
      </trkpt>
      <trkpt lat="45.0381" lon="0.41805">
        <ele>143.1</ele>
        <time>2022-10-29T18:50:20Z</time>
      </trkpt>
      <trkpt lat="45.03804" lon="0.41792">
        <ele>142.7</ele>
        <time>2022-10-29T18:50:22Z</time>
      </trkpt>
      <trkpt lat="45.03801" lon="0.41786">
        <ele>142.5</ele>
        <time>2022-10-29T18:50:23Z</time>
      </trkpt>
      <trkpt lat="45.03797" lon="0.41779">
        <ele>142.3</ele>
        <time>2022-10-29T18:50:24Z</time>
      </trkpt>
      <trkpt lat="45.03793" lon="0.41773">
        <ele>142.1</ele>
        <time>2022-10-29T18:50:25Z</time>
      </trkpt>
      <trkpt lat="45.0379" lon="0.41767">
        <ele>141.9</ele>
        <time>2022-10-29T18:50:26Z</time>
      </trkpt>
      <trkpt lat="45.03784" lon="0.41753">
        <ele>141.5</ele>
        <time>2022-10-29T18:50:28Z</time>
      </trkpt>
      <trkpt lat="45.03782" lon="0.41744">
        <ele>141.4</ele>
        <time>2022-10-29T18:50:29Z</time>
      </trkpt>
      <trkpt lat="45.0378" lon="0.41735">
        <ele>141.3</ele>
        <time>2022-10-29T18:50:30Z</time>
      </trkpt>
      <trkpt lat="45.03775" lon="0.41718">
        <ele>141.3</ele>
        <time>2022-10-29T18:50:32Z</time>
      </trkpt>
      <trkpt lat="45.03772" lon="0.4171">
        <ele>141.3</ele>
        <time>2022-10-29T18:50:33Z</time>
      </trkpt>
      <trkpt lat="45.0377" lon="0.41701">
        <ele>141.3</ele>
        <time>2022-10-29T18:50:34Z</time>
      </trkpt>
      <trkpt lat="45.03766" lon="0.41685">
        <ele>141.4</ele>
        <time>2022-10-29T18:50:36Z</time>
      </trkpt>
      <trkpt lat="45.03761" lon="0.41669">
        <ele>141.4</ele>
        <time>2022-10-29T18:50:38Z</time>
      </trkpt>
      <trkpt lat="45.03758" lon="0.41663">
        <ele>141.3</ele>
        <time>2022-10-29T18:50:39Z</time>
      </trkpt>
      <trkpt lat="45.03755" lon="0.41655">
        <ele>141.2</ele>
        <time>2022-10-29T18:50:40Z</time>
      </trkpt>
      <trkpt lat="45.03749" lon="0.41639">
        <ele>140.8</ele>
        <time>2022-10-29T18:50:42Z</time>
      </trkpt>
      <trkpt lat="45.03742" lon="0.41623">
        <ele>140.2</ele>
        <time>2022-10-29T18:50:44Z</time>
      </trkpt>
      <trkpt lat="45.03738" lon="0.41614">
        <ele>139.9</ele>
        <time>2022-10-29T18:50:45Z</time>
      </trkpt>
      <trkpt lat="45.03733" lon="0.41608">
        <ele>139.6</ele>
        <time>2022-10-29T18:50:46Z</time>
      </trkpt>
      <trkpt lat="45.03725" lon="0.41594">
        <ele>139.1</ele>
        <time>2022-10-29T18:50:48Z</time>
      </trkpt>
      <trkpt lat="45.03722" lon="0.41585">
        <ele>138.9</ele>
        <time>2022-10-29T18:50:49Z</time>
      </trkpt>
      <trkpt lat="45.03718" lon="0.41576">
        <ele>138.7</ele>
        <time>2022-10-29T18:50:50Z</time>
      </trkpt>
      <trkpt lat="45.03715" lon="0.41567">
        <ele>138.4</ele>
        <time>2022-10-29T18:50:51Z</time>
      </trkpt>
      <trkpt lat="45.0371" lon="0.41558">
        <ele>138.1</ele>
        <time>2022-10-29T18:50:52Z</time>
      </trkpt>
      <trkpt lat="45.03704" lon="0.41551">
        <ele>137.9</ele>
        <time>2022-10-29T18:50:53Z</time>
      </trkpt>
      <trkpt lat="45.03701" lon="0.41543">
        <ele>137.7</ele>
        <time>2022-10-29T18:50:54Z</time>
      </trkpt>
      <trkpt lat="45.03696" lon="0.41523">
        <ele>137.3</ele>
        <time>2022-10-29T18:50:56Z</time>
      </trkpt>
      <trkpt lat="45.03694" lon="0.41512">
        <ele>137.1</ele>
        <time>2022-10-29T18:50:57Z</time>
      </trkpt>
      <trkpt lat="45.03691" lon="0.41501">
        <ele>136.9</ele>
        <time>2022-10-29T18:50:58Z</time>
      </trkpt>
      <trkpt lat="45.03686" lon="0.41481">
        <ele>136.6</ele>
        <time>2022-10-29T18:51:00Z</time>
      </trkpt>
      <trkpt lat="45.0368" lon="0.41462">
        <ele>136.5</ele>
        <time>2022-10-29T18:51:02Z</time>
      </trkpt>
      <trkpt lat="45.03678" lon="0.41453">
        <ele>136.4</ele>
        <time>2022-10-29T18:51:03Z</time>
      </trkpt>
      <trkpt lat="45.03675" lon="0.41444">
        <ele>136.4</ele>
        <time>2022-10-29T18:51:04Z</time>
      </trkpt>
      <trkpt lat="45.03673" lon="0.41426">
        <ele>136.4</ele>
        <time>2022-10-29T18:51:06Z</time>
      </trkpt>
      <trkpt lat="45.03671" lon="0.4141">
        <ele>136.5</ele>
        <time>2022-10-29T18:51:08Z</time>
      </trkpt>
      <trkpt lat="45.0367" lon="0.41403">
        <ele>136.5</ele>
        <time>2022-10-29T18:51:09Z</time>
      </trkpt>
      <trkpt lat="45.03673" lon="0.41395">
        <ele>136.4</ele>
        <time>2022-10-29T18:51:10Z</time>
      </trkpt>
      <trkpt lat="45.03678" lon="0.41392">
        <ele>136.1</ele>
        <time>2022-10-29T18:51:11Z</time>
      </trkpt>
      <trkpt lat="45.03682" lon="0.41388">
        <ele>135.9</ele>
        <time>2022-10-29T18:51:12Z</time>
      </trkpt>
      <trkpt lat="45.03693" lon="0.4138">
        <ele>135.3</ele>
        <time>2022-10-29T18:51:14Z</time>
      </trkpt>
      <trkpt lat="45.03699" lon="0.41375">
        <ele>134.8</ele>
        <time>2022-10-29T18:51:15Z</time>
      </trkpt>
      <trkpt lat="45.03707" lon="0.4137">
        <ele>134.4</ele>
        <time>2022-10-29T18:51:16Z</time>
      </trkpt>
      <trkpt lat="45.03722" lon="0.41358">
        <ele>133.4</ele>
        <time>2022-10-29T18:51:18Z</time>
      </trkpt>
      <trkpt lat="45.0373" lon="0.41353">
        <ele>132.8</ele>
        <time>2022-10-29T18:51:19Z</time>
      </trkpt>
      <trkpt lat="45.03738" lon="0.41348">
        <ele>132.4</ele>
        <time>2022-10-29T18:51:20Z</time>
      </trkpt>
      <trkpt lat="45.03755" lon="0.41337">
        <ele>131.4</ele>
        <time>2022-10-29T18:51:22Z</time>
      </trkpt>
      <trkpt lat="45.03773" lon="0.41326">
        <ele>130.3</ele>
        <time>2022-10-29T18:51:24Z</time>
      </trkpt>
      <trkpt lat="45.03781" lon="0.41321">
        <ele>129.8</ele>
        <time>2022-10-29T18:51:25Z</time>
      </trkpt>
      <trkpt lat="45.0379" lon="0.41316">
        <ele>129.3</ele>
        <time>2022-10-29T18:51:26Z</time>
      </trkpt>
      <trkpt lat="45.03805" lon="0.41307">
        <ele>128.5</ele>
        <time>2022-10-29T18:51:28Z</time>
      </trkpt>
      <trkpt lat="45.03819" lon="0.41298">
        <ele>127.9</ele>
        <time>2022-10-29T18:51:30Z</time>
      </trkpt>
      <trkpt lat="45.03824" lon="0.41295">
        <ele>127.6</ele>
        <time>2022-10-29T18:51:31Z</time>
      </trkpt>
      <trkpt lat="45.03829" lon="0.41292">
        <ele>127.5</ele>
        <time>2022-10-29T18:51:32Z</time>
      </trkpt>
      <trkpt lat="45.03833" lon="0.41284">
        <ele>127.2</ele>
        <time>2022-10-29T18:51:33Z</time>
      </trkpt>
      <trkpt lat="45.03832" lon="0.41279">
        <ele>127.1</ele>
        <time>2022-10-29T18:51:34Z</time>
      </trkpt>
      <trkpt lat="45.0383" lon="0.41271">
        <ele>127</ele>
        <time>2022-10-29T18:51:35Z</time>
      </trkpt>
      <trkpt lat="45.0383" lon="0.41262">
        <ele>126.8</ele>
        <time>2022-10-29T18:51:36Z</time>
      </trkpt>
      <trkpt lat="45.03831" lon="0.41253">
        <ele>126.7</ele>
        <time>2022-10-29T18:51:37Z</time>
      </trkpt>
      <trkpt lat="45.03832" lon="0.41244">
        <ele>126.5</ele>
        <time>2022-10-29T18:51:38Z</time>
      </trkpt>
      <trkpt lat="45.03832" lon="0.41225">
        <ele>126.2</ele>
        <time>2022-10-29T18:51:40Z</time>
      </trkpt>
      <trkpt lat="45.03832" lon="0.41216">
        <ele>126</ele>
        <time>2022-10-29T18:51:41Z</time>
      </trkpt>
      <trkpt lat="45.03832" lon="0.41206">
        <ele>125.6</ele>
        <time>2022-10-29T18:51:42Z</time>
      </trkpt>
      <trkpt lat="45.03829" lon="0.41198">
        <ele>125.2</ele>
        <time>2022-10-29T18:51:43Z</time>
      </trkpt>
      <trkpt lat="45.03828" lon="0.41189">
        <ele>124.5</ele>
        <time>2022-10-29T18:51:44Z</time>
      </trkpt>
      <trkpt lat="45.03829" lon="0.41181">
        <ele>123.9</ele>
        <time>2022-10-29T18:51:45Z</time>
      </trkpt>
      <trkpt lat="45.03831" lon="0.41176">
        <ele>123.5</ele>
        <time>2022-10-29T18:51:46Z</time>
      </trkpt>
      <trkpt lat="45.03834" lon="0.41175">
        <ele>123.1</ele>
        <time>2022-10-29T18:51:47Z</time>
      </trkpt>
      <trkpt lat="45.03839" lon="0.41175">
        <ele>122.6</ele>
        <time>2022-10-29T18:51:48Z</time>
      </trkpt>
      <trkpt lat="45.03844" lon="0.41175">
        <ele>122</ele>
        <time>2022-10-29T18:51:49Z</time>
      </trkpt>
      <trkpt lat="45.03851" lon="0.41174">
        <ele>121.2</ele>
        <time>2022-10-29T18:51:50Z</time>
      </trkpt>
      <trkpt lat="45.03855" lon="0.41162">
        <ele>120.1</ele>
        <time>2022-10-29T18:51:51Z</time>
      </trkpt>
      <trkpt lat="45.03856" lon="0.41153">
        <ele>119.4</ele>
        <time>2022-10-29T18:51:52Z</time>
      </trkpt>
      <trkpt lat="45.03857" lon="0.41142">
        <ele>118.6</ele>
        <time>2022-10-29T18:51:53Z</time>
      </trkpt>
      <trkpt lat="45.03858" lon="0.41132">
        <ele>118</ele>
        <time>2022-10-29T18:51:54Z</time>
      </trkpt>
      <trkpt lat="45.03862" lon="0.41108">
        <ele>117.5</ele>
        <time>2022-10-29T18:51:56Z</time>
      </trkpt>
      <trkpt lat="45.03864" lon="0.41097">
        <ele>117.7</ele>
        <time>2022-10-29T18:51:57Z</time>
      </trkpt>
      <trkpt lat="45.03866" lon="0.41086">
        <ele>117.9</ele>
        <time>2022-10-29T18:51:58Z</time>
      </trkpt>
      <trkpt lat="45.0387" lon="0.41077">
        <ele>118.1</ele>
        <time>2022-10-29T18:51:59Z</time>
      </trkpt>
      <trkpt lat="45.03874" lon="0.4107">
        <ele>118.2</ele>
        <time>2022-10-29T18:52:00Z</time>
      </trkpt>
      <trkpt lat="45.0388" lon="0.41064">
        <ele>118.4</ele>
        <time>2022-10-29T18:52:01Z</time>
      </trkpt>
      <trkpt lat="45.03886" lon="0.4106">
        <ele>118.4</ele>
        <time>2022-10-29T18:52:02Z</time>
      </trkpt>
      <trkpt lat="45.03898" lon="0.41052">
        <ele>118.5</ele>
        <time>2022-10-29T18:52:04Z</time>
      </trkpt>
      <trkpt lat="45.03903" lon="0.41049">
        <ele>118.5</ele>
        <time>2022-10-29T18:52:05Z</time>
      </trkpt>
      <trkpt lat="45.03909" lon="0.41045">
        <ele>118.5</ele>
        <time>2022-10-29T18:52:06Z</time>
      </trkpt>
      <trkpt lat="45.0392" lon="0.41037">
        <ele>118.6</ele>
        <time>2022-10-29T18:52:08Z</time>
      </trkpt>
      <trkpt lat="45.0393" lon="0.41031">
        <ele>118.6</ele>
        <time>2022-10-29T18:52:10Z</time>
      </trkpt>
      <trkpt lat="45.0394" lon="0.41023">
        <ele>118.5</ele>
        <time>2022-10-29T18:52:12Z</time>
      </trkpt>
      <trkpt lat="45.0395" lon="0.41017">
        <ele>118.3</ele>
        <time>2022-10-29T18:52:14Z</time>
      </trkpt>
      <trkpt lat="45.0396" lon="0.41009">
        <ele>118.1</ele>
        <time>2022-10-29T18:52:16Z</time>
      </trkpt>
      <trkpt lat="45.03966" lon="0.41006">
        <ele>118</ele>
        <time>2022-10-29T18:52:17Z</time>
      </trkpt>
      <trkpt lat="45.03971" lon="0.41002">
        <ele>117.9</ele>
        <time>2022-10-29T18:52:18Z</time>
      </trkpt>
      <trkpt lat="45.03983" lon="0.40994">
        <ele>117.9</ele>
        <time>2022-10-29T18:52:20Z</time>
      </trkpt>
      <trkpt lat="45.03995" lon="0.40986">
        <ele>118.1</ele>
        <time>2022-10-29T18:52:22Z</time>
      </trkpt>
      <trkpt lat="45.04006" lon="0.40978">
        <ele>118.6</ele>
        <time>2022-10-29T18:52:24Z</time>
      </trkpt>
      <trkpt lat="45.04017" lon="0.40971">
        <ele>119.4</ele>
        <time>2022-10-29T18:52:26Z</time>
      </trkpt>
      <trkpt lat="45.04027" lon="0.40965">
        <ele>120.3</ele>
        <time>2022-10-29T18:52:28Z</time>
      </trkpt>
      <trkpt lat="45.04031" lon="0.40963">
        <ele>120.8</ele>
        <time>2022-10-29T18:52:29Z</time>
      </trkpt>
      <trkpt lat="45.04035" lon="0.40961">
        <ele>121.3</ele>
        <time>2022-10-29T18:52:30Z</time>
      </trkpt>
      <trkpt lat="45.04041" lon="0.40958">
        <ele>122</ele>
        <time>2022-10-29T18:52:32Z</time>
      </trkpt>
      <trkpt lat="45.04043" lon="0.40958">
        <ele>122.3</ele>
        <time>2022-10-29T18:52:33Z</time>
      </trkpt>
      <trkpt lat="45.04045" lon="0.40958">
        <ele>123.3</ele>
        <time>2022-10-29T18:52:34Z</time>
      </trkpt>
      <trkpt lat="45.04049" lon="0.40947">
        <ele>124.4</ele>
        <time>2022-10-29T18:52:36Z</time>
      </trkpt>
      <trkpt lat="45.04048" lon="0.40942">
        <ele>124.9</ele>
        <time>2022-10-29T18:52:38Z</time>
      </trkpt>
      <trkpt lat="45.04047" lon="0.40936">
        <ele>125.3</ele>
        <time>2022-10-29T18:52:40Z</time>
      </trkpt>
      <trkpt lat="45.04044" lon="0.40931">
        <ele>125.7</ele>
        <time>2022-10-29T18:52:42Z</time>
      </trkpt>
      <trkpt lat="45.04042" lon="0.40926">
        <ele>126.1</ele>
        <time>2022-10-29T18:52:44Z</time>
      </trkpt>
      <trkpt lat="45.04038" lon="0.40922">
        <ele>126.6</ele>
        <time>2022-10-29T18:52:46Z</time>
      </trkpt>
      <trkpt lat="45.04033" lon="0.40919">
        <ele>127</ele>
        <time>2022-10-29T18:52:48Z</time>
      </trkpt>
      <trkpt lat="45.04031" lon="0.40917">
        <ele>127.2</ele>
        <time>2022-10-29T18:52:49Z</time>
      </trkpt>
      <trkpt lat="45.04029" lon="0.40915">
        <ele>127.4</ele>
        <time>2022-10-29T18:52:50Z</time>
      </trkpt>
      <trkpt lat="45.04025" lon="0.40912">
        <ele>127.9</ele>
        <time>2022-10-29T18:52:52Z</time>
      </trkpt>
      <trkpt lat="45.04021" lon="0.40909">
        <ele>128.4</ele>
        <time>2022-10-29T18:52:54Z</time>
      </trkpt>
      <trkpt lat="45.04017" lon="0.40906">
        <ele>129</ele>
        <time>2022-10-29T18:52:56Z</time>
      </trkpt>
      <trkpt lat="45.04013" lon="0.40902">
        <ele>129.6</ele>
        <time>2022-10-29T18:52:58Z</time>
      </trkpt>
      <trkpt lat="45.04009" lon="0.409">
        <ele>130.2</ele>
        <time>2022-10-29T18:53:00Z</time>
      </trkpt>
      <trkpt lat="45.04005" lon="0.40897">
        <ele>130.8</ele>
        <time>2022-10-29T18:53:02Z</time>
      </trkpt>
      <trkpt lat="45.04002" lon="0.40894">
        <ele>131.4</ele>
        <time>2022-10-29T18:53:04Z</time>
      </trkpt>
      <trkpt lat="45.03999" lon="0.40892">
        <ele>131.9</ele>
        <time>2022-10-29T18:53:06Z</time>
      </trkpt>
      <trkpt lat="45.03997" lon="0.40891">
        <ele>132.2</ele>
        <time>2022-10-29T18:53:07Z</time>
      </trkpt>
      <trkpt lat="45.03996" lon="0.40889">
        <ele>132.5</ele>
        <time>2022-10-29T18:53:08Z</time>
      </trkpt>
      <trkpt lat="45.03992" lon="0.40887">
        <ele>133.2</ele>
        <time>2022-10-29T18:53:10Z</time>
      </trkpt>
      <trkpt lat="45.03988" lon="0.40883">
        <ele>133.9</ele>
        <time>2022-10-29T18:53:12Z</time>
      </trkpt>
      <trkpt lat="45.03986" lon="0.40882">
        <ele>134.2</ele>
        <time>2022-10-29T18:53:13Z</time>
      </trkpt>
      <trkpt lat="45.03984" lon="0.4088">
        <ele>134.5</ele>
        <time>2022-10-29T18:53:14Z</time>
      </trkpt>
      <trkpt lat="45.0398" lon="0.40878">
        <ele>135</ele>
        <time>2022-10-29T18:53:16Z</time>
      </trkpt>
      <trkpt lat="45.03977" lon="0.40875">
        <ele>135.4</ele>
        <time>2022-10-29T18:53:18Z</time>
      </trkpt>
      <trkpt lat="45.03974" lon="0.40872">
        <ele>135.8</ele>
        <time>2022-10-29T18:53:20Z</time>
      </trkpt>
      <trkpt lat="45.03971" lon="0.40869">
        <ele>136.2</ele>
        <time>2022-10-29T18:53:22Z</time>
      </trkpt>
      <trkpt lat="45.03967" lon="0.40865">
        <ele>136.6</ele>
        <time>2022-10-29T18:53:24Z</time>
      </trkpt>
      <trkpt lat="45.03964" lon="0.40861">
        <ele>137</ele>
        <time>2022-10-29T18:53:26Z</time>
      </trkpt>
      <trkpt lat="45.0396" lon="0.40856">
        <ele>137.4</ele>
        <time>2022-10-29T18:53:28Z</time>
      </trkpt>
      <trkpt lat="45.03958" lon="0.40854">
        <ele>137.6</ele>
        <time>2022-10-29T18:53:29Z</time>
      </trkpt>
      <trkpt lat="45.03956" lon="0.40852">
        <ele>137.8</ele>
        <time>2022-10-29T18:53:30Z</time>
      </trkpt>
      <trkpt lat="45.03952" lon="0.40849">
        <ele>138.2</ele>
        <time>2022-10-29T18:53:32Z</time>
      </trkpt>
      <trkpt lat="45.03949" lon="0.40845">
        <ele>138.4</ele>
        <time>2022-10-29T18:53:34Z</time>
      </trkpt>
      <trkpt lat="45.03947" lon="0.40844">
        <ele>138.6</ele>
        <time>2022-10-29T18:53:35Z</time>
      </trkpt>
      <trkpt lat="45.03945" lon="0.40842">
        <ele>138.7</ele>
        <time>2022-10-29T18:53:36Z</time>
      </trkpt>
      <trkpt lat="45.03941" lon="0.40838">
        <ele>138.9</ele>
        <time>2022-10-29T18:53:38Z</time>
      </trkpt>
      <trkpt lat="45.03936" lon="0.40831">
        <ele>139</ele>
        <time>2022-10-29T18:53:40Z</time>
      </trkpt>
      <trkpt lat="45.03931" lon="0.40823">
        <ele>139</ele>
        <time>2022-10-29T18:53:42Z</time>
      </trkpt>
      <trkpt lat="45.03925" lon="0.40814">
        <ele>138.8</ele>
        <time>2022-10-29T18:53:44Z</time>
      </trkpt>
      <trkpt lat="45.03919" lon="0.40805">
        <ele>138.4</ele>
        <time>2022-10-29T18:53:46Z</time>
      </trkpt>
      <trkpt lat="45.03912" lon="0.40795">
        <ele>137.8</ele>
        <time>2022-10-29T18:53:48Z</time>
      </trkpt>
      <trkpt lat="45.03906" lon="0.40784">
        <ele>137</ele>
        <time>2022-10-29T18:53:50Z</time>
      </trkpt>
      <trkpt lat="45.03902" lon="0.40778">
        <ele>136.4</ele>
        <time>2022-10-29T18:53:51Z</time>
      </trkpt>
      <trkpt lat="45.039" lon="0.4077">
        <ele>135.5</ele>
        <time>2022-10-29T18:53:52Z</time>
      </trkpt>
      <trkpt lat="45.03895" lon="0.40751">
        <ele>133.3</ele>
        <time>2022-10-29T18:53:54Z</time>
      </trkpt>
      <trkpt lat="45.03892" lon="0.4074">
        <ele>132</ele>
        <time>2022-10-29T18:53:55Z</time>
      </trkpt>
      <trkpt lat="45.03889" lon="0.4073">
        <ele>130.7</ele>
        <time>2022-10-29T18:53:56Z</time>
      </trkpt>
      <trkpt lat="45.03879" lon="0.40711">
        <ele>128</ele>
        <time>2022-10-29T18:53:58Z</time>
      </trkpt>
      <trkpt lat="45.03874" lon="0.40702">
        <ele>127</ele>
        <time>2022-10-29T18:53:59Z</time>
      </trkpt>
      <trkpt lat="45.03867" lon="0.40694">
        <ele>126.5</ele>
        <time>2022-10-29T18:54:00Z</time>
      </trkpt>
      <trkpt lat="45.03854" lon="0.40679">
        <ele>126.5</ele>
        <time>2022-10-29T18:54:02Z</time>
      </trkpt>
      <trkpt lat="45.03848" lon="0.40672">
        <ele>126.9</ele>
        <time>2022-10-29T18:54:03Z</time>
      </trkpt>
      <trkpt lat="45.03842" lon="0.40665">
        <ele>127.5</ele>
        <time>2022-10-29T18:54:04Z</time>
      </trkpt>
      <trkpt lat="45.03834" lon="0.40656">
        <ele>128.3</ele>
        <time>2022-10-29T18:54:06Z</time>
      </trkpt>
      <trkpt lat="45.03829" lon="0.4065">
        <ele>128.9</ele>
        <time>2022-10-29T18:54:08Z</time>
      </trkpt>
      <trkpt lat="45.03823" lon="0.40644">
        <ele>129.4</ele>
        <time>2022-10-29T18:54:10Z</time>
      </trkpt>
      <trkpt lat="45.03817" lon="0.40637">
        <ele>129.8</ele>
        <time>2022-10-29T18:54:12Z</time>
      </trkpt>
      <trkpt lat="45.03811" lon="0.4063">
        <ele>130</ele>
        <time>2022-10-29T18:54:14Z</time>
      </trkpt>
      <trkpt lat="45.03804" lon="0.40622">
        <ele>130.2</ele>
        <time>2022-10-29T18:54:16Z</time>
      </trkpt>
      <trkpt lat="45.038" lon="0.40618">
        <ele>130.3</ele>
        <time>2022-10-29T18:54:17Z</time>
      </trkpt>
      <trkpt lat="45.03796" lon="0.40614">
        <ele>130.5</ele>
        <time>2022-10-29T18:54:18Z</time>
      </trkpt>
      <trkpt lat="45.0379" lon="0.40611">
        <ele>130.7</ele>
        <time>2022-10-29T18:54:19Z</time>
      </trkpt>
      <trkpt lat="45.03786" lon="0.40611">
        <ele>130.9</ele>
        <time>2022-10-29T18:54:20Z</time>
      </trkpt>
      <trkpt lat="45.03779" lon="0.4061">
        <ele>131.2</ele>
        <time>2022-10-29T18:54:22Z</time>
      </trkpt>
      <trkpt lat="45.03773" lon="0.40607">
        <ele>131.5</ele>
        <time>2022-10-29T18:54:24Z</time>
      </trkpt>
      <trkpt lat="45.0377" lon="0.40597">
        <ele>131.9</ele>
        <time>2022-10-29T18:54:26Z</time>
      </trkpt>
      <trkpt lat="45.03765" lon="0.40587">
        <ele>132.5</ele>
        <time>2022-10-29T18:54:28Z</time>
      </trkpt>
      <trkpt lat="45.03761" lon="0.40582">
        <ele>132.8</ele>
        <time>2022-10-29T18:54:30Z</time>
      </trkpt>
      <trkpt lat="45.03759" lon="0.4058">
        <ele>133</ele>
        <time>2022-10-29T18:54:31Z</time>
      </trkpt>
      <trkpt lat="45.03758" lon="0.40579">
        <ele>133</ele>
        <time>2022-10-29T18:54:32Z</time>
      </trkpt>
      <trkpt lat="45.03757" lon="0.40578">
        <ele>133.1</ele>
        <time>2022-10-29T18:54:33Z</time>
      </trkpt>
      <trkpt lat="45.03755" lon="0.40576">
        <ele>133.3</ele>
        <time>2022-10-29T18:54:34Z</time>
      </trkpt>
      <trkpt lat="45.0375" lon="0.40571">
        <ele>133.5</ele>
        <time>2022-10-29T18:54:36Z</time>
      </trkpt>
      <trkpt lat="45.03744" lon="0.40565">
        <ele>133.6</ele>
        <time>2022-10-29T18:54:38Z</time>
      </trkpt>
      <trkpt lat="45.03738" lon="0.40558">
        <ele>133.7</ele>
        <time>2022-10-29T18:54:40Z</time>
      </trkpt>
      <trkpt lat="45.03731" lon="0.40552">
        <ele>133.9</ele>
        <time>2022-10-29T18:54:42Z</time>
      </trkpt>
      <trkpt lat="45.03725" lon="0.40545">
        <ele>134.1</ele>
        <time>2022-10-29T18:54:44Z</time>
      </trkpt>
      <trkpt lat="45.03719" lon="0.40539">
        <ele>134.5</ele>
        <time>2022-10-29T18:54:46Z</time>
      </trkpt>
      <trkpt lat="45.03714" lon="0.40534">
        <ele>135</ele>
        <time>2022-10-29T18:54:48Z</time>
      </trkpt>
      <trkpt lat="45.0371" lon="0.4053">
        <ele>135.4</ele>
        <time>2022-10-29T18:54:50Z</time>
      </trkpt>
      <trkpt lat="45.03706" lon="0.40526">
        <ele>135.9</ele>
        <time>2022-10-29T18:54:52Z</time>
      </trkpt>
      <trkpt lat="45.03702" lon="0.40521">
        <ele>136.4</ele>
        <time>2022-10-29T18:54:54Z</time>
      </trkpt>
      <trkpt lat="45.03698" lon="0.40517">
        <ele>136.9</ele>
        <time>2022-10-29T18:54:56Z</time>
      </trkpt>
      <trkpt lat="45.03693" lon="0.40513">
        <ele>137.3</ele>
        <time>2022-10-29T18:54:58Z</time>
      </trkpt>
      <trkpt lat="45.03688" lon="0.40508">
        <ele>137.6</ele>
        <time>2022-10-29T18:55:00Z</time>
      </trkpt>
      <trkpt lat="45.03683" lon="0.40502">
        <ele>137.8</ele>
        <time>2022-10-29T18:55:02Z</time>
      </trkpt>
      <trkpt lat="45.03677" lon="0.40496">
        <ele>137.8</ele>
        <time>2022-10-29T18:55:04Z</time>
      </trkpt>
      <trkpt lat="45.0367" lon="0.40488">
        <ele>137.5</ele>
        <time>2022-10-29T18:55:06Z</time>
      </trkpt>
      <trkpt lat="45.03662" lon="0.40479">
        <ele>137.1</ele>
        <time>2022-10-29T18:55:08Z</time>
      </trkpt>
      <trkpt lat="45.03658" lon="0.40475">
        <ele>136.9</ele>
        <time>2022-10-29T18:55:09Z</time>
      </trkpt>
      <trkpt lat="45.03654" lon="0.4047">
        <ele>136.7</ele>
        <time>2022-10-29T18:55:10Z</time>
      </trkpt>
      <trkpt lat="45.03646" lon="0.40461">
        <ele>136.4</ele>
        <time>2022-10-29T18:55:12Z</time>
      </trkpt>
      <trkpt lat="45.03638" lon="0.40452">
        <ele>136.1</ele>
        <time>2022-10-29T18:55:14Z</time>
      </trkpt>
      <trkpt lat="45.03634" lon="0.40447">
        <ele>135.9</ele>
        <time>2022-10-29T18:55:15Z</time>
      </trkpt>
      <trkpt lat="45.0363" lon="0.40443">
        <ele>135.8</ele>
        <time>2022-10-29T18:55:16Z</time>
      </trkpt>
      <trkpt lat="45.03625" lon="0.40438">
        <ele>135.7</ele>
        <time>2022-10-29T18:55:17Z</time>
      </trkpt>
      <trkpt lat="45.03621" lon="0.40433">
        <ele>135.6</ele>
        <time>2022-10-29T18:55:18Z</time>
      </trkpt>
      <trkpt lat="45.03612" lon="0.40422">
        <ele>135.3</ele>
        <time>2022-10-29T18:55:20Z</time>
      </trkpt>
      <trkpt lat="45.03603" lon="0.40413">
        <ele>135.1</ele>
        <time>2022-10-29T18:55:22Z</time>
      </trkpt>
      <trkpt lat="45.03594" lon="0.40404">
        <ele>134.8</ele>
        <time>2022-10-29T18:55:24Z</time>
      </trkpt>
      <trkpt lat="45.03584" lon="0.40394">
        <ele>134.5</ele>
        <time>2022-10-29T18:55:26Z</time>
      </trkpt>
      <trkpt lat="45.03578" lon="0.40389">
        <ele>134.2</ele>
        <time>2022-10-29T18:55:27Z</time>
      </trkpt>
      <trkpt lat="45.03573" lon="0.40384">
        <ele>134</ele>
        <time>2022-10-29T18:55:28Z</time>
      </trkpt>
      <trkpt lat="45.03562" lon="0.40372">
        <ele>133.7</ele>
        <time>2022-10-29T18:55:30Z</time>
      </trkpt>
      <trkpt lat="45.03551" lon="0.40362">
        <ele>133.3</ele>
        <time>2022-10-29T18:55:32Z</time>
      </trkpt>
      <trkpt lat="45.03546" lon="0.40357">
        <ele>133.2</ele>
        <time>2022-10-29T18:55:33Z</time>
      </trkpt>
      <trkpt lat="45.03541" lon="0.40352">
        <ele>133.1</ele>
        <time>2022-10-29T18:55:34Z</time>
      </trkpt>
      <trkpt lat="45.0353" lon="0.40346">
        <ele>132.7</ele>
        <time>2022-10-29T18:55:36Z</time>
      </trkpt>
      <trkpt lat="45.03523" lon="0.40341">
        <ele>132.4</ele>
        <time>2022-10-29T18:55:37Z</time>
      </trkpt>
      <trkpt lat="45.03519" lon="0.40335">
        <ele>132.1</ele>
        <time>2022-10-29T18:55:38Z</time>
      </trkpt>
      <trkpt lat="45.03515" lon="0.40328">
        <ele>131.6</ele>
        <time>2022-10-29T18:55:39Z</time>
      </trkpt>
      <trkpt lat="45.0351" lon="0.40321">
        <ele>131.2</ele>
        <time>2022-10-29T18:55:40Z</time>
      </trkpt>
      <trkpt lat="45.03502" lon="0.40317">
        <ele>130.5</ele>
        <time>2022-10-29T18:55:42Z</time>
      </trkpt>
      <trkpt lat="45.03487" lon="0.40317">
        <ele>129.3</ele>
        <time>2022-10-29T18:55:44Z</time>
      </trkpt>
      <trkpt lat="45.03476" lon="0.40319">
        <ele>128.1</ele>
        <time>2022-10-29T18:55:46Z</time>
      </trkpt>
      <trkpt lat="45.03448" lon="0.40292">
        <ele>124.1</ele>
        <time>2022-10-29T18:55:48Z</time>
      </trkpt>
      <trkpt lat="45.03442" lon="0.40278">
        <ele>122.7</ele>
        <time>2022-10-29T18:55:50Z</time>
      </trkpt>
      <trkpt lat="45.03436" lon="0.40262">
        <ele>121.5</ele>
        <time>2022-10-29T18:55:52Z</time>
      </trkpt>
      <trkpt lat="45.03433" lon="0.40253">
        <ele>121.1</ele>
        <time>2022-10-29T18:55:53Z</time>
      </trkpt>
      <trkpt lat="45.03429" lon="0.40243">
        <ele>120.7</ele>
        <time>2022-10-29T18:55:54Z</time>
      </trkpt>
      <trkpt lat="45.03416" lon="0.40228">
        <ele>120.3</ele>
        <time>2022-10-29T18:55:56Z</time>
      </trkpt>
      <trkpt lat="45.0341" lon="0.40223">
        <ele>120.1</ele>
        <time>2022-10-29T18:55:57Z</time>
      </trkpt>
      <trkpt lat="45.03404" lon="0.40219">
        <ele>120</ele>
        <time>2022-10-29T18:55:58Z</time>
      </trkpt>
      <trkpt lat="45.03395" lon="0.40214">
        <ele>120</ele>
        <time>2022-10-29T18:56:00Z</time>
      </trkpt>
      <trkpt lat="45.03389" lon="0.4021">
        <ele>120.1</ele>
        <time>2022-10-29T18:56:02Z</time>
      </trkpt>
      <trkpt lat="45.03383" lon="0.40207">
        <ele>120.2</ele>
        <time>2022-10-29T18:56:04Z</time>
      </trkpt>
      <trkpt lat="45.03375" lon="0.40203">
        <ele>120.4</ele>
        <time>2022-10-29T18:56:06Z</time>
      </trkpt>
      <trkpt lat="45.03367" lon="0.40198">
        <ele>120.6</ele>
        <time>2022-10-29T18:56:08Z</time>
      </trkpt>
      <trkpt lat="45.0336" lon="0.40194">
        <ele>120.8</ele>
        <time>2022-10-29T18:56:10Z</time>
      </trkpt>
      <trkpt lat="45.03356" lon="0.40192">
        <ele>120.9</ele>
        <time>2022-10-29T18:56:11Z</time>
      </trkpt>
      <trkpt lat="45.03351" lon="0.40189">
        <ele>121</ele>
        <time>2022-10-29T18:56:12Z</time>
      </trkpt>
      <trkpt lat="45.03347" lon="0.40187">
        <ele>121.1</ele>
        <time>2022-10-29T18:56:13Z</time>
      </trkpt>
      <trkpt lat="45.03345" lon="0.40185">
        <ele>121.1</ele>
        <time>2022-10-29T18:56:14Z</time>
      </trkpt>
      <trkpt lat="45.03337" lon="0.40176">
        <ele>121.4</ele>
        <time>2022-10-29T18:56:16Z</time>
      </trkpt>
      <trkpt lat="45.0333" lon="0.4017">
        <ele>121.5</ele>
        <time>2022-10-29T18:56:18Z</time>
      </trkpt>
      <trkpt lat="45.03321" lon="0.40164">
        <ele>121.8</ele>
        <time>2022-10-29T18:56:20Z</time>
      </trkpt>
      <trkpt lat="45.03313" lon="0.40159">
        <ele>122.1</ele>
        <time>2022-10-29T18:56:22Z</time>
      </trkpt>
      <trkpt lat="45.03305" lon="0.40154">
        <ele>122.4</ele>
        <time>2022-10-29T18:56:24Z</time>
      </trkpt>
      <trkpt lat="45.03301" lon="0.40151">
        <ele>122.5</ele>
        <time>2022-10-29T18:56:25Z</time>
      </trkpt>
      <trkpt lat="45.03297" lon="0.40149">
        <ele>122.7</ele>
        <time>2022-10-29T18:56:26Z</time>
      </trkpt>
      <trkpt lat="45.03289" lon="0.40144">
        <ele>122.9</ele>
        <time>2022-10-29T18:56:28Z</time>
      </trkpt>
      <trkpt lat="45.03282" lon="0.40139">
        <ele>123.2</ele>
        <time>2022-10-29T18:56:30Z</time>
      </trkpt>
      <trkpt lat="45.03274" lon="0.40134">
        <ele>123.5</ele>
        <time>2022-10-29T18:56:32Z</time>
      </trkpt>
      <trkpt lat="45.03266" lon="0.40129">
        <ele>123.8</ele>
        <time>2022-10-29T18:56:34Z</time>
      </trkpt>
      <trkpt lat="45.03258" lon="0.40124">
        <ele>124.1</ele>
        <time>2022-10-29T18:56:36Z</time>
      </trkpt>
      <trkpt lat="45.03249" lon="0.40119">
        <ele>124.3</ele>
        <time>2022-10-29T18:56:38Z</time>
      </trkpt>
      <trkpt lat="45.03245" lon="0.40116">
        <ele>124.4</ele>
        <time>2022-10-29T18:56:39Z</time>
      </trkpt>
      <trkpt lat="45.0324" lon="0.40113">
        <ele>124.4</ele>
        <time>2022-10-29T18:56:40Z</time>
      </trkpt>
      <trkpt lat="45.03231" lon="0.40107">
        <ele>124.4</ele>
        <time>2022-10-29T18:56:42Z</time>
      </trkpt>
      <trkpt lat="45.03221" lon="0.40102">
        <ele>124.5</ele>
        <time>2022-10-29T18:56:44Z</time>
      </trkpt>
      <trkpt lat="45.03217" lon="0.40102">
        <ele>124.5</ele>
        <time>2022-10-29T18:56:45Z</time>
      </trkpt>
      <trkpt lat="45.03213" lon="0.40102">
        <ele>124.5</ele>
        <time>2022-10-29T18:56:46Z</time>
      </trkpt>
      <trkpt lat="45.03209" lon="0.40103">
        <ele>124.5</ele>
        <time>2022-10-29T18:56:47Z</time>
      </trkpt>
      <trkpt lat="45.03205" lon="0.40104">
        <ele>124.5</ele>
        <time>2022-10-29T18:56:48Z</time>
      </trkpt>
      <trkpt lat="45.03198" lon="0.40105">
        <ele>124.5</ele>
        <time>2022-10-29T18:56:50Z</time>
      </trkpt>
      <trkpt lat="45.03195" lon="0.40101">
        <ele>124.5</ele>
        <time>2022-10-29T18:56:51Z</time>
      </trkpt>
      <trkpt lat="45.03195" lon="0.40097">
        <ele>124.7</ele>
        <time>2022-10-29T18:56:52Z</time>
      </trkpt>
      <trkpt lat="45.03197" lon="0.40095">
        <ele>124.7</ele>
        <time>2022-10-29T18:56:53Z</time>
      </trkpt>
      <trkpt lat="45.03199" lon="0.40093">
        <ele>124.8</ele>
        <time>2022-10-29T18:56:54Z</time>
      </trkpt>
      <trkpt lat="45.03206" lon="0.40086">
        <ele>124.8</ele>
        <time>2022-10-29T18:56:56Z</time>
      </trkpt>
      <trkpt lat="45.0321" lon="0.40083">
        <ele>124.7</ele>
        <time>2022-10-29T18:56:57Z</time>
      </trkpt>
      <trkpt lat="45.03213" lon="0.40079">
        <ele>124.7</ele>
        <time>2022-10-29T18:56:58Z</time>
      </trkpt>
      <trkpt lat="45.0322" lon="0.40073">
        <ele>124.6</ele>
        <time>2022-10-29T18:57:00Z</time>
      </trkpt>
      <trkpt lat="45.03224" lon="0.40069">
        <ele>124.5</ele>
        <time>2022-10-29T18:57:01Z</time>
      </trkpt>
      <trkpt lat="45.03228" lon="0.40065">
        <ele>124.4</ele>
        <time>2022-10-29T18:57:02Z</time>
      </trkpt>
      <trkpt lat="45.03236" lon="0.40056">
        <ele>124.2</ele>
        <time>2022-10-29T18:57:04Z</time>
      </trkpt>
      <trkpt lat="45.03245" lon="0.40047">
        <ele>123.9</ele>
        <time>2022-10-29T18:57:06Z</time>
      </trkpt>
      <trkpt lat="45.03254" lon="0.40037">
        <ele>123.4</ele>
        <time>2022-10-29T18:57:08Z</time>
      </trkpt>
      <trkpt lat="45.03265" lon="0.40026">
        <ele>122.7</ele>
        <time>2022-10-29T18:57:10Z</time>
      </trkpt>
      <trkpt lat="45.03275" lon="0.40016">
        <ele>121.8</ele>
        <time>2022-10-29T18:57:12Z</time>
      </trkpt>
      <trkpt lat="45.03281" lon="0.4001">
        <ele>121.3</ele>
        <time>2022-10-29T18:57:13Z</time>
      </trkpt>
      <trkpt lat="45.03287" lon="0.40004">
        <ele>120.6</ele>
        <time>2022-10-29T18:57:14Z</time>
      </trkpt>
      <trkpt lat="45.03294" lon="0.39999">
        <ele>120</ele>
        <time>2022-10-29T18:57:15Z</time>
      </trkpt>
      <trkpt lat="45.03301" lon="0.39993">
        <ele>119.3</ele>
        <time>2022-10-29T18:57:16Z</time>
      </trkpt>
      <trkpt lat="45.03317" lon="0.39986">
        <ele>118</ele>
        <time>2022-10-29T18:57:18Z</time>
      </trkpt>
      <trkpt lat="45.03328" lon="0.39983">
        <ele>117.2</ele>
        <time>2022-10-29T18:57:20Z</time>
      </trkpt>
      <trkpt lat="45.03335" lon="0.39979">
        <ele>116.6</ele>
        <time>2022-10-29T18:57:21Z</time>
      </trkpt>
      <trkpt lat="45.03336" lon="0.39974">
        <ele>116.5</ele>
        <time>2022-10-29T18:57:22Z</time>
      </trkpt>
      <trkpt lat="45.03332" lon="0.39963">
        <ele>115.7</ele>
        <time>2022-10-29T18:57:23Z</time>
      </trkpt>
      <trkpt lat="45.03328" lon="0.39961">
        <ele>115.3</ele>
        <time>2022-10-29T18:57:24Z</time>
      </trkpt>
      <trkpt lat="45.03323" lon="0.39958">
        <ele>114.7</ele>
        <time>2022-10-29T18:57:25Z</time>
      </trkpt>
      <trkpt lat="45.03317" lon="0.39956">
        <ele>114</ele>
        <time>2022-10-29T18:57:26Z</time>
      </trkpt>
      <trkpt lat="45.03303" lon="0.39958">
        <ele>112.8</ele>
        <time>2022-10-29T18:57:28Z</time>
      </trkpt>
      <trkpt lat="45.03288" lon="0.39965">
        <ele>112.4</ele>
        <time>2022-10-29T18:57:30Z</time>
      </trkpt>
      <trkpt lat="45.03282" lon="0.3997">
        <ele>112.5</ele>
        <time>2022-10-29T18:57:31Z</time>
      </trkpt>
      <trkpt lat="45.03276" lon="0.39974">
        <ele>112.7</ele>
        <time>2022-10-29T18:57:32Z</time>
      </trkpt>
      <trkpt lat="45.03267" lon="0.39981">
        <ele>113.2</ele>
        <time>2022-10-29T18:57:34Z</time>
      </trkpt>
      <trkpt lat="45.03264" lon="0.39984">
        <ele>113.4</ele>
        <time>2022-10-29T18:57:35Z</time>
      </trkpt>
      <trkpt lat="45.03261" lon="0.39986">
        <ele>113.5</ele>
        <time>2022-10-29T18:57:36Z</time>
      </trkpt>
      <trkpt lat="45.03255" lon="0.39991">
        <ele>113.7</ele>
        <time>2022-10-29T18:57:38Z</time>
      </trkpt>
      <trkpt lat="45.03251" lon="0.39993">
        <ele>113.7</ele>
        <time>2022-10-29T18:57:39Z</time>
      </trkpt>
      <trkpt lat="45.03247" lon="0.39993">
        <ele>113.7</ele>
        <time>2022-10-29T18:57:40Z</time>
      </trkpt>
      <trkpt lat="45.03238" lon="0.39986">
        <ele>113.6</ele>
        <time>2022-10-29T18:57:42Z</time>
      </trkpt>
      <trkpt lat="45.03229" lon="0.39977">
        <ele>113.4</ele>
        <time>2022-10-29T18:57:44Z</time>
      </trkpt>
      <trkpt lat="45.03218" lon="0.39968">
        <ele>113.3</ele>
        <time>2022-10-29T18:57:46Z</time>
      </trkpt>
      <trkpt lat="45.03207" lon="0.39959">
        <ele>113.5</ele>
        <time>2022-10-29T18:57:48Z</time>
      </trkpt>
      <trkpt lat="45.03197" lon="0.3995">
        <ele>113.7</ele>
        <time>2022-10-29T18:57:50Z</time>
      </trkpt>
      <trkpt lat="45.03185" lon="0.39942">
        <ele>113.6</ele>
        <time>2022-10-29T18:57:52Z</time>
      </trkpt>
      <trkpt lat="45.03172" lon="0.39934">
        <ele>113.1</ele>
        <time>2022-10-29T18:57:54Z</time>
      </trkpt>
      <trkpt lat="45.03159" lon="0.39925">
        <ele>112.3</ele>
        <time>2022-10-29T18:57:56Z</time>
      </trkpt>
      <trkpt lat="45.03152" lon="0.3992">
        <ele>111.8</ele>
        <time>2022-10-29T18:57:57Z</time>
      </trkpt>
      <trkpt lat="45.03145" lon="0.39916">
        <ele>111.1</ele>
        <time>2022-10-29T18:57:58Z</time>
      </trkpt>
      <trkpt lat="45.0313" lon="0.39906">
        <ele>109.7</ele>
        <time>2022-10-29T18:58:00Z</time>
      </trkpt>
      <trkpt lat="45.03113" lon="0.39894">
        <ele>108</ele>
        <time>2022-10-29T18:58:02Z</time>
      </trkpt>
      <trkpt lat="45.03096" lon="0.39882">
        <ele>106.4</ele>
        <time>2022-10-29T18:58:04Z</time>
      </trkpt>
      <trkpt lat="45.03078" lon="0.39871">
        <ele>105.5</ele>
        <time>2022-10-29T18:58:06Z</time>
      </trkpt>
      <trkpt lat="45.03062" lon="0.3986">
        <ele>105</ele>
        <time>2022-10-29T18:58:08Z</time>
      </trkpt>
      <trkpt lat="45.03047" lon="0.39844">
        <ele>104.4</ele>
        <time>2022-10-29T18:58:10Z</time>
      </trkpt>
      <trkpt lat="45.03034" lon="0.39827">
        <ele>103.8</ele>
        <time>2022-10-29T18:58:12Z</time>
      </trkpt>
      <trkpt lat="45.03028" lon="0.39818">
        <ele>103.6</ele>
        <time>2022-10-29T18:58:13Z</time>
      </trkpt>
      <trkpt lat="45.0302" lon="0.39811">
        <ele>103.4</ele>
        <time>2022-10-29T18:58:14Z</time>
      </trkpt>
      <trkpt lat="45.03004" lon="0.39801">
        <ele>103.5</ele>
        <time>2022-10-29T18:58:16Z</time>
      </trkpt>
      <trkpt lat="45.02997" lon="0.39796">
        <ele>103.9</ele>
        <time>2022-10-29T18:58:17Z</time>
      </trkpt>
      <trkpt lat="45.0299" lon="0.39787">
        <ele>104.5</ele>
        <time>2022-10-29T18:58:18Z</time>
      </trkpt>
      <trkpt lat="45.02985" lon="0.39779">
        <ele>105.3</ele>
        <time>2022-10-29T18:58:19Z</time>
      </trkpt>
      <trkpt lat="45.02982" lon="0.39772">
        <ele>106.1</ele>
        <time>2022-10-29T18:58:20Z</time>
      </trkpt>
      <trkpt lat="45.02979" lon="0.39758">
        <ele>107.8</ele>
        <time>2022-10-29T18:58:22Z</time>
      </trkpt>
      <trkpt lat="45.02977" lon="0.3975">
        <ele>108.8</ele>
        <time>2022-10-29T18:58:24Z</time>
      </trkpt>
      <trkpt lat="45.02976" lon="0.39746">
        <ele>109.4</ele>
        <time>2022-10-29T18:58:26Z</time>
      </trkpt>
      <trkpt lat="45.02975" lon="0.39742">
        <ele>109.8</ele>
        <time>2022-10-29T18:58:28Z</time>
      </trkpt>
      <trkpt lat="45.02975" lon="0.39739">
        <ele>110.1</ele>
        <time>2022-10-29T18:58:29Z</time>
      </trkpt>
      <trkpt lat="45.02974" lon="0.39737">
        <ele>110.3</ele>
        <time>2022-10-29T18:58:30Z</time>
      </trkpt>
      <trkpt lat="45.02974" lon="0.39732">
        <ele>110.7</ele>
        <time>2022-10-29T18:58:32Z</time>
      </trkpt>
      <trkpt lat="45.02973" lon="0.39726">
        <ele>111.1</ele>
        <time>2022-10-29T18:58:34Z</time>
      </trkpt>
      <trkpt lat="45.02973" lon="0.39723">
        <ele>111.3</ele>
        <time>2022-10-29T18:58:35Z</time>
      </trkpt>
      <trkpt lat="45.02972" lon="0.3972">
        <ele>111.5</ele>
        <time>2022-10-29T18:58:36Z</time>
      </trkpt>
      <trkpt lat="45.02971" lon="0.39712">
        <ele>111.8</ele>
        <time>2022-10-29T18:58:38Z</time>
      </trkpt>
      <trkpt lat="45.02971" lon="0.39708">
        <ele>111.9</ele>
        <time>2022-10-29T18:58:39Z</time>
      </trkpt>
      <trkpt lat="45.0297" lon="0.39704">
        <ele>112</ele>
        <time>2022-10-29T18:58:40Z</time>
      </trkpt>
      <trkpt lat="45.02967" lon="0.39696">
        <ele>111.9</ele>
        <time>2022-10-29T18:58:42Z</time>
      </trkpt>
      <trkpt lat="45.02964" lon="0.39692">
        <ele>111.8</ele>
        <time>2022-10-29T18:58:43Z</time>
      </trkpt>
      <trkpt lat="45.02961" lon="0.39687">
        <ele>111.6</ele>
        <time>2022-10-29T18:58:44Z</time>
      </trkpt>
      <trkpt lat="45.02952" lon="0.39679">
        <ele>110.8</ele>
        <time>2022-10-29T18:58:46Z</time>
      </trkpt>
      <trkpt lat="45.02947" lon="0.39674">
        <ele>110.2</ele>
        <time>2022-10-29T18:58:47Z</time>
      </trkpt>
      <trkpt lat="45.02941" lon="0.39669">
        <ele>109.3</ele>
        <time>2022-10-29T18:58:48Z</time>
      </trkpt>
      <trkpt lat="45.02928" lon="0.39656">
        <ele>107.4</ele>
        <time>2022-10-29T18:58:50Z</time>
      </trkpt>
      <trkpt lat="45.02921" lon="0.3965">
        <ele>106.8</ele>
        <time>2022-10-29T18:58:51Z</time>
      </trkpt>
      <trkpt lat="45.02914" lon="0.39643">
        <ele>106.4</ele>
        <time>2022-10-29T18:58:52Z</time>
      </trkpt>
      <trkpt lat="45.02901" lon="0.39632">
        <ele>106.1</ele>
        <time>2022-10-29T18:58:54Z</time>
      </trkpt>
      <trkpt lat="45.02896" lon="0.39627">
        <ele>105.9</ele>
        <time>2022-10-29T18:58:55Z</time>
      </trkpt>
      <trkpt lat="45.02888" lon="0.39626">
        <ele>105.5</ele>
        <time>2022-10-29T18:58:56Z</time>
      </trkpt>
      <trkpt lat="45.02881" lon="0.39627">
        <ele>105.1</ele>
        <time>2022-10-29T18:58:57Z</time>
      </trkpt>
      <trkpt lat="45.02873" lon="0.39629">
        <ele>104.8</ele>
        <time>2022-10-29T18:58:58Z</time>
      </trkpt>
      <trkpt lat="45.02859" lon="0.3963">
        <ele>105</ele>
        <time>2022-10-29T18:59:00Z</time>
      </trkpt>
      <trkpt lat="45.02846" lon="0.3963">
        <ele>105.8</ele>
        <time>2022-10-29T18:59:02Z</time>
      </trkpt>
      <trkpt lat="45.02835" lon="0.39626">
        <ele>107</ele>
        <time>2022-10-29T18:59:04Z</time>
      </trkpt>
      <trkpt lat="45.02826" lon="0.39623">
        <ele>108.2</ele>
        <time>2022-10-29T18:59:06Z</time>
      </trkpt>
      <trkpt lat="45.02818" lon="0.39618">
        <ele>109.3</ele>
        <time>2022-10-29T18:59:08Z</time>
      </trkpt>
      <trkpt lat="45.02815" lon="0.39614">
        <ele>109.9</ele>
        <time>2022-10-29T18:59:10Z</time>
      </trkpt>
      <trkpt lat="45.02811" lon="0.39609">
        <ele>110.5</ele>
        <time>2022-10-29T18:59:12Z</time>
      </trkpt>
      <trkpt lat="45.0281" lon="0.39608">
        <ele>110.7</ele>
        <time>2022-10-29T18:59:13Z</time>
      </trkpt>
      <trkpt lat="45.02808" lon="0.39606">
        <ele>111</ele>
        <time>2022-10-29T18:59:14Z</time>
      </trkpt>
      <trkpt lat="45.02807" lon="0.39603">
        <ele>111.2</ele>
        <time>2022-10-29T18:59:15Z</time>
      </trkpt>
      <trkpt lat="45.02805" lon="0.39601">
        <ele>111.5</ele>
        <time>2022-10-29T18:59:16Z</time>
      </trkpt>
      <trkpt lat="45.02802" lon="0.39596">
        <ele>112</ele>
        <time>2022-10-29T18:59:18Z</time>
      </trkpt>
      <trkpt lat="45.028" lon="0.39594">
        <ele>112.2</ele>
        <time>2022-10-29T18:59:19Z</time>
      </trkpt>
      <trkpt lat="45.02799" lon="0.39591">
        <ele>112.5</ele>
        <time>2022-10-29T18:59:20Z</time>
      </trkpt>
      <trkpt lat="45.02795" lon="0.39586">
        <ele>113</ele>
        <time>2022-10-29T18:59:22Z</time>
      </trkpt>
      <trkpt lat="45.02794" lon="0.39583">
        <ele>113.2</ele>
        <time>2022-10-29T18:59:23Z</time>
      </trkpt>
      <trkpt lat="45.02793" lon="0.39581">
        <ele>113.4</ele>
        <time>2022-10-29T18:59:24Z</time>
      </trkpt>
      <trkpt lat="45.02789" lon="0.39576">
        <ele>113.8</ele>
        <time>2022-10-29T18:59:26Z</time>
      </trkpt>
      <trkpt lat="45.02787" lon="0.39573">
        <ele>114.1</ele>
        <time>2022-10-29T18:59:27Z</time>
      </trkpt>
      <trkpt lat="45.02785" lon="0.3957">
        <ele>114.3</ele>
        <time>2022-10-29T18:59:28Z</time>
      </trkpt>
      <trkpt lat="45.02782" lon="0.39564">
        <ele>114.8</ele>
        <time>2022-10-29T18:59:30Z</time>
      </trkpt>
      <trkpt lat="45.02779" lon="0.3956">
        <ele>115.1</ele>
        <time>2022-10-29T18:59:32Z</time>
      </trkpt>
      <trkpt lat="45.02777" lon="0.39558">
        <ele>115.3</ele>
        <time>2022-10-29T18:59:33Z</time>
      </trkpt>
      <trkpt lat="45.02775" lon="0.39554">
        <ele>115.6</ele>
        <time>2022-10-29T18:59:34Z</time>
      </trkpt>
      <trkpt lat="45.02773" lon="0.39551">
        <ele>115.9</ele>
        <time>2022-10-29T18:59:35Z</time>
      </trkpt>
      <trkpt lat="45.02771" lon="0.39548">
        <ele>116.1</ele>
        <time>2022-10-29T18:59:36Z</time>
      </trkpt>
      <trkpt lat="45.02767" lon="0.39543">
        <ele>116.5</ele>
        <time>2022-10-29T18:59:38Z</time>
      </trkpt>
      <trkpt lat="45.02762" lon="0.39538">
        <ele>117</ele>
        <time>2022-10-29T18:59:40Z</time>
      </trkpt>
      <trkpt lat="45.02758" lon="0.39534">
        <ele>117.4</ele>
        <time>2022-10-29T18:59:42Z</time>
      </trkpt>
      <trkpt lat="45.02754" lon="0.39528">
        <ele>117.8</ele>
        <time>2022-10-29T18:59:44Z</time>
      </trkpt>
      <trkpt lat="45.0275" lon="0.39522">
        <ele>118.3</ele>
        <time>2022-10-29T18:59:46Z</time>
      </trkpt>
      <trkpt lat="45.02748" lon="0.39519">
        <ele>118.5</ele>
        <time>2022-10-29T18:59:47Z</time>
      </trkpt>
      <trkpt lat="45.02746" lon="0.39517">
        <ele>118.6</ele>
        <time>2022-10-29T18:59:48Z</time>
      </trkpt>
      <trkpt lat="45.02743" lon="0.39511">
        <ele>119</ele>
        <time>2022-10-29T18:59:50Z</time>
      </trkpt>
      <trkpt lat="45.02739" lon="0.39505">
        <ele>119.3</ele>
        <time>2022-10-29T18:59:52Z</time>
      </trkpt>
      <trkpt lat="45.02735" lon="0.39499">
        <ele>119.5</ele>
        <time>2022-10-29T18:59:54Z</time>
      </trkpt>
      <trkpt lat="45.0273" lon="0.39492">
        <ele>119.7</ele>
        <time>2022-10-29T18:59:56Z</time>
      </trkpt>
      <trkpt lat="45.02725" lon="0.39485">
        <ele>119.8</ele>
        <time>2022-10-29T18:59:58Z</time>
      </trkpt>
      <trkpt lat="45.02722" lon="0.39481">
        <ele>119.9</ele>
        <time>2022-10-29T18:59:59Z</time>
      </trkpt>
      <trkpt lat="45.02719" lon="0.39477">
        <ele>119.9</ele>
        <time>2022-10-29T19:00:00Z</time>
      </trkpt>
      <trkpt lat="45.02713" lon="0.39468">
        <ele>119.9</ele>
        <time>2022-10-29T19:00:02Z</time>
      </trkpt>
      <trkpt lat="45.02707" lon="0.39459">
        <ele>119.9</ele>
        <time>2022-10-29T19:00:04Z</time>
      </trkpt>
      <trkpt lat="45.027" lon="0.3945">
        <ele>120</ele>
        <time>2022-10-29T19:00:06Z</time>
      </trkpt>
      <trkpt lat="45.02694" lon="0.39441">
        <ele>120.2</ele>
        <time>2022-10-29T19:00:08Z</time>
      </trkpt>
      <trkpt lat="45.02688" lon="0.39433">
        <ele>120.3</ele>
        <time>2022-10-29T19:00:10Z</time>
      </trkpt>
      <trkpt lat="45.02682" lon="0.39424">
        <ele>120.6</ele>
        <time>2022-10-29T19:00:12Z</time>
      </trkpt>
      <trkpt lat="45.02679" lon="0.3942">
        <ele>120.7</ele>
        <time>2022-10-29T19:00:13Z</time>
      </trkpt>
      <trkpt lat="45.02675" lon="0.39415">
        <ele>120.8</ele>
        <time>2022-10-29T19:00:14Z</time>
      </trkpt>
      <trkpt lat="45.02669" lon="0.39407">
        <ele>121</ele>
        <time>2022-10-29T19:00:16Z</time>
      </trkpt>
      <trkpt lat="45.02666" lon="0.39403">
        <ele>121.1</ele>
        <time>2022-10-29T19:00:17Z</time>
      </trkpt>
      <trkpt lat="45.02663" lon="0.39398">
        <ele>121.2</ele>
        <time>2022-10-29T19:00:18Z</time>
      </trkpt>
      <trkpt lat="45.02657" lon="0.39388">
        <ele>121.3</ele>
        <time>2022-10-29T19:00:20Z</time>
      </trkpt>
      <trkpt lat="45.0265" lon="0.39378">
        <ele>121.3</ele>
        <time>2022-10-29T19:00:22Z</time>
      </trkpt>
      <trkpt lat="45.02647" lon="0.39373">
        <ele>121.2</ele>
        <time>2022-10-29T19:00:23Z</time>
      </trkpt>
      <trkpt lat="45.02644" lon="0.39368">
        <ele>121.2</ele>
        <time>2022-10-29T19:00:24Z</time>
      </trkpt>
      <trkpt lat="45.02639" lon="0.3936">
        <ele>121.1</ele>
        <time>2022-10-29T19:00:25Z</time>
      </trkpt>
      <trkpt lat="45.02644" lon="0.39356">
        <ele>121.3</ele>
        <time>2022-10-29T19:00:26Z</time>
      </trkpt>
      <trkpt lat="45.02648" lon="0.39356">
        <ele>121.4</ele>
        <time>2022-10-29T19:00:27Z</time>
      </trkpt>
      <trkpt lat="45.02652" lon="0.39356">
        <ele>121.5</ele>
        <time>2022-10-29T19:00:28Z</time>
      </trkpt>
      <trkpt lat="45.02659" lon="0.39359">
        <ele>121.7</ele>
        <time>2022-10-29T19:00:30Z</time>
      </trkpt>
      <trkpt lat="45.02663" lon="0.39361">
        <ele>121.8</ele>
        <time>2022-10-29T19:00:31Z</time>
      </trkpt>
      <trkpt lat="45.02667" lon="0.39362">
        <ele>121.9</ele>
        <time>2022-10-29T19:00:32Z</time>
      </trkpt>
      <trkpt lat="45.02673" lon="0.39365">
        <ele>122.1</ele>
        <time>2022-10-29T19:00:34Z</time>
      </trkpt>
      <trkpt lat="45.0268" lon="0.39367">
        <ele>122.3</ele>
        <time>2022-10-29T19:00:36Z</time>
      </trkpt>
      <trkpt lat="45.02687" lon="0.39371">
        <ele>122.5</ele>
        <time>2022-10-29T19:00:38Z</time>
      </trkpt>
      <trkpt lat="45.02694" lon="0.39374">
        <ele>122.8</ele>
        <time>2022-10-29T19:00:40Z</time>
      </trkpt>
      <trkpt lat="45.02701" lon="0.39376">
        <ele>123.1</ele>
        <time>2022-10-29T19:00:42Z</time>
      </trkpt>
      <trkpt lat="45.02708" lon="0.39378">
        <ele>123.4</ele>
        <time>2022-10-29T19:00:44Z</time>
      </trkpt>
      <trkpt lat="45.02715" lon="0.39379">
        <ele>123.6</ele>
        <time>2022-10-29T19:00:46Z</time>
      </trkpt>
      <trkpt lat="45.02723" lon="0.39379">
        <ele>123.9</ele>
        <time>2022-10-29T19:00:48Z</time>
      </trkpt>
      <trkpt lat="45.0273" lon="0.39379">
        <ele>124.1</ele>
        <time>2022-10-29T19:00:50Z</time>
      </trkpt>
      <trkpt lat="45.02733" lon="0.39379">
        <ele>124.3</ele>
        <time>2022-10-29T19:00:51Z</time>
      </trkpt>
      <trkpt lat="45.02737" lon="0.39379">
        <ele>124.4</ele>
        <time>2022-10-29T19:00:52Z</time>
      </trkpt>
      <trkpt lat="45.02745" lon="0.39379">
        <ele>124.7</ele>
        <time>2022-10-29T19:00:54Z</time>
      </trkpt>
      <trkpt lat="45.02752" lon="0.3938">
        <ele>124.9</ele>
        <time>2022-10-29T19:00:56Z</time>
      </trkpt>
      <trkpt lat="45.02758" lon="0.39381">
        <ele>125</ele>
        <time>2022-10-29T19:00:58Z</time>
      </trkpt>
      <trkpt lat="45.02764" lon="0.39381">
        <ele>125.2</ele>
        <time>2022-10-29T19:01:00Z</time>
      </trkpt>
      <trkpt lat="45.02771" lon="0.39381">
        <ele>125.3</ele>
        <time>2022-10-29T19:01:02Z</time>
      </trkpt>
      <trkpt lat="45.02778" lon="0.3938">
        <ele>125.5</ele>
        <time>2022-10-29T19:01:04Z</time>
      </trkpt>
      <trkpt lat="45.02786" lon="0.3938">
        <ele>125.6</ele>
        <time>2022-10-29T19:01:06Z</time>
      </trkpt>
      <trkpt lat="45.02793" lon="0.39379">
        <ele>125.7</ele>
        <time>2022-10-29T19:01:08Z</time>
      </trkpt>
      <trkpt lat="45.02802" lon="0.39378">
        <ele>125.8</ele>
        <time>2022-10-29T19:01:10Z</time>
      </trkpt>
      <trkpt lat="45.0281" lon="0.39376">
        <ele>126</ele>
        <time>2022-10-29T19:01:12Z</time>
      </trkpt>
      <trkpt lat="45.02818" lon="0.39374">
        <ele>126.2</ele>
        <time>2022-10-29T19:01:14Z</time>
      </trkpt>
      <trkpt lat="45.02822" lon="0.39373">
        <ele>126.3</ele>
        <time>2022-10-29T19:01:15Z</time>
      </trkpt>
      <trkpt lat="45.02826" lon="0.39372">
        <ele>126.4</ele>
        <time>2022-10-29T19:01:16Z</time>
      </trkpt>
      <trkpt lat="45.02833" lon="0.39367">
        <ele>126.6</ele>
        <time>2022-10-29T19:01:18Z</time>
      </trkpt>
      <trkpt lat="45.02839" lon="0.3936">
        <ele>126.8</ele>
        <time>2022-10-29T19:01:20Z</time>
      </trkpt>
      <trkpt lat="45.02844" lon="0.39352">
        <ele>126.9</ele>
        <time>2022-10-29T19:01:22Z</time>
      </trkpt>
      <trkpt lat="45.0285" lon="0.39343">
        <ele>127.1</ele>
        <time>2022-10-29T19:01:24Z</time>
      </trkpt>
      <trkpt lat="45.02856" lon="0.39334">
        <ele>127.3</ele>
        <time>2022-10-29T19:01:26Z</time>
      </trkpt>
      <trkpt lat="45.02861" lon="0.39325">
        <ele>127.5</ele>
        <time>2022-10-29T19:01:28Z</time>
      </trkpt>
      <trkpt lat="45.02868" lon="0.39317">
        <ele>127.6</ele>
        <time>2022-10-29T19:01:30Z</time>
      </trkpt>
      <trkpt lat="45.02876" lon="0.39311">
        <ele>127.8</ele>
        <time>2022-10-29T19:01:32Z</time>
      </trkpt>
      <trkpt lat="45.02882" lon="0.39303">
        <ele>127.9</ele>
        <time>2022-10-29T19:01:34Z</time>
      </trkpt>
      <trkpt lat="45.02888" lon="0.39296">
        <ele>128</ele>
        <time>2022-10-29T19:01:36Z</time>
      </trkpt>
      <trkpt lat="45.02893" lon="0.39287">
        <ele>128.2</ele>
        <time>2022-10-29T19:01:38Z</time>
      </trkpt>
      <trkpt lat="45.02898" lon="0.39278">
        <ele>128.3</ele>
        <time>2022-10-29T19:01:40Z</time>
      </trkpt>
      <trkpt lat="45.02901" lon="0.39273">
        <ele>128.3</ele>
        <time>2022-10-29T19:01:41Z</time>
      </trkpt>
      <trkpt lat="45.02903" lon="0.39269">
        <ele>128.3</ele>
        <time>2022-10-29T19:01:42Z</time>
      </trkpt>
      <trkpt lat="45.02909" lon="0.3926">
        <ele>128.4</ele>
        <time>2022-10-29T19:01:44Z</time>
      </trkpt>
      <trkpt lat="45.02915" lon="0.39255">
        <ele>128.3</ele>
        <time>2022-10-29T19:01:46Z</time>
      </trkpt>
      <trkpt lat="45.02924" lon="0.39248">
        <ele>128.1</ele>
        <time>2022-10-29T19:01:48Z</time>
      </trkpt>
      <trkpt lat="45.02934" lon="0.39241">
        <ele>127.7</ele>
        <time>2022-10-29T19:01:50Z</time>
      </trkpt>
      <trkpt lat="45.02944" lon="0.39231">
        <ele>126.8</ele>
        <time>2022-10-29T19:01:52Z</time>
      </trkpt>
      <trkpt lat="45.02949" lon="0.39221">
        <ele>125.9</ele>
        <time>2022-10-29T19:01:53Z</time>
      </trkpt>
      <trkpt lat="45.02952" lon="0.39212">
        <ele>124.9</ele>
        <time>2022-10-29T19:01:54Z</time>
      </trkpt>
      <trkpt lat="45.02957" lon="0.39204">
        <ele>123.7</ele>
        <time>2022-10-29T19:01:55Z</time>
      </trkpt>
      <trkpt lat="45.02963" lon="0.39195">
        <ele>122.4</ele>
        <time>2022-10-29T19:01:56Z</time>
      </trkpt>
      <trkpt lat="45.02976" lon="0.3918">
        <ele>120.2</ele>
        <time>2022-10-29T19:01:58Z</time>
      </trkpt>
      <trkpt lat="45.02982" lon="0.39176">
        <ele>119.4</ele>
        <time>2022-10-29T19:01:59Z</time>
      </trkpt>
      <trkpt lat="45.02987" lon="0.39173">
        <ele>118.8</ele>
        <time>2022-10-29T19:02:00Z</time>
      </trkpt>
      <trkpt lat="45.02993" lon="0.39164">
        <ele>118.1</ele>
        <time>2022-10-29T19:02:02Z</time>
      </trkpt>
      <trkpt lat="45.02993" lon="0.3915">
        <ele>117.5</ele>
        <time>2022-10-29T19:02:04Z</time>
      </trkpt>
      <trkpt lat="45.02993" lon="0.39133">
        <ele>116.9</ele>
        <time>2022-10-29T19:02:06Z</time>
      </trkpt>
      <trkpt lat="45.02991" lon="0.39125">
        <ele>116.5</ele>
        <time>2022-10-29T19:02:07Z</time>
      </trkpt>
      <trkpt lat="45.0299" lon="0.39116">
        <ele>116</ele>
        <time>2022-10-29T19:02:08Z</time>
      </trkpt>
      <trkpt lat="45.0299" lon="0.39106">
        <ele>115.4</ele>
        <time>2022-10-29T19:02:09Z</time>
      </trkpt>
      <trkpt lat="45.02988" lon="0.39095">
        <ele>114.9</ele>
        <time>2022-10-29T19:02:10Z</time>
      </trkpt>
      <trkpt lat="45.02985" lon="0.39075">
        <ele>114</ele>
        <time>2022-10-29T19:02:12Z</time>
      </trkpt>
      <trkpt lat="45.02983" lon="0.39055">
        <ele>113.4</ele>
        <time>2022-10-29T19:02:14Z</time>
      </trkpt>
      <trkpt lat="45.02984" lon="0.39037">
        <ele>113</ele>
        <time>2022-10-29T19:02:16Z</time>
      </trkpt>
      <trkpt lat="45.02985" lon="0.39028">
        <ele>112.9</ele>
        <time>2022-10-29T19:02:17Z</time>
      </trkpt>
      <trkpt lat="45.02984" lon="0.39015">
        <ele>112.7</ele>
        <time>2022-10-29T19:02:18Z</time>
      </trkpt>
      <trkpt lat="45.02983" lon="0.38999">
        <ele>112.5</ele>
        <time>2022-10-29T19:02:20Z</time>
      </trkpt>
      <trkpt lat="45.02981" lon="0.3898">
        <ele>112.5</ele>
        <time>2022-10-29T19:02:22Z</time>
      </trkpt>
      <trkpt lat="45.0299" lon="0.38975">
        <ele>112.1</ele>
        <time>2022-10-29T19:02:24Z</time>
      </trkpt>
      <trkpt lat="45.03001" lon="0.38969">
        <ele>111.5</ele>
        <time>2022-10-29T19:02:26Z</time>
      </trkpt>
      <trkpt lat="45.03014" lon="0.38963">
        <ele>110.9</ele>
        <time>2022-10-29T19:02:28Z</time>
      </trkpt>
      <trkpt lat="45.03027" lon="0.38956">
        <ele>110.5</ele>
        <time>2022-10-29T19:02:30Z</time>
      </trkpt>
      <trkpt lat="45.03034" lon="0.38953">
        <ele>110.2</ele>
        <time>2022-10-29T19:02:31Z</time>
      </trkpt>
      <trkpt lat="45.0304" lon="0.38949">
        <ele>110.1</ele>
        <time>2022-10-29T19:02:32Z</time>
      </trkpt>
      <trkpt lat="45.03054" lon="0.38942">
        <ele>109.8</ele>
        <time>2022-10-29T19:02:34Z</time>
      </trkpt>
      <trkpt lat="45.03066" lon="0.38937">
        <ele>109.6</ele>
        <time>2022-10-29T19:02:36Z</time>
      </trkpt>
      <trkpt lat="45.03072" lon="0.38935">
        <ele>109.6</ele>
        <time>2022-10-29T19:02:37Z</time>
      </trkpt>
      <trkpt lat="45.03078" lon="0.38933">
        <ele>109.6</ele>
        <time>2022-10-29T19:02:38Z</time>
      </trkpt>
      <trkpt lat="45.03088" lon="0.38928">
        <ele>109.5</ele>
        <time>2022-10-29T19:02:40Z</time>
      </trkpt>
      <trkpt lat="45.031" lon="0.38927">
        <ele>109.2</ele>
        <time>2022-10-29T19:02:42Z</time>
      </trkpt>
      <trkpt lat="45.03112" lon="0.38927">
        <ele>108.7</ele>
        <time>2022-10-29T19:02:44Z</time>
      </trkpt>
      <trkpt lat="45.03118" lon="0.38927">
        <ele>108.5</ele>
        <time>2022-10-29T19:02:45Z</time>
      </trkpt>
      <trkpt lat="45.03124" lon="0.38928">
        <ele>108.3</ele>
        <time>2022-10-29T19:02:46Z</time>
      </trkpt>
      <trkpt lat="45.03137" lon="0.38928">
        <ele>107.9</ele>
        <time>2022-10-29T19:02:48Z</time>
      </trkpt>
      <trkpt lat="45.03149" lon="0.38929">
        <ele>107.6</ele>
        <time>2022-10-29T19:02:50Z</time>
      </trkpt>
      <trkpt lat="45.03154" lon="0.38929">
        <ele>107.5</ele>
        <time>2022-10-29T19:02:51Z</time>
      </trkpt>
      <trkpt lat="45.03159" lon="0.3893">
        <ele>107.3</ele>
        <time>2022-10-29T19:02:52Z</time>
      </trkpt>
      <trkpt lat="45.0317" lon="0.3893">
        <ele>106.9</ele>
        <time>2022-10-29T19:02:54Z</time>
      </trkpt>
      <trkpt lat="45.03176" lon="0.38931">
        <ele>106.7</ele>
        <time>2022-10-29T19:02:55Z</time>
      </trkpt>
      <trkpt lat="45.03185" lon="0.38927">
        <ele>106.2</ele>
        <time>2022-10-29T19:02:56Z</time>
      </trkpt>
      <trkpt lat="45.03198" lon="0.38911">
        <ele>105.9</ele>
        <time>2022-10-29T19:02:58Z</time>
      </trkpt>
      <trkpt lat="45.03203" lon="0.38905">
        <ele>105.8</ele>
        <time>2022-10-29T19:02:59Z</time>
      </trkpt>
      <trkpt lat="45.03209" lon="0.38899">
        <ele>105.7</ele>
        <time>2022-10-29T19:03:00Z</time>
      </trkpt>
      <trkpt lat="45.0322" lon="0.38887">
        <ele>105.6</ele>
        <time>2022-10-29T19:03:02Z</time>
      </trkpt>
      <trkpt lat="45.03232" lon="0.38875">
        <ele>105.5</ele>
        <time>2022-10-29T19:03:04Z</time>
      </trkpt>
      <trkpt lat="45.03244" lon="0.38859">
        <ele>105.4</ele>
        <time>2022-10-29T19:03:06Z</time>
      </trkpt>
      <trkpt lat="45.03255" lon="0.38842">
        <ele>105.3</ele>
        <time>2022-10-29T19:03:08Z</time>
      </trkpt>
      <trkpt lat="45.03261" lon="0.38834">
        <ele>105.3</ele>
        <time>2022-10-29T19:03:09Z</time>
      </trkpt>
      <trkpt lat="45.03266" lon="0.38825">
        <ele>105.2</ele>
        <time>2022-10-29T19:03:10Z</time>
      </trkpt>
      <trkpt lat="45.03277" lon="0.38806">
        <ele>105.1</ele>
        <time>2022-10-29T19:03:12Z</time>
      </trkpt>
      <trkpt lat="45.0328" lon="0.38796">
        <ele>105</ele>
        <time>2022-10-29T19:03:13Z</time>
      </trkpt>
      <trkpt lat="45.03282" lon="0.38785">
        <ele>105</ele>
        <time>2022-10-29T19:03:14Z</time>
      </trkpt>
      <trkpt lat="45.03285" lon="0.38763">
        <ele>104.9</ele>
        <time>2022-10-29T19:03:16Z</time>
      </trkpt>
      <trkpt lat="45.03286" lon="0.38741">
        <ele>104.9</ele>
        <time>2022-10-29T19:03:18Z</time>
      </trkpt>
      <trkpt lat="45.03287" lon="0.3872">
        <ele>105</ele>
        <time>2022-10-29T19:03:20Z</time>
      </trkpt>
      <trkpt lat="45.03287" lon="0.3871">
        <ele>105</ele>
        <time>2022-10-29T19:03:21Z</time>
      </trkpt>
      <trkpt lat="45.03287" lon="0.38699">
        <ele>105</ele>
        <time>2022-10-29T19:03:22Z</time>
      </trkpt>
      <trkpt lat="45.03285" lon="0.38678">
        <ele>105.2</ele>
        <time>2022-10-29T19:03:24Z</time>
      </trkpt>
      <trkpt lat="45.03282" lon="0.38658">
        <ele>105.3</ele>
        <time>2022-10-29T19:03:26Z</time>
      </trkpt>
      <trkpt lat="45.03279" lon="0.38637">
        <ele>105.3</ele>
        <time>2022-10-29T19:03:28Z</time>
      </trkpt>
      <trkpt lat="45.03277" lon="0.38627">
        <ele>105.3</ele>
        <time>2022-10-29T19:03:29Z</time>
      </trkpt>
      <trkpt lat="45.03275" lon="0.38617">
        <ele>105.3</ele>
        <time>2022-10-29T19:03:30Z</time>
      </trkpt>
      <trkpt lat="45.03272" lon="0.38595">
        <ele>105.1</ele>
        <time>2022-10-29T19:03:32Z</time>
      </trkpt>
      <trkpt lat="45.0327" lon="0.38577">
        <ele>104.9</ele>
        <time>2022-10-29T19:03:34Z</time>
      </trkpt>
      <trkpt lat="45.03277" lon="0.38556">
        <ele>104.2</ele>
        <time>2022-10-29T19:03:36Z</time>
      </trkpt>
      <trkpt lat="45.0329" lon="0.38553">
        <ele>103.3</ele>
        <time>2022-10-29T19:03:38Z</time>
      </trkpt>
      <trkpt lat="45.03298" lon="0.38551">
        <ele>102.8</ele>
        <time>2022-10-29T19:03:39Z</time>
      </trkpt>
      <trkpt lat="45.03306" lon="0.38549">
        <ele>102.2</ele>
        <time>2022-10-29T19:03:40Z</time>
      </trkpt>
      <trkpt lat="45.03324" lon="0.38544">
        <ele>101.1</ele>
        <time>2022-10-29T19:03:42Z</time>
      </trkpt>
      <trkpt lat="45.03341" lon="0.3854">
        <ele>100.3</ele>
        <time>2022-10-29T19:03:44Z</time>
      </trkpt>
      <trkpt lat="45.03356" lon="0.38536">
        <ele>99.9</ele>
        <time>2022-10-29T19:03:46Z</time>
      </trkpt>
      <trkpt lat="45.03361" lon="0.38532">
        <ele>99.7</ele>
        <time>2022-10-29T19:03:47Z</time>
      </trkpt>
      <trkpt lat="45.03372" lon="0.3854">
        <ele>100</ele>
        <time>2022-10-29T19:03:48Z</time>
      </trkpt>
      <trkpt lat="45.03373" lon="0.38545">
        <ele>100.1</ele>
        <time>2022-10-29T19:03:49Z</time>
      </trkpt>
      <trkpt lat="45.03373" lon="0.38551">
        <ele>100.3</ele>
        <time>2022-10-29T19:03:50Z</time>
      </trkpt>
      <trkpt lat="45.03374" lon="0.38557">
        <ele>100.4</ele>
        <time>2022-10-29T19:03:51Z</time>
      </trkpt>
      <trkpt lat="45.03375" lon="0.38563">
        <ele>100.6</ele>
        <time>2022-10-29T19:03:52Z</time>
      </trkpt>
      <trkpt lat="45.03378" lon="0.38578">
        <ele>100.9</ele>
        <time>2022-10-29T19:03:54Z</time>
      </trkpt>
      <trkpt lat="45.0338" lon="0.38593">
        <ele>101.3</ele>
        <time>2022-10-29T19:03:56Z</time>
      </trkpt>
      <trkpt lat="45.03382" lon="0.38601">
        <ele>101.5</ele>
        <time>2022-10-29T19:03:57Z</time>
      </trkpt>
      <trkpt lat="45.03383" lon="0.38609">
        <ele>101.7</ele>
        <time>2022-10-29T19:03:58Z</time>
      </trkpt>
      <trkpt lat="45.03385" lon="0.38625">
        <ele>101.8</ele>
        <time>2022-10-29T19:04:00Z</time>
      </trkpt>
      <trkpt lat="45.03388" lon="0.38642">
        <ele>101.8</ele>
        <time>2022-10-29T19:04:02Z</time>
      </trkpt>
      <trkpt lat="45.03391" lon="0.38659">
        <ele>101.6</ele>
        <time>2022-10-29T19:04:04Z</time>
      </trkpt>
      <trkpt lat="45.03394" lon="0.38677">
        <ele>101.2</ele>
        <time>2022-10-29T19:04:06Z</time>
      </trkpt>
      <trkpt lat="45.03397" lon="0.38697">
        <ele>100.5</ele>
        <time>2022-10-29T19:04:08Z</time>
      </trkpt>
      <trkpt lat="45.03399" lon="0.38707">
        <ele>100.2</ele>
        <time>2022-10-29T19:04:09Z</time>
      </trkpt>
      <trkpt lat="45.03401" lon="0.38718">
        <ele>99.8</ele>
        <time>2022-10-29T19:04:10Z</time>
      </trkpt>
      <trkpt lat="45.03404" lon="0.3874">
        <ele>99.1</ele>
        <time>2022-10-29T19:04:12Z</time>
      </trkpt>
      <trkpt lat="45.03408" lon="0.38762">
        <ele>98.5</ele>
        <time>2022-10-29T19:04:14Z</time>
      </trkpt>
      <trkpt lat="45.0341" lon="0.38772">
        <ele>98.2</ele>
        <time>2022-10-29T19:04:15Z</time>
      </trkpt>
      <trkpt lat="45.03411" lon="0.38783">
        <ele>97.9</ele>
        <time>2022-10-29T19:04:16Z</time>
      </trkpt>
      <trkpt lat="45.03415" lon="0.38804">
        <ele>97.4</ele>
        <time>2022-10-29T19:04:18Z</time>
      </trkpt>
      <trkpt lat="45.03418" lon="0.38825">
        <ele>97</ele>
        <time>2022-10-29T19:04:20Z</time>
      </trkpt>
      <trkpt lat="45.0342" lon="0.38835">
        <ele>96.8</ele>
        <time>2022-10-29T19:04:21Z</time>
      </trkpt>
      <trkpt lat="45.03422" lon="0.38845">
        <ele>96.7</ele>
        <time>2022-10-29T19:04:22Z</time>
      </trkpt>
      <trkpt lat="45.03425" lon="0.38864">
        <ele>96.6</ele>
        <time>2022-10-29T19:04:24Z</time>
      </trkpt>
      <trkpt lat="45.03428" lon="0.38882">
        <ele>96.5</ele>
        <time>2022-10-29T19:04:26Z</time>
      </trkpt>
      <trkpt lat="45.03429" lon="0.38891">
        <ele>96.5</ele>
        <time>2022-10-29T19:04:27Z</time>
      </trkpt>
      <trkpt lat="45.0343" lon="0.38898">
        <ele>96.5</ele>
        <time>2022-10-29T19:04:28Z</time>
      </trkpt>
      <trkpt lat="45.03431" lon="0.38903">
        <ele>96.6</ele>
        <time>2022-10-29T19:04:29Z</time>
      </trkpt>
      <trkpt lat="45.03436" lon="0.38907">
        <ele>96.6</ele>
        <time>2022-10-29T19:04:30Z</time>
      </trkpt>
      <trkpt lat="45.03439" lon="0.38906">
        <ele>96.5</ele>
        <time>2022-10-29T19:04:31Z</time>
      </trkpt>
      <trkpt lat="45.03444" lon="0.38903">
        <ele>96.4</ele>
        <time>2022-10-29T19:04:32Z</time>
      </trkpt>
      <trkpt lat="45.03449" lon="0.389">
        <ele>96.4</ele>
        <time>2022-10-29T19:04:33Z</time>
      </trkpt>
      <trkpt lat="45.03454" lon="0.38897">
        <ele>96.3</ele>
        <time>2022-10-29T19:04:34Z</time>
      </trkpt>
      <trkpt lat="45.03466" lon="0.38893">
        <ele>96.4</ele>
        <time>2022-10-29T19:04:36Z</time>
      </trkpt>
      <trkpt lat="45.03479" lon="0.38894">
        <ele>96.6</ele>
        <time>2022-10-29T19:04:38Z</time>
      </trkpt>
      <trkpt lat="45.03485" lon="0.38893">
        <ele>96.8</ele>
        <time>2022-10-29T19:04:39Z</time>
      </trkpt>
      <trkpt lat="45.03491" lon="0.3889">
        <ele>96.9</ele>
        <time>2022-10-29T19:04:40Z</time>
      </trkpt>
      <trkpt lat="45.03495" lon="0.38886">
        <ele>97.1</ele>
        <time>2022-10-29T19:04:41Z</time>
      </trkpt>
      <trkpt lat="45.035" lon="0.38881">
        <ele>97.1</ele>
        <time>2022-10-29T19:04:42Z</time>
      </trkpt>
      <trkpt lat="45.03505" lon="0.38877">
        <ele>97.2</ele>
        <time>2022-10-29T19:04:43Z</time>
      </trkpt>
      <trkpt lat="45.03509" lon="0.38873">
        <ele>97.2</ele>
        <time>2022-10-29T19:04:44Z</time>
      </trkpt>
      <trkpt lat="45.03518" lon="0.38865">
        <ele>97.3</ele>
        <time>2022-10-29T19:04:46Z</time>
      </trkpt>
      <trkpt lat="45.03528" lon="0.38858">
        <ele>97.2</ele>
        <time>2022-10-29T19:04:48Z</time>
      </trkpt>
      <trkpt lat="45.03533" lon="0.38853">
        <ele>97.2</ele>
        <time>2022-10-29T19:04:49Z</time>
      </trkpt>
      <trkpt lat="45.03539" lon="0.38848">
        <ele>97</ele>
        <time>2022-10-29T19:04:50Z</time>
      </trkpt>
      <trkpt lat="45.03544" lon="0.38844">
        <ele>96.7</ele>
        <time>2022-10-29T19:04:51Z</time>
      </trkpt>
      <trkpt lat="45.0355" lon="0.38839">
        <ele>96.5</ele>
        <time>2022-10-29T19:04:52Z</time>
      </trkpt>
      <trkpt lat="45.03561" lon="0.38829">
        <ele>96.1</ele>
        <time>2022-10-29T19:04:54Z</time>
      </trkpt>
      <trkpt lat="45.03573" lon="0.38819">
        <ele>95.8</ele>
        <time>2022-10-29T19:04:56Z</time>
      </trkpt>
      <trkpt lat="45.03579" lon="0.38815">
        <ele>95.6</ele>
        <time>2022-10-29T19:04:57Z</time>
      </trkpt>
      <trkpt lat="45.03584" lon="0.3881">
        <ele>95.5</ele>
        <time>2022-10-29T19:04:58Z</time>
      </trkpt>
      <trkpt lat="45.03596" lon="0.38801">
        <ele>95.4</ele>
        <time>2022-10-29T19:05:00Z</time>
      </trkpt>
      <trkpt lat="45.03603" lon="0.38798">
        <ele>95.5</ele>
        <time>2022-10-29T19:05:01Z</time>
      </trkpt>
      <trkpt lat="45.0361" lon="0.38796">
        <ele>95.6</ele>
        <time>2022-10-29T19:05:02Z</time>
      </trkpt>
      <trkpt lat="45.03617" lon="0.38796">
        <ele>95.7</ele>
        <time>2022-10-29T19:05:03Z</time>
      </trkpt>
      <trkpt lat="45.03625" lon="0.38801">
        <ele>96</ele>
        <time>2022-10-29T19:05:04Z</time>
      </trkpt>
      <trkpt lat="45.03636" lon="0.38811">
        <ele>96.5</ele>
        <time>2022-10-29T19:05:06Z</time>
      </trkpt>
      <trkpt lat="45.03646" lon="0.38821">
        <ele>96.9</ele>
        <time>2022-10-29T19:05:08Z</time>
      </trkpt>
      <trkpt lat="45.03656" lon="0.38827">
        <ele>97.2</ele>
        <time>2022-10-29T19:05:10Z</time>
      </trkpt>
      <trkpt lat="45.03666" lon="0.38834">
        <ele>97.4</ele>
        <time>2022-10-29T19:05:12Z</time>
      </trkpt>
      <trkpt lat="45.03672" lon="0.38837">
        <ele>97.4</ele>
        <time>2022-10-29T19:05:13Z</time>
      </trkpt>
      <trkpt lat="45.03677" lon="0.38841">
        <ele>97.4</ele>
        <time>2022-10-29T19:05:14Z</time>
      </trkpt>
      <trkpt lat="45.03682" lon="0.38843">
        <ele>97.4</ele>
        <time>2022-10-29T19:05:15Z</time>
      </trkpt>
      <trkpt lat="45.03687" lon="0.38843">
        <ele>97.3</ele>
        <time>2022-10-29T19:05:16Z</time>
      </trkpt>
      <trkpt lat="45.03693" lon="0.3884">
        <ele>97.2</ele>
        <time>2022-10-29T19:05:17Z</time>
      </trkpt>
      <trkpt lat="45.03697" lon="0.38833">
        <ele>97</ele>
        <time>2022-10-29T19:05:18Z</time>
      </trkpt>
      <trkpt lat="45.03706" lon="0.3882">
        <ele>96.7</ele>
        <time>2022-10-29T19:05:20Z</time>
      </trkpt>
      <trkpt lat="45.03713" lon="0.38806">
        <ele>96.5</ele>
        <time>2022-10-29T19:05:22Z</time>
      </trkpt>
      <trkpt lat="45.03716" lon="0.388">
        <ele>96.3</ele>
        <time>2022-10-29T19:05:23Z</time>
      </trkpt>
      <trkpt lat="45.0372" lon="0.38793">
        <ele>96.2</ele>
        <time>2022-10-29T19:05:24Z</time>
      </trkpt>
      <trkpt lat="45.03729" lon="0.3878">
        <ele>95.9</ele>
        <time>2022-10-29T19:05:26Z</time>
      </trkpt>
      <trkpt lat="45.03738" lon="0.38765">
        <ele>95.3</ele>
        <time>2022-10-29T19:05:28Z</time>
      </trkpt>
      <trkpt lat="45.03747" lon="0.38751">
        <ele>94.6</ele>
        <time>2022-10-29T19:05:30Z</time>
      </trkpt>
      <trkpt lat="45.03758" lon="0.38736">
        <ele>93.7</ele>
        <time>2022-10-29T19:05:32Z</time>
      </trkpt>
      <trkpt lat="45.03769" lon="0.38719">
        <ele>92.6</ele>
        <time>2022-10-29T19:05:34Z</time>
      </trkpt>
      <trkpt lat="45.03781" lon="0.38701">
        <ele>91.1</ele>
        <time>2022-10-29T19:05:36Z</time>
      </trkpt>
      <trkpt lat="45.03787" lon="0.38691">
        <ele>90.4</ele>
        <time>2022-10-29T19:05:37Z</time>
      </trkpt>
      <trkpt lat="45.03793" lon="0.38681">
        <ele>89.7</ele>
        <time>2022-10-29T19:05:38Z</time>
      </trkpt>
      <trkpt lat="45.03804" lon="0.3866">
        <ele>88.8</ele>
        <time>2022-10-29T19:05:40Z</time>
      </trkpt>
      <trkpt lat="45.03817" lon="0.38641">
        <ele>88</ele>
        <time>2022-10-29T19:05:42Z</time>
      </trkpt>
      <trkpt lat="45.03824" lon="0.38631">
        <ele>87.6</ele>
        <time>2022-10-29T19:05:43Z</time>
      </trkpt>
      <trkpt lat="45.0383" lon="0.38622">
        <ele>87.2</ele>
        <time>2022-10-29T19:05:44Z</time>
      </trkpt>
      <trkpt lat="45.03842" lon="0.38605">
        <ele>86.8</ele>
        <time>2022-10-29T19:05:46Z</time>
      </trkpt>
      <trkpt lat="45.03852" lon="0.3859">
        <ele>86.4</ele>
        <time>2022-10-29T19:05:48Z</time>
      </trkpt>
      <trkpt lat="45.03863" lon="0.38585">
        <ele>86.2</ele>
        <time>2022-10-29T19:05:50Z</time>
      </trkpt>
      <trkpt lat="45.03873" lon="0.38591">
        <ele>86.1</ele>
        <time>2022-10-29T19:05:52Z</time>
      </trkpt>
      <trkpt lat="45.03878" lon="0.38594">
        <ele>86</ele>
        <time>2022-10-29T19:05:53Z</time>
      </trkpt>
      <trkpt lat="45.03884" lon="0.38598">
        <ele>85.9</ele>
        <time>2022-10-29T19:05:54Z</time>
      </trkpt>
      <trkpt lat="45.03897" lon="0.38604">
        <ele>85.8</ele>
        <time>2022-10-29T19:05:56Z</time>
      </trkpt>
      <trkpt lat="45.03908" lon="0.38609">
        <ele>85.8</ele>
        <time>2022-10-29T19:05:58Z</time>
      </trkpt>
      <trkpt lat="45.03921" lon="0.38617">
        <ele>85.7</ele>
        <time>2022-10-29T19:06:00Z</time>
      </trkpt>
      <trkpt lat="45.03934" lon="0.38625">
        <ele>85.7</ele>
        <time>2022-10-29T19:06:02Z</time>
      </trkpt>
      <trkpt lat="45.03947" lon="0.38633">
        <ele>85.8</ele>
        <time>2022-10-29T19:06:04Z</time>
      </trkpt>
      <trkpt lat="45.03954" lon="0.38637">
        <ele>86</ele>
        <time>2022-10-29T19:06:05Z</time>
      </trkpt>
      <trkpt lat="45.03961" lon="0.38642">
        <ele>86.1</ele>
        <time>2022-10-29T19:06:06Z</time>
      </trkpt>
      <trkpt lat="45.03973" lon="0.3865">
        <ele>86.3</ele>
        <time>2022-10-29T19:06:08Z</time>
      </trkpt>
      <trkpt lat="45.03977" lon="0.38656">
        <ele>86.3</ele>
        <time>2022-10-29T19:06:09Z</time>
      </trkpt>
      <trkpt lat="45.03981" lon="0.3866">
        <ele>86.3</ele>
        <time>2022-10-29T19:06:10Z</time>
      </trkpt>
      <trkpt lat="45.03991" lon="0.38671">
        <ele>85.8</ele>
        <time>2022-10-29T19:06:12Z</time>
      </trkpt>
      <trkpt lat="45.04001" lon="0.38684">
        <ele>84.7</ele>
        <time>2022-10-29T19:06:14Z</time>
      </trkpt>
      <trkpt lat="45.04008" lon="0.38691">
        <ele>84</ele>
        <time>2022-10-29T19:06:15Z</time>
      </trkpt>
      <trkpt lat="45.04014" lon="0.38698">
        <ele>83.5</ele>
        <time>2022-10-29T19:06:16Z</time>
      </trkpt>
      <trkpt lat="45.04025" lon="0.38706">
        <ele>82.9</ele>
        <time>2022-10-29T19:06:18Z</time>
      </trkpt>
      <trkpt lat="45.04037" lon="0.38706">
        <ele>82.4</ele>
        <time>2022-10-29T19:06:20Z</time>
      </trkpt>
      <trkpt lat="45.04042" lon="0.38698">
        <ele>82.1</ele>
        <time>2022-10-29T19:06:21Z</time>
      </trkpt>
      <trkpt lat="45.04047" lon="0.38692">
        <ele>81.8</ele>
        <time>2022-10-29T19:06:22Z</time>
      </trkpt>
      <trkpt lat="45.04059" lon="0.38678">
        <ele>81.3</ele>
        <time>2022-10-29T19:06:24Z</time>
      </trkpt>
      <trkpt lat="45.04065" lon="0.38671">
        <ele>81</ele>
        <time>2022-10-29T19:06:25Z</time>
      </trkpt>
      <trkpt lat="45.04071" lon="0.38665">
        <ele>80.7</ele>
        <time>2022-10-29T19:06:26Z</time>
      </trkpt>
      <trkpt lat="45.04083" lon="0.38651">
        <ele>80.2</ele>
        <time>2022-10-29T19:06:28Z</time>
      </trkpt>
      <trkpt lat="45.04095" lon="0.38636">
        <ele>79.5</ele>
        <time>2022-10-29T19:06:30Z</time>
      </trkpt>
      <trkpt lat="45.04106" lon="0.38621">
        <ele>78.7</ele>
        <time>2022-10-29T19:06:32Z</time>
      </trkpt>
      <trkpt lat="45.04119" lon="0.38608">
        <ele>77.7</ele>
        <time>2022-10-29T19:06:34Z</time>
      </trkpt>
      <trkpt lat="45.04126" lon="0.38601">
        <ele>77.3</ele>
        <time>2022-10-29T19:06:35Z</time>
      </trkpt>
      <trkpt lat="45.04133" lon="0.38596">
        <ele>76.9</ele>
        <time>2022-10-29T19:06:36Z</time>
      </trkpt>
      <trkpt lat="45.04148" lon="0.38586">
        <ele>76.3</ele>
        <time>2022-10-29T19:06:38Z</time>
      </trkpt>
      <trkpt lat="45.04162" lon="0.38577">
        <ele>75.8</ele>
        <time>2022-10-29T19:06:40Z</time>
      </trkpt>
      <trkpt lat="45.04175" lon="0.38569">
        <ele>75.3</ele>
        <time>2022-10-29T19:06:42Z</time>
      </trkpt>
      <trkpt lat="45.0418" lon="0.38566">
        <ele>75</ele>
        <time>2022-10-29T19:06:43Z</time>
      </trkpt>
      <trkpt lat="45.04193" lon="0.38571">
        <ele>74.1</ele>
        <time>2022-10-29T19:06:44Z</time>
      </trkpt>
      <trkpt lat="45.04205" lon="0.38576">
        <ele>74</ele>
        <time>2022-10-29T19:06:46Z</time>
      </trkpt>
      <trkpt lat="45.04222" lon="0.38581">
        <ele>74.3</ele>
        <time>2022-10-29T19:06:48Z</time>
      </trkpt>
      <trkpt lat="45.04238" lon="0.38585">
        <ele>74.8</ele>
        <time>2022-10-29T19:06:50Z</time>
      </trkpt>
      <trkpt lat="45.04246" lon="0.38588">
        <ele>75.1</ele>
        <time>2022-10-29T19:06:51Z</time>
      </trkpt>
      <trkpt lat="45.04253" lon="0.3859">
        <ele>75.3</ele>
        <time>2022-10-29T19:06:52Z</time>
      </trkpt>
      <trkpt lat="45.04268" lon="0.38594">
        <ele>75.8</ele>
        <time>2022-10-29T19:06:54Z</time>
      </trkpt>
      <trkpt lat="45.04275" lon="0.38596">
        <ele>76</ele>
        <time>2022-10-29T19:06:55Z</time>
      </trkpt>
      <trkpt lat="45.04282" lon="0.38597">
        <ele>76.2</ele>
        <time>2022-10-29T19:06:56Z</time>
      </trkpt>
      <trkpt lat="45.04296" lon="0.38601">
        <ele>76.5</ele>
        <time>2022-10-29T19:06:58Z</time>
      </trkpt>
      <trkpt lat="45.0431" lon="0.38604">
        <ele>76.7</ele>
        <time>2022-10-29T19:07:00Z</time>
      </trkpt>
      <trkpt lat="45.04325" lon="0.38607">
        <ele>76.9</ele>
        <time>2022-10-29T19:07:02Z</time>
      </trkpt>
      <trkpt lat="45.04339" lon="0.38607">
        <ele>77.2</ele>
        <time>2022-10-29T19:07:04Z</time>
      </trkpt>
      <trkpt lat="45.04347" lon="0.38607">
        <ele>77.3</ele>
        <time>2022-10-29T19:07:05Z</time>
      </trkpt>
      <trkpt lat="45.04354" lon="0.38607">
        <ele>77.5</ele>
        <time>2022-10-29T19:07:06Z</time>
      </trkpt>
      <trkpt lat="45.04369" lon="0.38603">
        <ele>77.6</ele>
        <time>2022-10-29T19:07:08Z</time>
      </trkpt>
      <trkpt lat="45.04376" lon="0.38601">
        <ele>77.5</ele>
        <time>2022-10-29T19:07:09Z</time>
      </trkpt>
      <trkpt lat="45.04382" lon="0.38599">
        <ele>77.5</ele>
        <time>2022-10-29T19:07:10Z</time>
      </trkpt>
      <trkpt lat="45.04397" lon="0.38594">
        <ele>77.3</ele>
        <time>2022-10-29T19:07:12Z</time>
      </trkpt>
      <trkpt lat="45.04411" lon="0.3859">
        <ele>77</ele>
        <time>2022-10-29T19:07:14Z</time>
      </trkpt>
      <trkpt lat="45.04427" lon="0.38596">
        <ele>76.6</ele>
        <time>2022-10-29T19:07:16Z</time>
      </trkpt>
      <trkpt lat="45.04434" lon="0.38601">
        <ele>76.4</ele>
        <time>2022-10-29T19:07:17Z</time>
      </trkpt>
      <trkpt lat="45.04441" lon="0.38604">
        <ele>76.1</ele>
        <time>2022-10-29T19:07:18Z</time>
      </trkpt>
      <trkpt lat="45.04456" lon="0.38616">
        <ele>76.3</ele>
        <time>2022-10-29T19:07:20Z</time>
      </trkpt>
      <trkpt lat="45.04469" lon="0.38627">
        <ele>76.7</ele>
        <time>2022-10-29T19:07:22Z</time>
      </trkpt>
      <trkpt lat="45.04482" lon="0.38637">
        <ele>77.2</ele>
        <time>2022-10-29T19:07:24Z</time>
      </trkpt>
      <trkpt lat="45.04494" lon="0.38644">
        <ele>77.6</ele>
        <time>2022-10-29T19:07:26Z</time>
      </trkpt>
      <trkpt lat="45.04503" lon="0.38655">
        <ele>78</ele>
        <time>2022-10-29T19:07:28Z</time>
      </trkpt>
      <trkpt lat="45.04507" lon="0.38661">
        <ele>78.2</ele>
        <time>2022-10-29T19:07:29Z</time>
      </trkpt>
      <trkpt lat="45.04511" lon="0.38666">
        <ele>78.4</ele>
        <time>2022-10-29T19:07:30Z</time>
      </trkpt>
      <trkpt lat="45.04517" lon="0.38677">
        <ele>78.7</ele>
        <time>2022-10-29T19:07:32Z</time>
      </trkpt>
      <trkpt lat="45.04522" lon="0.38687">
        <ele>78.9</ele>
        <time>2022-10-29T19:07:34Z</time>
      </trkpt>
      <trkpt lat="45.04526" lon="0.38698">
        <ele>79.1</ele>
        <time>2022-10-29T19:07:36Z</time>
      </trkpt>
      <trkpt lat="45.04531" lon="0.38709">
        <ele>79.3</ele>
        <time>2022-10-29T19:07:38Z</time>
      </trkpt>
      <trkpt lat="45.04535" lon="0.3872">
        <ele>79.5</ele>
        <time>2022-10-29T19:07:40Z</time>
      </trkpt>
      <trkpt lat="45.0454" lon="0.38731">
        <ele>79.6</ele>
        <time>2022-10-29T19:07:42Z</time>
      </trkpt>
      <trkpt lat="45.04544" lon="0.38742">
        <ele>79.7</ele>
        <time>2022-10-29T19:07:44Z</time>
      </trkpt>
      <trkpt lat="45.04548" lon="0.38751">
        <ele>79.8</ele>
        <time>2022-10-29T19:07:46Z</time>
      </trkpt>
      <trkpt lat="45.04552" lon="0.38762">
        <ele>79.9</ele>
        <time>2022-10-29T19:07:48Z</time>
      </trkpt>
      <trkpt lat="45.04554" lon="0.38767">
        <ele>79.9</ele>
        <time>2022-10-29T19:07:49Z</time>
      </trkpt>
      <trkpt lat="45.04556" lon="0.38772">
        <ele>80</ele>
        <time>2022-10-29T19:07:50Z</time>
      </trkpt>
      <trkpt lat="45.0456" lon="0.38782">
        <ele>80</ele>
        <time>2022-10-29T19:07:52Z</time>
      </trkpt>
      <trkpt lat="45.04564" lon="0.38791">
        <ele>80.2</ele>
        <time>2022-10-29T19:07:54Z</time>
      </trkpt>
      <trkpt lat="45.04568" lon="0.38801">
        <ele>80.3</ele>
        <time>2022-10-29T19:07:56Z</time>
      </trkpt>
      <trkpt lat="45.04572" lon="0.38811">
        <ele>80.4</ele>
        <time>2022-10-29T19:07:58Z</time>
      </trkpt>
      <trkpt lat="45.04576" lon="0.38821">
        <ele>80.5</ele>
        <time>2022-10-29T19:08:00Z</time>
      </trkpt>
      <trkpt lat="45.0458" lon="0.38831">
        <ele>80.6</ele>
        <time>2022-10-29T19:08:02Z</time>
      </trkpt>
      <trkpt lat="45.04585" lon="0.38841">
        <ele>80.8</ele>
        <time>2022-10-29T19:08:04Z</time>
      </trkpt>
      <trkpt lat="45.04589" lon="0.38852">
        <ele>80.9</ele>
        <time>2022-10-29T19:08:06Z</time>
      </trkpt>
      <trkpt lat="45.04593" lon="0.38863">
        <ele>81.1</ele>
        <time>2022-10-29T19:08:08Z</time>
      </trkpt>
      <trkpt lat="45.04598" lon="0.38874">
        <ele>81.2</ele>
        <time>2022-10-29T19:08:10Z</time>
      </trkpt>
      <trkpt lat="45.04602" lon="0.38885">
        <ele>81.4</ele>
        <time>2022-10-29T19:08:12Z</time>
      </trkpt>
      <trkpt lat="45.04607" lon="0.38896">
        <ele>81.5</ele>
        <time>2022-10-29T19:08:14Z</time>
      </trkpt>
      <trkpt lat="45.04612" lon="0.38908">
        <ele>81.7</ele>
        <time>2022-10-29T19:08:16Z</time>
      </trkpt>
      <trkpt lat="45.04616" lon="0.38919">
        <ele>81.9</ele>
        <time>2022-10-29T19:08:18Z</time>
      </trkpt>
      <trkpt lat="45.04621" lon="0.38931">
        <ele>82.1</ele>
        <time>2022-10-29T19:08:20Z</time>
      </trkpt>
      <trkpt lat="45.04626" lon="0.38942">
        <ele>82.2</ele>
        <time>2022-10-29T19:08:22Z</time>
      </trkpt>
      <trkpt lat="45.0463" lon="0.38953">
        <ele>82.4</ele>
        <time>2022-10-29T19:08:24Z</time>
      </trkpt>
      <trkpt lat="45.04632" lon="0.38959">
        <ele>82.5</ele>
        <time>2022-10-29T19:08:25Z</time>
      </trkpt>
      <trkpt lat="45.04634" lon="0.38964">
        <ele>82.6</ele>
        <time>2022-10-29T19:08:26Z</time>
      </trkpt>
      <trkpt lat="45.0464" lon="0.38963">
        <ele>82.7</ele>
        <time>2022-10-29T19:08:27Z</time>
      </trkpt>
      <trkpt lat="45.04643" lon="0.38959">
        <ele>82.7</ele>
        <time>2022-10-29T19:08:28Z</time>
      </trkpt>
      <trkpt lat="45.04648" lon="0.38956">
        <ele>82.7</ele>
        <time>2022-10-29T19:08:29Z</time>
      </trkpt>
      <trkpt lat="45.04652" lon="0.38953">
        <ele>82.7</ele>
        <time>2022-10-29T19:08:30Z</time>
      </trkpt>
      <trkpt lat="45.04661" lon="0.38948">
        <ele>82.7</ele>
        <time>2022-10-29T19:08:32Z</time>
      </trkpt>
      <trkpt lat="45.0467" lon="0.38942">
        <ele>82.7</ele>
        <time>2022-10-29T19:08:34Z</time>
      </trkpt>
      <trkpt lat="45.0468" lon="0.38937">
        <ele>82.7</ele>
        <time>2022-10-29T19:08:36Z</time>
      </trkpt>
      <trkpt lat="45.0469" lon="0.3893">
        <ele>82.7</ele>
        <time>2022-10-29T19:08:38Z</time>
      </trkpt>
      <trkpt lat="45.047" lon="0.38924">
        <ele>82.7</ele>
        <time>2022-10-29T19:08:40Z</time>
      </trkpt>
      <trkpt lat="45.0471" lon="0.38917">
        <ele>82.7</ele>
        <time>2022-10-29T19:08:42Z</time>
      </trkpt>
      <trkpt lat="45.04719" lon="0.3891">
        <ele>82.6</ele>
        <time>2022-10-29T19:08:44Z</time>
      </trkpt>
      <trkpt lat="45.04729" lon="0.38902">
        <ele>82.5</ele>
        <time>2022-10-29T19:08:46Z</time>
      </trkpt>
      <trkpt lat="45.04734" lon="0.38898">
        <ele>82.3</ele>
        <time>2022-10-29T19:08:47Z</time>
      </trkpt>
      <trkpt lat="45.04738" lon="0.38892">
        <ele>82.2</ele>
        <time>2022-10-29T19:08:48Z</time>
      </trkpt>
      <trkpt lat="45.04742" lon="0.38887">
        <ele>81.9</ele>
        <time>2022-10-29T19:08:49Z</time>
      </trkpt>
      <trkpt lat="45.04746" lon="0.3888">
        <ele>81.6</ele>
        <time>2022-10-29T19:08:50Z</time>
      </trkpt>
      <trkpt lat="45.0475" lon="0.38874">
        <ele>81.1</ele>
        <time>2022-10-29T19:08:51Z</time>
      </trkpt>
      <trkpt lat="45.04755" lon="0.38868">
        <ele>80.6</ele>
        <time>2022-10-29T19:08:52Z</time>
      </trkpt>
      <trkpt lat="45.04759" lon="0.38862">
        <ele>79.9</ele>
        <time>2022-10-29T19:08:53Z</time>
      </trkpt>
      <trkpt lat="45.04762" lon="0.38858">
        <ele>79.5</ele>
        <time>2022-10-29T19:08:54Z</time>
      </trkpt>
      <trkpt lat="45.04763" lon="0.38831">
        <ele>79.3</ele>
        <time>2022-10-29T19:08:56Z</time>
      </trkpt>
      <trkpt lat="45.04764" lon="0.38804">
        <ele>79.1</ele>
        <time>2022-10-29T19:08:58Z</time>
      </trkpt>
      <trkpt lat="45.04763" lon="0.38794">
        <ele>78.6</ele>
        <time>2022-10-29T19:08:59Z</time>
      </trkpt>
      <trkpt lat="45.04762" lon="0.38784">
        <ele>78.6</ele>
        <time>2022-10-29T19:09:00Z</time>
      </trkpt>
      <trkpt lat="45.04762" lon="0.38773">
        <ele>77.7</ele>
        <time>2022-10-29T19:09:01Z</time>
      </trkpt>
      <trkpt lat="45.04762" lon="0.38761">
        <ele>76.6</ele>
        <time>2022-10-29T19:09:02Z</time>
      </trkpt>
      <trkpt lat="45.04763" lon="0.38747">
        <ele>76.6</ele>
        <time>2022-10-29T19:09:03Z</time>
      </trkpt>
      <trkpt lat="45.04763" lon="0.38733">
        <ele>75.4</ele>
        <time>2022-10-29T19:09:04Z</time>
      </trkpt>
      <trkpt lat="45.04762" lon="0.38703">
        <ele>72.9</ele>
        <time>2022-10-29T19:09:06Z</time>
      </trkpt>
      <trkpt lat="45.0476" lon="0.38689">
        <ele>71.4</ele>
        <time>2022-10-29T19:09:07Z</time>
      </trkpt>
      <trkpt lat="45.04759" lon="0.38673">
        <ele>69.9</ele>
        <time>2022-10-29T19:09:08Z</time>
      </trkpt>
      <trkpt lat="45.04759" lon="0.38646">
        <ele>68.4</ele>
        <time>2022-10-29T19:09:10Z</time>
      </trkpt>
      <trkpt lat="45.04759" lon="0.38634">
        <ele>67.2</ele>
        <time>2022-10-29T19:09:11Z</time>
      </trkpt>
      <trkpt lat="45.0476" lon="0.38624">
        <ele>67.3</ele>
        <time>2022-10-29T19:09:12Z</time>
      </trkpt>
      <trkpt lat="45.04762" lon="0.38615">
        <ele>66.4</ele>
        <time>2022-10-29T19:09:13Z</time>
      </trkpt>
      <trkpt lat="45.04767" lon="0.38607">
        <ele>66.4</ele>
        <time>2022-10-29T19:09:14Z</time>
      </trkpt>
      <trkpt lat="45.04772" lon="0.38599">
        <ele>63.1</ele>
        <time>2022-10-29T19:09:15Z</time>
      </trkpt>
      <trkpt lat="45.04777" lon="0.38592">
        <ele>63.1</ele>
        <time>2022-10-29T19:09:16Z</time>
      </trkpt>
      <trkpt lat="45.04783" lon="0.38585">
        <ele>60.1</ele>
        <time>2022-10-29T19:09:17Z</time>
      </trkpt>
      <trkpt lat="45.0479" lon="0.38581">
        <ele>60.1</ele>
        <time>2022-10-29T19:09:18Z</time>
      </trkpt>
      <trkpt lat="45.04798" lon="0.38579">
        <ele>58.7</ele>
        <time>2022-10-29T19:09:19Z</time>
      </trkpt>
      <trkpt lat="45.04806" lon="0.38574">
        <ele>58.7</ele>
        <time>2022-10-29T19:09:20Z</time>
      </trkpt>
      <trkpt lat="45.04812" lon="0.38569">
        <ele>57.7</ele>
        <time>2022-10-29T19:09:21Z</time>
      </trkpt>
      <trkpt lat="45.04819" lon="0.38565">
        <ele>57.7</ele>
        <time>2022-10-29T19:09:22Z</time>
      </trkpt>
      <trkpt lat="45.0483" lon="0.38557">
        <ele>57.6</ele>
        <time>2022-10-29T19:09:24Z</time>
      </trkpt>
      <trkpt lat="45.04835" lon="0.38554">
        <ele>57.5</ele>
        <time>2022-10-29T19:09:26Z</time>
      </trkpt>
      <trkpt lat="45.04836" lon="0.38553">
        <ele>57.5</ele>
        <time>2022-10-29T19:09:28Z</time>
      </trkpt>
      <trkpt lat="45.04836" lon="0.38553">
        <ele>57.5</ele>
        <time>2022-10-29T19:09:29Z</time>
      </trkpt>
      <trkpt lat="45.04843" lon="0.38549">
        <ele>57.5</ele>
        <time>2022-10-29T19:09:43Z</time>
      </trkpt>
      <trkpt lat="45.04843" lon="0.38549">
        <ele>57.5</ele>
        <time>2022-10-29T19:09:44Z</time>
      </trkpt>
      <trkpt lat="45.04849" lon="0.38545">
        <ele>57.5</ele>
        <time>2022-10-29T19:09:46Z</time>
      </trkpt>
      <trkpt lat="45.04858" lon="0.3854">
        <ele>57.4</ele>
        <time>2022-10-29T19:09:48Z</time>
      </trkpt>
      <trkpt lat="45.04868" lon="0.38534">
        <ele>57.3</ele>
        <time>2022-10-29T19:09:50Z</time>
      </trkpt>
      <trkpt lat="45.04872" lon="0.38532">
        <ele>57.3</ele>
        <time>2022-10-29T19:09:51Z</time>
      </trkpt>
      <trkpt lat="45.04877" lon="0.38529">
        <ele>57.2</ele>
        <time>2022-10-29T19:09:52Z</time>
      </trkpt>
      <trkpt lat="45.04887" lon="0.38523">
        <ele>57.1</ele>
        <time>2022-10-29T19:09:54Z</time>
      </trkpt>
      <trkpt lat="45.04891" lon="0.38521">
        <ele>57</ele>
        <time>2022-10-29T19:09:55Z</time>
      </trkpt>
      <trkpt lat="45.04896" lon="0.38518">
        <ele>57</ele>
        <time>2022-10-29T19:09:56Z</time>
      </trkpt>
      <trkpt lat="45.049" lon="0.38515">
        <ele>56.9</ele>
        <time>2022-10-29T19:09:57Z</time>
      </trkpt>
      <trkpt lat="45.04904" lon="0.38513">
        <ele>56.9</ele>
        <time>2022-10-29T19:09:58Z</time>
      </trkpt>
      <trkpt lat="45.04914" lon="0.38507">
        <ele>56.8</ele>
        <time>2022-10-29T19:10:00Z</time>
      </trkpt>
      <trkpt lat="45.04925" lon="0.38501">
        <ele>56.8</ele>
        <time>2022-10-29T19:10:02Z</time>
      </trkpt>
      <trkpt lat="45.0493" lon="0.38498">
        <ele>56.8</ele>
        <time>2022-10-29T19:10:03Z</time>
      </trkpt>
      <trkpt lat="45.04935" lon="0.38495">
        <ele>56.8</ele>
        <time>2022-10-29T19:10:04Z</time>
      </trkpt>
      <trkpt lat="45.04946" lon="0.38488">
        <ele>56.8</ele>
        <time>2022-10-29T19:10:06Z</time>
      </trkpt>
      <trkpt lat="45.04952" lon="0.38485">
        <ele>56.9</ele>
        <time>2022-10-29T19:10:07Z</time>
      </trkpt>
      <trkpt lat="45.0496" lon="0.38488">
        <ele>56.9</ele>
        <time>2022-10-29T19:10:08Z</time>
      </trkpt>
      <trkpt lat="45.04963" lon="0.38495">
        <ele>56.9</ele>
        <time>2022-10-29T19:10:09Z</time>
      </trkpt>
      <trkpt lat="45.04966" lon="0.38502">
        <ele>56.8</ele>
        <time>2022-10-29T19:10:10Z</time>
      </trkpt>
      <trkpt lat="45.0497" lon="0.38509">
        <ele>56.8</ele>
        <time>2022-10-29T19:10:11Z</time>
      </trkpt>
      <trkpt lat="45.04973" lon="0.38516">
        <ele>56.8</ele>
        <time>2022-10-29T19:10:12Z</time>
      </trkpt>
      <trkpt lat="45.04981" lon="0.38532">
        <ele>56.7</ele>
        <time>2022-10-29T19:10:14Z</time>
      </trkpt>
      <trkpt lat="45.04986" lon="0.38539">
        <ele>56.7</ele>
        <time>2022-10-29T19:10:15Z</time>
      </trkpt>
      <trkpt lat="45.0499" lon="0.38546">
        <ele>56.6</ele>
        <time>2022-10-29T19:10:16Z</time>
      </trkpt>
      <trkpt lat="45.05" lon="0.3856">
        <ele>56.5</ele>
        <time>2022-10-29T19:10:18Z</time>
      </trkpt>
      <trkpt lat="45.05009" lon="0.38575">
        <ele>56.6</ele>
        <time>2022-10-29T19:10:20Z</time>
      </trkpt>
      <trkpt lat="45.05014" lon="0.38582">
        <ele>56.6</ele>
        <time>2022-10-29T19:10:21Z</time>
      </trkpt>
      <trkpt lat="45.05019" lon="0.38589">
        <ele>56.6</ele>
        <time>2022-10-29T19:10:22Z</time>
      </trkpt>
      <trkpt lat="45.05028" lon="0.38604">
        <ele>56.7</ele>
        <time>2022-10-29T19:10:24Z</time>
      </trkpt>
      <trkpt lat="45.05037" lon="0.38618">
        <ele>56.7</ele>
        <time>2022-10-29T19:10:26Z</time>
      </trkpt>
      <trkpt lat="45.05046" lon="0.38632">
        <ele>56.7</ele>
        <time>2022-10-29T19:10:28Z</time>
      </trkpt>
      <trkpt lat="45.05055" lon="0.38646">
        <ele>56.7</ele>
        <time>2022-10-29T19:10:30Z</time>
      </trkpt>
      <trkpt lat="45.0506" lon="0.38653">
        <ele>56.7</ele>
        <time>2022-10-29T19:10:31Z</time>
      </trkpt>
      <trkpt lat="45.05065" lon="0.3866">
        <ele>56.7</ele>
        <time>2022-10-29T19:10:32Z</time>
      </trkpt>
      <trkpt lat="45.05074" lon="0.38674">
        <ele>56.6</ele>
        <time>2022-10-29T19:10:34Z</time>
      </trkpt>
      <trkpt lat="45.05083" lon="0.38688">
        <ele>56.5</ele>
        <time>2022-10-29T19:10:36Z</time>
      </trkpt>
      <trkpt lat="45.05092" lon="0.38702">
        <ele>56.4</ele>
        <time>2022-10-29T19:10:38Z</time>
      </trkpt>
      <trkpt lat="45.05101" lon="0.38716">
        <ele>56.2</ele>
        <time>2022-10-29T19:10:40Z</time>
      </trkpt>
      <trkpt lat="45.0511" lon="0.3873">
        <ele>55.8</ele>
        <time>2022-10-29T19:10:42Z</time>
      </trkpt>
      <trkpt lat="45.0512" lon="0.38745">
        <ele>55.3</ele>
        <time>2022-10-29T19:10:44Z</time>
      </trkpt>
      <trkpt lat="45.05125" lon="0.38752">
        <ele>55</ele>
        <time>2022-10-29T19:10:45Z</time>
      </trkpt>
      <trkpt lat="45.0513" lon="0.3876">
        <ele>54.8</ele>
        <time>2022-10-29T19:10:46Z</time>
      </trkpt>
      <trkpt lat="45.05134" lon="0.38769">
        <ele>54.6</ele>
        <time>2022-10-29T19:10:47Z</time>
      </trkpt>
      <trkpt lat="45.05137" lon="0.38778">
        <ele>54.5</ele>
        <time>2022-10-29T19:10:48Z</time>
      </trkpt>
      <trkpt lat="45.05137" lon="0.38788">
        <ele>54.4</ele>
        <time>2022-10-29T19:10:49Z</time>
      </trkpt>
      <trkpt lat="45.05137" lon="0.38799">
        <ele>54.3</ele>
        <time>2022-10-29T19:10:50Z</time>
      </trkpt>
      <trkpt lat="45.05136" lon="0.38818">
        <ele>54.2</ele>
        <time>2022-10-29T19:10:52Z</time>
      </trkpt>
      <trkpt lat="45.05134" lon="0.38827">
        <ele>54.3</ele>
        <time>2022-10-29T19:10:53Z</time>
      </trkpt>
      <trkpt lat="45.05132" lon="0.38834">
        <ele>54.3</ele>
        <time>2022-10-29T19:10:54Z</time>
      </trkpt>
      <trkpt lat="45.05129" lon="0.3885">
        <ele>54.3</ele>
        <time>2022-10-29T19:10:56Z</time>
      </trkpt>
      <trkpt lat="45.05128" lon="0.38869">
        <ele>54.3</ele>
        <time>2022-10-29T19:10:58Z</time>
      </trkpt>
      <trkpt lat="45.05128" lon="0.3889">
        <ele>54</ele>
        <time>2022-10-29T19:11:00Z</time>
      </trkpt>
      <trkpt lat="45.05128" lon="0.38913">
        <ele>53.5</ele>
        <time>2022-10-29T19:11:02Z</time>
      </trkpt>
      <trkpt lat="45.05129" lon="0.38934">
        <ele>53.1</ele>
        <time>2022-10-29T19:11:04Z</time>
      </trkpt>
      <trkpt lat="45.05131" lon="0.38956">
        <ele>52.9</ele>
        <time>2022-10-29T19:11:06Z</time>
      </trkpt>
      <trkpt lat="45.05133" lon="0.38978">
        <ele>52.8</ele>
        <time>2022-10-29T19:11:08Z</time>
      </trkpt>
      <trkpt lat="45.05133" lon="0.38998">
        <ele>52.8</ele>
        <time>2022-10-29T19:11:10Z</time>
      </trkpt>
      <trkpt lat="45.05133" lon="0.39018">
        <ele>52.8</ele>
        <time>2022-10-29T19:11:12Z</time>
      </trkpt>
      <trkpt lat="45.05131" lon="0.39028">
        <ele>52.8</ele>
        <time>2022-10-29T19:11:13Z</time>
      </trkpt>
      <trkpt lat="45.05129" lon="0.39036">
        <ele>52.8</ele>
        <time>2022-10-29T19:11:14Z</time>
      </trkpt>
      <trkpt lat="45.05127" lon="0.39052">
        <ele>52.8</ele>
        <time>2022-10-29T19:11:16Z</time>
      </trkpt>
      <trkpt lat="45.05127" lon="0.39059">
        <ele>52.9</ele>
        <time>2022-10-29T19:11:17Z</time>
      </trkpt>
      <trkpt lat="45.05127" lon="0.39065">
        <ele>52.9</ele>
        <time>2022-10-29T19:11:18Z</time>
      </trkpt>
      <trkpt lat="45.05129" lon="0.39076">
        <ele>52.9</ele>
        <time>2022-10-29T19:11:20Z</time>
      </trkpt>
      <trkpt lat="45.05129" lon="0.39081">
        <ele>53</ele>
        <time>2022-10-29T19:11:21Z</time>
      </trkpt>
      <trkpt lat="45.0513" lon="0.39084">
        <ele>53</ele>
        <time>2022-10-29T19:11:22Z</time>
      </trkpt>
      <trkpt lat="45.05121" lon="0.3909">
        <ele>53</ele>
        <time>2022-10-29T19:11:24Z</time>
      </trkpt>
      <trkpt lat="45.05119" lon="0.39092">
        <ele>53.1</ele>
        <time>2022-10-29T19:11:25Z</time>
      </trkpt>
      <trkpt lat="45.05116" lon="0.39093">
        <ele>53.1</ele>
        <time>2022-10-29T19:11:26Z</time>
      </trkpt>
      <trkpt lat="45.05114" lon="0.39092">
        <ele>53.1</ele>
        <time>2022-10-29T19:11:27Z</time>
      </trkpt>
      <trkpt lat="45.05112" lon="0.39091">
        <ele>53.1</ele>
        <time>2022-10-29T19:11:28Z</time>
      </trkpt>
      <trkpt lat="45.05111" lon="0.39089">
        <ele>53.2</ele>
        <time>2022-10-29T19:11:29Z</time>
      </trkpt>
      <trkpt lat="45.0511" lon="0.39088">
        <ele>53.2</ele>
        <time>2022-10-29T19:11:30Z</time>
      </trkpt>
      <trkpt lat="45.0511" lon="0.39089">
        <ele>53.2</ele>
        <time>2022-10-29T19:11:32Z</time>
      </trkpt>
    </trkseg>
  </trk>
</gpx>